GFSCGP_sfc_wetblb_000.txt.gz
Wetbulb
58.55 55.90 53.38 54.71 56.30 55.94 55.14 54.50 55.59 58.05 61.48 61.40 61.07 63.24 63.55 65.60 66.24 65.76 66.26 68.52 69.31 70.17 72.28 73.76 74.85 75.71 75.89 76.42 76.81 77.40 77.36 77.83 77.64 76.90 76.46 76.07 75.51 76.48 76.99 76.96 77.67 77.70 77.65 77.42
54.66 52.86 55.77 56.55 55.96 54.86 54.40 53.47 54.07 58.65 61.48 61.87 62.80 62.60 65.03 65.52 64.45 66.16 66.27 67.83 68.79 70.27 71.41 73.17 74.22 75.04 75.49 75.92 76.63 77.16 77.57 78.33 78.25 77.49 78.47 77.27 76.38 75.86 76.03 77.30 77.07 76.41 75.91 76.10
51.94 53.65 57.04 55.54 54.81 54.18 54.78 53.72 54.17 55.65 61.24 62.60 62.54 61.06 63.84 65.94 66.92 67.11 68.23 69.02 70.11 70.29 70.78 72.14 72.94 74.11 75.09 75.36 76.30 76.82 77.64 77.89 78.36 77.81 77.05 75.10 73.77 74.40 72.38 73.34 72.75 74.76 74.78 74.52
55.27 56.36 54.80 54.61 54.15 55.72 53.37 56.81 55.83 56.01 58.97 53.99 61.93 52.20 62.38 64.63 65.29 66.52 67.16 68.91 69.65 70.70 71.66 72.19 72.52 73.60 74.17 75.14 76.68 78.43 78.76 78.25 76.57 74.89 73.65 72.68 69.44 68.78 70.51 71.08 71.50 72.67 73.02 73.13
54.20 54.15 54.24 53.84 54.61 56.64 55.08 59.13 58.31 58.35 58.69 58.18 59.50 55.51 57.42 64.14 63.16 64.92 66.92 67.88 68.91 70.53 71.55 71.61 71.71 72.91 74.15 75.97 76.66 76.77 76.12 74.98 74.08 73.59 72.53 69.81 70.01 69.74 70.30 69.86 70.56 71.77 72.06 72.40
56.05 57.84 57.05 56.27 56.34 56.62 60.49 59.98 59.26 59.16 56.44 51.41 54.29 54.94 53.11 57.64 62.23 64.24 66.98 68.41 69.23 69.99 71.16 72.42 72.71 73.67 74.61 75.20 74.53 73.32 73.63 73.47 73.20 71.15 70.75 70.60 69.78 69.34 68.32 69.13 68.72 68.63 69.44 70.43
54.51 54.79 56.88 57.89 55.62 58.18 58.13 55.39 49.62 48.45 48.44 47.91 54.96 53.33 54.25 57.92 63.24 64.60 65.62 68.19 69.66 70.06 70.51 71.38 72.51 73.05 73.30 73.44 72.12 71.56 72.56 72.40 72.71 69.63 69.28 69.18 69.18 69.39 69.46 69.24 67.50 68.59 67.83 68.10
51.45 49.79 54.91 57.35 56.29 54.69 55.02 54.00 49.82 44.46 45.61 47.95 54.78 49.45 54.55 61.76 63.70 64.60 66.71 68.64 69.79 69.60 70.08 71.06 72.79 72.67 72.95 72.34 71.50 71.15 71.99 71.77 70.84 69.76 70.13 70.80 70.28 68.42 68.56 69.11 68.59 67.56 67.22 67.57
51.64 51.46 56.51 57.00 57.68 57.53 54.69 52.35 55.13 50.20 51.24 48.03 50.70 54.62 58.97 62.13 62.46 63.49 65.78 67.64 69.08 68.46 69.45 70.72 72.19 72.48 72.25 71.03 71.18 71.43 71.81 71.43 70.46 69.60 71.04 70.92 70.86 70.40 69.26 69.97 70.19 68.31 69.15 67.81
54.85 51.32 55.46 55.86 57.52 56.85 56.85 57.51 51.16 51.78 46.12 45.11 48.90 49.58 53.05 56.81 58.47 62.71 63.81 66.44 69.15 68.39 69.25 70.60 71.35 71.60 71.06 70.64 71.22 71.38 71.71 71.06 70.53 70.16 70.31 69.04 69.22 69.74 69.57 69.44 69.02 69.08 69.40 69.28
55.86 54.17 53.98 56.20 54.79 53.80 54.39 53.88 55.05 54.35 52.39 47.71 46.60 50.48 58.00 57.22 58.91 60.25 64.51 66.93 68.93 67.99 68.05 69.87 71.29 71.86 70.27 70.54 70.47 70.59 70.61 70.29 69.82 70.19 69.79 69.32 68.91 68.79 68.62 68.20 69.06 69.33 69.59 69.40
56.10 54.37 51.76 52.78 56.78 57.86 57.04 55.30 55.65 51.31 51.75 51.96 50.66 49.95 59.34 59.18 59.95 61.14 62.70 67.10 68.91 69.77 67.54 67.92 70.86 71.23 69.42 69.71 69.12 69.20 69.49 69.15 69.18 69.13 68.90 68.58 68.94 69.05 68.35 68.09 68.52 69.09 68.63 69.40
56.63 53.06 49.74 51.61 54.73 56.42 55.14 56.42 56.61 56.16 55.39 52.13 48.95 51.64 61.17 60.73 61.66 63.17 63.56 66.68 68.74 69.81 68.52 67.43 69.22 69.45 68.95 69.27 69.30 68.79 68.96 67.67 67.78 68.39 68.08 68.22 68.16 68.30 68.01 68.00 68.16 68.43 68.82 68.72
60.54 54.78 52.86 48.77 52.00 54.38 53.52 54.79 56.19 55.25 52.29 52.62 52.57 53.96 56.94 59.15 60.37 61.72 64.03 66.41 67.86 69.00 68.78 68.07 68.24 68.47 69.09 69.23 69.74 69.56 68.66 67.71 67.51 67.61 67.22 67.66 68.24 68.24 67.90 68.12 68.45 68.39 69.00 68.73
58.03 54.55 55.26 54.47 54.42 54.58 54.17 54.49 55.03 54.54 55.04 52.68 53.86 54.38 57.67 59.25 60.00 62.08 62.83 64.15 66.49 66.89 67.68 68.22 67.85 68.07 69.15 69.31 69.74 69.36 68.86 68.54 68.59 67.54 67.52 67.58 68.53 68.75 68.35 68.66 68.97 68.93 68.60 68.10
59.78 55.76 56.85 53.33 54.59 54.25 52.66 54.27 55.08 55.31 55.23 55.50 55.05 54.55 58.38 59.05 60.30 59.63 60.83 62.72 64.49 66.32 66.99 67.93 68.41 68.48 68.71 68.83 68.78 68.45 68.44 67.82 68.90 68.36 67.52 68.22 68.62 69.05 69.20 68.57 68.66 68.34 67.81 67.60
58.72 57.21 55.92 51.72 54.65 54.11 51.62 54.58 55.26 55.94 57.04 56.17 52.64 56.27 58.59 57.84 58.83 60.05 62.52 63.24 63.71 65.47 67.11 67.33 67.94 68.51 68.78 68.50 67.79 67.18 67.88 68.18 68.41 68.50 68.17 68.17 69.02 68.70 68.85 67.80 67.89 67.54 67.57 67.53
59.04 58.63 56.70 52.54 54.54 47.03 54.76 58.52 57.73 56.32 56.95 57.33 56.89 57.34 57.91 58.87 61.46 63.59 64.38 63.76 63.90 64.98 66.76 67.67 68.21 68.77 68.76 67.78 66.49 68.01 67.20 68.13 68.36 68.33 68.11 68.33 68.53 68.31 68.46 67.54 66.96 67.22 67.36 66.82
60.03 58.61 54.03 51.51 51.20 53.39 54.15 55.79 55.61 55.26 55.33 58.65 57.75 57.57 57.97 60.09 62.81 62.43 63.90 64.25 64.89 66.19 67.86 68.62 69.11 68.81 68.28 67.36 67.27 67.60 67.53 67.47 67.24 67.19 67.66 67.89 68.41 68.12 68.02 67.17 67.24 67.30 66.63 65.55
58.34 59.89 55.20 53.06 48.60 46.88 54.85 57.86 59.93 59.08 52.23 58.35 57.96 57.74 58.02 60.41 55.98 60.42 65.42 64.80 65.88 67.32 68.60 68.65 68.49 67.83 67.38 67.98 67.51 67.49 67.09 67.37 66.67 67.01 67.32 67.49 68.25 68.24 67.38 67.49 67.14 67.15 66.53 65.13
54.38 55.28 51.89 51.68 50.43 52.41 58.31 58.45 59.51 50.77 53.24 59.33 58.85 58.99 59.61 60.14 61.07 64.80 66.23 65.99 66.87 67.36 68.00 68.64 68.09 66.88 67.70 69.08 68.84 67.79 67.27 66.70 67.62 67.72 67.14 67.42 68.71 69.34 68.97 67.78 67.51 66.55 66.26 65.86
53.88 52.59 51.68 52.73 50.59 48.45 59.12 57.40 54.56 60.10 61.41 60.57 61.25 61.41 61.66 63.86 65.11 65.10 66.08 66.39 66.37 66.57 66.81 67.68 67.12 67.20 68.69 69.70 69.48 68.50 68.13 70.42 69.32 68.52 67.87 68.66 69.04 68.71 66.43 68.49 66.87 65.97 65.86 65.03
51.81 55.74 54.04 54.59 54.93 59.99 59.96 59.44 61.30 61.89 61.24 62.38 63.02 63.83 64.23 64.29 64.36 65.08 65.64 66.31 66.40 66.78 66.72 67.12 67.12 68.29 69.14 69.59 69.52 68.22 70.05 70.41 69.54 69.40 68.05 66.94 65.71 67.39 68.24 67.57 66.80 64.16 64.06 62.33
55.01 56.66 54.53 54.55 57.91 57.51 57.93 59.67 61.29 62.14 62.01 62.93 63.33 63.23 64.47 64.60 64.16 64.45 65.55 65.74 65.94 66.40 66.42 66.97 66.71 66.39 66.88 68.13 68.45 69.00 69.63 69.47 68.10 67.09 66.20 66.34 66.98 66.81 67.46 66.31 64.81 63.46 61.77 61.31
55.72 55.98 54.41 55.05 57.09 57.10 58.65 59.64 59.72 60.52 61.57 61.69 62.73 63.09 64.14 64.57 63.62 63.63 63.38 64.01 64.46 65.22 65.39 65.73 66.38 66.34 66.31 67.75 67.38 67.43 67.59 67.06 66.05 65.83 65.49 66.06 65.67 65.49 65.45 66.55 62.52 63.02 57.30 57.43
56.79 54.94 53.19 52.07 55.16 55.70 56.86 57.47 59.32 59.41 60.62 61.21 62.14 62.58 63.62 63.54 62.25 62.24 62.59 64.26 64.64 65.26 65.06 65.46 65.74 65.78 64.90 65.12 65.25 66.38 67.43 67.08 66.84 65.30 64.52 64.09 63.49 63.33 62.59 63.56 60.14 46.36 46.70 44.42

GFSCGP_sfc_wetblb_003.txt.gz
Wetbulb
59.43 55.93 54.26 55.97 57.75 57.88 57.88 56.15 56.54 57.83 61.11 60.30 59.81 61.09 64.06 66.29 65.81 65.56 67.03 68.44 68.56 69.31 71.45 72.92 73.86 75.07 75.59 76.43 77.22 77.53 77.71 78.98 78.51 78.38 77.29 78.85 75.45 77.49 76.69 79.21 77.87 77.60 77.52 77.57
57.16 54.49 57.25 57.65 57.18 56.74 55.23 54.95 55.91 58.43 60.36 59.70 59.27 61.28 63.25 64.94 65.58 65.80 66.00 67.15 67.71 68.71 70.06 72.21 73.53 74.45 74.87 75.59 76.67 77.53 78.03 78.89 78.86 77.99 78.72 78.03 76.61 75.28 75.06 76.05 76.98 77.23 75.85 76.94
54.20 56.20 58.38 56.72 55.77 54.71 54.91 53.98 54.35 55.26 58.28 59.57 59.52 58.91 62.16 63.79 65.34 66.18 66.21 67.14 67.86 68.36 68.63 70.64 72.38 73.29 74.04 75.30 76.48 77.34 78.32 78.79 79.33 78.94 78.74 76.84 76.08 75.43 72.99 72.86 73.11 74.25 74.11 73.89
54.87 56.59 55.45 54.90 54.36 55.33 53.02 56.24 55.64 54.85 55.97 53.29 58.57 51.95 60.44 63.61 62.65 63.67 65.45 66.24 66.89 67.98 68.65 69.24 70.29 71.60 72.59 74.46 76.42 77.75 78.51 79.22 78.06 76.37 74.86 74.47 70.72 68.68 71.01 70.68 71.07 72.09 72.54 72.84
53.43 54.74 54.86 54.25 55.02 56.51 55.34 57.53 55.72 55.38 55.02 55.45 55.68 54.23 58.84 59.49 62.52 63.39 64.03 66.06 67.68 68.71 69.01 69.13 68.84 71.04 72.49 74.34 75.50 77.28 78.15 76.50 75.52 74.34 73.41 70.39 71.13 68.53 68.86 69.35 70.64 73.08 73.60 72.48
56.15 59.21 57.36 56.70 57.55 57.45 59.34 57.55 57.08 57.13 55.44 50.97 55.54 54.51 55.17 59.43 63.21 64.86 65.88 65.35 66.65 68.47 69.26 70.41 70.60 71.71 72.64 74.56 75.59 76.15 75.20 75.24 74.51 72.81 72.20 71.04 69.96 69.71 68.04 69.32 68.61 68.72 68.79 69.84
55.49 55.71 57.56 58.28 55.90 57.94 57.52 55.30 50.38 49.43 49.62 49.75 55.29 53.19 55.88 58.29 61.68 61.49 64.83 66.47 67.05 68.08 68.90 70.05 70.55 71.61 73.23 73.67 74.58 73.55 74.09 73.69 73.71 71.74 70.26 69.25 69.92 70.37 70.16 70.14 68.36 69.10 67.86 68.14
52.14 50.08 55.45 57.91 56.42 54.84 55.41 55.07 50.86 46.45 47.51 49.85 54.99 50.77 53.60 58.10 61.79 63.97 65.22 66.58 68.13 68.87 69.47 69.96 71.37 72.32 73.35 73.43 73.46 72.22 73.27 73.46 72.97 71.03 71.51 71.78 71.26 68.81 68.81 69.66 69.10 68.12 67.97 68.01
52.88 52.25 57.09 57.46 58.20 57.88 55.23 52.61 56.38 51.92 52.73 50.28 52.28 55.10 57.61 61.22 60.56 62.36 63.44 65.29 67.86 68.93 69.94 70.03 71.28 73.14 72.97 73.25 72.68 72.00 73.34 73.53 72.20 70.96 72.73 72.12 71.61 71.07 70.23 70.84 70.70 68.83 70.21 69.00
56.54 52.59 56.31 56.82 58.01 58.38 57.20 57.48 51.69 52.35 47.10 46.83 50.48 51.18 52.41 57.85 58.48 60.27 61.71 63.65 66.52 69.56 70.47 70.26 70.83 73.09 72.95 73.29 71.87 71.63 72.36 72.44 71.97 71.42 71.66 69.82 69.46 70.39 70.76 70.41 69.96 70.10 70.20 70.24
56.64 55.35 54.44 56.50 54.92 54.40 54.65 54.37 55.64 55.07 53.79 49.35 48.03 51.32 58.60 57.80 59.02 59.13 60.92 62.82 66.21 68.83 70.54 69.92 70.98 72.48 72.96 72.60 71.15 70.07 71.12 71.38 71.35 71.26 71.14 70.03 69.54 69.64 69.99 69.21 69.21 69.86 70.48 70.43
56.70 54.90 52.30 53.52 57.12 57.55 56.86 55.25 55.54 51.68 51.92 53.12 52.07 51.54 59.10 59.01 59.65 60.43 61.31 63.07 66.16 70.16 71.25 70.55 71.19 71.88 71.95 70.94 70.58 69.42 69.47 69.94 70.46 70.68 70.56 69.55 69.78 69.68 69.04 69.03 69.00 69.73 69.31 70.02
57.02 53.44 50.49 51.81 55.15 56.70 54.55 55.96 56.43 56.17 55.54 53.78 50.92 52.44 60.86 60.16 60.76 61.88 62.34 63.09 66.36 69.67 71.06 70.67 71.11 71.57 71.95 70.41 71.58 69.27 68.68 68.81 69.31 70.05 69.66 69.46 69.37 69.35 69.54 69.40 69.26 69.18 68.87 69.04
61.55 54.61 52.69 49.23 52.63 55.54 53.55 54.06 55.60 55.20 52.96 53.33 53.81 54.86 58.95 59.85 60.49 61.70 62.75 64.40 65.46 68.45 70.47 70.39 70.17 71.53 72.77 71.76 71.95 69.99 68.83 68.70 68.61 68.62 68.17 68.90 69.22 69.80 69.47 69.84 69.42 69.48 69.60 69.20
57.38 54.24 54.89 54.67 54.35 55.14 54.51 54.13 54.21 54.41 55.31 52.91 54.50 54.51 57.92 59.66 60.03 61.73 61.91 62.88 64.37 66.91 69.35 70.71 69.08 70.85 73.32 71.88 72.51 70.39 69.15 69.37 69.01 68.64 68.29 68.58 69.53 70.19 70.22 69.69 69.60 69.44 69.25 68.69
59.06 54.75 55.90 53.50 54.90 54.00 53.11 54.60 55.07 55.04 55.33 55.12 55.33 55.71 60.10 60.56 60.81 60.60 61.02 61.44 62.07 64.31 67.95 70.26 70.47 70.11 71.56 71.01 70.19 69.59 68.90 69.13 69.88 69.13 68.52 69.12 69.33 69.62 69.62 69.65 69.31 69.30 68.85 68.91
58.83 56.24 55.17 52.08 54.91 54.27 51.40 54.00 54.71 55.60 57.00 56.48 54.00 57.74 60.59 59.64 59.86 60.68 61.95 62.32 62.72 63.56 66.48 68.81 70.54 71.66 72.18 70.52 71.49 69.29 68.94 69.58 69.06 69.33 69.40 69.03 69.31 69.29 69.54 68.91 68.68 68.36 68.77 69.93
59.47 59.14 56.67 52.88 54.35 47.56 54.97 58.08 57.56 56.11 57.09 58.24 58.89 59.38 59.59 59.78 60.60 62.39 63.79 64.04 64.58 64.90 65.21 68.48 69.93 70.98 71.22 71.13 70.39 69.91 68.90 70.20 69.90 69.35 69.13 69.22 69.28 69.02 69.38 69.12 68.68 69.13 69.12 69.49
59.40 59.16 55.01 51.68 50.81 53.97 55.23 57.36 56.72 56.05 56.51 59.51 58.44 59.84 60.04 60.10 60.94 61.39 63.68 65.21 66.13 67.17 67.83 68.84 70.44 71.06 71.83 70.85 70.49 70.00 68.31 68.60 68.51 68.64 69.03 69.22 69.04 68.96 69.11 68.32 68.83 69.29 69.21 68.03
58.78 59.89 55.47 54.11 49.55 47.09 55.01 58.08 60.13 59.76 53.28 60.01 60.54 59.80 58.88 60.07 56.11 61.30 65.52 66.03 66.99 68.15 69.45 69.81 70.71 71.12 70.86 70.43 67.64 68.89 68.18 68.87 68.43 69.15 68.83 69.39 69.31 69.07 68.66 69.37 69.48 69.34 69.09 66.73
54.72 55.09 52.12 51.55 50.79 52.88 58.07 59.99 60.93 52.92 55.40 61.04 60.27 59.97 59.43 59.22 60.92 65.03 66.12 66.75 68.33 69.19 70.12 70.94 70.79 70.07 72.07 70.90 70.61 70.49 69.76 68.83 70.03 69.26 69.12 70.02 69.76 70.76 70.20 69.98 65.51 67.68 67.82 67.57
54.34 52.69 51.28 52.48 50.62 48.33 60.04 59.40 55.85 61.40 62.24 62.15 61.90 61.56 61.31 62.20 62.88 63.84 66.33 67.07 67.86 68.59 69.39 70.15 69.55 69.57 70.04 71.42 71.92 71.08 72.01 72.92 71.75 71.33 69.86 70.38 71.49 68.56 66.81 70.01 68.82 68.46 67.88 66.69
53.27 57.34 55.19 55.77 53.32 62.18 62.46 61.47 62.66 62.94 62.03 61.97 62.19 62.61 62.86 62.11 62.02 63.56 65.33 67.58 67.94 68.68 69.04 69.62 69.03 69.69 70.83 71.27 71.43 70.36 72.72 72.31 71.29 71.46 71.35 70.55 70.05 67.99 67.67 68.92 69.16 66.01 67.00 66.23
57.51 59.06 55.96 57.18 59.21 59.71 59.47 61.54 62.50 62.95 62.31 62.94 63.33 63.66 63.96 63.04 64.07 64.79 66.34 67.74 68.01 68.50 68.41 68.59 68.74 68.39 69.23 70.80 71.06 71.34 71.41 71.74 71.16 71.15 69.70 69.56 69.75 68.49 68.82 68.09 66.28 64.24 63.26 60.97
56.69 58.40 56.25 56.65 59.41 59.38 60.74 60.24 60.65 61.43 62.87 63.01 64.09 64.29 64.18 64.71 64.44 66.08 67.11 68.09 68.29 68.43 68.59 68.71 68.00 67.74 68.12 69.37 69.50 69.99 70.49 70.98 69.46 68.47 67.60 66.94 66.18 66.84 66.29 67.54 62.67 62.74 58.50 56.13
57.19 56.17 54.36 54.60 57.66 57.84 58.71 59.10 60.79 60.86 61.56 62.77 63.27 64.33 65.74 66.38 66.28 66.63 66.64 66.82 67.20 67.16 66.98 67.49 67.24 66.40 67.63 68.01 68.32 68.42 69.30 68.72 67.86 66.53 65.86 64.87 64.36 63.90 63.18 62.33 60.51 46.02 46.29 43.40

GFSCGP_sfc_wetblb_006.txt.gz
Wetbulb
60.16 55.64 53.12 55.22 57.40 58.37 58.42 56.92 56.81 58.82 62.10 61.26 60.14 60.47 62.85 64.17 65.15 65.76 66.48 66.90 67.30 67.83 71.39 72.62 74.06 74.83 75.11 75.49 77.38 75.77 76.52 80.70 79.90 78.05 76.46 77.40 75.82 77.84 77.22 78.27 78.47 78.43 78.65 77.42
56.57 53.38 56.60 57.89 58.03 56.86 56.62 55.44 55.44 58.67 60.71 60.41 60.61 60.00 63.04 63.63 63.97 65.67 66.53 66.89 67.23 68.33 69.04 70.78 72.10 72.43 73.38 76.02 77.10 78.23 78.84 79.43 79.48 79.60 79.14 78.41 78.27 77.69 77.30 76.78 77.93 77.80 76.29 75.87
54.00 55.46 57.79 56.78 55.73 54.85 55.50 53.84 54.35 56.22 58.70 59.25 58.22 58.57 58.48 63.24 64.52 65.24 66.20 67.65 67.86 67.96 68.15 70.24 71.48 72.25 73.53 74.92 76.35 77.65 78.72 78.79 79.63 79.85 80.08 78.66 77.88 77.88 75.64 76.35 73.09 74.16 74.12 74.84
55.11 57.60 56.44 55.68 54.49 55.09 52.46 55.92 55.33 54.81 55.21 51.85 58.33 50.74 58.10 60.89 61.62 63.65 64.40 65.57 66.64 67.56 69.00 69.76 70.94 72.18 73.08 74.77 76.61 77.92 79.04 79.68 79.51 79.63 78.53 76.87 74.09 70.78 74.64 74.71 73.55 73.07 74.58 74.30
53.08 54.69 54.90 54.47 55.14 56.31 53.71 56.60 55.15 54.93 53.49 53.16 53.81 52.33 57.03 61.49 59.70 61.22 63.46 64.82 65.95 67.27 68.06 68.69 69.71 71.41 72.65 74.75 75.37 77.41 79.22 79.11 78.10 77.47 76.35 74.29 73.91 71.25 71.99 72.15 72.99 74.22 73.40 74.17
54.93 57.62 56.02 55.26 56.45 56.52 56.97 57.12 55.85 54.82 53.31 49.39 52.79 53.79 54.13 57.66 62.12 61.68 63.22 64.54 66.07 66.90 68.12 69.00 70.35 71.52 71.89 74.04 75.01 76.96 77.40 77.12 77.00 75.85 75.13 74.08 73.25 72.60 71.07 71.67 71.02 70.50 71.64 71.83
53.38 54.07 56.99 57.34 54.78 56.96 56.35 54.80 50.01 48.49 48.44 47.94 54.36 52.93 56.97 60.90 62.16 63.89 63.48 63.85 66.01 67.48 68.55 69.42 69.30 70.12 71.69 73.00 74.74 76.11 75.57 75.12 75.45 74.55 73.96 72.88 72.54 73.72 73.18 72.13 71.54 72.10 69.94 71.30
49.59 48.53 54.93 56.98 55.70 54.52 54.55 54.44 50.18 46.57 47.12 49.33 55.36 51.80 56.20 60.99 64.30 65.92 67.17 67.23 66.51 66.58 68.92 69.60 71.07 70.90 72.32 73.52 75.18 74.54 74.37 74.02 74.24 74.02 74.13 73.49 74.49 72.60 72.35 73.65 71.54 70.60 70.18 70.91
50.61 51.31 57.14 56.80 57.71 57.31 54.72 52.59 55.86 52.02 52.58 49.55 52.11 55.46 57.99 59.55 59.39 59.56 61.60 61.97 65.54 65.89 67.70 69.46 71.25 71.13 72.98 73.40 74.29 74.35 74.07 74.35 73.93 73.03 74.71 74.21 74.29 73.71 73.19 73.92 73.71 71.07 73.56 70.07
55.29 52.06 55.45 56.25 57.70 57.60 56.16 57.35 51.29 52.04 48.03 46.62 50.07 51.56 52.41 58.72 58.51 59.66 59.59 60.60 63.75 67.52 67.94 68.98 70.09 71.59 73.54 73.88 74.26 74.00 74.44 74.21 73.27 73.22 73.17 72.88 73.20 73.24 73.47 73.34 72.41 72.49 72.52 72.62
56.55 55.25 54.07 55.85 54.20 53.24 54.45 53.63 54.34 53.75 52.41 48.37 47.36 49.90 59.41 60.94 60.82 59.22 60.27 61.78 62.54 64.19 67.80 70.35 70.89 72.47 73.92 73.49 73.49 72.35 72.97 73.39 72.35 72.61 73.33 73.44 71.79 71.84 72.59 71.78 71.62 72.07 73.13 73.00
56.82 54.88 52.33 53.26 56.85 57.52 56.19 55.05 55.68 51.34 51.95 53.47 52.92 50.91 59.62 59.88 59.58 59.95 61.02 61.52 64.03 66.16 68.06 71.40 71.31 72.93 73.16 72.94 72.53 71.35 70.93 71.49 71.79 72.18 73.25 72.55 72.23 72.24 72.37 71.77 71.62 72.55 72.02 72.44
57.32 54.45 50.51 51.90 54.22 56.22 54.08 55.49 55.13 54.89 54.64 53.93 50.29 51.88 62.13 60.15 60.45 61.81 61.40 62.86 67.40 68.36 71.24 72.16 71.64 71.33 72.49 72.68 72.29 70.61 70.08 69.94 70.84 71.68 70.07 71.69 71.88 71.58 71.78 71.87 72.11 71.98 71.70 70.93
61.33 54.20 53.96 48.50 52.71 54.95 53.57 53.72 54.24 53.62 52.38 52.42 52.89 55.63 58.20 59.57 61.11 63.83 63.58 65.24 65.77 69.30 69.35 71.79 71.78 71.94 72.39 72.54 71.71 71.16 69.81 69.32 69.86 69.49 69.91 70.86 71.16 71.45 71.27 72.20 72.41 71.79 71.35 70.95
57.11 55.88 54.06 53.39 53.65 53.86 54.06 53.83 53.88 52.95 54.71 52.24 54.59 55.28 59.05 59.06 61.08 61.91 62.63 63.58 64.40 67.64 69.02 71.68 71.25 72.05 72.51 72.33 71.64 71.67 69.98 70.85 70.78 70.06 70.48 71.22 72.10 71.90 72.01 71.84 71.76 71.39 71.27 70.78
57.50 55.04 54.62 52.22 53.93 53.66 52.18 53.53 54.83 54.47 53.95 53.80 54.75 56.17 59.91 62.45 63.32 61.75 60.92 61.77 63.95 65.47 66.08 69.27 71.97 71.53 73.22 72.48 71.46 70.31 70.18 70.84 72.16 67.63 69.67 71.58 71.64 71.19 70.83 71.48 71.79 71.19 71.26 71.07
58.18 54.75 54.85 50.73 53.53 53.32 50.81 53.50 53.59 54.79 56.23 55.64 54.18 59.02 61.99 60.79 60.76 60.53 62.14 62.45 64.05 65.46 66.64 67.59 71.18 70.67 73.83 72.26 71.64 69.65 70.58 71.19 70.90 70.10 70.54 70.92 71.18 70.72 71.16 71.08 70.96 71.09 71.45 70.96
59.50 59.15 56.33 51.83 54.85 47.25 54.14 58.11 56.68 55.21 56.31 57.37 57.84 59.49 60.83 60.70 61.01 62.23 64.16 64.44 63.37 65.86 66.72 68.11 69.89 72.20 73.50 72.60 71.58 71.61 70.40 70.34 71.01 70.33 70.32 70.54 70.71 70.35 71.09 70.75 70.54 71.31 71.02 70.46
54.89 58.57 54.12 51.78 50.36 53.08 54.97 57.16 57.22 55.43 56.76 59.56 58.66 60.29 61.92 61.23 60.34 63.24 65.27 64.39 64.81 67.49 70.03 70.38 68.97 71.03 73.44 71.93 71.94 71.40 69.02 69.63 69.86 69.46 69.95 70.35 70.51 70.19 70.35 70.17 70.33 70.73 69.71 69.30
57.84 58.57 55.30 53.98 49.13 47.12 56.16 58.82 60.31 59.44 52.81 60.15 59.98 59.99 60.24 60.36 55.68 61.52 66.98 65.64 65.99 67.10 69.90 71.02 72.07 72.77 72.97 72.31 72.11 70.19 68.60 69.32 68.46 69.02 70.06 70.82 70.86 70.81 70.15 70.18 69.87 69.23 71.14 68.52
54.27 55.64 52.15 51.81 50.18 52.17 58.18 59.61 60.00 49.84 50.77 59.21 61.59 60.98 61.26 60.78 62.81 67.45 67.61 66.66 67.54 68.51 69.63 71.33 72.98 72.72 72.70 72.78 71.08 68.27 68.52 68.87 70.06 70.66 71.03 71.17 71.41 71.67 71.57 71.85 71.06 69.71 67.38 66.55
54.82 52.86 51.49 53.62 50.94 48.87 60.64 58.99 55.25 62.56 63.61 62.47 62.01 63.24 63.06 62.80 63.22 63.98 65.22 68.05 68.01 68.98 70.00 71.15 72.58 72.17 72.89 73.01 72.07 69.02 69.37 72.09 74.02 72.71 71.89 72.04 72.27 69.48 67.55 70.99 70.08 67.42 68.70 66.33
52.56 54.64 53.39 54.84 52.97 58.20 62.43 62.06 63.58 63.28 63.98 62.42 62.98 62.55 62.77 61.89 62.00 62.98 64.19 66.53 68.25 68.93 70.02 71.05 71.48 73.00 72.64 72.43 74.12 72.94 73.80 75.12 74.57 74.56 73.51 73.06 73.44 71.63 71.91 69.89 68.02 67.78 66.09 65.36
57.15 59.18 56.65 54.29 55.11 55.15 60.57 60.94 61.77 62.01 61.43 61.35 61.91 61.96 62.29 61.63 62.31 64.25 65.52 67.41 68.74 66.07 69.57 70.34 71.43 71.20 71.35 74.10 73.49 73.57 72.93 73.94 72.61 72.90 73.15 73.09 71.63 71.86 70.70 68.26 68.96 63.63 66.00 64.14
55.96 54.46 52.99 56.74 54.69 59.77 59.55 59.84 60.91 61.05 62.19 61.66 62.15 61.91 61.98 62.99 64.07 65.47 66.13 70.23 65.69 70.09 66.77 66.89 66.07 64.99 63.90 64.41 65.11 66.38 68.46 69.06 70.86 71.41 71.70 71.22 69.20 68.52 67.39 58.58 56.96 62.66 53.63 53.41
56.89 55.31 54.01 52.23 56.95 57.99 57.22 59.19 60.21 59.62 59.78 61.43 61.93 61.40 62.55 63.84 65.66 67.63 69.48 67.00 68.25 67.84 67.89 65.82 67.14 65.74 62.53 64.05 65.86 67.74 67.22 69.76 69.81 68.94 67.95 67.09 66.57 61.45 66.13 60.60 56.50 45.64 45.23 43.07

GFSCGP_sfc_wetblb_009.txt.gz
Wetbulb
52.17 50.80 48.89 51.27 52.20 52.82 55.29 54.16 54.86 57.96 59.42 57.87 56.54 59.32 61.79 63.54 63.48 62.66 63.46 64.61 65.83 67.08 69.60 70.94 71.47 72.03 72.95 72.54 72.50 72.86 73.34 74.79 73.69 73.06 72.01 72.35 70.23 72.62 72.83 73.36 74.22 73.80 73.45 73.65
49.84 49.84 54.85 56.44 55.32 54.34 53.52 55.38 54.25 57.37 60.27 57.77 56.71 57.58 60.75 61.91 61.79 63.50 63.79 63.95 64.91 65.18 69.32 70.38 70.84 70.95 72.01 72.10 73.00 73.11 73.70 74.37 73.73 73.89 73.88 73.50 73.37 73.17 73.20 73.45 74.01 73.27 73.42 73.62
48.77 53.52 57.65 55.67 53.15 52.63 51.72 49.77 53.28 55.11 59.24 59.67 58.23 54.87 56.99 61.52 62.42 64.13 65.20 65.18 65.42 66.29 67.34 69.22 70.35 70.57 71.91 72.62 73.16 73.54 74.25 73.98 74.38 73.86 74.77 73.85 73.14 72.26 69.80 69.92 70.04 69.41 69.29 70.32
51.02 55.63 55.11 53.35 52.17 52.74 46.52 53.84 53.53 53.54 55.36 49.35 57.49 46.96 53.72 57.33 57.86 62.09 63.85 64.55 64.71 65.97 66.48 67.37 67.45 67.86 72.24 72.95 74.16 74.96 74.34 74.08 74.77 74.94 72.73 71.20 69.11 62.41 67.09 67.45 67.14 66.98 69.31 68.24
50.67 52.59 52.63 51.93 52.72 53.81 50.13 54.17 52.11 51.54 48.72 48.10 51.28 45.81 52.28 56.23 54.79 58.81 61.53 64.34 65.00 65.94 66.59 67.38 68.04 68.99 71.38 73.54 73.72 74.61 74.17 74.96 73.93 68.97 68.82 65.81 62.25 63.33 65.22 65.38 64.30 63.02 65.25 67.73
52.42 55.92 53.99 53.69 55.51 55.00 55.27 51.34 51.03 48.94 45.44 40.41 46.09 46.67 49.02 53.64 56.57 59.19 61.73 63.72 64.91 65.85 66.94 67.84 69.11 69.98 71.31 72.87 74.35 74.90 74.24 71.22 70.69 67.37 65.80 63.67 62.40 62.61 62.76 63.79 62.85 64.02 63.94 65.08
51.07 51.76 53.45 54.22 50.44 52.65 51.03 47.68 41.91 40.44 40.24 40.39 46.05 45.83 49.76 58.05 60.31 59.92 60.27 61.75 62.07 65.70 66.67 67.10 67.59 68.54 70.42 71.59 73.30 74.65 71.73 69.43 68.88 67.27 67.17 64.75 63.86 63.50 62.78 63.27 64.30 63.59 63.11 65.15
45.22 44.45 50.74 53.52 49.83 48.22 48.34 47.46 43.29 38.91 39.87 44.29 50.37 46.12 50.58 60.98 62.10 62.86 62.76 62.24 63.01 62.13 66.10 66.51 66.99 67.62 70.01 71.26 73.28 72.78 70.68 69.75 68.37 67.64 65.47 64.35 64.55 63.94 64.66 66.63 65.23 63.13 62.70 64.27
45.15 46.20 53.36 54.15 54.12 52.59 49.31 46.47 50.20 44.68 47.22 42.72 47.33 50.51 55.88 59.45 59.56 61.77 62.31 61.70 61.63 62.38 65.03 66.03 67.01 67.49 69.77 71.04 72.61 71.55 70.46 69.86 68.66 67.69 66.36 65.55 65.77 65.39 65.84 65.56 64.88 63.83 66.00 65.22
48.63 44.49 51.39 53.48 53.75 53.69 50.99 52.75 46.01 43.99 38.90 38.50 44.60 48.93 48.24 51.82 54.46 56.67 60.78 60.33 61.36 62.02 65.47 66.43 66.77 68.20 69.83 71.72 71.94 71.25 70.83 69.87 69.41 68.10 67.75 67.78 67.38 66.69 65.91 65.48 64.43 64.76 64.34 65.79
51.02 46.97 49.40 52.15 48.95 48.47 49.03 47.49 48.31 46.66 44.88 39.82 40.40 45.31 53.73 55.63 55.75 55.10 55.45 59.24 60.65 62.73 63.75 65.58 67.90 68.91 70.14 71.48 71.15 70.66 70.53 70.07 68.93 68.59 68.08 67.69 67.80 66.80 66.35 65.38 64.78 64.99 65.50 66.22
51.92 47.70 47.15 48.95 52.87 54.38 51.49 48.96 49.22 44.08 42.79 45.33 44.94 47.09 57.76 57.50 57.01 57.18 57.84 59.24 59.27 61.38 63.49 66.15 66.97 67.80 70.27 70.45 70.27 70.10 70.59 69.73 68.18 68.45 68.24 66.66 64.37 64.84 65.69 64.93 64.82 65.09 64.90 65.49
52.05 48.95 44.52 47.65 50.24 52.35 50.39 50.69 49.46 49.87 46.55 43.06 43.56 46.90 57.14 56.71 55.63 57.38 57.43 59.39 60.43 60.69 64.90 64.92 63.24 66.00 69.79 69.94 69.00 69.10 69.94 69.48 68.11 67.75 67.93 65.88 65.29 64.42 64.32 64.94 64.89 64.95 64.73 64.33
57.71 48.16 47.05 43.78 48.28 50.86 48.65 51.05 50.67 46.98 42.91 43.76 46.28 50.70 53.25 55.42 57.46 58.74 58.80 58.31 61.61 61.82 66.41 66.39 68.17 69.24 69.55 69.72 68.32 67.86 68.24 68.73 68.11 68.02 67.68 65.92 65.70 64.95 65.32 65.38 65.38 65.37 65.10 64.68
53.51 46.92 48.35 49.38 51.45 51.31 52.23 51.72 50.81 47.35 47.02 45.69 47.96 51.82 52.69 55.12 56.50 57.35 58.40 58.41 58.39 60.23 63.17 66.27 66.55 69.23 69.20 69.05 68.05 67.48 67.02 67.57 67.83 67.11 66.22 65.75 65.86 65.56 65.83 65.69 66.05 65.60 65.10 65.56
53.61 48.30 49.64 47.15 51.77 51.23 49.74 52.10 52.80 52.59 51.06 49.37 49.69 51.46 57.01 58.27 58.07 57.73 58.14 57.97 58.00 58.24 59.34 63.62 67.68 67.96 69.01 69.20 67.65 67.23 66.08 65.74 66.43 66.04 65.84 66.86 66.82 66.07 65.75 65.60 65.71 64.98 64.64 65.02
51.34 50.73 46.78 43.14 48.70 49.03 45.97 49.85 50.95 51.92 53.24 52.28 48.02 52.82 57.06 56.42 57.35 57.05 57.01 57.93 57.79 59.04 59.62 59.44 61.39 67.30 69.27 69.58 68.53 66.73 65.57 65.95 65.71 65.19 65.67 66.20 66.58 65.78 65.61 65.91 66.10 65.79 65.41 64.26
52.69 51.74 47.97 43.88 46.79 39.71 48.16 53.92 54.96 53.99 55.09 55.41 55.24 57.07 57.54 57.15 57.39 57.55 57.82 57.66 58.52 59.14 60.21 60.22 62.05 68.00 70.00 69.21 67.44 66.94 67.16 65.29 64.56 64.57 64.97 65.85 65.37 65.44 65.69 65.37 65.23 65.14 64.02 63.12
54.75 50.80 47.15 43.95 42.51 46.17 51.50 53.46 54.00 52.31 51.31 56.47 55.56 57.30 58.31 58.34 59.61 58.79 61.08 60.32 59.88 61.58 62.40 62.89 63.30 68.59 69.73 68.23 67.62 66.88 65.42 64.58 64.99 64.47 65.14 65.94 65.83 65.01 65.28 65.39 65.04 64.73 64.35 63.58
55.15 53.79 48.87 45.22 41.84 41.55 48.91 56.35 58.81 56.91 48.04 57.15 57.12 57.14 58.30 56.32 54.00 55.88 60.86 62.31 62.24 63.26 63.54 63.34 64.25 68.00 68.76 68.32 67.67 65.90 64.50 64.61 64.62 65.19 65.61 66.33 65.84 65.53 65.27 65.41 65.61 64.73 64.13 63.29
49.23 49.00 45.64 44.80 44.65 47.62 55.25 58.41 58.94 47.15 48.58 57.36 57.18 56.33 57.17 55.03 58.02 60.57 62.24 62.03 62.77 62.39 64.12 65.46 65.67 67.80 67.97 68.42 67.25 64.82 64.04 63.76 65.30 65.29 66.20 66.64 66.41 66.19 66.04 66.02 65.30 64.48 63.71 59.36
49.43 47.11 44.38 47.00 44.37 42.78 57.98 57.92 53.15 54.54 56.96 59.19 59.75 58.31 58.26 57.98 58.50 58.79 59.68 61.93 62.53 62.37 64.59 65.64 67.24 67.65 67.85 67.55 66.13 63.53 63.36 65.36 66.07 65.98 66.23 66.82 66.81 67.53 67.41 65.99 65.77 64.33 62.46 61.16
48.49 51.35 51.27 51.68 51.07 55.96 57.35 54.71 57.71 58.24 56.67 57.54 57.54 58.34 58.75 58.30 58.97 59.05 58.57 57.05 61.02 63.44 64.83 66.31 67.53 66.27 65.81 65.85 65.55 61.77 58.11 57.68 63.60 67.16 66.51 67.06 67.50 67.49 64.32 64.46 63.99 62.35 61.47 61.44
53.52 54.59 51.10 51.78 53.54 54.82 56.80 56.72 57.27 57.73 58.53 58.92 59.43 58.40 58.38 56.80 58.89 58.32 59.55 59.69 62.38 64.26 63.62 62.94 61.95 60.09 59.38 60.69 60.23 60.45 60.41 60.58 59.38 61.42 66.27 65.96 66.68 64.92 64.79 63.18 61.75 60.72 59.78 58.24
52.31 53.63 51.17 51.45 54.11 56.19 55.68 56.66 57.56 59.25 59.19 59.64 60.51 59.68 59.23 59.69 60.57 60.59 59.81 62.75 62.96 63.14 63.11 63.61 61.66 61.56 60.35 60.74 60.26 60.38 61.06 60.67 59.30 58.56 60.46 64.73 65.03 63.13 57.54 54.26 54.24 57.96 48.62 50.37
53.78 51.84 50.84 47.56 54.73 53.84 53.99 55.76 57.51 56.11 56.59 57.01 56.70 58.20 60.17 59.84 60.87 63.33 64.30 62.88 61.71 61.46 63.05 62.01 60.21 60.12 60.04 61.04 61.15 60.93 59.83 59.87 58.49 58.63 62.77 62.81 61.81 60.17 57.80 53.28 49.05 45.23 45.55 42.75

GFSCGP_sfc_wetblb_012.txt.gz
Wetbulb
48.52 45.70 44.33 47.90 50.36 50.82 51.30 53.41 52.89 56.15 58.10 58.89 58.57 58.80 61.37 63.17 63.33 62.99 63.46 64.19 64.91 65.63 67.09 68.27 69.25 69.76 70.41 70.67 69.74 70.73 71.20 72.72 72.88 72.00 71.03 70.42 69.95 70.72 71.62 71.83 72.84 72.39 72.60 72.79
45.84 44.42 49.96 54.12 53.98 51.94 49.98 52.42 53.35 55.50 57.92 55.84 57.87 58.34 61.39 62.88 63.31 64.18 64.13 64.84 65.45 66.02 66.63 68.08 68.90 70.16 70.46 69.97 69.93 70.61 71.54 72.70 72.55 72.07 71.18 71.75 71.28 71.09 71.56 72.02 72.66 72.73 72.61 72.35
43.93 47.68 54.21 54.39 52.61 51.48 49.33 52.55 53.91 52.96 56.71 56.99 58.20 54.32 56.55 61.36 63.58 62.69 65.19 66.24 66.63 66.45 66.43 67.43 68.42 69.10 70.30 69.65 71.00 70.99 72.40 72.22 72.18 72.52 72.49 72.02 71.57 70.69 68.45 68.10 68.91 69.47 69.95 70.27
46.17 50.98 52.29 52.67 51.82 51.82 44.67 53.09 56.46 55.91 54.31 48.76 55.66 47.17 52.95 57.82 58.78 59.60 61.99 64.02 64.99 66.87 67.75 68.17 68.54 68.13 70.01 70.81 72.11 71.83 72.31 72.26 72.77 72.03 72.14 70.49 67.74 65.94 64.89 65.30 64.71 65.70 67.42 66.91
45.93 49.14 49.41 49.87 52.46 53.05 49.40 52.48 51.15 56.03 53.63 49.46 51.78 47.64 54.18 54.72 54.80 57.18 59.39 62.97 63.99 67.37 67.93 68.33 68.73 69.03 70.75 72.04 72.57 72.83 71.93 71.94 72.62 72.22 70.93 68.75 63.13 62.37 63.96 64.40 63.01 61.43 63.26 66.18
47.79 53.08 51.75 51.69 54.08 53.20 53.93 49.78 48.04 46.27 44.10 40.94 49.52 49.23 44.80 52.44 55.36 57.02 58.85 63.34 64.04 66.45 68.10 69.08 69.92 69.67 70.91 72.17 72.92 73.20 71.62 71.52 71.67 67.30 66.14 62.38 61.61 61.45 62.29 61.74 60.18 62.59 61.00 65.97
46.76 48.80 51.76 53.93 48.43 51.21 49.24 43.16 38.47 38.82 37.48 37.94 42.34 49.51 51.76 55.87 59.13 58.83 58.61 62.88 64.15 65.91 66.57 67.91 67.67 68.34 70.50 71.18 72.19 72.97 71.73 70.67 68.53 65.37 63.60 61.59 61.64 61.18 60.82 60.48 61.87 61.65 63.44 63.67
40.99 42.35 49.25 51.45 49.44 47.25 45.72 44.31 39.06 35.84 37.09 40.39 45.17 41.99 47.45 57.39 60.80 60.57 61.47 64.19 64.67 65.02 65.69 66.38 66.42 67.73 70.40 71.03 71.47 72.74 71.46 70.25 67.65 65.05 64.00 62.68 62.61 61.70 61.66 62.65 63.58 60.69 61.14 63.41
40.24 42.95 50.68 51.51 52.15 49.69 46.34 43.41 47.33 42.36 42.01 40.55 43.10 47.79 53.48 56.74 58.48 59.60 59.72 63.01 62.67 64.49 65.33 65.88 67.09 67.70 69.53 70.70 71.28 72.10 70.93 69.32 67.42 65.41 63.63 62.25 62.46 63.57 64.36 64.38 63.18 62.08 63.79 64.19
44.04 40.67 47.32 50.79 50.64 50.48 48.58 48.90 43.06 40.48 36.91 35.21 40.90 44.15 45.95 52.66 55.82 58.08 58.71 59.74 60.43 64.18 65.26 65.88 66.76 67.55 69.37 71.02 71.82 72.50 71.03 69.12 66.93 65.49 63.83 63.59 63.56 63.67 64.47 63.72 63.20 63.63 62.74 63.67
46.13 42.83 45.35 48.05 45.98 46.45 47.02 44.71 43.48 44.00 41.00 38.13 36.76 42.81 50.96 52.37 56.92 57.65 59.65 60.69 59.47 60.75 64.26 65.73 66.45 67.40 69.39 70.63 71.95 71.79 70.58 68.58 66.41 66.31 65.27 64.70 64.88 64.79 64.27 63.72 63.31 63.37 63.15 63.86
46.14 42.09 42.39 45.00 49.67 51.02 48.69 47.09 45.16 41.45 39.66 40.85 41.17 43.46 53.67 54.99 56.84 58.93 59.40 60.78 59.68 60.51 62.52 65.07 66.00 66.63 68.47 69.58 71.49 71.05 70.12 68.46 67.51 67.04 66.03 65.48 65.89 65.62 64.27 63.81 63.52 63.41 63.33 64.05
48.10 41.06 40.59 41.86 44.60 47.08 47.30 47.54 45.99 43.94 41.96 40.84 40.18 42.90 53.97 53.67 53.98 55.45 55.96 56.75 58.59 60.54 63.13 64.40 65.32 65.63 67.50 68.99 70.54 70.27 69.91 68.56 67.91 67.15 66.07 65.20 64.44 63.40 63.55 63.57 63.43 63.06 63.13 63.15
54.31 41.58 42.02 41.50 42.56 46.14 44.80 47.87 47.73 45.85 40.66 41.07 43.01 46.50 50.82 52.94 54.13 54.72 56.18 57.28 58.23 60.59 62.54 63.91 64.03 65.38 67.52 68.99 69.93 69.84 69.45 68.97 67.68 67.53 66.12 65.36 63.28 62.90 63.00 63.92 63.39 63.15 62.98 62.56
48.30 41.81 44.11 45.53 49.14 49.87 49.28 49.40 47.76 44.68 44.90 44.65 44.93 48.76 50.73 53.55 55.07 55.91 56.37 57.50 59.05 58.93 61.88 61.82 63.17 63.03 66.60 68.68 69.05 69.21 69.29 68.48 67.35 66.75 66.73 65.64 64.61 64.05 63.11 63.73 64.46 63.57 63.35 63.35
46.02 43.03 45.13 45.81 49.45 49.72 48.04 49.46 50.31 49.92 49.13 49.05 48.91 49.00 53.46 56.25 54.90 54.91 56.65 56.44 56.23 57.25 61.50 63.13 64.05 63.74 63.73 68.21 68.27 68.49 68.58 67.90 67.01 65.72 65.95 66.02 64.62 64.48 64.01 64.46 64.34 63.74 63.65 62.91
45.38 45.35 42.39 42.11 46.85 47.74 45.68 47.86 48.83 51.05 52.61 51.24 47.62 50.65 54.36 53.61 54.89 54.36 54.64 55.39 56.15 57.03 58.08 58.22 64.71 66.55 67.34 68.36 69.02 67.09 67.06 67.14 66.37 65.98 66.03 65.22 64.94 64.58 64.69 64.67 63.89 63.61 62.84 62.39
45.77 44.13 42.94 42.77 42.46 39.29 45.86 52.66 55.11 53.36 53.46 53.35 52.57 53.70 56.00 56.08 56.20 56.01 55.05 55.11 55.99 57.07 57.75 57.51 58.28 62.51 68.41 69.58 68.10 67.49 65.12 66.27 65.93 64.69 64.62 65.35 65.46 64.69 64.91 64.66 63.94 64.14 63.61 63.50
51.22 48.09 43.50 39.87 40.37 43.17 48.53 52.17 53.14 50.94 50.65 55.24 52.67 55.52 55.92 56.31 56.55 55.43 56.85 56.47 56.97 56.99 57.98 59.03 59.86 61.51 66.39 68.68 67.91 66.19 64.92 65.65 64.99 64.05 64.03 64.82 65.13 64.57 64.04 63.88 63.59 63.74 63.03 62.18
50.73 49.61 47.17 44.41 41.89 37.94 46.14 54.54 57.44 55.22 46.88 55.00 55.60 54.97 55.21 54.91 49.82 52.65 57.17 59.25 59.84 60.35 60.72 61.56 60.97 64.22 66.13 66.15 66.81 65.13 64.17 63.33 63.24 63.72 64.50 64.91 65.13 64.58 64.06 64.14 63.96 63.51 63.21 63.20
45.31 45.13 42.77 42.41 40.95 43.45 52.55 55.38 56.61 44.78 45.98 54.84 55.17 55.58 55.36 54.52 54.45 57.31 58.81 59.07 59.81 60.60 61.44 62.15 63.89 65.45 65.30 66.24 66.08 64.38 63.72 62.91 63.61 64.21 64.37 64.37 64.89 64.63 64.79 64.67 63.95 63.98 62.12 59.82
46.41 46.52 43.82 43.63 41.69 40.69 54.71 54.00 49.98 52.20 53.41 56.04 56.44 56.55 56.74 56.68 58.39 57.96 58.41 59.07 59.45 61.31 61.25 64.09 64.53 64.36 64.80 64.68 64.19 61.97 60.68 63.40 63.44 64.22 65.31 65.32 65.30 65.78 65.63 64.14 63.85 61.99 60.78 60.38
46.88 49.91 49.02 47.92 46.61 52.75 55.14 52.54 54.30 54.84 53.10 55.59 55.23 56.03 56.39 56.67 56.37 58.03 57.58 58.10 58.09 59.85 64.66 63.81 61.06 61.34 63.87 62.68 61.56 59.15 58.21 60.79 60.72 59.95 58.92 59.39 61.06 61.41 64.34 64.32 62.71 61.19 60.16 59.04
52.21 54.07 50.68 51.06 52.50 54.41 56.00 57.55 57.88 57.33 55.82 56.76 57.29 57.57 57.82 56.42 58.15 58.80 58.68 58.50 62.54 61.64 60.35 60.43 60.54 60.53 60.07 60.60 60.24 58.82 59.91 60.97 60.49 60.26 60.41 59.37 60.34 59.07 60.08 62.55 61.70 60.62 59.50 58.52
51.70 52.47 50.33 51.12 53.80 54.18 54.75 55.13 55.67 56.86 56.69 56.89 57.52 57.50 57.94 57.95 59.95 62.62 61.61 61.70 61.74 62.07 61.71 61.03 60.66 59.88 58.84 60.02 60.06 60.02 60.18 59.73 59.51 59.28 59.05 58.91 59.10 61.89 58.60 55.97 54.80 55.53 49.54 51.72
52.17 50.31 48.46 46.91 53.18 52.85 52.69 54.68 55.75 53.89 54.17 54.53 53.47 54.11 55.39 56.78 57.54 63.07 62.42 61.53 61.27 61.40 60.15 58.64 58.93 59.36 59.13 60.01 58.87 59.54 60.26 59.56 59.51 58.71 58.49 58.17 60.29 59.28 55.56 51.16 47.92 44.72 44.16 42.97

GFSCGP_sfc_wetblb_015.txt.gz
Wetbulb
46.68 44.38 42.66 45.47 48.87 49.50 50.71 51.49 53.61 56.78 58.64 57.97 57.00 56.73 59.23 61.92 61.94 61.54 62.31 62.93 63.65 64.25 66.01 67.36 68.52 68.93 68.73 70.50 70.67 71.36 70.96 71.46 72.13 71.39 70.40 70.17 70.35 70.84 70.73 71.05 71.93 71.99 72.00 72.07
43.54 42.43 47.31 49.40 51.16 50.33 49.39 51.36 52.36 55.01 58.41 57.64 56.25 56.61 59.45 60.77 61.20 62.07 62.28 62.78 63.45 64.13 64.45 65.82 67.33 68.09 68.17 68.69 69.59 69.93 71.07 71.61 72.31 70.98 70.28 70.23 69.56 69.67 70.33 71.08 71.50 72.59 71.81 71.64
41.34 44.85 50.47 51.31 50.88 50.46 47.14 47.48 51.08 51.74 56.24 57.49 56.81 53.82 57.03 60.69 61.83 62.49 63.29 64.04 64.40 64.23 64.24 65.17 66.42 67.09 68.54 68.15 68.33 69.59 70.34 71.54 71.84 71.45 70.68 70.87 70.82 69.92 68.32 67.53 69.24 70.48 72.13 72.32
44.15 48.31 49.66 50.19 50.09 50.71 43.87 51.10 53.49 53.90 53.00 47.98 56.81 46.85 52.69 57.59 59.45 61.32 62.66 63.39 64.26 64.94 65.78 65.96 66.72 67.33 68.20 68.77 69.62 69.79 70.82 71.08 71.78 71.55 70.74 69.80 68.84 66.46 65.12 65.41 64.08 64.83 67.18 66.58
43.54 46.68 46.91 48.10 50.45 52.29 49.59 51.49 50.45 53.53 51.80 49.31 50.48 46.96 50.31 56.05 54.61 59.20 61.50 63.03 64.86 65.65 66.23 65.99 66.93 68.00 68.97 69.50 70.23 70.65 71.07 70.99 71.36 71.05 71.10 70.01 66.39 64.50 63.98 63.41 61.88 62.40 62.62 64.80
45.85 49.41 48.88 48.46 50.79 53.00 53.19 49.07 46.09 44.93 46.08 42.75 50.25 48.55 45.92 51.85 56.52 58.80 61.22 61.66 64.80 65.67 66.82 67.12 68.01 68.43 68.60 69.87 70.49 71.19 71.02 71.01 71.21 71.19 69.89 69.36 65.68 62.15 62.50 61.26 60.26 60.21 60.28 64.30
44.02 46.10 47.48 51.57 47.09 49.48 47.85 42.81 37.01 37.48 39.75 40.46 46.09 47.91 49.96 54.87 59.63 60.83 60.34 60.18 63.81 65.46 66.67 66.93 67.26 67.33 67.98 69.20 70.09 71.06 70.81 70.44 71.07 70.43 68.05 65.81 62.24 62.01 61.61 60.82 59.28 61.43 62.40 62.76
38.46 39.36 45.46 48.57 47.97 45.85 44.61 43.43 37.69 33.54 34.11 39.68 42.66 44.10 51.36 57.16 59.13 62.09 62.21 61.36 63.18 63.89 66.66 67.25 67.94 67.76 68.07 69.35 70.06 70.83 70.68 70.13 70.13 68.07 64.97 61.17 60.90 60.53 60.22 59.78 61.55 60.87 61.52 62.82
38.38 39.82 47.92 49.26 49.97 49.25 44.38 41.05 44.89 38.98 37.74 37.58 40.18 44.65 50.25 54.99 54.85 59.65 60.78 59.45 61.54 63.09 65.93 67.04 68.23 68.34 68.39 69.25 70.02 70.84 70.80 70.28 69.47 66.77 63.08 60.90 60.86 61.01 60.59 61.94 62.62 60.61 60.70 63.56
42.86 38.08 44.68 48.97 49.13 48.54 47.77 46.93 40.38 38.27 34.81 34.00 38.76 40.99 43.44 48.87 52.88 56.16 58.49 58.05 61.36 63.34 64.59 66.38 67.96 67.79 68.98 70.04 70.60 71.14 71.54 70.57 69.09 64.77 63.87 62.39 61.92 62.92 63.32 63.33 62.34 61.85 62.71 63.01
42.52 40.91 42.02 45.69 44.29 45.58 44.57 41.62 40.40 41.06 38.63 36.44 35.59 40.37 48.01 50.91 53.51 55.37 57.62 59.55 61.29 62.92 64.01 65.07 66.65 67.37 67.89 70.21 70.41 70.57 71.21 70.05 66.62 66.26 63.58 62.31 62.07 62.92 63.25 63.00 62.47 62.85 62.22 62.34
44.35 41.23 40.72 42.70 46.26 47.48 45.45 44.66 43.51 41.52 37.24 37.16 38.49 40.67 51.09 53.27 55.09 57.52 57.71 59.66 61.92 63.48 64.00 64.98 65.67 66.54 66.43 68.19 69.79 70.14 70.86 69.54 67.64 66.42 64.35 62.89 63.22 63.18 63.23 63.03 62.73 62.50 62.14 62.37
44.05 38.06 36.67 38.86 40.85 44.03 43.90 44.81 41.94 40.70 39.63 39.16 39.43 41.89 52.15 51.83 53.47 57.02 57.28 57.86 58.56 60.37 62.55 64.20 64.79 65.52 66.25 66.99 68.68 70.12 70.70 69.65 67.73 66.33 64.31 63.53 63.86 64.26 63.79 63.65 63.16 62.73 62.26 62.32
52.05 37.78 42.41 40.28 40.63 43.62 43.22 45.70 45.47 44.09 39.36 39.17 41.27 44.37 49.40 50.81 52.18 53.65 55.93 57.03 58.64 59.58 61.00 62.67 64.23 65.10 65.82 66.58 68.06 70.15 70.43 69.98 67.96 66.19 64.75 63.67 64.07 64.90 64.76 64.42 63.84 62.79 62.28 62.04
47.19 40.29 40.11 44.93 46.14 45.81 46.11 46.89 46.00 44.35 45.09 44.24 45.62 45.96 49.96 51.19 52.34 54.33 56.83 56.65 57.36 58.76 59.78 61.68 62.88 63.78 64.39 65.39 67.24 70.01 70.23 69.47 68.25 65.93 64.87 63.93 64.77 65.48 64.66 64.71 64.08 63.36 63.00 63.03
44.26 40.41 42.55 41.54 45.32 46.36 45.55 47.20 48.03 47.90 45.57 45.37 44.78 46.97 50.83 54.21 52.54 53.50 55.79 56.76 57.00 57.25 59.98 61.81 62.61 61.89 62.70 65.19 67.16 69.24 69.59 68.92 68.42 66.58 64.93 65.24 65.12 64.35 63.02 63.15 63.82 63.50 62.46 62.97
42.35 44.23 38.63 41.29 43.34 44.44 41.61 45.97 46.56 47.74 49.52 49.17 45.72 48.58 51.83 51.50 53.10 54.30 53.87 55.80 57.54 57.73 59.47 60.25 60.52 60.73 60.78 64.10 67.77 68.13 68.90 69.12 67.66 66.44 65.68 65.57 65.63 65.74 64.55 63.94 63.61 62.83 63.03 62.79
44.46 42.77 39.52 41.89 41.26 37.94 45.35 50.67 50.85 51.30 52.21 53.37 51.56 50.12 53.67 55.00 56.18 54.68 53.95 54.74 54.61 56.05 57.36 59.71 61.49 62.81 63.23 62.70 66.88 67.73 68.10 67.86 67.04 64.84 65.68 66.12 65.43 64.74 64.55 64.30 63.73 63.20 63.41 62.57
47.40 41.72 40.33 39.31 39.32 44.09 48.58 51.77 51.63 49.15 48.63 53.31 52.11 53.12 55.11 55.50 55.47 53.44 55.46 55.09 55.29 55.75 55.52 56.07 57.90 61.05 63.14 65.39 65.74 66.28 65.66 66.50 65.93 64.72 65.03 65.81 65.84 64.29 64.18 63.17 63.60 63.09 63.29 62.58
47.36 44.73 43.44 39.52 37.94 38.30 48.03 52.64 55.78 52.94 44.70 54.21 54.94 53.69 54.13 54.65 52.13 51.39 55.77 56.33 56.94 57.69 58.84 58.65 59.07 61.42 63.69 64.77 65.77 64.88 64.10 65.03 65.10 65.06 64.48 65.30 65.45 64.99 64.00 63.57 63.30 63.41 62.92 62.86
45.20 45.37 41.21 41.21 40.99 43.80 50.95 53.52 55.25 46.52 44.83 52.64 53.95 53.10 53.31 51.45 51.78 54.85 57.22 57.82 57.63 58.21 58.88 60.26 62.51 63.35 64.42 65.26 64.50 62.32 62.64 62.91 63.34 63.88 64.01 64.07 63.83 63.37 63.55 63.42 63.74 63.49 62.03 60.39
44.90 44.33 43.67 42.53 39.36 40.09 53.37 52.85 48.77 50.59 52.70 52.93 53.27 53.95 53.96 53.88 55.03 55.56 56.40 56.20 57.34 58.85 62.10 64.71 63.83 63.18 64.04 63.97 63.64 61.96 61.30 62.53 63.47 63.84 63.03 61.77 63.38 65.07 64.14 63.46 60.97 58.81 60.05 61.28
44.49 48.60 47.12 45.19 44.08 50.13 53.56 51.29 53.16 53.53 51.02 52.99 53.86 54.38 57.07 58.43 57.28 56.95 56.12 56.95 60.47 63.03 63.20 62.61 62.38 61.74 61.48 62.07 62.65 61.12 59.60 60.65 61.21 60.26 59.44 59.89 60.37 62.51 62.19 61.45 57.76 57.38 58.14 60.68
51.17 52.25 49.00 49.48 49.60 51.09 53.53 54.44 55.65 54.61 52.54 53.30 54.51 55.57 55.39 55.73 60.04 60.21 60.32 60.14 61.06 60.69 59.81 60.74 61.05 59.58 57.89 58.55 59.25 59.05 60.21 61.47 61.24 60.14 59.45 59.07 58.85 58.52 59.14 59.97 59.43 59.65 60.30 59.34
50.93 52.69 50.71 49.77 53.08 52.67 53.38 54.50 54.91 55.24 56.30 55.41 55.50 55.35 55.20 55.03 56.17 61.61 61.14 61.74 61.47 60.82 59.59 59.65 58.81 58.35 57.57 58.84 59.55 60.29 59.85 60.92 59.60 58.20 58.35 58.07 59.64 59.95 59.28 52.01 50.96 56.30 52.22 53.26
51.01 49.21 47.10 47.41 51.07 51.10 51.72 55.03 55.19 53.27 53.52 53.32 53.50 53.35 53.61 53.93 53.43 56.08 60.24 62.06 62.00 60.80 60.15 59.25 58.79 59.08 58.64 59.07 59.18 58.96 58.61 59.37 57.19 56.51 56.48 56.22 57.04 57.66 56.86 52.84 48.89 45.64 44.66 42.88

GFSCGP_sfc_wetblb_018.txt.gz
Wetbulb
45.32 43.31 41.48 45.49 47.15 51.52 52.37 53.05 53.10 54.94 58.39 56.16 55.50 55.77 59.06 61.21 61.70 61.53 62.00 63.13 64.79 64.93 66.76 68.18 68.56 69.73 69.45 70.06 70.63 71.17 71.41 71.40 71.50 71.57 71.15 71.29 71.42 72.20 72.21 72.19 73.23 73.03 73.24 73.04
42.78 41.47 46.09 48.90 49.52 50.38 52.90 51.43 52.78 54.15 57.48 56.52 55.37 55.47 58.34 60.75 61.00 61.47 61.60 61.85 62.93 63.88 63.45 65.44 67.34 67.73 68.47 69.61 70.34 70.81 71.19 71.15 71.73 71.61 71.28 71.30 71.21 71.33 71.68 72.01 72.50 73.22 73.00 72.92
40.51 44.14 48.44 49.18 48.02 48.11 48.02 51.83 50.10 53.80 56.00 56.78 55.83 53.22 54.83 59.35 61.29 61.91 62.48 63.12 63.69 63.51 62.56 63.87 65.83 66.69 67.65 68.73 69.63 70.58 71.13 71.16 71.90 71.80 71.19 71.33 71.60 70.92 70.19 69.70 71.23 72.46 72.58 72.64
42.50 47.03 47.92 47.72 48.30 49.01 43.90 50.07 53.55 53.27 53.03 48.18 55.01 44.48 51.99 56.40 57.98 59.75 61.18 61.96 62.80 63.65 64.25 64.17 65.41 66.20 66.95 67.95 69.83 70.34 70.88 71.06 71.93 71.89 71.02 70.33 69.66 69.05 69.18 67.82 68.18 68.89 70.49 70.04
42.56 44.22 45.89 46.68 48.58 50.77 48.23 50.97 51.14 53.39 51.40 49.51 50.37 46.39 49.37 55.77 54.99 57.69 60.21 61.61 62.93 64.02 64.61 64.45 65.46 66.66 67.76 68.68 68.53 69.20 69.70 70.50 71.67 71.85 71.68 70.46 69.05 68.57 66.02 65.58 65.16 66.18 66.19 66.81
46.01 47.52 47.49 47.21 50.96 52.52 51.24 47.10 45.46 44.92 46.36 41.79 48.61 49.32 46.57 50.88 56.40 58.73 60.99 62.52 63.27 64.04 64.92 65.78 66.53 67.25 67.46 68.81 68.91 69.09 69.18 69.88 70.91 71.41 71.19 70.56 69.20 65.73 64.51 63.54 62.41 62.59 63.31 65.89
42.49 44.21 46.63 49.37 46.46 48.17 45.99 42.47 37.00 37.34 38.73 39.48 46.28 47.21 51.19 53.14 57.87 60.34 60.42 61.93 63.81 64.79 65.19 65.52 65.49 66.18 67.10 67.73 68.46 69.26 69.24 69.29 70.86 70.98 70.90 70.95 69.69 65.60 65.14 63.70 61.93 62.18 62.75 64.93
36.94 37.64 44.21 47.03 46.47 44.60 44.01 43.20 37.45 33.58 34.29 40.27 44.08 45.12 51.04 58.02 58.65 60.37 61.76 62.16 63.51 63.72 65.46 65.86 65.99 66.64 67.14 68.02 68.50 68.99 69.36 69.34 70.50 71.05 70.68 69.59 67.75 65.02 64.19 63.44 61.78 62.96 63.72 65.00
36.96 37.73 45.56 47.30 48.72 48.18 42.65 40.70 43.75 37.65 34.52 36.24 39.35 44.17 50.44 52.55 53.86 56.29 58.46 60.03 60.78 62.46 65.28 65.83 66.68 67.22 67.40 67.89 68.54 69.00 69.28 69.90 70.27 70.68 69.89 66.49 65.23 62.76 62.48 62.67 62.78 62.89 64.14 64.99
41.76 36.44 43.16 45.70 47.95 46.95 45.60 45.52 40.71 36.69 33.07 32.23 37.41 39.86 42.97 48.10 51.55 53.79 55.06 59.02 60.57 61.95 64.36 65.87 67.08 67.44 68.14 68.50 69.16 69.71 70.00 69.84 70.15 70.23 67.99 66.10 63.62 62.57 62.35 62.34 63.10 62.73 63.33 64.27
41.21 39.03 39.92 43.50 42.71 43.30 42.38 40.30 38.97 39.50 37.02 34.78 33.66 38.21 46.05 48.81 50.63 52.89 55.11 58.77 59.95 61.01 62.84 65.23 66.99 68.13 68.52 68.88 69.08 69.42 70.09 70.17 69.72 68.52 66.95 65.11 63.06 62.48 62.84 63.20 64.21 63.66 63.77 64.12
42.91 40.96 39.05 40.75 44.00 45.97 45.63 42.87 42.43 40.37 35.40 36.00 36.79 39.58 50.02 50.73 52.09 54.51 55.76 58.56 58.93 60.75 62.58 64.59 66.65 67.74 68.06 68.16 68.69 69.29 70.08 70.49 70.28 68.67 66.93 64.86 63.62 63.35 63.55 63.61 64.05 64.08 64.12 64.30
42.82 36.89 37.31 36.99 39.92 42.10 41.78 42.75 40.18 38.91 38.07 36.54 38.00 40.09 49.76 51.12 52.33 54.30 55.89 56.75 58.02 59.81 61.19 63.24 64.85 66.40 67.15 67.59 68.68 69.52 69.90 70.64 70.61 68.79 66.62 64.69 63.29 63.26 63.87 64.38 64.20 63.46 63.46 63.68
53.31 37.86 39.63 39.04 40.05 42.17 41.33 43.99 42.77 41.65 36.94 37.73 39.68 43.48 46.69 51.77 52.10 53.58 55.90 56.93 57.73 60.10 61.26 61.87 62.61 64.67 66.05 66.09 67.86 69.25 69.71 70.88 70.04 68.24 66.96 64.87 63.28 63.80 64.14 64.50 64.34 63.77 63.66 63.48
43.77 39.23 39.26 44.43 43.51 44.00 44.14 44.58 43.81 42.01 41.87 41.36 43.87 44.20 48.33 50.56 52.35 53.38 56.65 57.81 57.53 58.01 58.89 61.26 62.83 63.46 64.45 64.72 65.76 67.86 69.54 70.54 69.64 67.82 66.50 65.07 64.72 65.26 65.39 65.65 65.72 65.20 63.48 63.55
42.99 39.57 39.66 42.89 44.60 44.43 43.88 44.62 45.23 45.40 44.86 43.66 44.35 44.18 49.38 51.58 53.18 53.70 55.81 56.85 57.66 57.89 58.73 60.53 62.12 63.20 62.99 64.11 64.71 67.50 69.27 70.30 69.38 67.55 66.02 64.87 65.16 64.86 64.68 63.82 63.01 63.46 64.65 63.61
41.15 39.74 36.44 39.87 41.18 41.09 38.43 44.28 44.80 45.47 46.50 46.78 43.53 49.05 50.63 51.45 52.63 53.31 53.97 56.44 58.02 59.04 59.30 58.78 60.83 61.66 61.97 63.28 65.55 67.34 69.26 69.98 68.38 67.17 65.09 64.71 64.13 63.34 63.72 63.34 62.92 63.42 63.94 63.68
45.40 39.09 37.07 37.57 37.95 33.06 43.53 49.32 48.14 47.82 50.37 50.30 50.76 50.26 51.63 53.27 55.08 55.16 55.11 55.53 57.05 57.54 58.92 59.67 60.08 61.01 61.88 64.77 66.60 67.73 68.82 68.75 67.54 66.34 64.84 64.12 62.62 63.06 63.78 63.43 62.79 63.59 64.38 63.63
45.73 39.40 37.18 38.06 34.56 39.82 47.50 50.41 50.96 48.58 48.67 52.72 51.02 52.92 54.79 55.22 54.71 53.82 55.74 55.92 56.09 58.25 58.65 60.54 61.48 62.35 62.61 62.12 64.71 66.83 67.41 67.70 66.76 65.49 64.84 64.18 63.26 63.44 64.05 64.48 64.17 64.44 64.13 64.12
49.55 44.60 40.27 36.15 35.36 36.31 44.32 50.81 54.63 53.32 44.37 52.65 53.35 52.46 53.59 53.90 49.25 50.74 56.56 56.78 56.65 57.32 57.50 57.61 58.90 61.02 62.92 64.32 64.64 65.60 65.70 66.37 65.95 65.71 65.60 65.71 64.80 64.25 65.15 64.83 64.55 65.17 64.76 64.50
45.50 44.98 41.76 39.98 39.49 42.81 49.69 52.53 54.53 45.23 46.23 51.82 52.87 53.12 53.72 52.07 51.92 55.50 58.07 57.79 58.34 59.38 60.62 61.72 62.22 62.68 64.25 65.78 65.29 63.79 64.19 65.32 66.25 66.09 66.40 66.18 66.31 65.91 65.35 64.49 64.62 64.36 63.48 63.17
45.79 44.39 43.55 42.26 40.06 38.80 52.08 51.54 47.46 50.06 52.44 53.74 55.02 54.41 52.83 53.90 55.22 56.83 57.27 59.16 60.97 61.38 62.84 63.41 62.96 63.34 64.54 65.14 64.74 63.50 63.11 63.80 65.03 65.46 64.95 64.77 64.65 65.17 64.94 64.49 63.82 63.30 62.07 61.32
45.15 48.51 46.42 45.55 42.95 49.88 52.25 50.62 53.29 53.33 51.94 53.49 53.88 54.64 58.28 58.47 58.48 59.06 59.40 60.76 61.17 60.99 61.20 62.44 62.20 61.82 62.08 63.49 64.12 62.56 62.39 63.45 63.59 63.44 63.41 64.36 64.85 64.90 64.81 63.95 61.78 59.99 59.13 59.15
50.74 52.13 47.55 48.44 50.52 51.27 52.10 52.39 53.18 53.53 51.49 52.40 52.59 52.98 53.79 56.43 58.91 59.57 60.34 60.48 60.28 60.47 61.04 61.41 60.85 59.79 59.80 60.81 61.76 61.97 62.23 62.85 62.46 61.76 61.44 62.03 62.56 61.97 62.16 61.54 59.90 58.99 59.29 60.13
50.48 52.15 49.91 48.50 52.16 51.94 52.78 53.74 53.73 53.14 53.54 53.54 53.51 53.25 52.97 53.51 54.16 57.30 60.37 61.53 61.59 60.85 61.03 61.17 60.31 59.93 59.38 60.25 60.88 61.88 62.38 62.82 61.66 61.36 61.04 60.18 59.89 59.37 55.14 51.09 52.54 58.94 54.69 57.01
47.68 48.85 48.36 47.48 52.05 51.04 51.69 53.27 54.07 52.38 52.03 53.07 52.23 51.64 53.20 53.71 53.36 58.50 60.35 61.32 61.86 61.16 60.67 60.09 59.69 59.80 58.99 60.04 59.93 60.06 61.35 61.78 60.71 58.91 59.08 58.60 59.74 59.26 56.29 53.45 49.65 44.54 43.36 43.31

GFSCGP_sfc_wetblb_021.txt.gz
Wetbulb
51.94 49.25 47.20 51.45 56.50 57.53 58.14 57.31 56.80 59.28 61.77 60.27 59.81 60.41 62.08 65.43 66.10 66.04 67.06 67.65 68.13 69.23 71.52 72.64 73.19 73.91 73.96 74.41 74.48 74.64 75.06 76.84 76.18 75.08 74.62 74.78 74.64 75.84 76.31 76.94 77.27 77.32 77.44 77.08
49.38 46.95 50.65 52.71 54.79 56.49 58.01 57.06 56.92 59.21 61.55 60.56 59.62 59.08 62.64 64.02 65.18 66.35 66.58 67.32 68.15 69.37 70.52 71.49 72.53 73.10 73.55 73.68 74.12 74.68 75.59 76.78 76.36 75.78 75.77 75.61 75.81 75.91 76.35 76.83 77.08 77.30 76.98 77.36
47.79 49.10 51.19 51.03 51.51 51.64 56.60 56.69 57.22 57.09 59.62 61.02 59.54 57.65 60.24 63.09 64.72 65.84 66.89 67.60 68.17 68.79 69.22 69.93 70.66 71.94 72.57 72.79 73.68 74.72 76.22 76.84 76.57 76.91 76.06 75.78 75.72 75.82 74.70 75.24 75.59 76.23 76.61 76.85
48.12 50.50 49.33 49.91 50.60 52.82 51.38 58.09 58.94 58.21 57.13 53.33 59.89 51.62 58.30 61.61 62.15 63.67 64.93 65.89 66.54 67.51 69.06 69.59 69.83 70.61 71.73 72.63 74.16 75.53 76.05 76.65 76.26 76.92 75.59 75.44 73.98 73.10 74.32 74.62 74.99 75.98 76.73 76.23
49.14 47.67 48.52 48.18 50.45 53.40 52.83 56.79 57.42 58.50 57.17 56.18 55.75 53.87 57.09 60.53 59.87 62.23 64.26 65.68 66.43 67.41 68.20 68.55 69.31 70.53 71.70 72.43 73.10 74.35 75.83 76.27 77.02 76.56 76.69 74.92 74.51 74.69 75.02 73.74 73.38 74.07 74.70 75.63
51.40 50.91 51.16 50.97 52.94 54.24 54.81 54.33 54.24 56.42 55.89 49.60 54.50 54.46 54.04 57.77 60.31 62.57 64.42 65.60 66.52 67.34 68.08 68.95 70.00 70.73 71.25 72.28 72.69 73.66 75.22 76.13 76.61 75.79 75.78 75.87 75.60 74.86 73.04 72.30 71.56 71.54 71.54 71.29
49.73 49.69 51.44 52.12 50.81 54.46 54.02 52.64 47.26 46.40 47.36 46.67 54.33 53.87 55.92 59.90 62.28 63.59 64.33 65.07 66.47 67.49 67.88 68.67 69.17 69.43 70.79 71.66 72.39 73.21 74.62 75.03 75.91 75.25 75.71 75.48 75.71 75.39 74.30 72.98 71.10 70.66 69.69 69.17
45.76 43.85 49.11 51.85 51.20 50.79 51.68 51.83 47.72 42.78 43.92 46.87 51.09 50.09 54.91 61.83 63.26 63.89 65.46 66.39 66.92 67.08 68.31 68.83 70.23 70.52 71.07 71.60 72.87 73.52 73.74 74.01 75.25 74.76 76.03 76.31 76.11 74.85 73.05 73.62 71.71 69.69 69.58 69.49
46.12 46.04 49.20 50.95 52.45 54.27 51.36 48.68 54.13 49.02 46.61 47.64 50.57 53.64 56.45 59.85 60.38 61.97 63.31 64.48 65.74 67.03 68.04 68.49 69.53 70.32 71.32 72.06 72.56 73.21 73.80 74.25 75.03 74.48 75.89 75.61 76.09 75.30 73.62 73.71 70.84 69.74 70.47 69.74
49.06 44.99 49.09 49.67 52.35 52.33 52.06 53.52 47.16 48.28 44.42 42.21 46.34 48.35 50.20 56.13 58.29 61.28 62.09 62.83 65.07 67.02 68.05 68.75 69.93 71.04 72.01 72.41 73.10 73.78 74.23 74.09 74.82 74.64 75.11 74.80 74.78 74.23 74.08 71.30 67.88 69.60 69.82 70.14
51.92 48.43 46.77 49.33 48.18 48.38 48.87 48.50 49.33 51.05 49.41 46.13 44.21 47.48 56.64 58.17 60.38 60.52 61.45 62.96 63.89 65.93 67.39 68.95 70.58 71.61 72.30 72.57 72.61 73.06 73.56 74.26 74.53 74.96 75.49 75.34 73.95 72.76 68.21 69.73 66.56 66.95 68.40 68.95
51.56 50.11 46.08 46.98 50.72 51.31 50.98 50.07 50.82 47.65 46.51 47.49 48.24 48.56 56.52 58.22 60.14 61.11 61.18 62.39 63.86 65.74 66.99 68.65 69.82 70.62 71.32 72.37 72.09 72.18 73.41 73.52 74.26 74.95 75.01 73.60 71.67 67.16 70.02 68.59 68.26 67.67 67.41 68.13
49.60 47.78 44.19 46.05 49.05 49.97 48.21 49.80 50.96 50.95 50.87 49.79 45.69 48.12 58.44 57.53 58.72 60.19 60.12 63.31 64.74 65.50 66.68 68.05 69.24 70.77 71.77 72.21 72.90 72.90 73.15 73.05 73.71 74.61 73.32 72.16 67.06 69.12 67.87 66.98 67.42 66.66 67.15 66.70
54.84 49.36 47.77 44.14 47.17 49.74 47.63 48.00 49.26 49.02 47.16 47.58 48.10 50.61 54.66 56.91 58.93 61.59 62.15 63.25 64.54 65.32 66.07 67.42 68.77 70.31 71.60 72.71 73.25 73.31 73.07 73.51 73.91 73.98 72.85 70.81 68.43 69.25 68.62 67.92 66.27 64.70 65.77 65.41
54.68 49.56 49.92 50.97 51.16 50.05 48.89 47.82 48.34 48.10 49.86 47.90 49.74 50.59 54.90 58.12 59.48 62.36 64.94 64.84 64.10 64.31 65.55 67.23 67.88 70.02 71.54 72.23 73.23 73.30 73.30 74.33 74.82 73.84 72.54 71.20 68.95 69.81 69.19 68.85 67.43 64.24 64.88 65.47
52.01 49.32 49.74 49.02 51.48 49.97 47.97 49.33 49.21 49.17 49.38 49.99 50.86 52.32 57.92 60.18 60.66 59.96 62.06 63.13 63.87 64.80 65.51 66.84 68.15 68.94 69.89 71.15 71.30 72.04 72.81 73.49 74.61 73.05 72.06 71.01 68.98 69.51 69.07 68.44 68.02 66.83 64.62 65.79
52.99 49.63 47.01 45.02 49.77 48.05 45.01 48.81 49.47 50.36 51.73 51.18 49.30 53.95 59.40 57.16 58.12 60.49 63.18 63.59 64.44 65.82 66.66 66.62 67.73 69.42 69.91 70.17 71.02 70.96 72.24 73.92 73.49 72.79 71.85 69.41 69.36 69.26 68.68 67.86 67.61 67.46 66.84 66.93
52.28 50.60 48.46 47.12 46.44 39.10 48.92 53.15 52.45 50.93 52.00 53.36 53.78 56.26 58.23 59.14 61.00 62.41 63.84 64.25 64.73 65.92 66.88 67.00 67.15 68.34 69.74 70.28 70.52 71.94 72.59 73.48 72.93 72.07 70.62 69.78 69.35 68.95 68.98 67.97 67.22 67.86 68.05 66.35
55.70 51.47 48.85 46.25 45.34 47.75 50.22 53.77 50.77 49.40 51.09 55.57 55.25 57.29 59.17 59.56 58.89 60.48 61.02 62.10 64.12 64.86 65.77 66.87 67.60 68.37 68.88 69.90 71.29 71.92 72.46 72.84 72.36 71.30 70.10 69.89 69.43 68.83 68.01 67.11 66.92 68.16 68.05 67.27
52.82 53.49 51.24 46.39 43.48 41.65 50.90 53.98 56.61 56.47 48.96 57.85 57.86 58.96 59.19 59.17 55.36 59.75 60.83 62.06 63.69 65.26 66.58 67.15 68.11 68.89 69.27 69.22 71.20 71.46 71.67 71.90 71.26 71.36 70.51 70.17 69.53 68.78 67.45 67.38 67.47 68.38 68.13 67.68
51.51 51.46 47.57 46.19 44.64 48.62 53.49 55.36 56.81 48.87 51.96 56.92 58.00 59.36 59.07 58.52 59.25 61.00 62.57 63.50 64.74 64.96 65.43 67.41 68.88 69.18 70.01 70.72 70.48 70.49 71.09 70.91 72.07 71.88 70.91 69.78 69.17 68.28 68.30 68.08 68.16 68.06 67.63 67.38
50.17 48.92 47.84 48.68 45.13 44.06 55.47 55.29 52.26 55.62 58.26 58.58 59.26 59.79 58.98 60.39 62.07 63.54 64.52 65.35 66.28 66.96 67.87 68.73 68.18 68.59 69.75 70.65 71.09 70.47 70.47 71.94 71.69 69.99 69.62 68.89 69.02 68.02 67.92 68.08 68.11 68.31 67.82 67.55
48.90 52.86 48.88 48.97 48.96 54.95 55.32 55.53 57.15 58.01 57.98 59.25 61.85 63.19 63.87 62.80 63.30 64.40 64.44 65.18 65.55 66.16 66.68 67.97 68.14 68.37 69.27 70.18 70.39 68.99 66.37 68.73 69.82 70.39 69.06 67.75 67.71 68.18 67.93 67.49 68.02 67.35 67.80 67.35
53.35 54.90 51.36 52.32 53.53 53.43 54.13 55.81 56.40 56.96 56.29 57.36 58.50 59.43 61.37 60.81 63.05 64.07 64.86 65.07 65.30 65.80 66.40 67.65 68.61 68.07 67.54 68.39 67.06 68.34 68.80 69.85 69.68 68.73 68.44 68.24 68.14 67.59 68.03 67.30 67.26 66.30 65.52 65.12
50.15 54.62 51.73 51.26 52.19 53.78 53.48 55.42 56.24 56.26 56.48 56.20 57.12 58.24 60.03 62.30 62.42 63.78 64.49 65.42 65.80 66.12 65.94 65.97 66.38 66.47 65.28 66.54 67.16 67.73 67.48 67.08 67.93 67.94 67.86 67.34 66.18 65.42 62.02 58.31 58.67 62.98 63.25 59.05
48.79 49.83 51.06 49.80 53.87 54.37 53.31 55.09 56.22 54.62 54.57 55.97 55.81 55.86 58.02 59.81 61.78 63.75 63.85 65.02 65.54 65.49 65.67 66.13 65.72 66.08 64.98 64.62 66.26 66.92 66.64 66.84 66.78 65.87 65.40 64.94 64.47 62.59 60.53 58.42 55.77 44.28 44.18 43.60

GFSCGP_sfc_wetblb_024.txt.gz
Wetbulb
54.46 52.02 50.47 53.76 56.61 58.54 58.57 57.61 56.84 59.83 63.96 62.77 61.97 62.25 64.40 67.22 67.44 67.30 68.20 68.54 68.70 69.86 72.03 73.68 74.39 75.01 75.32 75.91 76.15 76.53 76.40 77.60 77.70 76.75 76.18 75.98 75.67 79.06 77.19 77.99 78.79 78.18 78.03 77.63
51.91 49.67 54.48 56.17 56.32 56.78 57.24 56.94 56.95 60.67 63.44 62.89 61.97 61.74 64.14 65.68 67.18 67.62 67.65 68.50 69.22 70.07 71.42 72.64 73.94 74.43 74.94 75.50 76.30 76.80 76.88 77.65 77.92 77.38 77.20 76.77 76.74 76.65 77.07 77.63 78.49 78.42 78.35 78.25
50.38 51.49 54.78 54.02 54.66 55.21 57.13 56.96 57.24 58.46 62.13 63.26 61.23 60.02 61.93 64.18 66.41 68.47 68.82 69.09 69.73 70.25 70.22 71.67 72.82 73.96 74.75 75.29 76.06 76.75 77.62 77.89 78.46 78.65 77.84 77.80 77.80 77.47 76.58 76.66 76.89 77.57 78.31 78.24
51.68 53.57 52.39 51.94 52.26 55.58 54.92 59.00 58.71 59.00 59.24 55.65 62.08 53.62 59.61 62.88 64.09 66.24 68.11 68.18 68.92 70.21 71.58 71.74 72.16 73.19 74.24 75.05 76.45 77.26 77.93 78.56 78.55 79.53 78.95 78.23 75.30 74.02 74.42 75.29 75.50 75.69 77.61 77.45
50.61 50.92 50.68 50.50 51.61 55.71 55.20 58.75 58.37 59.10 58.74 58.20 58.66 56.26 58.47 61.94 61.99 64.39 67.06 67.91 68.09 69.19 69.75 70.26 71.35 72.36 74.04 74.99 75.53 76.83 78.16 79.32 79.68 80.16 79.61 77.40 76.67 75.83 75.96 75.88 76.22 76.81 77.39 77.56
53.05 54.88 52.82 52.19 53.55 54.41 57.32 56.64 57.42 58.16 57.51 52.78 56.90 56.52 56.41 59.47 62.60 63.92 66.45 68.09 68.05 68.09 69.00 69.74 71.14 71.90 72.90 74.28 75.03 76.01 77.82 79.61 79.61 78.97 78.54 78.56 78.48 76.79 75.25 76.02 75.08 73.71 73.64 75.44
51.68 51.73 52.92 53.24 51.38 53.69 55.01 54.53 50.97 50.05 50.55 50.40 57.95 55.21 57.21 60.51 62.08 63.98 63.96 67.18 68.75 69.01 68.52 69.18 69.92 70.18 71.58 72.78 74.10 75.14 78.48 79.23 79.07 78.32 78.27 78.20 77.95 77.90 77.36 77.09 75.52 74.04 72.06 72.13
48.21 45.94 51.60 52.92 52.02 51.43 52.43 54.25 51.08 46.41 47.84 50.92 56.75 52.38 56.28 62.64 63.83 64.11 64.30 65.98 68.33 69.37 69.83 69.49 70.67 71.27 71.99 72.82 74.58 75.52 77.86 78.54 78.41 77.74 79.05 79.49 78.79 77.29 77.01 77.40 75.98 73.60 71.72 72.02
48.96 48.64 53.34 53.51 53.43 53.85 52.69 51.86 56.50 53.28 54.05 51.24 53.14 56.44 59.37 60.99 61.96 62.80 63.42 64.65 66.27 68.76 69.80 70.14 70.83 71.95 72.52 73.83 75.65 76.86 77.93 78.99 79.11 77.69 79.24 78.54 78.46 77.95 77.51 78.01 77.81 74.85 74.76 72.50
53.07 48.56 52.75 53.15 53.99 53.71 54.03 56.19 51.40 53.29 48.19 46.66 50.68 52.75 53.83 58.18 59.58 61.13 61.51 63.02 65.35 67.61 69.35 70.28 71.08 71.94 73.26 74.14 75.05 75.97 77.65 78.38 78.18 77.48 77.66 77.22 77.60 78.08 78.21 77.62 76.82 75.67 74.12 73.10
54.51 51.91 50.96 52.97 50.99 50.15 50.95 51.76 54.05 54.32 52.62 48.81 47.55 50.79 58.50 58.64 60.06 59.93 60.78 62.37 63.64 65.48 68.51 70.23 71.21 72.29 73.72 74.36 74.74 75.40 76.11 76.47 76.65 78.15 78.42 78.65 77.21 77.36 76.99 76.75 76.39 75.11 73.51 72.65
54.85 52.95 48.83 49.47 52.96 53.88 53.35 52.65 54.40 50.93 51.08 52.66 51.75 51.83 59.51 60.40 60.38 60.87 61.27 62.20 63.29 65.01 67.26 69.75 71.24 72.24 72.69 73.73 74.50 74.93 75.64 75.87 76.51 77.99 78.93 77.51 77.94 77.41 76.44 75.52 74.11 73.62 72.13 71.87
55.41 52.07 47.92 48.54 49.94 52.19 50.59 52.93 53.81 54.78 54.62 53.36 49.46 51.54 60.45 60.03 60.63 61.89 62.20 63.66 64.83 68.45 68.86 69.67 70.84 72.00 72.66 73.59 75.52 74.81 75.50 75.60 76.36 76.80 76.80 77.22 76.93 76.31 74.91 74.34 73.45 71.40 70.92 71.02
57.10 53.41 50.85 47.37 49.26 50.65 48.67 49.80 52.08 52.36 51.33 51.47 52.07 54.59 57.46 58.68 59.25 60.91 62.23 63.47 64.73 66.82 69.35 70.21 70.70 71.83 73.13 74.24 76.54 76.69 75.44 75.94 76.20 76.41 76.44 77.57 76.64 75.96 75.33 74.86 72.16 70.58 70.99 70.45
52.94 50.61 52.56 52.59 52.67 52.51 51.38 49.87 49.78 49.52 51.09 49.72 52.36 53.44 57.03 59.05 59.74 60.91 61.92 62.38 63.33 67.54 69.20 70.36 70.85 71.99 73.64 74.44 76.23 75.75 75.83 76.25 76.66 76.24 76.10 76.67 77.67 75.49 74.68 75.73 73.43 72.48 71.56 70.33
55.76 51.97 54.00 51.73 52.90 52.45 50.85 51.91 51.62 50.88 50.75 51.09 51.82 52.84 58.39 59.87 60.58 60.63 61.20 61.83 63.22 66.44 69.26 70.40 71.14 72.27 73.31 74.16 74.92 75.53 75.65 75.83 76.52 76.17 76.14 76.96 75.97 74.01 75.22 74.50 73.37 71.74 71.60 70.85
53.10 51.93 51.88 49.01 53.02 52.55 49.50 52.24 52.59 52.89 53.03 51.83 49.74 54.17 57.37 57.37 58.82 60.57 63.46 63.13 63.90 64.93 69.04 70.38 71.29 72.29 73.61 74.41 75.52 75.13 75.67 76.20 76.18 76.62 76.69 76.35 75.76 74.21 73.69 73.71 72.32 72.23 69.93 69.24
54.52 54.35 52.88 49.86 52.10 44.66 53.22 56.89 55.89 53.96 54.44 54.42 53.83 55.21 56.69 57.71 60.30 61.38 65.58 64.58 65.16 65.92 67.30 70.48 71.48 72.19 73.73 74.44 74.98 75.33 75.72 76.15 76.22 76.35 76.22 76.00 75.20 73.73 73.50 73.23 72.08 71.14 69.12 69.77
55.81 55.53 51.48 49.18 49.32 51.60 52.88 54.77 54.44 53.60 53.37 56.41 55.15 56.29 56.94 58.96 61.01 62.43 65.05 66.39 67.19 67.83 69.09 70.54 71.98 72.74 73.78 73.65 74.49 74.74 74.73 75.45 75.77 75.38 75.53 75.22 74.26 73.51 72.58 72.27 71.91 70.95 69.80 69.01
55.64 56.47 53.76 52.24 47.27 45.18 54.18 57.95 59.96 59.43 51.53 57.41 57.23 56.92 57.48 58.45 55.78 59.46 65.50 66.45 66.20 67.28 69.64 70.89 71.48 72.08 72.88 73.53 74.19 74.18 74.35 74.88 74.54 74.95 75.11 75.03 74.55 73.72 72.75 71.57 71.99 71.31 70.31 68.48
52.43 53.42 50.71 50.62 49.58 52.38 56.65 58.00 59.76 50.05 52.89 61.45 59.24 58.82 58.58 58.06 60.66 65.12 65.92 66.68 67.86 68.95 70.40 71.48 71.90 71.67 72.78 73.90 74.55 73.93 74.32 73.98 75.28 75.51 75.28 74.78 74.52 73.20 72.48 71.93 71.54 70.55 69.84 69.07
51.29 50.39 50.27 52.24 49.82 47.78 57.48 58.15 54.29 58.96 63.34 62.74 62.97 63.35 63.20 64.63 65.29 66.42 67.48 68.16 68.74 69.66 70.56 71.84 72.05 72.12 72.65 74.17 74.68 74.18 73.98 75.32 75.85 75.43 74.56 73.86 73.23 71.86 70.77 70.38 69.28 69.33 68.34 67.50
50.75 54.46 52.61 54.07 53.89 57.69 58.32 57.87 60.30 61.02 61.75 64.45 63.89 64.12 65.07 64.79 65.62 66.80 67.33 68.52 68.93 69.75 70.33 71.47 71.54 71.93 73.29 74.35 74.50 73.54 74.23 75.30 74.81 74.39 73.46 71.91 70.76 70.80 70.61 69.19 68.85 67.21 68.07 67.41
56.63 59.55 55.55 54.70 54.92 56.52 57.75 57.87 59.38 60.92 60.61 62.33 65.61 66.15 66.21 65.05 65.61 65.87 66.72 67.36 67.91 68.98 69.54 70.59 71.10 71.40 71.94 73.08 73.76 73.17 73.51 74.03 72.98 72.26 71.09 70.21 69.44 68.29 69.12 68.82 68.69 67.93 67.27 66.49
53.05 56.32 55.98 54.75 55.65 54.93 56.38 57.95 58.50 58.43 60.33 61.18 63.32 64.89 65.53 66.07 66.41 67.17 67.62 68.29 68.60 69.17 70.35 71.32 71.62 71.69 72.06 72.73 72.32 72.87 72.39 72.92 70.95 70.78 70.36 68.51 67.96 67.00 64.22 60.34 58.95 65.03 60.93 59.83
48.79 49.77 54.38 52.92 56.93 56.59 55.51 56.62 57.67 57.06 57.99 59.46 59.78 60.55 62.15 63.46 63.83 65.92 67.24 68.36 68.46 67.89 69.93 69.57 70.29 70.61 70.18 71.15 70.68 70.36 72.30 71.73 70.84 69.92 69.23 68.38 68.49 68.24 68.11 65.58 60.71 44.65 45.49 44.45

GFSCGP_sfc_wetblb_027.txt.gz
Wetbulb
55.82 52.46 51.31 55.13 57.35 58.67 59.43 58.80 56.87 60.57 61.41 62.28 61.82 61.98 64.21 67.06 67.42 66.34 66.54 67.05 67.54 68.60 71.23 72.39 73.37 73.39 74.37 75.14 75.46 76.24 77.22 79.91 77.98 76.15 75.46 75.93 75.20 77.66 76.76 76.92 76.91 78.60 78.37 78.30
53.35 50.53 54.64 57.46 57.53 57.65 58.12 58.02 57.93 59.55 61.55 61.90 61.76 61.61 63.83 66.43 67.02 67.43 67.09 67.11 67.30 68.10 69.81 71.64 73.09 73.38 74.07 74.95 76.06 77.47 78.23 80.01 78.84 77.46 78.04 77.36 77.21 75.84 76.95 77.18 78.13 79.12 78.13 79.31
51.24 52.49 55.14 56.14 56.15 56.21 57.01 57.45 58.10 57.04 62.19 62.95 61.52 59.81 61.99 64.62 67.03 68.23 68.25 68.44 68.67 68.23 68.70 70.80 72.31 73.28 74.02 74.52 75.94 77.98 79.68 80.15 79.91 80.26 79.21 78.04 77.97 77.11 75.91 74.56 74.70 76.33 77.28 76.88
52.73 55.03 53.59 54.48 54.62 56.68 54.50 58.88 58.60 58.00 57.82 55.98 61.01 54.38 60.43 62.67 63.69 66.01 67.68 68.43 68.02 68.79 69.40 70.39 71.87 72.91 73.60 74.57 76.22 78.76 79.92 80.48 80.35 80.94 78.71 79.41 75.78 73.90 73.62 74.88 75.00 75.63 76.25 75.98
51.98 52.43 52.63 52.53 54.44 57.29 55.83 59.34 58.81 58.75 57.32 58.20 57.37 55.45 57.50 61.88 61.28 63.00 66.36 68.43 68.92 69.21 69.53 69.45 70.75 72.76 73.85 74.69 75.42 77.30 80.21 80.83 80.98 80.66 79.93 77.83 77.50 75.04 74.87 74.58 78.79 77.36 78.59 76.34
54.32 56.41 54.64 54.34 56.10 56.96 58.32 57.88 58.75 58.44 57.27 52.32 57.49 55.81 56.94 58.60 61.93 63.43 65.84 67.88 69.24 68.91 69.98 70.78 71.46 72.66 73.36 74.41 75.08 76.52 79.58 80.95 81.52 81.10 80.84 80.72 80.22 77.54 75.63 75.88 75.28 74.28 73.61 74.53
53.00 53.41 54.66 55.47 53.22 56.03 55.86 55.21 51.04 50.22 50.68 50.51 58.13 56.55 57.95 61.62 62.99 64.20 64.11 66.03 68.73 69.91 69.41 70.40 70.81 71.00 72.95 74.10 75.43 76.01 79.01 80.39 81.63 80.89 80.59 80.22 80.73 80.66 79.64 78.04 75.30 76.85 72.40 72.50
49.45 47.86 53.12 54.50 53.30 52.94 53.83 54.39 51.05 46.95 48.22 50.85 56.89 54.13 57.44 63.37 64.23 64.56 64.42 65.48 67.54 69.56 69.96 69.77 70.69 70.75 72.19 73.63 75.94 76.71 78.12 80.04 81.09 80.91 80.81 81.49 81.49 77.74 77.30 78.43 76.02 74.55 72.57 72.92
50.77 50.29 55.10 54.92 54.85 54.05 53.33 52.15 56.30 53.17 54.38 51.82 54.16 57.37 60.04 62.58 62.57 63.85 64.21 64.44 64.60 68.17 69.69 70.03 70.38 70.71 70.88 73.32 75.53 76.51 77.73 79.81 80.93 80.31 81.41 81.12 81.15 80.25 77.58 79.17 79.82 76.56 77.99 73.41
53.85 50.47 54.67 54.47 55.21 54.11 53.16 56.16 51.45 53.65 49.01 48.79 51.92 53.75 55.34 59.72 60.53 62.48 62.92 62.83 63.74 65.51 68.34 70.14 70.58 71.21 72.48 72.34 74.85 76.91 78.18 79.90 80.52 80.57 80.97 80.17 80.53 80.63 80.63 80.90 80.22 79.03 78.28 76.33
54.34 53.17 52.57 54.80 52.33 51.08 50.99 51.64 53.88 54.03 53.33 49.95 48.90 52.80 60.38 60.77 61.79 61.22 62.29 63.18 63.66 64.24 66.40 69.26 71.06 71.75 73.41 73.21 74.14 75.77 77.58 79.11 80.17 80.28 80.18 80.01 79.89 79.71 80.10 79.30 79.57 79.36 79.05 77.17
54.89 53.08 50.45 52.25 55.14 55.36 53.87 51.91 52.99 53.26 51.67 53.21 53.26 52.71 61.02 61.15 62.02 62.31 62.56 63.16 63.83 64.62 65.49 67.52 69.94 71.60 72.52 74.57 73.71 74.13 75.77 76.68 78.59 79.40 80.42 79.90 80.38 79.90 79.24 79.36 79.65 79.63 78.36 77.19
55.21 52.25 48.87 50.54 53.18 54.93 52.21 52.91 52.87 53.44 54.91 54.30 51.41 52.47 61.28 61.21 61.74 62.35 62.25 63.11 64.54 64.71 66.39 68.06 68.39 70.72 73.25 75.02 75.52 75.19 76.05 75.26 76.77 78.76 78.83 79.90 79.99 79.59 79.09 79.50 79.71 79.32 77.60 75.98
58.58 53.09 51.14 48.56 51.24 53.31 51.14 51.51 52.45 52.10 51.33 52.87 53.04 55.19 58.37 60.01 60.88 62.05 62.50 63.33 63.80 65.09 66.39 69.70 69.67 68.61 73.30 75.28 76.25 76.77 76.20 75.40 76.16 77.01 77.90 79.22 79.73 79.79 79.36 79.96 79.26 78.47 76.83 75.18
54.69 51.78 52.98 52.79 53.94 54.02 52.09 50.97 50.96 50.73 52.34 51.15 54.04 54.80 58.19 60.14 60.92 62.52 63.19 63.58 63.75 63.97 64.94 69.57 70.87 71.44 75.45 75.91 77.65 77.47 77.91 78.02 77.20 78.30 78.34 79.33 80.53 80.58 80.56 79.40 78.95 77.37 76.53 73.96
54.94 51.53 53.91 52.48 53.79 53.68 52.40 51.67 51.20 51.27 51.86 52.69 53.46 54.19 60.02 61.34 62.34 62.65 62.50 62.64 63.06 63.50 64.15 68.63 71.83 72.54 74.52 76.10 77.34 78.15 77.99 78.48 79.05 78.87 78.83 80.10 80.60 80.16 79.37 78.72 78.81 76.82 74.85 73.91
53.27 51.95 51.19 48.90 52.86 52.66 49.63 52.85 53.08 52.84 53.25 52.48 50.54 55.18 58.58 58.34 60.04 61.96 65.50 63.81 63.44 64.03 64.99 65.04 71.42 73.22 75.53 75.24 77.81 77.95 78.46 79.29 79.02 79.98 79.51 80.36 80.47 79.62 78.11 77.55 77.27 75.53 74.53 73.51
53.10 53.22 52.67 49.74 51.99 44.76 53.34 56.74 55.74 54.33 55.27 55.90 55.47 56.03 57.04 57.94 60.24 62.40 64.16 63.40 64.24 65.02 65.24 66.81 69.10 72.82 74.41 75.23 76.02 78.16 77.70 79.03 79.26 79.14 79.75 80.35 79.55 78.21 76.84 76.48 76.71 76.34 74.55 72.84
55.08 53.61 49.98 48.05 48.44 52.27 53.40 55.55 55.08 54.24 54.47 57.59 56.85 57.88 58.18 58.43 58.38 60.40 62.81 64.24 66.08 66.97 67.54 68.10 65.95 71.83 75.20 75.90 77.81 78.76 78.33 78.27 78.50 78.33 79.18 79.02 78.40 77.77 76.60 74.26 75.01 75.55 74.45 71.99
55.00 56.43 52.61 50.40 46.64 45.06 53.09 59.09 61.39 60.09 52.43 59.11 59.35 59.88 58.37 58.98 54.19 58.36 63.27 62.19 63.82 65.28 66.28 66.91 68.68 70.70 74.01 76.46 76.12 77.63 77.15 77.74 77.74 77.97 78.45 78.72 78.37 76.77 75.48 74.79 74.79 74.97 73.94 72.19
49.80 51.49 49.22 51.00 49.43 51.98 59.26 60.61 60.75 51.64 54.07 63.21 63.66 63.41 62.75 60.36 59.57 62.18 64.34 64.86 67.13 67.33 68.72 70.08 71.96 72.42 76.87 77.41 77.63 77.20 76.93 76.12 77.29 77.38 77.35 77.50 76.50 76.23 76.21 75.04 75.23 72.69 70.85 69.73
49.29 49.20 48.82 50.92 49.04 45.42 60.26 59.92 55.94 60.51 64.51 65.30 65.11 64.58 64.14 65.49 62.67 62.25 67.32 67.99 68.99 69.30 70.32 71.11 72.10 73.87 75.57 77.81 77.95 77.37 77.33 78.92 78.74 77.67 76.16 76.09 76.38 75.22 74.27 73.73 72.57 71.81 70.01 70.22
49.13 53.01 51.00 52.86 53.06 61.64 62.35 62.49 63.11 62.80 62.22 64.79 65.78 65.90 65.55 65.22 65.47 66.92 68.75 68.83 69.87 71.05 71.77 72.32 72.96 74.68 75.82 77.26 78.60 76.83 78.39 78.82 77.95 76.92 76.33 75.99 75.66 74.22 73.60 71.10 69.87 68.91 69.62 69.05
55.12 57.48 56.30 57.62 59.21 59.40 60.42 62.13 63.04 63.72 63.75 65.52 66.56 66.34 66.52 65.59 66.88 67.95 69.34 70.01 70.70 71.76 72.55 73.80 73.16 73.31 75.16 77.26 77.30 77.04 77.33 78.17 76.85 75.40 74.29 72.95 71.77 71.28 71.71 69.88 69.45 69.36 68.35 68.09
49.14 50.89 56.67 57.50 58.45 59.48 60.03 60.72 61.85 62.69 64.96 66.11 67.02 67.50 67.07 66.97 67.12 67.74 68.02 69.19 69.86 70.64 71.86 72.80 72.75 73.10 73.35 74.46 74.60 75.15 75.26 75.65 74.14 72.85 72.09 70.91 70.96 71.09 68.19 62.19 61.96 68.80 66.18 62.18
49.89 49.23 52.93 55.22 59.00 59.66 58.31 60.86 61.81 61.10 61.64 63.15 63.68 63.65 63.71 65.33 66.24 67.73 67.93 69.24 69.99 70.64 71.72 72.03 72.75 72.24 72.92 73.23 73.45 74.39 74.80 74.21 72.88 71.26 70.52 68.93 68.78 68.15 68.45 66.33 61.37 45.07 46.38 44.85

GFSCGP_sfc_wetblb_030.txt.gz
Wetbulb
55.93 52.21 50.56 52.24 54.53 55.65 55.58 56.71 56.21 59.43 59.94 59.96 61.42 60.00 59.84 62.46 65.04 63.81 63.93 65.19 65.84 67.08 69.85 71.48 72.23 73.26 73.72 74.69 75.88 76.20 77.11 78.47 78.51 77.43 75.29 75.68 76.25 76.62 77.11 77.18 79.79 78.18 77.90 78.24
53.26 50.00 53.19 55.01 55.46 55.60 55.54 55.55 57.06 59.77 61.41 61.19 60.07 60.41 62.24 63.37 64.79 64.88 64.69 64.96 65.71 66.93 68.81 70.81 72.21 72.88 73.10 74.38 75.26 76.89 77.08 79.33 78.27 77.33 76.75 75.85 75.76 75.50 76.66 76.89 77.54 77.35 78.00 77.79
50.69 52.19 54.18 53.62 53.83 54.42 54.91 55.01 56.61 57.32 60.64 61.16 59.67 57.99 60.96 64.70 65.77 65.76 66.12 66.84 66.49 67.00 67.08 70.10 71.52 72.27 72.83 74.26 75.43 76.27 77.18 78.66 77.65 78.69 77.04 77.60 79.28 79.84 74.68 75.45 75.18 77.50 77.77 78.27
52.61 54.42 52.78 51.94 52.52 54.86 52.37 57.04 57.37 58.11 57.51 54.07 59.75 52.30 60.07 62.10 64.14 64.77 65.11 65.94 66.59 67.22 68.30 69.02 70.76 72.40 72.69 74.23 76.36 76.82 77.63 78.06 78.38 78.17 78.23 77.56 75.01 74.90 75.94 77.16 75.39 77.52 78.20 77.78
51.81 52.11 51.81 50.75 51.77 55.39 54.47 57.92 57.14 57.16 56.53 57.73 57.37 54.39 58.30 62.54 60.96 63.64 64.63 65.99 66.72 68.22 68.08 68.17 70.33 72.16 73.30 74.64 75.42 77.11 77.55 78.05 78.48 77.95 78.61 78.08 76.45 74.19 76.58 76.12 77.79 77.69 78.39 77.37
53.73 56.26 53.89 53.28 53.95 55.14 57.17 56.29 56.48 56.67 55.68 51.81 56.35 53.42 55.05 59.22 61.36 62.79 64.93 65.11 68.11 67.71 68.88 69.44 70.62 72.58 73.16 74.22 75.45 76.28 77.40 77.69 78.42 78.61 78.05 78.20 76.57 75.85 75.98 76.96 76.11 75.79 75.76 75.93
52.55 52.79 54.92 54.96 52.22 54.45 54.65 53.36 49.72 49.02 50.12 49.22 56.81 55.30 57.08 61.74 63.03 63.28 62.60 65.28 68.41 69.54 69.03 69.64 69.79 70.94 73.00 73.36 74.29 75.99 77.52 77.43 78.27 78.69 78.35 77.68 78.27 77.82 76.54 79.05 76.90 74.85 73.15 73.52
48.57 47.40 52.45 54.99 52.50 51.61 52.29 52.68 50.39 45.77 47.77 50.23 56.15 52.86 57.42 63.62 63.87 63.01 63.99 64.30 67.41 68.82 69.75 70.32 70.91 70.96 72.94 73.48 74.42 75.24 76.87 77.41 78.41 78.33 78.81 78.76 78.19 78.33 77.96 77.82 76.84 74.72 75.24 73.84
50.13 49.39 54.99 54.78 55.01 53.61 51.78 50.21 54.39 51.36 52.91 50.84 53.48 56.49 60.30 63.08 61.98 63.97 64.57 64.55 64.71 66.20 69.31 69.99 71.73 72.15 72.43 73.74 74.12 74.94 77.22 77.53 78.42 78.95 78.94 79.07 78.99 78.13 77.38 78.32 77.47 77.83 76.40 77.18
53.24 49.47 54.04 54.74 55.33 54.31 52.56 54.90 49.25 50.50 46.72 46.81 51.43 53.50 54.84 60.73 60.26 62.97 62.45 63.89 65.21 65.44 69.06 69.68 70.22 71.73 72.45 73.73 74.88 75.58 76.31 77.76 78.74 79.31 79.29 78.82 79.19 79.23 78.33 77.95 77.80 76.23 78.55 76.51
53.64 52.73 51.85 54.79 52.65 50.94 50.81 49.60 51.03 51.98 51.94 48.75 48.14 52.16 60.67 60.88 63.37 63.45 63.53 64.33 65.26 64.61 67.75 69.62 70.31 71.34 72.37 72.98 74.10 74.74 75.39 77.45 78.36 79.11 79.13 79.02 78.90 79.40 78.48 77.85 77.43 77.60 77.47 76.79
54.17 52.24 50.07 51.10 55.51 55.64 53.42 51.86 51.20 47.92 50.26 51.93 51.48 52.63 60.07 64.42 63.85 64.65 64.11 65.08 65.74 65.86 65.73 67.21 70.58 71.32 71.92 71.85 72.81 73.79 74.81 75.21 77.81 78.84 78.80 79.04 79.34 79.12 78.55 77.24 78.36 78.63 76.92 76.78
55.94 51.30 48.29 48.99 52.12 55.03 52.65 52.62 51.59 50.98 51.07 51.42 49.25 51.13 60.40 62.21 61.69 63.20 63.74 64.26 65.89 67.24 69.22 69.63 69.37 71.06 72.06 72.05 72.06 72.73 73.96 74.80 76.90 78.33 78.39 78.69 78.71 78.39 78.16 78.15 77.03 78.12 77.67 76.88
58.79 52.60 50.82 47.58 50.55 52.90 52.11 52.16 52.57 50.98 48.40 49.71 52.00 54.17 57.58 60.82 61.51 62.98 64.11 65.21 66.32 69.09 70.43 70.75 73.25 71.94 72.15 72.73 72.60 72.87 73.36 75.06 75.82 77.67 77.69 77.74 78.22 78.31 78.04 78.22 78.01 78.03 78.32 76.87
54.85 50.98 52.01 52.35 51.98 53.02 52.65 52.18 51.68 51.10 52.12 49.98 51.91 55.13 57.22 59.59 62.16 63.07 67.56 66.42 67.05 68.65 69.25 70.91 70.50 73.61 75.91 74.01 73.80 73.81 73.98 74.44 75.54 76.17 76.67 77.58 78.83 78.62 78.69 78.20 78.26 78.12 78.11 77.01
55.36 51.43 51.97 50.46 52.08 52.01 51.42 52.92 52.98 52.95 52.45 52.38 53.12 52.95 58.83 61.34 62.72 64.46 62.15 63.03 65.70 67.03 67.22 70.77 73.02 74.40 75.56 76.19 75.09 74.18 74.59 74.59 75.46 75.09 76.08 77.12 78.02 78.67 78.57 78.50 78.24 77.82 77.50 76.40
53.83 51.89 51.63 48.14 51.90 51.41 48.68 52.82 53.41 53.02 54.05 53.09 50.88 55.29 59.44 59.12 60.47 63.67 65.16 63.19 66.25 66.04 66.46 69.34 72.90 73.63 75.26 76.79 76.72 75.07 75.00 76.31 75.09 75.84 76.08 76.85 78.10 78.42 78.48 78.53 78.06 77.37 76.76 75.70
54.57 52.95 52.00 49.05 51.44 44.30 52.58 56.06 55.48 54.47 54.44 54.19 54.77 56.35 58.13 59.38 61.38 62.09 65.18 66.61 66.95 67.65 67.32 69.77 67.78 72.97 75.28 75.62 75.85 78.11 76.75 76.82 76.25 76.83 76.83 77.79 78.44 78.47 78.59 78.13 77.52 77.25 76.43 74.29
55.15 54.08 49.16 47.80 47.27 50.17 52.43 54.78 54.40 53.62 54.76 57.25 56.35 57.79 58.04 58.50 59.18 60.01 62.41 63.47 65.69 67.05 69.52 70.62 67.64 66.88 74.19 74.47 76.22 76.71 77.48 76.58 77.04 76.39 78.51 78.59 78.88 78.47 78.11 77.15 76.86 76.28 75.41 72.94
52.71 56.49 51.41 49.65 45.65 43.78 53.13 55.57 58.18 57.86 52.15 59.59 58.88 59.44 58.71 60.87 55.40 57.61 63.28 63.01 63.25 64.51 65.37 68.95 69.45 68.22 69.75 74.76 75.96 76.56 76.50 77.10 76.01 77.74 78.33 79.50 79.36 78.53 77.43 77.03 76.46 76.94 76.06 72.97
48.61 50.63 48.05 48.06 47.25 49.73 55.80 57.50 60.63 51.81 55.12 63.58 63.06 62.59 61.94 61.00 64.03 67.69 67.25 65.28 63.90 64.96 66.09 67.94 70.13 71.86 77.58 75.51 76.01 76.10 76.70 76.55 77.61 78.91 79.29 79.34 79.01 78.41 78.17 76.48 75.71 74.95 74.24 73.59
47.72 47.37 47.05 49.35 48.11 45.66 59.42 59.84 55.39 61.99 65.11 64.91 64.99 64.77 64.03 65.26 65.87 66.28 67.78 67.99 68.33 71.01 70.97 71.06 74.82 76.19 78.15 77.22 78.22 76.93 76.87 78.65 79.00 78.51 78.50 78.23 78.27 76.32 76.36 74.43 73.55 72.82 71.55 70.95
45.52 49.82 49.16 51.63 52.24 59.97 59.71 62.99 64.38 64.12 63.67 64.66 65.08 64.95 65.05 64.33 64.64 65.21 68.76 69.86 68.98 70.11 72.25 73.07 75.30 78.25 78.83 80.66 78.29 76.79 78.77 78.60 78.21 77.45 76.96 76.30 76.10 75.37 74.31 72.66 72.60 69.69 70.11 68.26
52.84 53.46 52.32 52.95 55.74 60.31 61.22 62.23 63.92 64.53 64.58 65.61 66.40 66.10 65.57 64.92 65.40 66.79 68.93 69.58 70.36 71.99 73.34 74.86 75.24 75.95 76.85 78.38 78.75 78.41 77.80 77.38 76.52 75.86 75.65 75.40 73.76 72.30 71.70 70.65 70.62 69.06 68.03 68.24
50.39 51.33 51.21 53.75 61.24 60.80 61.35 62.50 63.30 64.31 66.04 66.04 67.61 67.95 68.28 68.43 68.43 69.23 69.83 71.33 71.69 73.41 74.49 75.10 75.51 75.43 76.53 77.39 77.07 77.41 77.07 76.70 75.41 74.75 72.77 71.52 70.76 69.24 62.67 57.59 56.22 67.73 60.82 61.80
51.00 49.04 48.61 52.93 52.91 54.14 60.36 62.17 63.85 63.12 63.57 64.88 65.31 65.55 66.98 68.04 67.68 68.38 68.50 70.32 70.81 71.72 73.32 73.21 72.52 71.77 73.19 74.92 74.58 74.70 75.98 75.64 73.56 71.18 71.04 69.46 68.10 66.27 63.30 61.92 57.92 45.96 46.40 44.95

GFSCGP_sfc_wetblb_033.txt.gz
Wetbulb
51.67 47.53 46.19 47.81 49.01 50.06 50.60 49.91 49.68 55.84 59.65 58.37 58.04 57.25 58.43 59.47 59.11 59.77 62.71 63.51 64.18 64.97 66.63 68.53 69.21 70.86 71.38 72.16 72.42 71.79 72.05 73.88 73.99 73.75 73.41 72.70 72.04 72.40 72.86 73.67 74.78 74.88 74.22 74.24
48.80 46.40 50.36 52.40 51.93 50.48 50.28 49.33 49.81 57.78 59.59 57.59 58.05 57.50 58.64 60.22 60.27 60.58 62.13 62.93 63.72 64.58 65.71 67.44 68.32 69.46 70.40 70.97 72.37 72.00 72.72 74.53 73.81 74.16 73.59 72.21 72.43 72.46 72.80 73.16 74.97 74.14 74.94 74.39
47.38 48.43 53.07 51.79 50.18 49.69 49.54 48.57 50.15 55.44 58.63 58.96 57.12 55.48 56.16 59.23 61.50 62.46 62.70 63.93 64.37 64.47 64.82 66.54 67.70 68.73 69.87 70.54 71.98 72.55 73.35 74.58 74.61 74.47 74.00 72.83 73.54 73.90 72.85 73.81 73.85 74.92 74.98 74.94
49.21 52.23 51.77 50.21 48.68 50.12 46.61 52.55 53.59 56.38 54.51 49.69 57.68 49.70 55.02 57.94 59.86 61.37 62.19 62.23 63.39 64.33 65.78 66.70 67.86 68.37 69.48 70.85 72.88 73.07 73.85 74.98 73.99 74.41 72.75 71.32 70.91 70.55 71.40 73.62 73.87 73.23 74.82 74.65
48.20 50.28 49.69 48.64 49.08 50.71 49.01 53.82 53.34 52.96 53.10 53.72 53.98 50.67 53.29 58.88 58.46 59.60 61.97 62.29 63.09 64.11 65.30 66.52 67.97 68.97 69.96 71.74 72.38 73.84 73.71 75.17 73.92 73.97 73.83 71.98 70.81 71.52 70.96 69.90 71.93 73.60 73.23 74.18
50.49 54.16 52.18 50.56 51.80 51.34 52.24 51.52 51.61 51.39 50.24 44.55 52.44 51.41 50.30 53.11 59.28 61.02 62.25 63.31 63.73 64.12 65.06 66.12 68.40 69.75 69.76 71.97 72.90 73.65 73.43 73.86 74.57 73.28 73.71 73.67 72.27 70.22 69.07 71.68 71.42 72.17 70.61 71.49
48.91 49.86 52.34 53.36 48.26 50.19 49.40 45.73 42.77 41.82 43.18 41.68 52.30 51.14 52.63 56.75 59.44 63.13 62.82 63.06 64.23 65.11 65.00 65.19 67.21 68.65 69.45 70.09 72.63 73.46 73.32 72.95 74.72 74.18 73.88 74.35 74.44 72.29 71.57 72.07 71.29 70.36 69.97 69.25
44.45 42.80 49.50 52.56 49.51 46.26 46.77 45.59 42.77 36.28 40.51 43.64 49.25 48.02 52.44 60.17 61.46 62.71 64.08 63.63 63.56 63.94 65.78 65.60 66.10 68.20 69.59 70.15 71.91 73.37 73.35 73.23 74.57 74.70 73.94 74.12 74.25 75.37 73.54 73.00 72.92 71.03 70.96 70.22
44.83 45.27 52.34 52.57 52.81 50.14 45.56 44.52 47.70 42.06 45.71 42.67 46.71 49.82 55.60 60.07 59.27 60.73 60.82 61.88 62.19 63.66 65.86 66.51 66.51 67.82 69.67 70.00 71.57 72.68 73.65 73.89 74.62 75.03 74.95 74.48 74.25 74.42 75.35 73.73 72.38 72.96 71.12 71.37
48.18 43.05 50.66 52.37 52.88 51.70 48.18 47.87 43.50 44.96 38.65 39.25 45.22 46.21 48.85 55.89 56.82 59.57 60.25 60.96 61.92 62.55 64.36 67.28 67.50 67.49 70.01 70.81 71.38 73.00 74.85 74.29 75.10 75.09 75.72 75.78 75.58 75.11 74.99 74.77 73.53 72.71 73.02 72.34
49.36 47.20 47.68 51.28 48.55 47.15 45.76 45.68 44.27 44.28 45.33 39.93 39.61 45.39 51.91 55.97 58.57 59.48 61.04 62.03 63.63 64.27 64.50 66.37 68.12 68.37 69.85 71.05 71.46 71.91 74.31 74.65 75.07 75.44 75.33 75.60 76.01 76.22 75.43 74.88 74.20 73.51 72.57 72.29
50.49 47.39 44.08 46.66 51.88 52.47 50.54 46.43 44.09 41.98 38.53 42.85 43.64 44.76 54.79 57.67 60.71 61.47 61.49 61.99 63.47 64.57 65.35 65.76 67.96 68.86 68.80 70.46 71.21 71.74 74.56 74.71 75.66 76.03 76.27 75.85 76.00 76.67 76.32 75.37 74.60 74.62 72.93 72.81
50.83 47.35 41.62 43.75 47.53 50.78 48.51 49.30 47.35 45.97 42.63 41.98 39.57 44.80 54.37 55.50 59.70 61.78 61.33 61.59 63.14 62.90 61.23 64.67 67.19 68.39 69.02 70.11 71.05 71.68 73.64 74.92 75.70 76.10 76.30 76.42 76.01 75.85 76.56 75.97 75.21 74.84 74.26 73.12
56.79 48.60 45.41 42.13 44.71 47.24 46.76 48.85 49.07 46.51 42.88 41.32 43.66 43.96 50.04 54.50 56.99 59.05 60.01 61.27 61.54 62.80 62.81 62.22 67.06 67.38 68.53 69.13 70.69 71.39 72.32 74.69 75.65 76.11 76.10 75.85 76.05 76.22 76.34 76.76 75.35 74.92 75.35 73.70
46.53 44.67 48.03 48.10 49.60 50.08 49.22 49.61 49.24 46.89 46.69 43.12 44.34 45.49 48.61 51.78 57.46 59.07 59.36 58.94 60.15 62.23 63.40 62.25 65.91 67.06 68.08 68.13 69.31 70.83 71.84 72.45 74.93 75.19 75.58 75.52 76.20 76.70 76.66 76.37 76.14 74.74 75.13 74.67
44.78 44.57 47.90 46.39 49.78 49.27 48.01 49.80 49.95 49.42 49.06 48.07 48.03 47.68 51.26 52.83 59.91 59.53 60.51 60.19 59.87 62.03 64.42 64.51 64.29 67.41 67.97 68.02 68.19 69.64 70.79 71.69 72.49 74.04 74.76 75.49 75.44 76.24 76.08 75.99 75.77 75.47 74.56 75.17
42.23 42.38 44.04 41.92 47.83 47.14 44.30 47.88 48.96 50.35 51.22 50.07 46.56 48.71 51.88 52.09 54.60 57.74 60.08 59.51 59.73 60.32 62.84 64.70 65.75 66.21 67.55 69.63 69.67 69.27 70.03 71.42 71.89 71.81 73.69 74.53 75.06 75.47 75.74 75.94 75.47 75.35 74.69 75.20
43.66 43.14 45.32 41.28 44.73 39.25 46.56 51.66 52.12 51.03 52.49 52.11 51.09 51.67 53.29 53.42 55.71 58.40 60.24 60.07 60.25 61.24 62.21 62.80 68.36 67.43 68.05 71.67 70.95 71.01 71.02 70.92 71.38 71.89 72.48 74.06 74.42 75.34 75.94 75.74 75.38 75.33 75.32 74.02
48.55 44.80 42.97 41.27 41.29 43.68 49.34 51.30 50.87 48.39 49.22 53.99 52.48 52.99 53.94 54.13 53.53 52.64 57.32 59.31 57.12 59.98 60.96 63.45 63.98 68.66 70.13 71.16 72.63 71.30 70.98 71.60 70.87 71.43 72.01 73.65 74.51 74.98 75.76 75.45 75.53 75.42 74.76 73.72
48.17 48.04 45.51 40.99 38.92 38.35 46.38 53.25 55.35 53.83 45.95 57.66 56.38 54.39 53.25 52.85 47.52 50.37 59.84 61.09 59.10 60.27 59.82 61.76 63.59 63.42 69.03 68.82 73.47 72.05 71.43 72.09 71.06 71.47 72.94 73.85 74.72 75.37 75.73 75.89 75.29 74.56 73.69 72.26
42.75 44.17 43.65 42.23 39.81 43.38 51.61 53.97 54.87 46.33 47.62 59.99 60.22 59.43 59.25 56.73 58.70 60.69 61.32 62.06 61.00 59.51 60.36 59.91 60.86 62.11 63.56 68.72 72.56 72.95 72.47 71.54 73.64 73.93 75.33 75.67 76.18 76.45 76.37 75.37 74.89 74.41 72.08 70.81
42.63 41.10 42.96 43.05 40.65 39.55 57.84 54.92 53.17 57.38 60.21 61.02 60.92 60.36 59.37 59.34 60.42 60.52 64.53 64.35 64.71 66.02 66.80 66.03 62.93 64.65 66.45 68.63 72.23 71.68 72.63 73.62 73.77 75.42 76.34 76.28 76.38 76.25 74.97 73.58 72.99 72.59 71.46 69.73
41.85 46.75 45.01 46.41 46.31 55.86 58.04 58.18 59.16 59.88 60.62 60.28 60.01 60.25 60.52 59.60 58.65 63.72 64.68 65.38 64.74 64.95 65.71 67.57 71.25 73.63 74.50 73.25 72.27 72.24 74.12 75.36 75.64 75.88 75.54 75.59 74.63 74.29 72.73 71.31 70.21 69.40 68.81 67.93
48.47 50.25 48.32 48.71 50.76 52.38 56.56 57.82 58.83 61.16 61.25 64.83 65.26 65.62 65.80 65.30 66.51 66.38 67.35 67.05 68.56 69.50 70.32 71.88 72.56 72.50 73.00 74.43 75.47 75.35 75.40 75.62 75.25 73.97 73.23 72.19 71.80 71.02 70.86 69.65 69.24 68.47 67.67 67.17
48.73 49.44 46.85 48.47 51.07 54.05 57.20 54.08 58.44 61.52 65.26 64.83 65.79 66.14 66.00 65.80 65.82 66.45 66.59 67.92 69.59 70.41 71.64 71.97 72.00 72.71 73.27 74.22 74.00 74.43 74.70 74.40 73.16 72.60 70.68 69.51 68.09 63.55 58.63 55.20 61.28 65.39 59.74 62.75
49.67 47.61 45.96 46.06 51.66 53.15 53.40 53.70 55.39 61.65 62.37 62.52 62.97 64.01 65.44 65.88 65.64 65.82 65.53 67.10 68.50 68.70 69.52 70.25 71.37 71.97 72.42 73.32 73.41 73.44 73.07 71.83 70.41 68.84 68.59 65.68 64.32 62.90 60.39 58.05 53.21 45.86 46.59 45.44

GFSCGP_sfc_wetblb_036.txt.gz
Wetbulb
48.08 45.15 45.11 45.68 46.02 46.92 46.59 45.71 45.28 49.65 56.90 57.59 55.90 55.97 59.25 62.49 63.28 63.17 63.62 64.10 64.74 65.31 67.04 67.26 70.25 71.05 70.27 70.74 71.25 71.49 71.49 71.28 71.34 71.71 71.28 70.89 70.31 71.07 71.59 72.02 71.99 73.50 73.46 74.15
44.87 43.42 47.86 49.96 49.07 47.67 46.97 45.70 45.58 54.87 58.70 57.42 56.24 55.77 58.59 58.87 62.09 63.08 63.08 63.40 64.30 64.97 65.51 66.38 68.38 69.85 69.69 69.44 70.62 70.62 71.27 71.65 71.79 72.35 72.47 71.39 71.64 71.84 71.08 71.99 73.47 73.33 73.41 73.43
43.77 45.84 50.95 49.90 48.49 47.53 46.20 45.14 45.50 47.58 56.45 57.19 56.81 54.17 55.27 58.06 58.62 59.82 63.72 64.26 64.47 64.53 64.28 65.54 66.80 68.58 69.85 69.42 70.27 70.65 71.25 72.35 72.39 72.78 72.69 71.21 71.76 70.98 71.13 71.56 72.63 73.22 74.05 74.14
44.98 49.40 49.54 48.51 47.56 48.34 43.04 49.57 49.51 49.90 50.49 48.58 55.65 47.23 53.09 56.75 56.27 58.35 60.34 62.57 63.52 64.29 65.22 65.54 66.68 67.66 69.11 69.82 71.28 70.79 71.41 72.91 72.81 73.09 72.57 71.49 70.21 70.10 70.12 70.74 72.37 73.36 73.48 73.56
45.74 48.32 48.09 47.06 47.86 49.83 46.20 49.94 49.02 49.80 50.40 48.14 50.72 46.68 49.73 56.62 56.14 56.09 59.29 61.18 63.14 64.33 65.03 65.06 66.53 67.43 69.13 70.02 70.96 71.31 71.39 73.28 73.29 73.15 72.62 71.78 69.78 70.35 71.27 70.62 72.96 71.28 72.54 73.22
48.89 52.13 50.55 49.65 50.82 50.98 51.07 47.37 46.61 45.86 46.41 44.29 49.57 50.08 48.31 52.59 55.57 58.01 60.41 61.67 62.61 63.78 64.86 65.71 67.28 67.96 68.43 70.06 71.09 71.47 71.32 72.25 73.09 73.40 72.59 71.66 70.61 69.57 69.66 69.15 69.51 70.53 71.92 72.16
47.13 48.23 49.99 51.14 46.92 48.51 47.72 40.34 36.98 36.99 37.44 39.12 48.54 49.06 51.16 56.89 59.36 60.24 60.95 62.19 62.90 63.89 64.33 64.92 65.68 66.83 67.85 68.69 70.25 71.25 71.30 71.56 72.40 73.00 72.64 71.57 70.83 70.30 69.11 68.78 70.07 69.95 69.22 69.70
41.84 40.74 47.42 49.99 48.71 45.97 43.17 43.80 38.70 32.07 34.32 37.82 45.21 45.95 51.09 57.85 60.37 62.71 63.59 64.09 63.90 63.08 64.04 64.73 65.84 67.27 67.68 68.66 70.37 71.33 70.90 71.49 72.27 72.16 72.23 72.86 72.89 72.40 70.95 70.05 70.54 71.09 70.58 70.57
40.92 42.56 49.99 50.88 50.70 49.81 44.08 40.94 43.97 37.73 39.47 37.87 41.83 47.67 52.96 57.22 57.14 60.71 62.74 63.67 62.83 62.98 63.50 64.35 65.48 66.98 68.07 68.66 70.20 71.11 71.09 71.24 72.34 72.35 71.78 71.68 72.68 73.60 73.38 71.58 71.35 69.91 69.55 69.43
43.93 39.31 47.48 50.95 49.99 50.23 47.90 44.93 40.22 35.67 34.35 34.98 38.48 42.83 44.99 51.24 55.48 58.32 61.30 62.59 62.99 63.54 63.88 64.40 65.23 66.83 68.46 68.91 70.72 71.58 71.82 71.33 72.18 72.94 72.84 72.29 72.00 73.16 73.88 73.27 71.80 71.43 70.13 70.29
48.05 43.06 43.79 46.66 46.63 45.84 44.64 42.63 41.04 40.91 39.58 38.03 35.72 41.51 48.25 50.23 55.67 57.36 61.07 63.26 63.08 62.78 64.03 64.86 65.46 66.11 68.09 69.48 69.99 71.56 71.77 71.55 71.75 72.86 73.14 72.73 72.34 72.14 73.08 73.93 73.62 72.21 71.79 70.73
45.60 43.52 41.55 44.05 48.02 49.98 49.41 46.31 42.96 41.33 36.06 38.05 42.44 42.74 50.62 51.92 56.19 59.15 59.70 62.26 63.03 62.90 65.05 65.70 66.23 66.59 66.44 68.73 69.35 70.93 72.34 72.04 72.29 73.26 73.27 73.39 73.27 73.27 72.31 72.56 73.82 73.58 71.98 71.51
45.31 42.92 38.93 38.56 43.34 47.21 44.92 46.56 46.56 39.10 38.88 40.98 37.79 39.93 50.00 49.92 55.99 58.66 58.88 59.57 61.39 62.83 61.65 64.54 66.34 65.50 65.96 68.26 69.09 70.43 72.11 72.62 73.11 73.57 73.31 73.65 73.77 73.88 73.47 73.16 73.11 74.13 73.14 71.38
46.64 40.92 40.87 40.69 41.37 44.39 42.56 47.08 46.24 44.63 40.57 40.28 41.92 40.98 45.46 47.82 53.81 57.23 59.65 60.68 60.96 61.37 61.42 60.18 62.46 65.06 66.72 68.34 69.23 69.74 71.18 73.60 73.63 73.82 73.58 73.19 73.81 74.50 74.49 74.38 73.77 73.58 73.86 72.02
40.15 34.80 39.44 41.99 46.49 47.18 46.59 47.01 47.53 44.29 44.99 42.54 41.55 41.88 44.61 46.48 50.61 55.75 59.24 60.46 61.47 61.55 60.60 62.55 63.24 64.38 66.94 67.72 69.26 69.92 70.68 72.87 73.87 73.95 73.75 73.59 74.23 74.86 74.99 75.13 75.05 74.25 73.53 73.41
39.33 35.12 38.91 42.15 46.30 47.21 46.00 47.62 48.42 47.43 47.17 45.95 43.20 43.28 47.00 49.09 49.80 52.37 57.49 59.89 59.92 58.56 59.92 60.52 62.00 63.96 66.75 67.81 69.05 69.85 70.45 72.45 73.57 73.64 73.94 74.57 74.83 74.83 74.68 75.10 75.42 74.47 73.98 73.68
36.83 35.32 35.92 35.44 44.43 45.45 42.74 46.97 47.47 47.42 47.84 46.65 42.73 45.12 48.37 48.83 52.40 53.86 56.21 57.67 57.37 60.33 60.54 61.29 62.46 64.52 67.21 68.15 69.61 69.66 70.25 71.68 73.18 73.36 74.12 74.36 74.71 74.73 74.78 74.90 75.10 74.68 73.70 74.00
38.19 36.40 36.24 35.36 38.71 36.68 44.93 50.30 50.52 47.35 48.38 49.14 47.78 48.31 50.30 50.54 51.52 53.79 54.31 56.17 57.37 58.43 59.12 60.79 63.47 65.39 67.17 68.16 68.50 70.05 70.58 70.91 71.48 73.05 73.41 74.25 74.54 74.38 74.88 75.05 74.79 74.80 74.19 73.39
43.62 41.46 35.86 34.33 35.25 41.13 46.69 48.72 47.67 46.36 47.04 50.84 50.57 50.46 50.83 51.96 51.80 50.92 55.76 57.88 57.97 58.23 58.64 60.09 63.38 66.49 67.01 67.73 67.96 68.13 68.41 69.73 70.23 70.75 72.38 73.44 74.48 74.03 74.58 74.48 74.63 74.74 74.69 73.60
45.25 45.54 41.24 38.30 34.97 35.58 43.02 50.54 52.65 51.12 43.01 54.25 52.32 51.57 51.76 49.84 48.48 47.96 56.76 56.60 55.99 56.01 57.55 61.34 62.76 65.16 65.76 68.99 69.42 67.87 67.40 68.40 68.89 70.04 70.44 72.94 74.15 74.04 74.26 74.63 74.67 74.93 74.91 73.76
41.61 41.43 38.73 39.58 38.95 40.55 47.99 51.36 51.76 43.27 43.72 56.95 56.87 53.99 52.06 52.48 50.36 56.82 59.98 59.38 58.03 57.20 56.91 57.93 58.41 61.44 67.46 68.96 69.69 68.07 67.98 67.64 69.43 70.53 70.97 71.34 73.41 73.73 74.75 75.03 75.25 74.99 74.39 72.40
41.07 40.68 40.78 41.47 38.72 36.12 52.88 53.49 45.31 49.07 57.28 57.55 57.41 56.29 56.55 57.20 57.95 60.38 61.13 62.17 62.95 63.29 64.29 61.63 57.14 57.38 58.03 66.63 71.39 69.23 68.11 70.13 70.29 69.77 70.38 71.22 72.90 73.76 74.62 75.05 75.15 74.17 73.04 71.20
39.99 44.80 43.25 44.71 45.44 50.61 53.30 51.37 53.54 58.51 57.22 57.98 57.99 57.36 58.11 57.73 59.95 61.88 61.28 62.18 65.63 65.22 64.42 68.96 64.01 64.92 67.45 63.79 70.44 70.24 70.26 70.53 71.46 70.45 71.78 72.04 73.27 74.43 75.28 74.77 73.95 72.86 71.59 69.22
47.26 49.57 46.65 46.62 50.15 50.34 53.49 52.82 54.00 55.66 62.33 63.52 63.50 64.04 64.37 63.60 65.07 65.27 65.56 66.52 68.16 69.02 69.05 69.98 70.02 69.43 69.77 70.37 68.12 70.12 70.81 71.42 72.52 71.94 74.04 74.65 74.57 74.00 74.37 74.16 72.95 71.21 69.53 67.97
47.55 48.98 46.24 46.78 49.89 51.71 53.55 52.50 53.36 60.46 63.72 64.28 64.79 64.94 64.67 64.70 64.25 65.86 66.22 66.96 68.11 68.99 69.58 70.25 70.03 69.51 70.01 70.48 71.08 72.42 73.91 74.40 74.06 73.70 73.56 72.81 71.34 71.25 65.73 60.18 65.17 68.68 64.46 65.94
48.85 45.57 44.77 45.02 49.52 51.82 51.80 53.66 54.82 54.43 56.52 59.25 62.43 62.91 63.45 63.64 63.50 65.13 64.51 65.00 66.20 67.12 68.04 68.61 68.99 69.76 70.01 70.82 70.87 72.08 73.51 73.14 71.91 70.55 68.11 66.01 64.54 62.95 61.28 59.67 55.53 48.85 49.79 51.32

GFSCGP_sfc_wetblb_039.txt.gz
Wetbulb
48.56 45.56 42.91 44.65 45.34 45.97 45.92 44.01 43.76 47.30 50.61 54.71 54.53 54.81 60.30 62.53 62.56 62.77 63.54 64.22 64.70 64.66 66.64 68.31 69.13 70.08 70.17 70.00 69.76 70.29 70.35 70.74 70.98 69.96 70.71 69.85 69.03 69.70 71.27 70.72 71.85 72.24 73.64 74.07
43.55 43.99 47.45 49.07 47.71 46.48 44.98 43.53 43.06 47.84 55.57 54.38 54.19 54.30 60.38 61.69 61.83 62.33 62.61 63.27 64.15 64.27 65.08 67.03 67.92 69.42 69.61 68.69 69.30 70.09 70.59 70.34 70.98 71.31 71.55 70.53 70.08 70.07 70.40 71.96 71.22 71.95 72.84 73.34
43.70 44.67 49.06 48.28 46.45 45.39 43.44 42.97 43.38 44.52 52.87 55.52 54.25 51.68 56.27 61.10 61.39 63.11 63.83 64.26 64.52 64.41 63.71 63.96 66.69 68.52 69.41 68.62 69.16 69.90 70.66 70.70 70.80 71.22 70.98 70.32 70.74 70.19 70.01 70.22 71.10 72.56 72.84 73.49
43.15 47.62 47.40 45.86 45.94 46.94 40.95 47.14 47.49 46.87 46.26 43.76 53.67 44.17 52.24 56.68 57.84 60.20 62.28 63.38 64.01 64.47 65.26 65.05 66.19 67.91 68.78 68.87 69.93 70.28 70.67 70.86 70.79 71.11 70.93 70.27 69.28 68.40 69.13 70.30 70.76 71.99 73.13 72.74
43.03 44.79 45.13 44.90 46.64 47.87 45.63 48.77 46.95 46.76 43.80 42.31 47.27 44.76 48.75 55.58 54.26 56.43 59.15 62.55 63.84 64.85 65.24 65.16 65.49 67.43 69.04 69.67 69.34 70.23 70.16 70.89 71.19 71.37 71.54 70.81 69.66 70.15 69.22 69.36 70.34 71.39 71.89 72.57
46.59 49.27 47.69 46.98 49.03 49.29 49.41 46.32 44.04 42.84 41.35 38.96 44.67 47.21 48.50 50.85 54.93 56.75 58.11 60.81 63.58 64.44 65.09 65.74 66.20 67.30 68.20 69.67 69.29 70.09 69.62 70.54 71.34 71.39 71.66 70.97 70.20 68.82 68.90 68.61 69.12 70.53 70.71 71.79
44.13 45.56 47.49 49.30 45.07 46.44 45.50 39.86 35.24 32.90 34.05 37.08 42.66 44.30 49.27 52.99 57.43 58.74 59.05 59.37 62.15 64.35 64.56 64.95 64.85 65.79 67.07 68.16 69.00 69.74 69.43 69.92 71.29 71.45 71.52 71.25 70.74 69.66 69.36 69.12 69.58 68.95 69.40 69.86
39.85 38.74 46.14 48.32 46.45 44.01 42.97 42.66 33.33 29.43 31.05 36.39 40.80 40.54 46.69 55.68 58.12 60.49 61.33 61.17 61.60 62.83 64.25 64.61 65.16 65.42 66.43 67.85 68.50 69.37 69.08 69.43 71.37 71.70 71.48 71.54 71.17 70.84 70.29 69.39 69.46 69.61 69.94 70.72
40.01 40.69 48.24 49.84 48.79 48.33 42.29 40.59 43.78 34.94 35.26 34.45 38.90 44.41 51.16 55.16 56.20 57.79 59.39 60.52 60.85 62.06 63.47 64.21 65.09 65.50 66.41 66.92 68.19 69.21 69.48 69.76 70.93 71.73 71.81 71.40 71.17 70.83 70.16 69.03 69.20 70.03 70.38 70.86
43.25 38.43 45.53 48.11 48.86 47.83 46.40 43.65 37.82 32.60 32.80 33.24 35.22 39.57 42.84 50.11 53.87 55.25 57.86 60.01 61.34 62.81 62.89 63.95 64.81 65.38 66.33 67.27 68.24 69.25 70.06 69.87 70.63 71.40 71.92 71.79 71.55 71.53 71.06 70.24 70.02 69.69 69.43 69.36
40.04 39.69 41.59 46.09 43.69 44.42 41.28 42.06 38.73 39.47 35.52 36.07 31.08 38.47 46.57 49.77 52.97 54.34 56.81 60.63 62.09 62.95 63.56 63.56 64.52 65.36 66.23 67.48 67.99 69.09 69.90 69.90 70.28 71.05 71.40 71.47 71.69 72.24 72.53 72.06 71.16 70.33 69.49 68.74
42.67 36.00 40.45 43.42 45.72 49.58 47.75 44.68 42.19 36.83 34.70 35.57 39.83 39.09 48.03 50.92 51.40 54.70 56.74 59.22 62.33 64.08 64.29 64.20 64.10 64.77 65.44 66.88 67.78 68.89 69.82 70.12 70.43 71.34 71.42 70.99 71.11 71.14 71.99 72.39 72.70 71.79 70.20 69.32
44.05 35.91 33.04 36.37 39.59 42.23 43.22 44.23 44.76 43.25 36.67 40.15 35.54 37.60 46.97 49.37 51.90 54.36 56.25 57.49 59.77 62.98 62.78 63.92 63.94 63.83 64.26 66.30 67.58 68.81 69.82 70.32 70.85 71.04 71.58 71.38 70.98 70.89 70.89 71.53 72.54 72.89 72.11 70.81
42.86 34.85 34.90 35.99 36.62 41.28 40.37 44.14 45.24 42.99 38.57 40.24 41.90 39.89 43.39 47.13 48.69 52.33 56.44 57.80 58.46 61.02 61.92 63.34 63.41 63.73 64.48 65.70 67.53 68.09 69.83 70.72 71.00 71.01 71.14 71.19 71.39 71.35 71.06 71.00 71.38 72.56 72.89 71.14
37.91 32.43 35.63 39.18 41.94 43.51 43.00 44.72 45.67 41.51 44.13 41.01 43.32 41.76 44.44 46.00 49.37 51.60 54.65 57.27 58.74 59.56 61.11 62.53 63.15 63.82 62.97 64.18 66.71 67.96 69.44 70.95 71.39 70.91 71.06 71.01 71.99 72.29 72.14 71.64 71.20 71.45 72.21 72.46
36.72 34.17 35.87 36.86 43.01 44.24 43.12 44.81 46.32 46.43 46.09 43.87 41.62 41.56 45.83 48.39 47.35 48.57 51.60 55.97 57.71 59.22 61.40 61.46 62.20 64.49 64.73 65.24 66.45 67.88 68.55 70.36 71.72 71.18 71.11 71.87 71.76 72.46 72.68 72.60 72.19 71.82 71.56 71.91
33.29 33.77 33.47 31.66 39.61 39.92 39.15 43.93 45.40 46.15 46.82 46.56 41.51 43.68 46.34 45.95 46.87 47.82 49.10 51.96 57.41 59.67 60.96 59.78 59.51 61.95 63.85 66.30 67.16 67.49 68.41 70.07 71.61 71.43 71.72 72.19 72.16 72.13 72.78 73.25 73.06 72.83 72.16 72.02
33.13 34.12 34.40 32.09 35.23 31.75 43.60 48.25 48.95 46.73 47.03 46.18 45.02 46.22 47.98 48.60 49.62 51.26 51.07 52.39 55.40 57.60 59.18 59.14 60.46 60.76 61.12 64.53 67.12 68.32 68.87 68.96 70.85 71.40 71.95 72.63 72.64 72.28 72.73 73.11 73.20 73.56 73.61 72.61
38.44 34.64 33.09 31.55 31.86 38.64 44.88 46.57 46.35 44.92 44.18 48.35 47.61 48.40 48.45 49.46 48.92 48.51 52.38 52.92 56.19 57.08 58.14 60.86 62.12 62.48 61.92 63.11 66.09 67.06 67.25 68.59 70.03 70.80 71.38 72.67 72.97 72.86 73.11 72.88 73.10 73.72 74.28 73.47
38.66 38.52 38.03 33.67 31.57 31.71 41.07 50.91 53.80 50.46 43.59 49.59 49.48 49.37 49.59 48.38 44.24 49.84 51.38 54.73 55.95 56.50 56.99 58.32 61.24 63.10 63.55 64.19 66.47 67.19 67.61 68.24 68.58 70.91 71.71 72.75 73.36 73.32 73.30 73.53 73.58 73.98 74.40 73.89
33.28 34.66 33.75 35.92 34.81 38.26 49.52 52.15 54.15 41.33 43.52 50.99 53.15 51.17 49.33 48.00 50.32 51.85 52.75 55.81 54.29 54.90 56.25 57.28 59.89 62.97 65.16 65.30 65.88 66.15 67.02 67.47 69.43 70.52 72.00 72.48 73.11 73.46 73.81 73.93 74.20 74.13 74.33 74.09
37.40 35.95 35.79 36.43 36.00 33.98 51.92 51.96 45.56 48.04 51.39 53.27 55.59 52.90 49.78 50.70 51.99 55.21 57.75 59.20 60.06 59.45 56.13 55.59 55.89 60.28 62.82 65.72 65.88 64.79 64.93 67.91 69.12 69.73 69.79 70.51 72.19 73.31 73.64 73.55 73.93 74.22 74.29 73.51
36.50 41.95 39.95 41.01 41.00 48.69 51.68 52.14 53.08 53.88 52.56 52.99 57.37 55.49 55.60 56.92 58.02 59.37 59.85 59.85 61.13 61.28 64.96 62.34 54.78 54.30 54.77 61.70 66.33 65.23 66.39 67.22 67.14 68.06 68.42 69.28 70.33 72.60 73.49 73.35 73.81 73.91 74.09 73.14
41.87 45.13 42.37 43.90 49.11 50.91 52.38 53.94 53.82 55.09 56.53 62.45 63.08 60.97 60.03 61.57 62.59 62.99 64.59 65.28 65.87 67.17 67.75 68.07 67.45 67.29 67.35 69.04 64.63 65.76 66.70 66.54 65.82 65.63 66.29 67.71 68.73 70.09 72.07 73.54 74.16 74.04 73.49 72.08
38.98 44.78 43.44 43.39 49.55 52.46 53.24 53.16 54.19 54.72 56.35 60.95 62.53 62.46 63.40 64.51 64.21 64.88 65.43 66.22 67.42 68.55 69.04 69.38 68.95 68.50 68.77 70.24 70.24 70.47 69.58 68.46 67.84 67.74 66.93 68.16 69.35 69.91 57.98 53.45 52.95 64.61 65.28 68.77
45.24 45.61 43.42 42.39 49.26 51.06 51.24 54.07 55.62 54.66 54.85 56.09 57.04 58.06 59.01 60.77 62.37 64.18 63.86 64.77 65.49 66.26 67.23 67.84 68.77 69.29 69.43 69.36 68.77 69.74 70.87 71.13 71.30 71.08 70.81 68.59 63.00 62.12 60.61 61.44 60.77 51.72 52.48 54.83

GFSCGP_sfc_wetblb_042.txt.gz
Wetbulb
48.19 44.13 41.02 44.16 44.34 45.20 45.90 43.40 44.05 46.05 49.17 52.94 51.95 52.64 58.76 61.87 62.68 62.38 63.00 63.10 63.72 64.59 66.69 67.93 68.71 69.87 69.56 69.62 69.56 69.41 69.93 70.18 70.47 70.48 70.12 70.33 69.85 70.35 71.33 72.55 72.87 72.86 73.28 74.55
42.36 43.31 47.22 47.95 46.95 45.94 44.33 42.64 42.48 45.17 48.54 50.55 50.55 52.16 59.27 60.99 61.75 62.89 63.08 63.65 63.71 64.41 65.22 66.56 67.58 68.82 68.83 68.49 69.19 69.46 69.58 70.09 70.15 70.81 71.10 71.36 71.21 70.51 71.65 72.79 72.53 72.93 73.52 74.17
44.64 44.22 49.35 47.51 44.90 44.78 42.26 42.74 42.11 43.43 49.63 53.30 52.34 49.90 56.09 60.27 61.23 62.67 64.06 64.70 64.97 64.88 64.72 65.18 66.59 67.76 69.14 68.49 68.86 69.39 69.68 70.05 70.64 70.86 71.02 70.81 71.00 71.15 70.64 71.26 72.03 71.90 73.23 73.90
42.74 47.87 48.75 44.96 44.82 45.42 38.75 45.72 46.10 45.41 43.28 39.46 52.24 43.35 50.30 57.32 58.83 60.42 61.34 63.38 64.30 64.96 65.71 65.30 65.99 66.91 68.14 69.01 69.57 69.69 70.04 70.42 70.71 70.98 70.63 70.21 70.00 69.55 70.16 70.35 71.67 72.73 73.28 73.46
42.78 44.30 44.53 45.67 46.53 46.68 44.01 47.35 45.73 45.42 42.50 39.65 43.35 43.90 47.03 55.56 56.14 58.30 60.67 61.98 63.48 64.91 65.48 64.75 65.45 67.18 68.27 69.39 69.33 69.35 69.86 70.37 70.61 70.73 70.91 70.34 70.14 70.12 70.11 70.67 71.19 71.34 72.91 73.61
44.53 46.84 47.35 45.28 47.27 47.96 48.43 44.59 41.81 40.51 39.46 35.83 41.09 42.18 41.79 49.66 55.76 58.64 61.09 62.78 63.73 64.42 65.11 65.80 65.59 66.87 67.74 69.28 69.61 69.37 69.48 69.88 70.54 70.36 70.59 70.23 70.01 69.25 69.18 69.43 69.96 70.88 71.82 72.55
42.29 44.33 45.67 46.94 43.53 44.78 45.49 39.10 32.31 31.76 32.42 35.82 40.89 42.08 45.51 52.53 57.12 59.26 60.19 61.68 63.37 65.02 65.23 65.50 65.52 65.21 66.69 67.95 68.92 68.84 69.15 68.88 70.15 70.14 70.32 70.64 70.51 70.03 69.93 69.64 69.82 69.92 70.66 71.48
37.48 36.42 44.17 46.16 43.87 41.83 41.91 39.97 32.26 27.87 28.52 37.27 39.01 38.32 43.45 52.78 57.85 59.66 60.77 61.84 62.40 63.47 65.32 65.49 66.04 66.07 65.87 67.52 68.55 68.44 68.73 68.55 69.75 70.39 70.53 71.10 71.30 70.74 70.83 70.46 70.46 70.38 70.90 71.97
37.12 38.68 46.34 46.97 47.31 46.53 39.80 39.04 41.56 33.97 32.85 32.08 36.33 40.82 48.46 51.94 52.66 56.68 58.73 59.98 60.10 61.25 63.49 65.09 65.99 66.38 66.22 66.91 68.01 68.39 68.62 69.00 69.59 70.37 70.83 71.15 71.55 71.38 70.66 70.87 70.40 70.65 71.51 72.01
40.69 36.78 44.07 46.64 47.35 47.06 42.75 44.35 37.28 33.06 30.25 28.58 33.61 36.33 40.66 47.96 50.68 53.34 54.91 58.18 60.11 60.88 61.59 64.22 65.50 66.00 66.41 66.86 68.04 68.97 69.04 68.96 69.61 70.71 71.13 71.30 71.48 71.65 71.48 71.23 69.74 70.29 70.74 71.79
38.87 38.22 39.91 43.79 42.90 43.73 40.27 38.25 36.48 39.43 33.87 32.30 29.58 35.40 44.07 48.49 51.11 52.19 54.57 58.36 59.83 60.56 61.44 62.91 64.73 65.98 66.33 66.71 67.38 68.25 68.76 69.00 69.23 70.76 71.25 71.48 71.48 71.75 71.62 71.18 70.50 70.42 70.67 70.86
41.68 33.36 36.27 39.68 44.15 48.30 47.62 44.02 37.41 37.82 32.76 33.46 33.44 37.27 46.01 48.28 51.23 53.08 54.22 56.71 59.15 61.18 61.94 62.85 64.15 65.07 65.50 65.47 66.57 67.32 68.27 69.11 69.67 70.36 71.17 71.35 71.60 71.67 71.20 71.08 71.15 71.26 70.47 70.46
41.71 34.24 31.01 35.04 41.14 42.38 41.28 43.22 39.99 38.03 35.19 39.43 34.15 37.32 47.32 47.08 48.62 50.27 52.89 54.76 57.44 59.49 61.29 62.75 63.29 63.68 64.58 65.17 65.88 66.81 68.01 68.93 70.09 70.31 70.57 71.09 71.25 71.40 71.25 71.35 72.07 71.75 71.23 70.42
42.04 33.55 32.20 31.90 35.04 38.72 37.64 43.15 42.93 42.41 37.94 39.78 40.74 39.23 44.13 46.65 46.38 49.25 52.13 54.87 56.26 58.10 60.09 61.94 63.03 63.18 64.15 64.89 65.71 66.61 67.71 69.18 69.98 70.16 70.28 70.16 70.76 71.08 71.57 72.06 72.44 72.47 72.10 71.01
36.72 31.84 34.01 36.39 39.68 41.06 40.97 41.61 42.85 42.27 43.05 39.58 42.00 41.77 44.00 46.31 48.15 50.48 50.67 55.10 57.78 58.61 59.54 60.15 62.28 62.61 62.89 63.91 65.39 66.80 67.84 69.08 70.06 69.71 69.91 70.32 70.88 71.05 71.33 71.40 72.04 72.54 72.93 72.31
34.14 31.91 33.74 34.65 40.88 41.54 40.08 42.48 43.42 43.44 43.58 43.93 43.08 42.13 46.45 48.46 48.08 49.43 51.27 53.38 56.16 57.84 59.61 60.28 62.00 62.86 62.84 63.40 64.93 66.74 67.52 68.84 69.92 69.76 69.44 70.54 71.02 71.20 71.01 70.96 71.08 71.40 72.24 72.83
31.45 31.60 32.32 30.22 37.87 38.07 36.14 41.65 43.47 43.48 44.30 44.68 41.71 44.87 46.99 46.43 46.88 48.46 50.42 50.61 53.68 57.32 59.18 59.66 60.78 62.18 63.51 63.44 64.99 66.27 67.35 69.30 69.46 69.73 69.99 70.38 70.86 70.95 71.18 71.43 71.17 70.50 70.53 71.80
31.03 31.39 32.40 30.60 33.53 29.23 39.47 45.62 47.00 45.47 46.04 45.83 45.65 47.51 49.15 49.39 50.39 50.50 51.08 52.22 50.92 54.26 58.59 60.02 60.98 61.83 63.23 64.94 64.87 66.47 67.79 68.51 69.59 69.73 69.93 70.58 70.93 70.86 71.47 71.69 71.43 71.18 71.25 70.73
36.80 31.96 29.66 30.22 29.89 36.93 41.27 47.39 48.08 44.96 43.76 48.06 46.13 47.70 48.90 50.45 50.10 48.81 50.77 50.78 52.23 53.38 57.03 60.49 62.21 62.40 63.13 63.37 65.72 65.94 66.68 67.73 69.18 69.76 70.19 70.81 71.33 70.96 71.32 71.42 71.83 72.21 72.06 71.71
36.44 36.28 32.74 30.67 29.74 29.10 39.78 49.64 53.46 52.02 40.78 49.52 50.02 49.58 49.25 47.80 43.77 48.91 51.68 53.03 53.46 54.90 56.52 57.69 59.50 60.82 60.67 61.24 62.73 64.90 66.27 67.01 67.60 69.92 70.74 71.58 71.92 71.84 71.42 71.76 72.18 72.93 73.16 72.93
29.10 31.56 28.81 30.88 31.63 36.02 45.59 51.41 53.11 40.66 42.70 51.06 52.47 51.88 51.24 46.98 50.79 52.67 53.15 52.74 54.56 55.35 55.81 56.75 58.28 61.07 62.52 62.78 64.46 64.99 66.12 66.58 68.22 69.84 71.43 71.85 72.48 72.51 72.54 72.68 72.98 73.05 73.22 73.59
30.66 29.84 28.39 30.02 31.25 30.46 50.26 50.75 46.32 47.67 52.01 53.63 54.84 54.96 53.12 54.70 51.43 51.73 54.13 54.78 55.27 55.38 56.75 57.01 58.41 58.98 61.13 64.30 65.47 65.24 65.83 67.83 69.30 69.65 70.81 71.35 72.41 73.15 73.29 73.12 73.19 73.46 73.28 73.03
32.54 36.92 35.48 34.62 34.93 44.52 50.81 50.28 52.51 52.59 53.42 54.00 54.45 56.02 59.39 59.51 52.24 53.85 57.19 59.67 61.20 64.90 65.18 58.80 54.90 62.12 65.70 64.22 65.54 64.03 64.95 66.99 67.39 68.58 69.33 71.43 72.83 73.01 73.46 73.29 73.22 73.14 73.55 72.91
37.41 40.70 40.28 39.80 43.77 48.70 51.52 52.99 53.35 54.73 54.76 55.37 56.66 60.45 62.09 56.57 60.08 63.37 64.67 66.07 67.87 68.14 68.35 69.16 69.07 68.35 68.35 70.20 68.61 67.29 67.65 67.91 66.45 66.43 67.23 68.16 69.02 70.82 72.73 73.77 73.97 73.62 73.28 73.16
37.12 38.18 37.11 39.94 41.99 48.54 52.53 52.97 53.72 55.16 56.32 56.15 57.61 60.65 64.32 64.79 65.15 65.94 65.79 66.30 66.75 67.56 67.81 68.34 68.45 68.75 68.64 69.76 70.67 71.96 71.36 69.13 67.84 66.88 66.52 68.12 68.17 61.96 59.47 57.30 59.92 63.38 59.90 68.21
38.53 36.37 34.97 34.65 43.18 44.14 49.14 52.75 55.08 54.81 54.95 56.36 57.30 61.10 61.93 63.56 63.61 65.03 64.77 65.19 65.25 65.27 67.06 67.11 67.47 67.94 68.53 68.80 69.25 70.47 71.78 71.37 70.69 69.07 68.28 65.40 62.56 62.08 63.33 61.35 59.01 50.15 52.14 50.87

GFSCGP_sfc_wetblb_045.txt.gz
Wetbulb
53.38 49.41 46.91 49.62 51.21 51.22 49.99 49.97 51.34 53.67 55.05 56.50 56.29 56.74 59.47 64.72 65.70 65.51 65.72 65.88 66.26 66.78 69.06 70.61 71.40 72.05 72.39 72.97 73.18 73.62 73.72 74.84 74.01 72.96 72.07 72.02 71.10 73.02 74.49 75.57 76.75 76.88 77.19 77.55
49.33 46.59 50.67 51.42 50.71 49.46 48.94 48.35 50.37 52.01 52.14 52.75 53.92 55.28 59.46 63.55 64.72 65.92 65.54 65.75 66.09 67.02 68.24 69.62 70.88 71.67 72.05 72.32 73.12 73.77 74.00 74.95 74.26 73.67 73.69 72.97 73.34 73.86 75.08 76.11 76.88 77.41 77.19 77.66
46.94 48.62 51.34 50.32 49.21 47.92 47.88 47.16 49.21 50.24 51.06 55.82 55.04 53.75 57.89 62.62 65.03 66.25 66.83 67.14 66.60 67.36 67.38 68.77 69.70 70.69 71.76 72.05 73.31 73.93 74.84 75.57 74.96 75.34 74.36 74.08 74.63 74.69 74.11 74.55 75.68 76.50 77.19 77.55
47.65 51.17 49.45 48.73 48.17 49.32 45.72 49.54 49.07 49.84 49.49 47.27 56.36 48.39 56.02 60.59 62.05 64.11 65.78 66.53 66.97 67.38 68.36 68.83 69.39 70.31 71.15 72.50 73.23 74.33 74.78 75.39 75.15 76.07 74.48 74.66 72.27 71.86 73.47 74.67 75.50 76.13 77.24 77.18
47.13 48.43 48.58 47.71 48.19 50.71 47.69 50.36 49.42 49.51 49.55 48.89 49.92 48.81 52.92 59.29 59.71 61.85 64.52 66.24 67.38 68.32 68.48 68.50 69.26 70.64 71.44 72.54 72.45 73.16 74.56 75.14 75.50 75.69 75.63 74.32 74.06 73.72 74.48 74.87 76.54 77.20 77.64 77.22
49.65 51.29 51.41 50.87 51.43 51.49 52.41 50.03 49.32 48.74 48.72 43.75 48.88 48.44 50.50 55.36 59.53 62.41 64.43 66.04 67.27 68.32 69.08 69.68 70.37 70.84 71.20 72.22 72.73 72.78 74.07 74.66 75.51 75.39 75.32 75.29 74.84 74.90 73.55 74.30 74.10 74.58 74.92 75.73
48.12 47.58 51.14 52.15 49.52 51.43 50.46 47.91 42.49 41.04 41.35 41.73 50.32 46.94 49.91 55.06 59.90 62.58 63.87 65.33 66.77 68.08 68.90 69.57 69.89 69.77 71.45 71.82 72.70 73.33 73.81 73.67 74.92 74.93 75.05 75.20 75.27 75.65 75.40 75.29 74.01 74.97 73.92 74.34
43.58 41.54 47.75 50.60 49.94 47.66 48.54 47.49 42.67 38.10 39.72 42.79 48.07 45.03 49.72 55.77 57.27 61.90 63.26 65.53 67.04 67.45 68.67 69.17 70.77 71.06 70.76 71.69 72.53 73.07 73.23 73.30 74.16 74.64 74.72 75.30 75.98 75.04 74.91 75.58 74.49 74.17 74.40 74.93
44.20 44.25 49.72 49.83 51.44 50.95 47.92 45.92 49.33 44.66 43.58 42.47 45.99 49.11 52.65 55.64 56.66 58.08 62.42 63.96 65.24 66.92 67.91 68.50 69.43 70.71 70.96 71.27 72.18 73.00 73.38 73.39 74.20 74.42 74.73 75.09 75.50 75.46 75.00 76.32 76.57 74.81 76.63 75.44
47.80 43.77 49.02 49.41 50.95 51.21 49.16 50.73 43.13 45.33 38.92 37.99 43.02 44.75 47.22 53.36 54.80 57.82 59.78 62.60 64.34 66.13 67.24 68.43 69.94 70.77 71.44 71.43 72.29 73.46 73.66 73.51 73.95 74.47 74.75 74.68 74.99 75.70 76.00 76.25 76.17 76.17 77.00 76.58
47.35 46.77 46.10 48.98 47.15 46.72 46.16 46.59 47.27 47.07 44.96 40.65 39.63 43.59 52.70 54.94 57.46 57.21 58.94 62.11 63.47 64.58 65.73 66.87 69.11 71.00 71.83 72.15 71.54 72.42 73.20 73.48 73.83 74.21 74.72 74.86 75.00 75.46 75.91 75.74 76.11 76.27 76.91 77.06
46.45 44.88 45.07 46.10 50.67 51.81 49.73 48.24 47.97 43.49 42.56 43.99 44.18 44.25 52.79 55.44 57.63 58.81 59.34 60.96 62.65 64.40 65.60 66.62 67.02 69.20 70.44 71.39 71.55 71.75 72.74 72.76 73.57 74.10 74.62 74.65 75.44 75.58 75.43 75.61 75.93 76.48 76.21 76.93
45.87 43.21 42.36 44.46 48.08 49.35 47.98 49.21 49.33 48.75 48.34 45.32 41.29 43.90 54.45 55.15 55.37 56.49 58.48 60.41 62.42 64.32 65.94 66.79 67.19 68.40 69.94 70.58 70.86 71.12 72.10 72.34 73.26 73.97 74.23 74.60 74.77 74.80 74.90 75.31 76.03 76.29 76.24 76.47
46.79 43.06 42.82 42.66 44.77 45.29 44.56 47.31 48.92 47.86 44.90 45.49 45.98 47.19 51.21 53.26 54.27 56.56 57.80 59.44 60.45 63.71 65.69 67.08 67.64 68.11 69.85 70.70 70.80 70.91 71.78 72.64 72.95 73.48 73.61 73.58 73.90 74.57 74.83 75.37 75.77 76.13 76.18 75.94
44.12 38.92 40.82 42.13 42.99 43.94 44.01 44.35 45.80 45.91 48.23 46.30 47.97 48.97 51.25 53.22 55.53 58.03 59.29 59.86 60.03 61.88 64.17 66.09 67.46 68.98 69.68 70.39 70.83 71.17 71.55 72.85 73.26 73.25 73.13 73.31 74.72 75.33 75.50 75.48 75.79 76.01 76.19 75.83
42.47 38.48 40.78 39.03 42.71 43.59 42.74 45.08 45.87 46.09 46.77 47.02 47.85 48.27 54.33 55.99 57.23 57.57 58.77 59.57 60.41 61.20 63.39 66.29 67.87 69.10 69.99 69.97 70.27 70.62 71.33 71.98 73.10 73.21 72.98 73.92 74.65 75.11 75.03 75.38 75.62 75.82 75.97 76.00
38.74 38.64 38.03 35.87 41.25 42.07 39.91 44.47 46.04 46.99 48.54 48.33 45.71 50.43 54.01 53.79 54.69 57.59 59.03 60.31 60.42 61.64 64.27 66.21 67.64 69.28 70.52 69.85 70.48 70.45 71.21 72.74 72.94 73.07 73.48 74.14 74.70 74.57 74.88 75.33 75.57 75.24 75.46 76.41
37.77 37.91 40.50 36.15 39.21 32.78 45.06 49.74 51.04 48.59 49.21 50.39 50.35 51.48 53.24 54.65 57.40 58.82 60.74 60.60 61.21 62.32 62.79 64.47 65.43 67.77 69.77 70.02 69.49 71.29 71.82 72.42 72.93 73.14 73.72 74.41 74.72 74.19 74.84 74.97 74.70 75.01 75.30 75.34
40.38 38.80 36.09 34.04 35.96 40.39 43.04 46.96 50.86 49.82 49.52 54.39 52.19 52.93 53.66 55.19 56.11 58.11 59.63 60.34 61.82 63.19 64.64 64.25 64.17 66.07 70.41 70.67 71.27 71.29 71.80 72.19 72.85 72.82 73.60 74.12 74.27 74.45 74.82 74.48 74.26 74.80 74.79 74.73
39.96 39.89 36.65 36.12 32.35 32.17 43.92 48.95 53.08 54.21 45.29 54.51 55.54 55.48 55.44 56.69 51.06 54.40 61.50 60.28 60.29 61.38 62.50 63.17 64.85 65.81 67.32 69.89 69.91 70.85 71.30 71.95 72.16 73.03 73.45 74.47 74.68 74.62 74.49 74.76 74.73 75.58 75.29 74.83
33.76 34.00 32.20 33.40 33.22 38.89 46.77 51.52 55.90 46.13 47.76 56.49 57.30 58.01 57.84 56.23 56.75 61.37 61.18 60.90 62.09 63.34 63.68 64.63 64.71 66.04 69.06 69.20 70.89 70.92 71.55 71.33 72.58 74.13 74.80 75.19 75.43 75.19 74.94 75.60 75.90 75.98 75.49 75.41
35.65 33.62 32.48 34.04 31.93 29.93 47.72 52.27 48.24 53.57 56.33 57.34 58.55 59.27 58.26 59.42 61.11 62.07 62.75 62.69 60.72 62.75 62.78 62.71 64.31 65.58 67.20 69.26 70.27 70.77 71.56 73.06 74.64 74.88 74.20 75.27 75.85 74.83 74.79 75.51 74.05 75.83 74.38 72.32
34.84 38.63 37.73 37.62 37.62 45.71 48.74 49.99 55.58 56.95 56.05 57.20 58.50 60.32 60.69 59.55 61.11 63.66 64.14 63.16 63.58 68.40 67.61 62.98 64.77 67.84 69.17 70.35 70.54 71.53 73.50 73.39 73.42 73.45 74.21 74.97 75.40 75.39 76.31 75.84 75.32 74.15 74.69 72.74
40.37 43.71 39.74 40.58 43.65 46.35 48.39 51.65 53.58 57.11 56.97 58.62 60.44 60.93 60.75 60.16 63.12 65.14 64.64 65.45 69.97 71.00 69.36 68.99 71.70 70.84 70.76 71.80 71.94 72.27 72.43 73.94 74.62 73.93 74.41 74.84 74.52 74.80 75.71 75.49 75.36 74.53 74.49 74.73
39.75 41.50 39.83 39.60 41.95 43.99 47.81 50.39 53.72 56.67 58.27 59.41 61.48 59.98 59.43 63.66 65.87 63.80 66.75 69.30 68.86 68.66 69.38 70.57 70.75 70.79 71.59 73.26 74.05 74.83 73.21 73.56 72.57 72.98 73.12 73.31 73.81 73.41 70.60 66.28 68.86 75.98 77.07 73.32
40.51 39.19 37.12 36.76 44.46 45.32 46.65 50.07 53.75 54.76 57.47 59.87 59.82 58.01 60.98 65.70 65.87 67.10 67.25 68.04 68.27 68.07 69.08 69.04 69.33 69.32 70.35 72.51 73.35 72.61 74.48 74.51 73.32 71.87 70.79 67.69 66.78 67.02 65.15 63.40 60.67 50.69 51.60 52.14

GFSCGP_sfc_wetblb_048.txt.gz
Wetbulb
57.49 54.14 50.93 52.72 54.85 54.81 55.71 54.69 54.70 57.96 60.86 59.22 59.42 60.08 61.37 63.82 67.04 67.23 68.23 68.54 68.63 68.44 70.23 71.39 71.97 72.59 72.78 73.62 73.83 74.43 74.73 77.05 76.07 75.06 74.07 73.34 72.57 73.65 74.23 76.02 77.90 78.90 79.27 79.46
52.43 50.49 53.83 54.76 53.40 53.06 53.61 52.70 53.87 57.73 58.32 57.12 58.41 58.41 60.55 62.10 65.79 67.19 68.22 68.65 69.13 69.44 69.42 70.32 71.46 72.03 72.49 73.22 74.16 75.14 75.45 76.71 76.81 75.62 75.27 74.36 73.91 73.67 74.88 76.50 77.96 79.09 78.83 79.51
50.46 51.49 53.76 52.77 53.09 51.80 52.60 52.43 53.10 54.43 57.01 57.40 56.55 55.81 58.31 61.60 64.73 66.93 68.57 69.64 69.92 69.81 69.24 69.79 70.73 71.65 72.34 72.61 73.79 74.65 76.53 76.99 77.10 77.52 75.65 74.87 74.50 74.75 74.40 75.72 76.57 78.38 78.93 79.15
51.90 53.42 52.02 51.65 50.86 52.19 49.90 53.76 53.44 52.90 52.99 51.38 57.44 51.20 57.87 59.85 62.27 64.79 66.98 68.56 69.36 69.96 70.65 70.05 70.46 71.45 71.62 72.49 74.01 75.46 76.83 77.25 77.42 77.32 76.37 76.89 72.32 71.76 73.37 75.80 76.35 76.80 78.55 78.50
50.45 51.27 50.63 50.20 50.62 52.58 50.73 54.09 52.67 52.51 51.81 52.18 53.21 51.48 55.22 59.91 59.33 62.94 65.76 67.92 69.16 70.42 70.64 70.31 70.16 71.05 72.35 73.45 74.15 75.08 76.75 77.78 78.08 77.84 77.97 75.77 75.26 72.78 74.52 75.82 78.90 79.92 79.82 78.86
51.52 54.10 52.85 52.41 52.96 52.78 53.04 52.08 52.15 52.13 51.17 46.73 51.50 51.93 52.78 56.00 59.60 61.83 65.13 67.43 68.93 69.74 70.58 71.63 71.14 71.67 72.42 73.65 74.46 75.12 76.73 78.81 78.31 77.78 76.99 78.50 77.58 76.18 74.95 76.68 75.84 76.33 76.73 77.15
49.93 50.65 53.16 53.72 51.44 53.35 51.88 50.00 45.15 43.85 44.44 44.87 52.93 51.35 53.58 57.53 59.81 62.22 63.21 65.73 68.64 70.25 70.47 70.99 71.68 70.98 71.83 72.68 73.84 74.92 77.36 78.03 78.31 77.58 77.25 77.55 77.83 78.20 78.25 77.67 76.20 77.92 75.40 75.53
46.62 44.83 50.61 53.58 52.23 51.03 50.36 50.09 45.57 42.11 43.78 46.25 52.13 48.69 53.01 58.93 60.47 60.76 63.95 65.14 68.75 69.68 70.91 71.13 71.94 72.41 72.37 72.58 75.13 75.79 77.23 77.47 77.24 77.13 78.50 79.14 79.59 76.29 76.15 77.85 76.29 76.05 75.77 75.83
48.26 48.28 52.61 53.34 53.87 53.85 50.75 48.57 51.66 48.17 49.15 46.48 49.45 52.33 55.70 57.77 58.66 59.80 61.04 62.87 64.38 67.78 70.30 71.17 72.13 72.69 73.32 73.71 75.19 76.60 77.45 78.12 78.06 77.22 78.95 79.00 78.87 78.70 77.08 79.16 79.74 77.03 79.23 76.71
52.17 48.42 52.44 52.24 53.84 53.85 52.82 53.57 46.86 47.87 43.14 42.40 46.36 48.61 50.04 54.85 56.14 58.98 59.66 61.04 63.76 65.66 68.82 70.83 72.05 72.82 73.73 74.18 74.98 76.31 77.65 78.08 78.34 78.12 78.30 77.79 78.53 78.92 79.19 79.49 79.16 79.59 79.80 79.32
52.45 51.05 51.08 52.13 50.03 49.77 50.15 49.57 50.36 49.85 48.08 44.87 44.11 47.43 55.17 55.49 57.64 57.92 59.41 61.31 63.26 65.11 67.77 70.58 71.69 72.63 73.80 74.54 74.46 74.89 76.26 77.40 77.11 77.67 78.19 78.54 78.40 78.08 78.54 78.35 79.45 79.86 80.16 80.57
52.80 51.25 49.00 49.38 52.97 53.71 52.61 51.00 51.22 46.61 46.61 47.97 47.70 48.48 55.05 55.83 56.98 58.91 59.50 61.37 63.30 65.38 66.80 69.50 70.86 72.20 72.77 73.35 73.95 74.24 74.82 75.23 76.02 77.61 78.46 78.36 78.89 78.88 78.24 78.49 79.28 80.05 79.86 80.68
51.25 48.76 46.51 48.94 51.17 52.46 50.52 51.63 51.68 51.43 51.02 49.12 45.55 48.67 56.98 57.57 57.29 58.79 59.77 61.51 63.41 64.71 66.08 67.52 68.43 69.48 70.96 72.55 74.94 73.92 74.21 74.79 75.65 77.13 76.28 77.52 78.19 78.51 78.67 79.15 79.26 79.55 79.78 80.12
49.22 49.95 49.09 46.81 49.26 51.45 49.20 50.42 51.04 50.57 48.62 48.80 49.47 51.06 53.79 54.75 55.82 57.98 59.54 60.72 61.83 63.90 65.82 66.96 67.87 68.55 69.64 72.15 75.72 76.12 74.67 74.65 75.35 75.69 76.06 77.07 78.13 78.33 78.61 79.05 79.15 79.19 79.83 79.77
47.85 46.36 47.66 50.41 48.13 48.08 50.39 50.19 50.58 50.22 51.09 48.79 51.16 51.75 54.46 55.80 56.90 58.45 59.89 60.31 61.22 62.64 64.14 66.19 68.39 69.48 71.42 72.37 75.46 76.49 75.77 76.35 75.94 76.69 76.69 76.93 78.22 79.08 79.26 79.16 79.48 79.67 79.86 79.74
46.73 44.53 45.87 45.48 47.62 47.33 46.39 49.13 50.08 50.85 51.55 51.81 52.14 52.31 57.18 58.20 58.96 58.90 59.36 59.61 59.97 60.80 61.91 63.84 67.54 69.23 71.48 72.49 73.33 74.90 75.60 75.48 76.49 77.21 76.61 77.68 78.31 78.99 78.84 79.01 79.23 79.63 79.60 79.80
42.71 43.45 42.89 42.76 47.55 46.99 44.13 48.41 49.71 50.71 52.36 52.33 49.88 54.04 57.03 56.84 57.40 58.30 59.63 60.34 60.61 61.51 62.78 64.21 66.78 69.30 71.21 73.00 73.70 74.34 75.68 75.52 76.27 76.77 77.50 77.92 78.39 78.44 78.84 78.71 78.90 79.06 78.98 79.09
41.97 42.36 42.95 42.18 45.21 37.38 48.98 54.05 52.94 51.29 52.41 53.61 53.83 55.02 56.39 57.35 58.77 59.64 61.03 60.85 61.01 61.66 62.69 64.79 65.08 66.58 70.46 71.64 71.80 74.34 74.42 76.02 76.18 76.53 77.01 78.03 78.31 78.24 78.67 78.82 78.56 78.99 78.98 78.67
44.41 42.60 40.73 38.96 40.53 45.38 48.18 49.48 49.43 50.12 51.30 54.95 54.29 55.60 56.54 57.31 57.79 58.12 60.04 61.50 62.30 63.36 64.02 64.94 65.07 64.91 66.86 68.67 71.19 73.38 73.82 74.29 74.93 76.13 76.52 77.46 78.07 78.07 78.42 78.13 78.18 78.95 78.12 78.03
43.74 43.52 40.98 40.89 37.41 37.35 47.27 51.71 53.58 53.97 47.12 55.58 57.56 57.49 58.00 58.24 53.17 56.24 60.97 61.62 62.89 63.52 64.09 64.07 65.10 65.40 65.92 67.84 69.69 72.26 73.36 74.88 75.53 76.16 76.83 77.97 78.48 78.28 78.06 78.31 78.30 78.70 78.39 76.88
38.72 39.25 36.62 38.08 37.68 42.76 49.49 52.69 56.58 45.96 51.34 59.21 60.13 60.94 61.53 60.12 61.34 63.82 65.22 65.51 66.65 66.64 65.99 66.40 66.76 66.64 69.34 69.61 71.86 74.32 73.58 73.98 76.19 76.04 76.13 77.88 78.96 78.89 79.03 79.29 78.87 78.45 77.64 77.68
39.11 36.61 36.63 37.81 36.59 34.95 49.08 49.33 48.81 54.09 57.65 58.92 59.55 60.20 60.61 62.62 64.03 65.24 66.36 66.58 66.86 66.76 67.50 66.45 66.88 67.18 69.05 71.73 72.86 76.11 75.47 76.60 77.75 77.84 76.29 78.07 78.94 77.05 76.53 78.62 77.47 78.03 77.97 77.17
36.81 41.39 40.45 40.71 40.41 48.20 50.30 50.65 53.08 54.29 54.13 56.06 58.30 59.62 60.38 60.76 62.47 64.32 66.45 68.12 68.23 68.59 68.44 67.45 68.75 68.53 70.66 72.27 73.90 74.14 77.35 77.94 77.01 76.93 77.69 78.35 78.58 77.09 78.26 78.14 77.53 76.04 77.01 75.54
42.19 45.39 41.79 42.69 45.75 47.47 49.60 51.56 53.35 54.44 54.53 56.21 58.80 59.88 60.18 60.28 62.05 63.93 67.30 68.88 69.14 69.94 68.48 70.38 69.01 69.25 71.83 73.98 74.71 74.94 75.37 76.98 76.80 76.41 76.41 76.81 77.06 77.05 77.09 76.69 76.51 75.85 75.56 75.27
43.10 44.79 42.65 42.95 46.08 47.50 49.19 50.93 51.74 52.72 56.05 56.50 58.52 59.97 60.82 61.47 62.59 64.27 67.47 69.77 69.89 69.89 73.13 72.37 72.44 73.42 73.99 75.06 75.49 75.47 75.56 75.91 74.77 75.48 75.84 76.06 76.42 76.26 76.72 74.85 73.70 76.63 78.29 73.67
43.70 42.18 40.14 39.65 46.68 47.08 48.11 51.12 53.15 52.26 52.38 53.66 54.75 57.42 60.82 62.95 62.99 63.60 68.23 70.91 70.57 70.15 71.74 72.67 72.61 74.63 76.29 75.29 73.57 76.60 76.22 76.11 75.96 75.42 75.44 75.26 75.95 75.97 76.09 73.56 68.98 50.82 48.71 47.54

GFSCGP_sfc_wetblb_051.txt.gz
Wetbulb
58.90 55.82 53.70 55.48 58.93 59.24 57.42 55.74 55.79 59.42 61.87 61.56 60.59 61.03 63.27 66.22 66.83 67.40 68.74 69.22 68.93 68.79 70.52 71.61 72.14 72.51 72.78 73.28 73.89 75.30 76.25 78.64 77.15 75.10 74.32 74.12 72.75 74.08 73.56 74.22 77.70 78.03 78.69 79.39
56.36 53.71 57.14 58.06 57.72 58.76 57.60 55.94 55.95 59.13 61.28 61.60 60.13 60.27 62.80 64.05 65.46 66.61 68.04 69.14 69.56 69.59 69.96 70.48 71.52 71.94 72.16 72.85 74.93 76.52 77.31 79.08 78.04 76.02 76.66 75.08 75.33 73.53 73.87 74.54 78.50 78.58 78.89 79.47
53.56 55.71 57.41 56.21 54.98 55.73 57.20 54.96 55.61 56.18 59.33 61.27 59.07 57.89 60.07 62.76 63.69 66.78 67.95 69.92 70.39 70.21 69.60 69.60 70.65 71.25 71.87 72.89 74.75 76.01 77.74 78.59 78.58 78.41 77.42 76.93 76.37 75.82 73.50 74.27 75.58 77.58 78.70 79.08
54.01 55.86 54.32 54.09 52.70 53.90 51.41 55.98 55.84 55.34 56.08 53.80 58.96 51.72 58.09 60.82 61.31 64.31 66.67 68.49 69.53 70.49 70.96 70.38 70.01 70.78 71.46 72.60 74.20 76.86 78.55 79.14 79.02 79.77 76.95 76.77 73.16 71.79 72.61 74.11 75.31 77.11 79.21 78.76
52.64 53.01 52.35 52.04 53.03 54.49 52.41 55.73 55.53 55.62 54.26 54.91 55.73 53.78 56.56 60.52 59.78 61.93 65.05 66.95 68.84 70.68 71.05 70.63 70.07 70.97 71.75 72.52 73.12 75.67 78.70 79.21 79.69 79.56 78.46 76.08 75.45 72.80 73.60 73.93 78.33 78.88 80.81 80.17
55.21 57.15 55.26 53.93 54.56 54.68 55.65 53.89 54.41 55.06 53.61 48.71 53.63 54.38 54.68 57.47 60.58 62.21 64.68 66.06 68.12 69.88 70.93 71.70 71.59 71.12 71.54 72.37 72.86 74.28 77.70 79.22 80.30 80.40 79.25 79.17 77.07 75.80 72.65 74.90 74.70 75.80 76.38 77.32
52.58 53.97 55.31 55.71 52.89 54.77 53.38 51.02 46.48 46.03 46.75 46.70 53.84 52.79 55.20 59.04 60.73 62.31 63.89 65.72 67.77 69.71 70.55 71.28 71.31 70.51 71.07 72.09 72.88 74.20 77.39 78.63 80.13 80.09 79.50 78.49 79.22 78.69 77.68 78.38 75.49 77.57 75.04 75.32
48.37 46.81 53.13 54.62 53.45 51.98 51.65 50.87 46.67 43.00 44.49 47.34 53.25 50.18 53.72 59.33 61.32 62.50 64.43 65.71 67.20 69.10 70.33 71.05 72.08 71.38 71.72 73.02 74.36 75.50 77.10 78.46 79.81 79.67 79.93 80.23 79.87 76.90 76.35 77.32 76.57 75.94 75.51 76.09
49.34 49.12 54.77 54.64 54.93 54.67 52.02 49.55 52.62 49.28 50.80 48.33 50.54 53.84 57.06 59.26 59.74 61.21 61.84 64.41 65.56 67.90 69.57 70.76 71.98 72.58 71.97 73.56 75.34 76.31 77.50 78.65 79.81 79.27 79.90 80.32 79.92 79.31 77.52 77.84 79.30 76.72 79.76 76.67
52.97 50.01 53.99 54.25 55.34 54.96 54.10 55.04 47.91 49.47 46.00 45.33 48.90 51.18 52.05 56.34 57.97 60.06 60.86 62.01 64.78 67.91 69.50 70.50 71.43 72.77 73.99 73.57 75.53 76.85 77.82 78.92 79.41 79.65 79.79 79.93 80.34 80.10 79.67 79.49 79.48 79.13 79.12 80.65
54.08 52.98 52.98 55.16 51.90 51.39 51.56 51.60 51.70 51.14 49.78 46.48 46.39 49.48 56.60 57.55 59.05 59.00 60.50 62.12 63.86 65.96 68.91 70.12 70.79 72.65 74.54 74.53 74.28 76.02 77.43 78.35 79.20 79.78 79.90 80.01 79.96 80.24 80.49 79.51 80.04 80.12 81.53 81.61
54.40 52.70 49.92 52.22 54.77 55.61 54.56 52.60 53.22 49.28 48.89 49.55 49.66 50.15 57.07 57.70 58.25 59.72 60.54 62.24 63.49 65.59 66.88 68.67 70.45 72.20 73.10 74.32 74.19 74.95 75.92 76.71 79.06 79.36 79.68 79.82 80.35 80.41 79.97 80.01 79.95 81.14 80.45 81.67
53.41 50.90 48.09 50.44 53.17 54.37 52.51 53.63 53.52 53.45 52.31 50.57 47.20 50.32 58.84 58.07 58.72 59.45 60.49 61.72 63.91 65.35 66.84 67.63 68.79 71.56 72.68 73.59 75.80 76.08 76.54 76.02 76.83 78.64 78.82 79.34 79.76 79.91 79.72 80.00 80.66 80.75 81.25 81.15
51.17 51.04 50.37 48.95 51.96 53.09 50.64 52.09 53.09 52.38 50.28 50.28 50.97 52.60 55.32 57.01 57.93 59.22 60.74 62.44 63.37 65.18 66.50 67.61 68.58 70.72 72.58 74.27 76.40 77.03 76.19 75.86 76.84 77.41 78.08 78.57 79.48 79.78 79.79 80.17 80.75 80.80 81.36 81.01
50.77 47.90 51.43 52.90 53.68 53.53 52.90 51.57 52.21 51.58 52.82 50.27 52.57 53.28 56.12 57.39 57.92 59.95 61.10 62.34 62.19 63.08 63.87 65.99 67.37 68.83 70.61 73.53 76.06 77.69 76.86 77.69 76.64 77.97 78.10 78.38 79.67 80.64 80.51 80.38 80.29 81.02 81.03 81.02
50.72 46.66 50.74 50.43 52.83 51.92 50.29 52.92 52.39 52.62 52.58 52.88 53.29 53.74 58.78 59.50 59.54 59.08 59.83 60.52 60.42 62.37 64.18 64.91 66.99 68.94 70.08 70.85 73.59 76.33 78.10 77.18 78.55 78.38 77.96 79.39 79.87 80.29 80.44 80.46 80.51 80.72 80.81 80.76
46.00 47.23 48.01 45.89 51.26 50.57 47.49 51.41 52.56 53.55 54.34 53.58 51.52 55.53 58.69 58.28 58.99 59.48 60.25 61.16 61.41 62.28 63.07 63.84 64.91 67.14 69.95 70.19 74.05 75.15 77.63 78.80 78.30 77.43 79.27 79.36 79.93 79.87 80.43 80.59 80.62 80.38 80.41 80.79
44.56 45.69 46.44 44.82 48.35 41.81 51.56 55.95 54.74 53.39 54.52 55.49 55.85 57.13 58.32 59.09 60.27 61.17 62.35 62.12 62.09 62.90 63.52 64.29 64.44 65.98 68.06 69.83 71.42 74.96 75.09 78.68 78.29 78.51 77.97 79.51 79.56 79.71 80.32 80.57 80.38 80.66 80.62 80.38
46.84 44.82 43.41 42.19 44.92 48.98 51.33 52.92 53.39 52.60 52.79 56.19 55.86 57.01 57.76 58.87 59.33 59.73 61.49 62.42 62.72 63.34 64.21 64.93 65.15 65.37 66.84 67.08 70.53 73.06 75.31 76.38 77.80 77.73 77.84 78.64 79.57 79.57 80.03 79.82 80.07 80.44 80.21 80.29
45.92 46.25 42.80 43.99 41.24 41.55 50.38 54.50 54.96 56.45 50.05 57.03 57.48 57.60 57.85 58.77 54.73 57.70 63.62 65.30 67.00 66.73 67.49 67.45 66.17 65.99 66.06 67.49 67.18 69.30 73.30 76.85 77.29 77.57 78.32 79.05 80.11 79.92 79.48 79.89 80.43 80.63 80.80 80.08
40.75 41.89 39.60 40.73 41.14 46.41 52.44 54.56 56.64 46.92 52.68 60.76 61.22 61.62 61.41 60.30 62.96 65.90 67.03 67.26 68.45 68.52 68.61 69.18 69.32 68.44 69.93 70.81 71.67 73.18 73.66 75.90 77.31 77.80 78.81 79.76 79.97 80.06 80.37 80.83 80.80 80.72 80.18 78.99
41.04 39.65 39.65 41.12 39.86 38.85 52.68 51.41 49.42 54.73 57.84 55.87 58.33 59.88 61.05 61.88 62.46 63.47 65.13 66.10 67.54 69.33 70.03 69.66 68.88 69.15 70.93 72.04 74.75 75.67 76.46 77.61 80.08 79.65 79.04 79.57 80.11 79.39 78.88 80.86 80.94 80.75 80.05 79.40
39.20 43.79 42.56 43.71 43.50 50.85 52.26 51.88 54.34 55.05 54.25 56.05 57.01 58.09 59.22 60.37 61.11 62.31 63.54 65.00 67.51 70.12 71.17 71.37 70.15 71.93 74.06 74.11 76.34 76.28 77.14 80.74 80.08 80.17 79.69 80.03 80.68 80.32 80.10 80.01 80.37 78.50 79.47 77.02
44.77 47.66 43.39 43.82 47.25 49.12 50.95 52.69 53.97 54.37 54.17 55.51 56.08 58.66 59.69 59.72 61.28 62.40 63.67 65.41 67.23 70.51 71.68 72.44 71.45 70.81 73.45 75.64 75.75 77.74 79.12 81.59 80.48 80.02 79.77 80.05 80.15 79.69 80.17 78.71 78.45 77.30 76.73 76.35
43.57 45.08 43.72 44.00 46.49 47.86 49.98 51.51 52.52 53.55 54.65 54.63 56.04 57.06 56.92 57.46 58.16 61.40 62.91 64.87 68.15 71.50 72.37 72.27 73.23 73.05 72.78 75.26 76.29 76.13 77.70 79.12 78.21 78.32 77.68 79.05 78.13 78.17 78.74 77.13 70.96 76.82 77.55 70.98
45.02 43.68 41.36 41.02 47.57 48.11 49.32 51.92 53.13 52.64 52.73 54.39 55.01 54.81 56.12 56.76 57.34 60.26 62.77 64.61 68.62 70.86 73.08 72.91 73.92 74.43 75.46 76.38 76.98 77.74 77.98 77.93 77.90 76.70 76.55 75.74 75.54 77.18 76.87 74.92 69.41 48.88 48.84 46.59

GFSCGP_sfc_wetblb_054.txt.gz
Wetbulb
58.93 55.00 53.74 55.72 57.24 58.04 57.75 55.39 55.35 58.39 60.55 61.29 59.82 60.51 60.92 61.53 61.53 62.08 66.83 67.06 66.75 67.59 70.28 71.64 71.96 72.60 73.08 73.77 74.36 74.38 75.68 77.08 76.04 75.54 74.64 74.86 73.51 75.37 76.48 76.91 78.20 79.07 80.07 80.16
56.11 52.76 56.06 57.02 57.43 57.06 57.06 55.61 54.51 57.10 61.17 59.89 59.49 60.87 60.51 60.43 62.14 64.06 66.15 67.25 67.64 67.90 68.97 70.76 71.60 72.04 72.27 72.84 73.72 74.68 75.23 76.52 76.81 75.85 75.78 75.19 75.68 74.98 74.87 76.06 77.90 79.41 79.00 80.31
53.28 55.18 56.92 55.41 54.68 53.86 56.08 55.69 55.36 54.73 60.08 61.04 59.74 57.47 60.54 62.64 65.40 67.53 67.47 68.59 69.01 68.80 68.48 69.70 70.67 71.35 71.95 72.46 73.59 74.46 75.19 77.24 76.92 76.69 76.80 77.42 77.13 77.25 74.66 74.60 75.32 77.60 79.07 79.94
55.00 57.38 55.51 54.78 53.86 54.85 51.53 57.82 57.54 56.25 56.54 53.26 59.73 50.94 59.51 61.16 61.98 64.62 66.37 67.21 68.30 69.32 69.99 69.43 70.24 70.84 71.49 72.48 73.93 74.87 75.58 76.49 76.83 77.52 75.55 75.67 72.60 71.71 72.70 74.43 75.13 76.73 78.35 78.76
54.51 54.97 54.67 53.42 54.20 55.74 53.57 56.84 57.31 56.46 54.18 54.66 55.87 53.98 55.60 60.41 59.35 60.94 64.37 66.99 67.68 69.93 69.99 69.63 69.68 70.77 71.83 72.83 73.70 74.69 75.69 76.04 77.07 75.94 76.82 74.86 74.19 73.17 74.85 74.81 75.64 77.55 78.55 78.85
56.27 59.41 56.62 54.90 55.80 56.01 56.10 54.13 54.59 55.02 53.18 49.21 52.99 53.77 54.76 56.85 60.05 61.56 63.36 65.92 68.35 68.53 70.46 70.95 70.91 71.24 71.33 72.70 73.52 74.52 75.61 75.65 76.82 77.14 76.10 77.15 74.41 74.49 72.30 74.36 74.37 76.17 76.82 77.85
54.32 55.68 56.52 55.82 52.65 54.92 53.78 50.71 46.23 45.28 46.80 46.66 53.19 51.81 55.36 59.56 61.68 62.01 63.14 65.35 67.47 69.75 70.47 70.98 70.64 70.22 70.95 71.61 72.54 73.68 75.66 75.91 76.70 77.10 76.71 75.78 77.64 74.87 74.96 76.06 74.40 75.16 75.41 75.81
48.47 47.97 54.71 55.83 53.55 51.50 51.68 50.52 46.71 42.03 44.02 46.89 52.53 49.73 53.57 60.33 61.98 63.69 65.09 65.61 66.76 68.12 70.60 71.16 71.48 70.72 70.79 71.39 72.34 73.35 74.79 75.47 76.87 76.60 77.62 77.05 77.00 77.22 74.40 75.03 75.25 74.43 76.02 75.79
49.56 49.01 55.66 56.36 55.60 54.59 51.13 48.69 52.37 48.12 49.77 47.24 49.64 52.97 56.42 59.30 60.05 61.28 61.17 64.80 66.06 67.29 69.68 70.96 72.23 71.42 71.05 71.47 72.34 72.59 74.25 75.32 76.48 77.11 77.68 78.10 76.84 76.20 76.83 75.24 76.38 77.34 76.95 76.42
51.90 48.62 53.56 54.86 56.18 54.74 53.32 54.32 47.55 48.84 43.56 43.77 47.51 50.92 51.76 56.19 58.67 60.27 60.16 61.21 64.82 67.40 69.09 70.73 71.76 72.13 71.81 71.82 72.82 73.19 74.47 75.05 76.52 77.45 77.73 77.86 78.27 76.70 76.24 77.71 75.39 75.53 77.56 80.76
52.14 50.85 50.89 54.22 52.59 50.96 51.11 50.81 50.84 50.01 48.80 45.00 44.89 48.86 57.56 58.79 59.28 59.80 60.48 62.48 63.56 66.52 68.30 69.96 71.42 72.90 72.53 72.27 72.61 73.19 73.51 75.74 76.50 77.56 77.94 77.71 77.90 78.28 77.32 76.11 77.11 76.58 77.58 77.80
53.48 50.62 47.79 49.66 54.91 55.48 53.64 51.67 52.29 48.89 47.72 49.32 49.16 49.35 57.69 59.11 60.69 60.83 61.41 63.22 63.82 65.68 68.37 70.10 71.66 72.43 73.14 72.78 72.76 73.26 73.90 74.59 76.77 77.74 78.03 77.88 78.24 78.55 78.12 77.05 77.19 77.73 77.83 79.65
49.58 49.25 45.62 47.64 52.49 54.91 52.26 52.79 52.25 52.98 51.82 49.98 47.13 48.96 59.41 58.55 59.28 61.32 61.22 62.35 65.63 66.69 69.39 70.30 70.61 71.60 72.71 73.39 73.42 73.51 74.34 74.90 76.40 77.59 78.07 77.87 77.83 78.19 78.20 78.26 77.52 78.09 78.14 77.94
51.19 48.29 48.46 46.78 50.20 53.74 51.25 51.68 52.73 51.34 50.29 49.51 50.37 51.96 55.50 57.08 57.74 59.16 62.56 63.47 64.33 67.43 68.02 69.73 70.40 70.35 72.58 73.77 74.16 74.23 74.41 75.45 76.04 76.97 77.67 77.50 77.84 78.08 78.48 78.59 78.57 78.16 78.09 78.69
49.98 46.69 50.33 51.71 52.96 53.85 52.26 51.30 52.13 51.67 52.81 50.40 52.05 53.63 56.45 58.43 58.61 60.76 64.19 65.05 65.78 66.99 67.45 70.55 69.40 70.30 72.65 74.44 74.67 75.13 75.43 75.50 75.84 75.96 76.84 77.18 78.01 78.65 78.65 78.58 78.58 78.81 78.69 78.29
48.13 45.85 49.50 48.71 52.09 52.84 51.97 52.42 52.32 52.61 52.33 52.64 53.30 53.94 58.60 60.29 61.62 61.29 62.91 62.86 64.15 64.55 65.78 67.69 70.31 72.55 74.60 74.03 75.26 75.45 75.54 76.41 76.20 76.14 75.92 77.46 77.93 78.20 78.39 78.47 78.47 78.58 78.80 78.73
45.06 44.79 46.00 44.00 50.59 51.38 48.80 52.57 53.03 53.01 54.19 53.52 51.78 56.88 60.19 59.25 60.22 61.04 63.47 63.12 62.40 62.97 66.62 67.01 69.04 73.03 75.73 75.71 76.22 76.38 76.33 76.66 76.92 76.57 77.16 77.33 77.82 77.73 78.05 78.67 78.63 78.43 78.20 78.63
43.26 44.16 44.90 43.84 47.52 41.73 52.17 56.58 55.74 54.24 55.01 55.53 55.99 57.05 58.64 59.94 61.76 63.13 64.51 63.62 61.73 63.39 65.76 67.38 65.69 68.63 71.17 70.38 70.95 76.53 76.85 78.39 76.72 77.13 77.44 78.04 78.15 77.78 78.42 78.51 78.59 78.54 78.57 78.31
46.59 43.68 42.17 41.98 43.58 48.92 51.84 54.44 54.08 52.73 53.06 56.60 56.29 57.88 58.63 59.62 60.40 61.33 62.40 62.92 63.95 66.30 67.74 67.99 65.85 66.03 72.11 70.42 71.39 75.65 75.09 76.27 77.96 76.78 77.55 77.27 77.93 78.20 78.17 78.01 78.41 78.85 78.57 78.57
45.72 46.27 42.34 43.69 40.83 40.34 50.67 54.76 57.15 56.69 49.86 60.29 57.93 57.29 57.21 58.29 54.29 61.07 66.90 67.01 67.45 68.49 69.79 69.91 70.17 69.93 70.68 71.46 70.91 75.58 74.59 76.37 76.11 76.78 77.03 78.20 78.07 78.01 78.04 78.22 78.58 79.17 79.15 78.63
40.28 41.44 39.68 40.84 41.00 46.38 52.25 53.93 56.67 48.45 51.39 58.08 59.49 59.66 61.65 60.13 61.63 63.86 64.99 65.63 66.80 68.11 69.58 71.79 71.54 70.41 71.86 74.18 74.46 77.36 78.15 75.79 77.06 77.69 78.05 77.97 77.84 78.08 78.60 78.94 79.19 79.21 78.95 78.67
40.53 38.86 38.60 40.92 40.09 39.41 52.50 52.27 50.27 55.12 56.82 56.04 57.62 57.78 57.76 60.03 61.66 62.12 63.00 64.32 65.70 67.63 68.78 71.06 71.60 72.30 73.04 74.18 74.50 76.02 76.54 78.15 79.21 79.48 78.07 77.81 78.82 77.61 78.69 78.82 78.97 79.28 78.94 78.14
37.68 43.27 41.88 43.40 43.34 51.34 50.97 51.37 53.85 54.89 54.47 54.94 55.19 55.91 57.76 59.18 59.94 61.04 62.05 64.35 65.40 66.94 68.41 72.02 72.79 73.55 74.20 75.53 78.10 76.96 77.14 80.43 83.32 79.14 78.75 78.40 78.59 78.76 77.82 78.62 78.35 78.38 78.72 77.93
43.68 45.78 41.29 43.08 46.93 48.59 50.16 51.70 53.20 53.89 53.78 54.70 55.12 55.58 56.30 57.27 57.63 57.66 59.47 61.24 63.97 65.98 66.57 71.26 74.04 72.96 74.18 75.14 75.23 78.58 80.28 81.70 80.58 80.93 79.24 79.38 78.79 78.31 78.59 78.62 78.78 78.40 77.87 77.34
42.75 44.30 42.63 42.73 46.17 47.97 49.21 50.47 51.15 52.04 53.64 53.59 54.56 54.98 55.08 56.48 56.38 56.71 58.10 59.98 62.08 65.37 66.35 71.29 72.77 73.76 75.06 77.08 77.79 77.76 79.17 79.10 77.22 79.69 79.26 79.02 78.72 77.87 78.68 72.46 66.20 75.80 74.24 68.90
44.63 42.48 39.82 40.00 46.47 46.88 47.98 50.92 52.32 51.94 52.37 53.52 53.54 53.58 54.97 56.16 55.72 56.17 57.54 59.28 61.06 64.92 66.04 69.92 71.65 73.18 75.55 77.31 78.50 79.34 80.59 80.16 77.66 77.61 77.89 77.29 77.06 77.99 77.73 68.53 66.25 49.08 48.11 45.82

GFSCGP_sfc_wetblb_057.txt.gz
Wetbulb
55.17 50.90 48.22 50.76 52.95 53.77 54.77 54.29 52.98 56.67 60.58 59.67 58.68 57.36 59.81 62.54 63.33 63.52 63.43 62.98 64.25 66.77 69.13 70.17 71.26 71.74 71.28 70.97 70.56 70.51 70.64 72.12 71.99 72.73 71.67 71.69 70.26 71.01 69.70 70.69 73.83 74.95 75.08 74.97
51.86 49.20 53.58 55.08 54.96 53.83 53.56 52.16 52.33 55.35 57.93 58.91 58.57 57.19 60.13 60.52 60.83 61.52 62.43 63.90 64.35 66.34 67.03 68.65 68.78 69.72 70.01 70.59 70.13 70.58 70.75 72.52 72.16 73.29 72.12 71.41 71.22 70.86 70.55 70.95 71.24 75.07 75.33 75.93
49.53 52.20 56.35 54.73 53.42 52.55 52.08 51.03 52.19 52.53 55.43 58.11 58.64 55.67 57.87 60.37 61.67 62.94 64.12 65.10 66.19 66.09 66.09 67.48 67.85 68.56 69.44 70.20 70.35 70.09 71.67 73.34 72.73 72.94 72.86 71.60 71.88 70.64 69.76 69.85 69.42 74.19 74.48 75.79
51.65 55.18 54.61 52.93 51.95 52.58 48.42 54.57 55.22 54.74 53.40 48.18 55.88 48.45 54.42 58.66 59.74 60.62 63.03 64.42 64.15 65.85 66.82 67.60 67.81 68.20 69.15 70.01 71.60 70.65 72.27 73.17 73.32 72.93 72.43 71.42 70.06 68.45 69.34 69.11 70.41 73.04 74.61 75.59
49.14 52.59 52.20 51.53 51.81 53.35 50.02 54.30 53.24 53.75 52.43 51.97 52.09 49.92 53.54 58.21 56.81 59.10 62.23 64.54 63.71 66.24 66.61 67.21 67.88 68.64 69.37 70.47 71.11 71.44 71.61 73.71 73.44 73.34 71.96 71.42 69.66 69.20 68.61 69.71 69.43 71.13 73.78 74.63
51.85 56.59 55.17 53.49 54.88 54.63 55.25 52.61 51.58 51.53 50.69 45.44 47.91 50.53 49.10 54.93 56.93 59.51 63.23 64.89 65.49 66.70 67.06 67.43 68.77 69.21 69.07 70.79 71.43 71.96 71.50 72.28 73.27 72.68 72.50 70.98 70.03 68.66 68.40 68.27 69.06 71.21 74.40 74.92
50.07 51.89 55.14 56.60 52.21 54.02 52.82 47.93 40.84 40.09 41.90 42.74 47.11 47.84 49.47 56.06 58.36 62.00 63.93 64.81 65.88 67.29 67.19 66.97 67.61 67.87 68.54 69.35 70.63 71.83 71.61 71.31 73.41 72.64 71.84 72.23 71.48 70.52 68.73 67.90 68.88 71.00 72.53 73.91
43.28 42.93 52.35 55.94 52.98 50.02 50.06 48.50 40.60 34.11 36.19 41.50 45.89 42.79 48.28 55.69 58.96 61.17 64.98 66.45 67.13 67.25 67.61 67.31 67.37 68.13 68.29 68.89 70.29 71.20 71.64 71.22 72.49 73.59 72.69 71.72 72.60 72.73 71.31 71.36 70.61 69.73 71.65 73.41
42.72 44.49 54.41 55.86 56.27 53.33 47.52 46.01 47.43 39.90 41.72 39.08 42.91 46.98 52.06 55.07 54.59 57.47 60.36 64.81 65.83 67.11 67.80 67.78 67.63 68.19 68.26 68.83 69.75 70.84 71.64 71.86 72.54 72.88 73.59 73.26 71.86 73.13 72.29 70.42 71.48 72.45 70.87 73.50
45.05 41.24 49.42 53.66 56.12 55.21 49.69 49.94 43.44 43.66 35.16 36.26 42.17 44.11 46.79 50.28 52.53 54.26 55.76 60.89 63.73 66.61 67.92 68.33 68.04 67.97 68.63 68.99 69.90 70.55 72.25 72.21 73.01 73.18 73.76 74.05 74.16 72.61 73.65 72.65 70.66 71.15 71.87 73.28
44.28 41.56 45.16 49.09 50.56 49.93 48.38 46.26 46.51 42.90 40.90 36.30 36.62 43.34 50.55 52.24 53.98 54.25 56.18 57.56 63.11 64.72 67.72 68.47 68.45 68.37 68.83 69.11 69.69 70.23 70.90 72.64 73.18 73.95 73.55 74.36 75.07 74.60 73.11 73.65 73.11 71.81 71.33 72.69
44.53 40.94 40.63 44.37 50.06 53.54 51.73 48.27 46.09 42.73 38.96 40.27 39.64 43.26 53.96 53.70 56.22 56.39 57.16 57.64 60.02 64.41 68.21 68.94 69.10 68.51 68.41 68.45 69.01 69.70 71.03 72.18 73.22 74.01 74.36 73.92 74.78 75.75 74.35 72.77 72.89 73.05 72.43 73.14
42.43 38.65 36.10 42.31 46.05 49.54 49.37 49.44 48.96 45.28 44.04 40.53 39.55 42.47 53.79 54.25 56.08 56.96 56.59 58.13 59.06 62.53 67.17 68.68 69.27 68.41 68.16 68.31 68.75 69.62 70.14 71.96 72.99 73.84 74.21 74.99 74.75 74.93 75.48 74.84 73.72 73.58 73.72 73.99
47.97 40.27 38.27 35.56 42.82 46.02 46.02 49.41 48.97 46.97 42.38 41.94 44.97 43.65 51.45 53.00 54.00 55.85 56.51 58.99 60.91 60.66 65.34 67.74 68.82 68.82 68.78 68.86 68.77 69.56 70.06 71.12 73.35 73.75 74.52 74.32 75.18 75.20 75.53 76.07 75.55 74.00 74.69 74.40
41.23 36.18 41.32 43.97 47.92 49.10 49.35 49.81 49.30 46.77 46.69 44.61 45.60 47.06 50.87 51.93 54.98 57.59 59.18 60.44 61.18 61.95 64.98 66.45 68.20 69.19 69.45 69.32 69.15 69.61 70.39 71.11 71.63 73.94 74.33 74.62 75.36 75.79 75.84 75.71 76.08 75.97 74.45 75.52
40.48 36.09 41.29 42.66 48.48 49.58 49.13 51.24 50.29 49.86 49.17 48.33 47.99 47.67 54.55 56.03 56.27 57.58 58.46 59.15 58.84 61.18 62.18 63.17 64.92 68.15 69.36 70.09 69.90 70.17 70.38 71.17 72.25 71.88 73.96 74.89 75.65 75.76 75.79 75.98 76.00 76.23 75.87 74.81
36.21 37.31 36.85 36.98 46.33 46.99 43.52 49.16 50.99 49.96 51.25 50.07 46.79 49.07 54.86 54.41 57.45 57.20 57.99 58.38 59.18 60.83 60.90 60.27 62.65 64.07 68.82 70.39 71.22 70.90 71.45 71.92 71.96 72.30 72.63 74.25 75.17 75.32 75.70 76.17 76.17 76.01 76.01 76.40
36.13 36.77 37.31 36.60 43.35 35.47 46.84 53.86 54.14 51.75 51.93 52.66 51.38 54.00 56.34 55.92 57.53 58.61 57.59 57.02 58.06 59.23 59.29 60.43 60.21 61.13 64.21 68.77 72.77 72.63 72.69 72.45 72.33 72.06 72.87 73.30 74.58 75.25 75.46 75.68 75.66 75.82 76.13 76.02
41.44 38.86 35.27 34.96 39.59 43.72 49.79 50.33 49.76 49.50 50.83 54.82 55.73 57.61 58.11 60.57 61.21 60.56 63.38 63.86 63.60 64.15 64.64 64.51 64.98 65.37 65.74 66.09 65.69 72.68 72.65 72.94 72.67 72.93 73.02 73.71 74.80 74.99 75.25 75.13 75.54 76.05 75.96 76.05
41.70 41.95 36.30 38.40 35.83 37.76 42.70 48.96 52.61 53.60 45.87 54.37 54.51 56.63 57.52 60.13 54.03 56.01 61.25 63.14 63.96 65.44 66.39 67.27 67.52 66.09 65.70 66.65 68.34 69.14 71.44 73.40 72.64 72.89 73.74 75.23 75.16 75.33 75.03 75.73 75.68 76.60 76.55 76.10
36.10 37.71 34.70 36.94 36.67 41.43 45.91 49.15 54.89 45.56 45.21 52.61 52.77 53.73 55.95 54.93 56.05 57.82 61.09 62.04 64.33 64.39 65.10 67.64 68.85 68.18 67.39 67.63 67.22 67.60 66.52 69.53 72.52 73.17 73.53 74.60 75.52 75.46 76.10 75.91 76.51 76.55 76.61 76.54
35.94 34.76 35.69 36.81 36.40 34.60 48.01 48.28 42.77 48.55 52.61 51.74 52.20 52.11 54.35 55.44 55.95 56.58 57.09 58.64 61.98 62.50 63.31 64.51 66.50 68.80 70.95 68.85 67.61 65.16 68.73 68.72 70.38 74.09 74.05 73.85 74.25 75.36 76.27 76.19 76.24 76.49 76.44 76.02
33.30 37.68 34.89 37.40 35.01 44.18 47.20 47.37 49.55 49.65 49.01 51.26 50.87 51.31 52.58 53.99 53.60 54.55 54.40 55.33 57.04 60.97 62.02 63.34 64.66 69.07 71.23 71.90 68.56 68.12 68.69 70.91 73.11 74.62 73.72 74.02 74.32 74.84 74.12 75.59 75.84 75.89 76.22 76.09
40.04 42.49 36.93 37.35 41.73 43.50 45.17 48.68 47.58 48.50 48.10 50.74 50.44 50.69 51.84 51.51 53.38 52.86 53.18 53.70 54.52 56.29 60.34 62.76 62.05 65.89 68.58 71.15 72.46 72.06 68.91 72.83 73.46 72.30 74.73 74.24 74.15 74.57 73.83 75.56 76.33 76.22 76.11 76.00
39.17 39.54 36.39 35.94 39.88 40.88 44.63 45.03 46.39 47.75 48.82 49.79 50.66 51.35 50.71 50.61 51.86 52.19 51.73 52.30 52.93 54.07 59.20 61.50 60.94 62.71 66.88 69.80 74.15 75.40 73.38 72.58 70.81 70.88 75.46 75.37 75.13 73.72 74.15 62.33 59.63 72.96 69.93 69.31
39.38 37.03 35.15 33.67 38.83 38.28 39.47 43.61 45.51 44.79 45.42 47.57 48.96 49.71 51.98 51.99 51.57 52.59 51.24 52.06 52.83 52.61 54.53 60.99 62.24 65.17 67.45 69.44 72.69 74.32 74.92 75.58 74.77 71.14 73.10 74.72 74.28 74.63 70.09 62.54 59.54 47.73 46.88 45.34

GFSCGP_sfc_wetblb_060.txt.gz
Wetbulb
49.19 44.57 42.12 43.98 45.32 47.23 50.33 49.79 49.74 53.65 59.99 59.90 57.71 57.00 59.14 61.32 61.98 63.74 64.35 64.73 64.97 65.62 67.65 68.61 69.11 69.80 69.59 69.01 70.09 69.74 69.63 69.73 70.65 69.80 70.03 69.11 68.28 69.36 69.62 69.15 71.43 72.45 73.16 74.26
47.62 45.33 48.76 50.58 50.54 49.65 50.20 49.24 50.14 53.95 56.64 58.29 58.33 57.48 60.10 59.95 59.73 62.95 64.31 64.78 65.27 65.87 66.61 67.69 68.51 69.14 69.38 68.54 69.66 69.71 70.01 69.91 70.41 70.67 70.29 70.32 69.40 69.35 69.81 68.93 71.78 72.99 73.41 74.18
46.98 49.70 54.02 52.79 50.93 49.59 49.41 48.19 49.45 50.13 54.17 59.01 57.47 55.04 56.07 58.92 61.86 63.02 64.54 64.74 65.60 66.05 66.15 67.20 67.86 68.63 69.39 68.64 68.71 68.84 70.26 70.30 70.68 71.04 70.13 69.93 70.56 68.83 68.74 68.10 67.80 72.63 73.98 74.81
46.84 52.26 52.33 51.47 50.47 50.73 46.03 52.57 52.56 52.11 50.52 47.41 57.01 46.41 53.99 57.51 58.45 60.30 61.00 62.68 63.88 64.80 67.30 67.54 67.97 68.58 69.32 69.35 69.77 69.54 70.65 70.69 70.95 71.80 70.58 70.03 70.20 69.64 68.21 67.74 68.22 70.71 73.76 74.13
45.41 49.20 50.37 49.80 51.00 52.90 49.31 53.31 51.77 51.73 47.67 45.82 52.09 48.75 51.48 57.31 55.23 57.67 60.19 62.18 63.87 65.22 66.39 67.07 67.99 69.12 70.11 70.24 69.41 70.22 71.10 70.91 71.13 71.93 71.29 70.35 68.87 68.93 67.97 68.13 67.79 68.24 72.14 73.54
47.46 51.55 52.15 51.97 53.91 54.12 54.19 50.27 49.14 46.72 44.28 40.19 46.29 48.93 47.10 53.02 55.68 57.68 59.90 61.94 63.97 65.18 66.20 67.14 68.01 69.11 69.05 70.15 69.91 69.51 70.38 71.18 71.49 71.95 71.56 70.62 69.57 67.69 67.66 66.63 67.31 67.53 70.67 72.11
44.18 47.20 50.80 53.16 50.23 52.82 51.52 43.51 38.79 35.65 37.79 38.35 45.46 44.48 49.35 57.09 59.11 59.95 59.94 61.19 63.53 65.70 64.90 66.35 66.90 67.12 67.85 68.80 69.59 69.13 69.75 70.36 71.64 71.48 71.35 71.03 70.37 69.04 68.31 67.49 67.02 67.63 70.72 71.43
37.77 38.80 47.03 52.09 50.80 48.60 47.55 47.14 39.77 33.94 33.50 39.99 43.19 42.06 48.18 56.48 61.73 62.22 62.52 62.64 63.54 65.66 65.29 65.61 67.04 67.68 67.65 68.49 69.46 69.61 68.90 69.72 71.11 71.73 71.27 71.12 70.34 70.49 69.68 68.10 67.96 67.52 70.94 72.72
34.94 39.03 50.29 51.90 52.95 52.68 46.97 44.36 48.41 38.36 36.22 35.97 40.07 44.96 49.50 51.73 54.54 57.27 61.37 62.74 63.05 65.42 65.80 66.18 67.06 67.97 68.04 68.52 69.09 69.60 69.33 69.25 71.20 71.31 71.67 71.43 71.72 70.83 70.22 68.98 68.23 68.88 69.74 72.82
38.58 33.05 44.71 48.67 51.44 53.58 51.48 48.84 41.05 37.04 36.96 33.13 37.26 40.34 45.44 47.84 49.86 51.39 59.68 62.00 63.66 65.69 66.34 66.92 66.98 67.79 68.40 68.86 69.54 70.13 70.17 69.58 70.04 71.66 71.66 71.01 70.74 72.15 72.87 70.20 68.61 70.35 70.25 70.92
39.29 35.76 39.35 44.75 44.22 45.49 49.06 47.31 42.25 43.09 37.86 37.21 33.27 40.70 47.25 48.71 50.53 51.12 56.09 63.15 64.53 65.67 66.46 67.14 67.23 68.11 68.34 68.98 69.51 69.93 70.25 69.96 70.01 70.90 71.98 71.98 71.47 70.75 71.55 72.29 70.18 69.86 69.62 70.97
41.86 38.40 32.97 38.68 46.62 48.49 49.96 46.62 44.96 41.41 36.81 36.47 37.53 42.22 49.73 51.07 52.23 52.63 53.49 62.43 65.70 66.48 67.09 67.75 67.68 67.56 67.92 68.00 68.67 69.34 70.19 70.42 70.69 71.28 71.40 71.88 72.26 72.23 70.82 70.68 72.74 71.40 69.84 69.79
41.39 38.58 33.04 36.48 40.66 45.34 43.35 45.13 42.91 40.06 40.31 37.23 39.02 42.12 49.37 49.55 51.41 53.30 54.62 55.63 64.04 66.23 67.15 67.54 67.62 66.99 67.45 67.71 68.07 68.87 69.92 70.77 71.37 71.63 71.62 71.65 72.51 73.16 72.94 71.73 71.44 72.64 71.75 70.75
44.47 37.44 35.27 31.03 34.70 39.78 39.64 43.14 46.00 42.63 39.53 39.05 41.88 44.65 46.01 49.28 50.34 53.94 53.49 55.43 61.52 65.57 66.59 67.26 67.14 66.99 67.27 67.59 67.72 68.27 69.19 70.96 71.63 72.08 72.22 71.84 72.08 73.43 74.38 73.93 72.71 71.66 72.74 72.03
40.92 33.02 34.06 35.14 38.39 41.26 42.39 43.10 46.87 43.72 44.79 42.18 43.69 42.86 45.83 47.81 50.43 54.28 53.84 55.93 59.52 64.27 66.15 66.98 67.09 66.85 67.13 67.35 67.54 67.98 69.00 70.06 71.53 71.87 72.08 72.27 73.00 72.89 73.77 74.66 74.28 73.46 72.02 72.61
38.89 33.12 33.19 31.05 39.95 42.77 43.27 47.21 48.67 48.33 46.78 44.71 44.86 44.46 49.77 50.54 53.49 54.39 56.02 58.21 58.79 64.09 66.15 67.08 67.46 67.26 67.12 67.23 67.39 67.75 68.59 69.43 71.09 71.37 71.72 72.40 72.78 73.88 73.45 73.88 74.48 74.76 73.66 72.76
34.62 33.18 30.59 29.10 40.92 43.33 40.94 44.14 48.08 48.18 48.05 46.10 44.84 46.83 51.16 51.82 54.47 55.57 55.88 57.89 57.60 59.72 63.51 67.00 67.72 67.66 67.68 67.89 68.14 67.61 68.48 69.37 70.42 71.01 71.51 72.28 73.02 73.29 74.13 74.45 74.43 74.41 74.48 73.86
34.69 33.43 31.20 29.48 38.41 35.48 44.29 48.00 47.99 49.51 49.39 49.67 50.57 53.61 54.43 57.59 59.21 59.91 61.32 60.86 61.05 61.71 62.23 62.27 62.26 63.31 67.98 68.90 68.74 68.79 68.91 69.07 69.13 69.56 71.83 72.57 73.14 73.49 74.09 74.33 74.21 74.48 74.82 74.60
38.86 35.73 30.57 28.65 36.01 42.63 43.71 44.63 44.65 43.03 45.76 49.29 50.22 56.43 58.39 58.67 59.15 57.94 61.60 62.86 63.16 64.25 64.50 63.18 62.99 63.20 65.00 65.92 67.76 68.91 68.59 69.05 69.31 69.26 69.67 71.94 73.43 73.69 74.05 74.13 74.48 74.83 74.87 74.82
38.40 38.48 33.14 31.57 32.98 35.77 38.16 44.74 49.99 51.25 41.23 49.93 50.09 51.71 53.42 56.12 50.89 51.74 58.33 61.11 61.26 62.65 64.84 67.01 68.44 69.34 66.26 64.51 66.51 69.03 69.54 69.57 69.15 69.81 70.54 71.40 72.42 73.73 73.92 74.40 74.45 75.35 75.36 75.12
32.61 34.19 31.96 33.22 34.29 40.18 41.92 45.70 49.25 40.05 41.58 49.62 50.76 50.58 50.40 49.09 50.53 52.21 55.18 55.68 60.44 60.97 62.03 65.61 68.28 69.40 69.58 67.55 64.17 64.53 68.37 69.42 70.38 70.93 71.44 72.02 72.48 72.67 74.11 74.60 74.86 74.69 75.08 75.02
33.83 34.47 32.84 33.40 32.61 33.68 43.60 44.16 40.02 42.67 46.19 46.73 48.03 48.80 49.67 50.14 51.54 52.04 52.86 53.26 54.36 57.08 60.72 60.94 63.17 67.18 68.60 69.83 70.22 66.95 65.88 67.44 69.01 72.23 71.89 72.71 72.79 73.58 74.17 74.10 74.38 74.81 74.70 74.51
32.78 35.83 33.86 34.00 34.97 40.38 41.97 44.19 47.87 47.44 44.86 45.96 46.12 47.70 47.99 49.70 49.87 50.77 50.79 51.36 52.51 53.72 60.29 60.62 58.31 60.42 65.82 68.01 70.61 71.39 73.19 67.10 68.42 70.52 71.13 71.86 72.71 73.83 74.33 73.99 73.67 74.11 74.55 74.50
37.26 39.94 34.73 34.62 37.80 38.34 40.38 43.41 47.44 45.38 44.44 46.00 46.00 46.26 48.03 47.69 50.14 49.61 50.33 50.67 51.59 52.29 54.66 60.28 60.22 60.00 62.54 66.34 69.06 71.70 73.74 72.63 69.85 68.91 70.10 71.58 71.51 71.81 71.66 74.90 74.82 74.60 74.53 74.53
36.95 38.14 35.94 34.83 36.50 39.18 41.52 42.83 43.06 43.65 45.37 45.56 46.64 45.90 47.00 48.44 49.01 49.73 49.35 50.16 50.57 51.04 51.89 56.54 59.32 59.17 59.64 65.09 67.12 70.08 72.94 73.49 72.85 70.94 69.52 71.17 72.09 70.54 71.77 68.29 67.16 73.56 74.16 71.47
37.87 36.40 34.83 33.67 38.92 39.36 39.88 42.89 44.55 43.46 44.04 45.10 45.38 45.69 46.44 48.05 48.48 49.73 49.33 50.49 50.19 51.18 51.46 52.30 59.02 59.19 60.54 63.88 66.38 68.06 71.79 71.65 71.02 71.12 71.83 70.86 71.96 71.52 69.19 62.95 58.09 47.77 46.81 46.29

GFSCGP_sfc_wetblb_063.txt.gz
Wetbulb
45.35 40.28 39.55 42.28 42.50 44.59 46.31 46.93 46.51 50.76 55.97 58.30 57.80 56.65 59.44 63.10 62.83 62.26 62.62 63.35 64.25 64.82 66.96 68.10 68.41 68.81 67.83 67.55 67.22 67.86 68.03 69.25 69.29 68.77 68.52 67.91 67.71 68.61 69.00 68.94 70.88 70.85 72.69 72.79
43.03 40.18 44.44 45.95 45.16 44.46 43.94 43.35 44.77 50.27 58.74 57.24 57.35 56.62 58.55 62.21 62.81 63.02 62.89 63.29 64.20 64.91 65.85 67.14 67.75 68.52 68.25 67.62 67.81 67.89 68.08 69.13 69.83 69.99 69.93 68.63 67.86 68.30 69.06 68.67 69.72 71.19 72.15 73.32
43.60 46.04 49.11 47.51 45.46 44.20 43.72 43.35 45.38 47.11 56.17 58.56 56.71 55.70 56.49 59.87 61.36 63.77 64.63 64.82 65.08 64.85 64.90 66.25 66.91 67.54 68.46 67.24 68.56 68.17 68.25 68.62 69.95 70.06 68.61 69.34 68.96 68.13 68.05 67.56 67.44 71.29 72.30 73.33
45.04 50.35 49.48 47.57 46.82 47.44 41.66 49.25 50.12 49.73 48.86 47.42 55.87 44.31 52.62 57.15 57.99 58.85 61.46 64.30 64.61 65.34 66.03 66.18 66.93 66.90 67.92 67.88 69.13 69.15 68.86 68.75 69.52 69.49 69.06 68.47 68.02 67.27 66.87 67.08 67.34 69.90 72.48 73.01
44.64 46.06 46.50 47.18 48.58 51.02 46.66 51.09 49.68 49.26 47.17 45.93 51.96 46.76 50.65 55.85 55.35 56.83 60.05 63.27 65.14 65.99 66.34 66.24 66.57 67.54 68.35 68.82 68.52 69.27 69.13 69.15 69.47 69.93 69.40 68.84 66.73 67.44 67.59 66.92 67.14 66.88 71.41 72.62
45.41 50.49 48.60 48.97 51.97 52.33 53.10 49.18 47.58 44.99 46.92 41.56 45.01 48.43 45.02 51.54 54.80 57.36 60.10 62.20 63.65 65.57 66.60 67.26 67.88 68.47 68.32 69.38 68.89 68.84 68.60 69.22 69.59 70.05 69.84 68.82 67.98 67.02 66.71 66.76 66.46 66.18 67.77 71.75
41.67 44.30 47.80 50.27 47.14 50.75 50.32 41.66 36.94 34.54 36.88 38.25 43.01 42.85 47.73 54.44 58.29 59.46 59.50 61.42 63.20 64.66 65.28 66.19 67.21 67.44 68.12 68.49 68.67 68.73 68.17 68.55 69.54 69.78 70.10 69.32 68.71 67.75 67.96 66.85 66.91 66.11 66.95 69.36
33.47 35.59 43.64 48.33 47.06 45.43 46.76 45.67 36.99 30.56 31.84 39.01 42.38 38.71 46.04 54.66 60.06 61.44 62.11 62.40 63.24 63.95 65.02 65.77 66.74 67.96 68.15 68.69 69.08 68.32 68.26 68.55 69.56 69.83 70.12 70.22 69.46 69.00 68.80 67.99 66.85 66.95 67.56 69.85
33.96 35.44 44.53 46.93 47.62 48.54 44.79 43.25 46.76 37.41 35.18 34.05 39.09 42.40 48.87 52.14 53.84 59.14 60.55 60.94 61.32 62.95 64.53 65.49 66.79 67.46 68.13 68.88 69.17 68.42 68.41 69.00 69.73 69.89 70.50 70.51 70.22 69.71 69.24 67.90 68.13 67.60 67.54 70.56
37.17 31.62 40.77 43.99 46.62 48.73 47.70 47.09 40.67 36.55 35.89 32.34 35.62 38.20 43.90 47.11 48.60 56.69 58.61 60.31 61.28 62.42 64.09 65.75 66.23 66.99 67.64 68.41 69.19 69.26 68.66 69.02 69.95 70.39 70.63 70.57 70.41 70.00 70.23 68.84 67.55 66.92 67.62 69.25
35.27 34.63 36.87 41.33 40.78 40.43 42.84 44.63 40.54 42.66 38.41 37.85 32.78 39.78 44.28 47.91 50.22 50.82 56.18 60.20 61.45 62.45 63.30 65.60 65.94 67.09 67.74 68.09 68.51 69.03 68.83 68.29 69.00 70.27 70.78 70.56 70.36 70.69 70.38 69.46 69.29 69.34 68.67 68.38
38.07 34.61 32.82 35.65 43.67 45.01 43.62 41.12 45.06 39.95 36.43 35.03 36.19 42.33 49.11 48.95 50.01 50.84 51.45 56.16 59.99 63.42 63.78 65.91 65.88 66.84 67.35 67.44 67.97 68.64 68.99 68.64 68.86 69.95 70.41 70.22 70.16 70.34 71.04 71.54 69.54 69.44 69.13 69.83
36.81 36.89 29.56 33.74 36.83 40.74 37.77 40.20 40.44 41.02 37.92 37.14 37.20 42.00 47.93 47.37 48.56 50.94 51.12 53.32 61.48 62.88 64.08 65.60 66.21 66.44 66.71 67.45 67.69 68.22 69.02 69.12 69.30 69.21 69.77 70.31 70.07 69.75 69.27 69.86 71.82 71.02 69.54 69.24
42.89 34.00 31.05 29.66 32.38 35.82 33.55 36.77 38.15 36.99 35.65 43.27 41.36 40.90 45.19 46.56 46.94 48.56 49.78 52.10 55.02 63.05 64.07 65.39 66.20 66.62 66.66 67.53 67.52 68.15 68.74 69.71 69.67 69.40 69.36 69.39 70.19 70.59 70.88 70.29 69.68 70.91 72.00 70.93
37.23 31.95 34.62 34.70 35.55 36.19 35.30 35.43 37.39 36.98 40.41 37.84 44.64 41.73 44.98 45.60 47.44 48.80 52.02 54.37 53.79 57.23 64.07 65.33 66.05 66.72 66.68 66.88 67.43 67.81 68.71 69.52 70.12 69.43 69.37 69.39 70.15 71.06 71.45 71.55 71.40 70.54 70.78 71.92
34.99 31.44 33.03 31.81 36.55 36.42 34.99 37.89 40.84 42.60 43.63 43.84 43.93 43.12 46.51 51.40 55.34 56.68 54.66 53.79 54.20 60.17 64.39 65.60 66.48 66.86 66.67 66.78 67.14 67.48 67.93 68.81 70.05 69.77 69.58 70.27 70.29 70.73 71.40 72.33 72.41 71.91 70.89 70.61
32.70 33.93 31.49 26.75 34.31 34.22 36.54 41.41 44.87 45.58 45.93 44.71 41.73 45.14 50.64 55.16 57.08 57.79 58.50 58.85 56.65 61.54 64.47 65.51 66.28 66.88 66.82 66.99 67.53 67.07 67.53 68.82 69.54 69.79 70.26 70.62 70.92 70.71 70.86 72.16 73.12 73.14 72.27 71.54
31.36 34.08 34.08 27.39 31.98 29.28 40.96 44.91 46.47 45.15 45.06 46.40 48.25 52.81 55.70 56.65 57.17 57.05 58.66 59.05 61.43 60.21 61.25 64.71 66.98 67.20 67.40 67.74 67.63 67.71 67.55 67.99 68.45 69.35 70.13 70.82 71.02 71.30 72.04 71.72 71.91 72.64 73.53 72.99
37.60 35.47 31.49 28.16 29.35 37.38 41.69 41.66 40.70 42.03 40.61 43.70 45.18 48.73 52.85 57.87 57.65 54.59 54.48 58.89 60.08 63.69 65.79 64.64 62.58 63.64 64.74 66.23 67.14 66.52 66.35 67.31 67.92 68.56 69.51 70.42 71.29 71.25 71.50 72.31 72.50 72.91 72.98 73.49
37.91 38.18 33.86 32.23 28.28 36.00 38.30 42.19 44.33 46.13 37.95 44.34 44.72 43.65 48.42 52.70 47.32 48.00 52.46 54.17 58.48 59.73 63.88 67.86 68.29 65.24 64.07 63.19 67.19 66.25 66.18 66.96 66.55 67.95 69.73 70.70 71.11 71.46 71.77 72.17 72.96 73.50 73.78 73.48
32.33 33.99 30.65 30.75 31.92 37.76 41.38 41.27 45.91 39.31 37.16 44.65 44.18 43.18 43.92 45.92 47.75 49.91 51.77 52.35 55.78 59.71 58.66 62.08 66.88 67.65 68.35 66.64 66.74 66.35 66.34 66.54 67.81 67.56 67.95 68.89 71.64 71.94 72.62 73.08 73.57 73.65 73.68 74.00
32.50 31.97 32.41 33.04 33.06 34.11 41.08 41.22 39.65 41.57 44.79 44.37 43.89 43.34 43.00 46.27 50.36 49.72 50.10 50.50 51.73 54.29 59.52 59.25 60.90 64.62 67.13 70.15 72.09 70.17 67.92 66.81 69.60 69.62 68.94 69.49 69.81 71.59 72.95 72.75 73.36 73.58 73.70 73.52
31.81 34.47 33.42 33.01 33.07 40.05 41.59 40.96 43.69 45.50 42.57 42.84 43.34 44.70 45.23 45.80 47.73 48.99 48.37 49.32 50.30 50.97 53.88 59.66 57.70 59.08 64.25 67.04 70.81 71.03 70.90 67.69 66.64 69.44 70.00 70.23 70.48 70.95 71.37 71.92 72.46 72.83 73.16 72.93
36.54 38.76 34.38 34.36 37.84 38.55 40.43 43.54 44.40 45.04 43.64 44.93 45.82 45.88 46.13 44.91 47.29 47.73 48.23 48.48 48.78 50.16 51.04 57.41 58.51 57.23 59.10 63.89 67.18 69.75 71.33 71.36 70.75 69.58 68.50 69.93 69.94 70.35 71.62 72.39 72.50 72.61 72.83 72.82
36.84 37.52 35.35 35.17 38.20 39.11 42.01 42.77 43.83 44.85 46.32 46.46 47.54 47.34 46.58 46.38 46.40 46.85 47.15 48.53 48.52 49.40 50.61 51.64 56.73 57.97 58.44 60.96 63.71 65.97 70.33 70.31 69.14 68.97 69.72 69.63 70.40 69.52 69.95 70.47 68.37 72.26 73.13 70.45
37.68 36.59 34.88 33.63 39.31 39.69 40.06 42.87 44.87 44.76 46.22 46.71 46.46 46.91 47.99 48.06 46.76 48.26 46.77 48.08 48.38 48.14 49.27 49.24 50.60 55.95 58.99 60.10 60.44 62.57 66.04 68.30 67.45 67.14 67.47 67.74 68.58 69.88 70.07 67.24 61.91 48.14 48.16 47.64

GFSCGP_sfc_wetblb_066.txt.gz
Wetbulb
43.52 38.83 39.11 40.95 41.03 43.01 43.22 44.83 45.79 49.56 52.67 56.93 55.89 55.64 60.36 61.83 62.15 61.79 62.54 62.88 63.08 63.71 66.26 67.80 68.47 68.24 68.09 68.04 67.28 67.41 67.02 67.92 68.93 68.67 68.11 68.64 68.76 70.37 70.60 70.40 72.18 72.66 73.41 74.33
40.50 38.49 42.44 43.83 43.25 43.20 42.63 40.81 40.89 47.48 53.16 54.92 53.97 55.40 59.69 61.22 61.33 62.39 62.61 63.07 63.36 64.16 65.22 66.73 67.40 67.35 67.33 67.17 66.89 67.23 67.27 67.86 69.45 69.53 69.63 69.21 68.88 69.74 70.85 70.59 71.63 72.15 73.07 74.53
38.87 42.00 46.09 44.05 41.64 40.79 40.29 40.22 40.84 45.09 52.95 56.89 55.12 53.23 55.34 60.92 62.30 62.82 63.45 64.26 64.37 64.35 64.45 65.57 66.55 66.96 67.31 66.39 66.54 66.80 67.52 67.81 69.55 69.76 69.40 69.45 69.13 69.15 69.48 69.32 69.61 71.44 72.45 74.04
43.71 47.91 45.19 43.34 42.07 42.49 35.04 44.39 45.33 46.43 45.77 46.15 54.62 44.18 51.90 55.98 59.89 61.63 62.27 62.81 63.62 64.62 65.62 65.86 66.51 66.77 67.36 67.03 67.60 67.46 67.69 67.78 69.41 69.63 69.28 69.17 68.29 67.13 67.71 68.98 69.45 70.64 72.51 73.12
42.53 44.65 45.28 43.27 43.71 45.23 40.89 47.39 45.64 46.33 44.82 45.92 47.08 43.83 46.73 54.75 55.12 58.96 61.80 63.25 64.06 65.03 65.67 65.73 66.31 67.36 68.12 68.35 68.12 68.34 67.84 67.96 68.83 69.60 69.43 68.92 68.72 67.79 67.97 68.46 69.16 69.18 72.16 73.12
43.46 47.55 46.27 46.82 49.38 49.14 50.52 46.50 45.01 43.70 44.49 40.56 44.50 46.91 45.45 50.13 54.75 57.43 60.36 62.90 64.67 65.33 65.95 66.37 67.38 68.09 67.91 68.88 68.21 68.99 67.98 67.76 68.41 69.12 69.41 68.79 68.64 67.38 67.74 67.54 67.58 68.01 68.85 72.17
40.56 43.00 45.14 47.80 44.14 48.12 47.89 41.25 34.63 33.10 36.70 37.93 43.20 41.92 47.93 51.14 56.95 58.73 59.63 60.61 63.06 65.94 65.98 66.15 66.07 66.53 67.44 67.65 67.87 68.43 68.37 67.78 68.35 68.73 69.24 68.96 68.61 68.25 68.22 68.11 67.56 67.22 67.77 69.34
33.16 34.10 41.76 45.38 43.51 42.59 43.65 42.43 35.39 29.81 30.06 37.88 40.06 38.89 45.67 52.84 55.07 59.59 60.92 61.90 62.76 64.66 66.50 66.55 66.90 66.80 67.17 67.65 67.98 67.92 67.86 67.93 68.53 68.71 69.22 69.67 69.37 68.64 69.19 68.92 68.61 68.61 68.04 69.31
32.53 34.40 43.29 45.86 45.56 44.03 41.86 41.79 44.93 36.71 34.28 33.43 37.72 41.80 47.53 51.09 51.95 57.09 58.72 60.57 61.65 63.48 65.50 66.35 67.44 67.86 67.76 67.91 68.00 67.88 67.67 68.03 68.76 69.15 69.46 69.67 69.86 69.22 68.96 69.20 69.33 69.07 69.08 69.88
36.17 27.34 38.86 42.75 45.24 45.68 42.67 45.02 38.99 35.04 33.56 31.38 35.16 37.59 43.04 46.54 50.52 51.61 57.14 59.23 61.16 63.20 64.34 65.67 66.85 67.60 68.53 68.70 68.85 68.83 68.45 67.76 68.80 69.49 69.86 69.93 70.00 70.07 69.86 69.28 68.95 69.11 68.90 69.89
33.02 32.15 33.13 39.78 39.00 38.26 39.34 39.00 39.01 40.48 38.94 36.76 32.10 39.16 43.93 47.50 50.31 50.72 54.99 59.24 61.22 62.04 63.39 64.75 66.23 67.27 68.32 69.09 69.11 68.96 68.45 68.30 68.65 69.39 69.74 70.06 70.21 70.35 70.47 69.52 69.32 69.18 69.38 69.27
36.18 31.34 30.31 33.73 41.64 43.44 41.22 38.82 36.71 34.98 34.24 34.71 37.43 40.96 49.41 48.80 49.46 50.56 52.21 59.66 61.56 62.21 62.79 64.05 65.60 66.90 67.31 68.02 68.71 68.93 68.62 68.51 68.95 69.64 69.88 69.91 70.45 70.74 70.05 69.99 69.95 69.96 69.00 69.29
35.39 30.70 25.99 29.99 33.50 37.81 36.71 37.89 33.90 33.46 31.86 35.75 36.74 39.49 49.63 51.30 49.11 49.85 50.59 52.11 57.07 61.14 62.40 63.25 64.84 65.66 66.62 67.07 68.05 68.73 68.79 68.51 69.32 69.85 70.02 70.05 70.08 70.12 70.04 70.27 70.23 70.07 70.29 70.27
41.05 29.05 28.13 25.75 30.13 34.45 33.12 36.64 37.02 33.01 30.15 33.20 39.03 41.75 45.08 47.33 47.83 49.19 49.62 51.07 52.54 59.09 61.25 62.77 64.01 65.55 66.36 66.88 67.35 68.17 68.70 69.18 68.93 69.24 69.80 69.76 69.89 70.17 70.35 71.01 71.53 70.56 70.25 69.87
35.10 26.72 29.95 32.40 35.04 35.93 35.25 35.60 37.39 34.16 34.93 32.82 38.74 41.15 45.18 47.05 48.14 49.85 54.22 56.09 53.81 53.25 60.51 62.15 63.62 65.13 66.15 66.61 67.05 67.73 68.62 69.16 69.19 68.62 68.95 69.39 70.06 70.38 70.34 70.20 70.52 72.01 71.99 71.00
34.60 25.90 29.43 29.38 34.52 35.11 33.70 37.00 39.31 38.92 39.04 37.46 39.81 40.78 48.64 55.10 57.32 56.86 57.26 58.61 59.39 55.95 55.62 62.67 64.29 65.43 65.68 66.46 66.95 67.76 68.24 68.80 69.28 68.43 68.21 69.34 70.06 70.54 70.46 70.57 70.34 70.06 70.55 71.85
33.19 30.88 30.30 24.79 32.21 32.91 31.64 37.21 40.82 41.06 40.77 42.28 40.02 44.49 50.17 55.09 53.15 51.53 52.41 56.10 58.46 61.18 61.83 56.48 63.87 65.68 66.39 66.57 67.49 67.07 68.14 69.26 69.04 68.88 68.99 69.40 69.47 69.86 70.49 71.14 71.21 70.99 70.28 70.52
31.93 31.52 31.54 27.48 28.92 25.93 37.13 44.04 45.04 41.44 41.21 41.64 41.92 43.27 54.51 54.53 53.79 53.12 53.32 53.67 56.70 59.86 63.95 62.42 64.67 66.35 67.25 67.47 67.76 67.92 68.44 68.79 69.09 68.88 69.10 69.54 69.75 69.69 70.39 71.09 71.51 71.91 72.01 71.18
33.71 33.06 29.65 26.92 26.51 33.45 39.02 41.30 39.23 38.45 39.33 42.48 40.48 42.26 45.00 51.77 55.15 53.45 53.03 54.10 56.90 58.81 60.46 66.26 64.69 65.70 66.42 67.03 67.43 67.24 67.36 68.03 68.49 68.84 69.27 69.96 70.32 70.42 70.62 70.57 71.14 72.39 73.14 72.77
33.52 33.85 31.38 32.91 25.29 29.95 39.29 40.63 42.58 43.76 36.58 43.09 42.22 40.94 41.61 49.21 44.15 47.15 51.58 52.81 54.95 58.89 59.62 66.28 66.31 64.60 65.11 65.65 67.35 65.86 66.08 66.69 67.21 68.88 69.78 70.89 71.21 71.17 71.29 71.54 71.41 72.21 72.85 73.19
30.36 32.21 28.46 29.84 29.42 33.90 38.30 39.94 42.53 37.81 36.70 43.38 42.25 41.54 41.45 40.92 44.96 50.53 51.97 51.85 53.38 57.02 59.38 61.29 66.87 67.83 69.32 65.52 66.71 65.46 65.57 66.04 67.76 69.20 69.96 70.67 71.43 71.35 71.72 72.12 72.87 73.04 73.02 73.15
31.28 30.33 29.81 32.20 28.62 29.32 39.59 39.15 36.56 38.92 41.98 43.66 42.92 42.62 42.65 43.92 46.80 48.96 50.32 50.45 51.14 51.68 57.50 59.52 60.09 64.19 68.24 71.08 67.25 65.37 65.85 67.67 68.16 68.61 69.49 70.13 70.91 71.43 71.98 72.20 72.45 73.24 73.25 73.02
30.16 33.18 33.00 32.65 32.39 39.44 41.08 40.32 43.49 44.23 42.82 43.49 43.86 44.63 45.51 45.48 44.74 47.02 48.37 49.99 49.87 51.14 52.29 58.28 59.54 60.10 62.23 66.22 71.47 70.41 70.17 69.07 69.94 68.30 68.21 68.86 70.04 71.78 72.42 72.23 72.55 72.59 73.37 72.94
36.07 38.58 34.24 34.89 37.74 38.46 40.75 43.80 44.52 45.22 44.49 45.74 46.56 47.20 47.69 45.92 46.59 45.81 46.96 48.07 49.06 50.08 50.57 53.45 57.89 59.20 60.06 61.47 64.22 68.27 70.40 71.40 70.37 70.25 70.94 71.18 70.90 70.33 71.23 72.57 73.16 73.01 72.90 72.87
36.19 37.48 35.13 35.09 38.18 39.56 41.70 43.11 44.30 45.11 46.45 47.23 48.48 48.40 47.94 47.79 47.66 47.52 46.56 46.96 49.81 49.05 50.13 50.84 53.11 56.84 59.24 60.86 61.53 63.84 67.15 68.37 68.73 69.27 70.14 71.22 71.83 71.06 72.04 72.16 70.78 72.91 74.03 71.06
38.28 35.46 34.05 33.65 38.72 39.64 40.25 43.82 46.32 46.08 46.78 48.57 48.63 48.45 49.16 48.75 47.98 48.72 47.71 46.90 48.95 48.97 49.39 50.21 51.37 54.59 57.34 59.18 59.87 61.89 64.05 65.74 66.52 67.20 67.82 67.78 70.11 71.39 71.89 70.57 66.83 48.95 50.05 48.24

GFSCGP_sfc_wetblb_069.txt.gz
Wetbulb
49.66 46.34 43.84 45.88 47.81 48.04 48.62 47.89 48.10 53.16 57.84 57.13 57.92 60.20 62.71 64.46 63.70 63.56 64.52 64.82 65.53 65.93 68.54 69.78 70.57 71.23 71.50 71.78 71.54 71.65 71.74 73.06 73.30 72.05 71.49 72.14 72.31 73.90 75.36 74.89 76.26 76.65 77.03 77.57
45.70 43.10 47.36 48.47 47.29 46.91 47.30 47.06 48.70 52.64 54.26 56.79 57.02 57.21 62.26 64.05 64.14 64.38 63.69 64.00 65.24 66.40 67.60 69.05 70.13 70.73 70.90 71.32 71.49 71.50 71.57 72.36 73.20 72.55 73.21 73.62 73.80 74.14 75.70 75.73 76.14 77.05 77.22 77.85
44.99 46.95 48.54 46.38 45.54 45.18 45.86 45.61 47.57 48.77 52.83 56.15 56.99 55.66 58.98 63.42 65.07 65.63 66.00 66.13 65.80 66.27 66.77 68.24 69.32 70.03 70.83 70.71 71.18 71.68 72.18 72.62 73.27 74.04 73.63 73.70 74.09 74.40 73.85 74.62 74.79 76.14 76.94 77.37
47.34 49.73 46.80 45.87 44.73 46.06 43.39 47.86 47.96 47.86 47.80 48.60 58.14 49.64 57.50 60.94 62.31 63.70 65.13 65.95 66.41 66.88 67.62 68.38 69.11 69.74 70.32 70.81 71.85 72.53 72.92 73.05 73.17 74.38 73.65 74.26 72.49 71.54 72.79 74.39 74.95 75.45 76.58 76.70
47.24 48.06 46.65 44.97 45.25 47.01 44.72 47.57 46.47 47.04 47.08 48.25 49.61 51.82 55.89 60.45 59.87 62.35 64.55 65.91 66.93 67.72 67.93 68.05 68.85 69.92 70.77 71.26 71.40 71.91 72.61 73.56 74.20 74.39 74.79 73.43 73.99 73.37 73.75 73.90 75.28 75.86 76.42 76.56
50.10 50.76 51.12 49.07 49.64 48.56 48.92 48.42 47.16 46.85 45.94 41.70 47.82 48.99 52.14 55.51 58.89 61.84 64.98 66.11 66.88 67.75 68.29 69.13 69.94 70.57 70.58 71.39 71.17 71.36 72.52 73.26 74.16 74.17 74.19 74.75 74.77 73.93 72.66 73.07 72.84 73.64 74.50 75.59
44.74 46.86 49.17 51.16 48.65 50.50 49.00 46.45 41.92 39.38 39.42 39.69 50.22 47.27 50.94 56.84 60.83 61.52 63.42 65.89 67.38 68.01 68.41 68.85 69.09 69.41 70.22 71.06 70.95 71.79 72.62 72.36 73.67 73.64 74.09 74.28 74.89 75.35 74.47 74.34 72.97 73.97 72.88 73.62
40.35 39.61 46.49 49.13 48.50 47.45 47.79 48.13 42.12 36.90 38.13 40.81 49.44 45.53 50.91 57.44 59.69 62.70 64.37 66.01 67.38 68.08 68.72 68.94 69.55 70.11 70.56 71.45 72.23 72.31 72.51 72.56 73.09 73.25 73.98 74.77 75.20 73.23 73.28 74.34 73.41 72.98 72.65 73.23
39.33 39.92 45.08 47.27 48.62 49.70 47.87 45.76 50.38 44.90 44.80 42.64 45.93 50.00 54.26 56.04 57.48 58.93 60.34 63.52 65.10 66.70 68.69 69.21 69.97 70.29 71.04 71.67 72.11 72.20 72.81 73.19 73.25 73.27 73.90 74.41 74.75 74.55 73.93 75.48 75.02 73.68 75.13 73.43
40.28 34.68 41.90 45.23 47.66 49.15 48.90 51.48 45.00 46.03 37.79 37.94 43.57 45.78 48.19 53.92 55.17 57.43 59.27 61.16 63.36 66.09 67.29 69.13 70.07 70.73 71.67 71.84 72.47 72.75 72.93 72.97 73.56 73.62 73.81 73.95 74.47 74.73 74.98 74.74 74.67 75.42 75.14 74.81
40.91 36.83 37.51 42.08 44.00 45.54 45.51 45.65 47.06 47.93 46.06 40.87 40.39 44.25 53.28 54.64 57.38 57.65 59.00 61.87 64.07 65.75 66.75 68.22 70.25 71.49 71.88 71.87 71.94 72.44 72.23 72.75 73.07 73.60 73.92 74.17 74.39 74.17 74.60 74.15 74.50 75.42 75.33 75.27
41.56 39.18 34.07 36.80 44.49 46.05 43.97 44.72 46.77 42.79 43.20 45.72 45.11 45.53 55.36 56.19 56.64 57.13 58.34 60.10 63.05 66.00 67.17 68.23 69.82 70.90 71.07 71.95 71.74 71.94 72.26 72.02 72.96 73.56 74.06 74.05 74.63 74.93 73.82 74.44 74.12 74.68 74.70 75.21
42.06 37.24 31.94 34.43 40.78 43.98 42.12 42.54 43.02 42.32 43.66 43.93 42.57 45.24 56.33 56.76 57.16 58.23 57.28 58.97 61.35 65.47 66.94 68.08 68.78 70.28 71.24 72.09 72.25 72.49 72.42 71.84 72.23 73.15 72.98 73.71 74.25 73.97 74.57 74.89 75.18 74.89 74.92 75.29
43.97 37.53 35.03 32.67 35.23 38.15 37.29 39.62 41.24 41.57 41.47 43.54 45.20 48.21 52.59 54.85 56.03 57.33 57.54 57.61 58.17 59.96 65.47 67.07 67.76 69.24 70.94 71.69 72.58 72.54 72.89 72.80 72.76 72.72 72.91 73.37 74.11 74.47 74.53 75.23 75.45 74.84 75.41 75.19
41.95 33.63 35.65 36.32 36.79 36.71 36.34 37.06 39.35 39.15 42.08 41.58 46.30 47.22 51.56 54.46 54.21 59.21 60.65 62.23 63.06 63.90 62.64 64.79 66.79 68.91 70.26 70.98 72.06 72.98 73.04 73.47 73.47 73.16 73.12 73.60 74.52 75.03 75.32 75.34 75.27 74.86 75.02 75.24
40.22 34.11 35.63 33.43 36.49 38.16 35.76 37.98 39.04 40.27 41.69 42.34 43.91 45.22 52.18 55.17 59.96 58.35 58.24 59.06 60.87 63.04 64.92 65.06 66.42 68.53 70.15 70.62 71.00 72.29 72.81 73.19 73.51 73.16 72.99 74.41 74.73 74.84 74.85 75.23 75.31 75.21 75.00 74.66
36.78 35.22 32.55 29.48 35.77 36.69 33.86 39.10 39.95 41.66 45.32 46.10 43.99 48.34 51.12 55.39 57.05 56.79 57.45 58.51 59.69 61.68 63.34 65.13 67.72 67.98 70.63 70.84 70.83 71.52 72.48 73.64 72.74 72.77 73.40 74.15 74.70 74.46 74.62 75.08 75.06 75.28 75.40 75.30
36.15 33.97 34.72 29.86 32.79 27.09 41.58 46.91 47.19 44.52 44.37 45.43 46.51 47.84 48.82 55.33 57.29 56.41 56.43 56.25 57.88 60.38 62.73 64.08 66.19 68.85 70.26 71.05 70.88 72.53 72.41 73.12 72.80 72.72 73.14 73.87 74.37 74.22 74.88 74.69 74.53 74.79 74.17 74.67
39.41 36.60 31.37 28.11 28.37 35.53 38.98 39.89 40.32 40.78 41.05 44.75 44.27 45.99 46.23 50.09 54.77 56.01 54.24 54.38 54.80 58.26 62.12 64.21 68.27 69.84 69.21 71.23 72.36 72.36 72.36 72.83 72.69 72.60 72.99 73.52 73.78 73.96 74.43 74.41 74.63 74.98 74.60 74.63
38.45 38.90 34.17 31.31 26.94 27.28 36.56 40.39 43.00 43.12 39.47 45.53 44.90 44.83 44.53 51.71 53.88 51.11 52.20 52.93 53.28 58.21 61.87 63.95 70.46 70.07 69.43 71.80 71.49 71.80 71.98 72.42 72.32 73.10 73.49 74.17 74.35 74.17 74.11 74.50 74.89 75.56 75.77 75.10
30.90 32.78 29.11 30.56 28.18 33.59 38.22 40.11 42.57 37.08 39.13 42.93 45.13 45.70 45.34 46.94 48.02 50.71 52.15 52.44 53.48 55.50 61.70 65.52 69.51 70.70 71.78 72.41 72.24 71.50 71.88 71.73 73.10 73.40 73.74 74.49 74.74 74.77 75.26 75.32 75.82 75.70 75.40 75.91
30.89 29.64 29.26 31.08 28.42 27.22 40.37 39.37 35.63 38.63 43.85 44.43 45.71 46.34 46.20 49.34 49.22 49.43 50.22 51.54 52.57 53.11 58.09 62.74 64.88 67.11 71.57 71.79 72.32 71.90 71.76 73.59 74.48 74.79 74.29 74.85 75.22 74.23 74.21 75.87 75.38 75.77 75.71 75.23
31.80 33.96 33.65 34.29 35.67 40.70 42.05 41.02 42.75 44.43 43.90 45.05 45.78 47.61 48.86 48.81 48.55 49.44 48.73 50.93 52.71 52.90 53.76 58.51 61.34 64.08 66.43 69.83 72.71 71.05 72.31 72.57 73.40 73.87 74.55 74.92 75.71 75.34 75.92 75.64 75.34 74.50 75.32 74.34
35.55 37.51 34.81 34.93 38.82 39.51 41.49 43.57 44.82 45.16 44.60 46.46 47.82 48.39 49.24 48.12 48.84 49.11 50.11 51.31 53.76 54.03 53.34 55.38 56.72 58.20 60.39 65.80 67.99 69.94 72.54 73.52 72.84 73.14 73.32 73.74 73.71 73.88 75.09 74.61 74.57 74.18 74.00 74.01
34.96 36.13 34.42 35.21 38.12 39.69 42.18 43.11 44.81 45.90 47.08 48.01 49.74 50.25 49.30 49.29 48.85 49.52 49.83 51.44 52.65 55.69 56.13 56.10 56.32 56.42 57.35 60.22 63.82 66.31 68.90 73.10 73.84 73.83 73.31 72.52 72.41 72.69 74.00 74.86 74.44 74.48 76.31 72.97
37.83 35.35 33.39 33.87 39.18 40.11 41.07 44.18 45.88 44.68 45.04 47.38 47.86 48.62 50.65 50.59 49.67 50.21 49.85 51.68 52.55 53.42 56.47 57.46 57.39 56.96 57.33 58.35 59.90 62.48 65.33 68.15 70.37 70.84 72.02 71.86 74.78 74.62 73.97 73.20 72.56 52.40 53.26 50.46

GFSCGP_sfc_wetblb_072.txt.gz
Wetbulb
52.44 49.57 47.29 49.85 51.24 51.35 50.29 49.41 49.35 54.40 61.35 61.43 61.39 63.19 65.57 66.89 67.45 67.30 67.97 68.09 68.04 68.88 70.91 71.82 72.19 72.32 71.79 72.63 73.02 73.17 73.05 74.05 73.77 73.03 72.40 73.31 73.67 75.02 75.99 77.09 77.84 78.87 78.80 78.90
49.49 46.72 51.24 51.69 51.25 50.22 49.65 49.34 49.85 54.15 59.31 60.41 60.88 60.98 64.61 67.06 66.69 68.01 68.13 68.17 68.02 69.02 70.14 70.96 71.73 72.30 71.59 72.06 72.88 73.10 73.40 74.06 74.40 72.87 73.52 74.14 74.67 75.44 76.15 76.98 78.08 78.79 78.70 79.22
48.85 50.24 51.57 50.28 49.50 47.87 48.92 48.35 49.59 50.91 56.10 59.40 59.79 59.07 60.65 64.95 67.22 67.80 68.92 69.67 69.37 68.80 69.27 70.12 71.00 71.80 72.23 71.62 72.62 73.17 73.97 74.27 74.61 75.28 73.91 75.28 76.09 76.17 75.62 76.12 76.39 77.54 78.48 78.75
50.61 53.49 50.45 49.51 47.95 49.06 46.66 50.32 49.32 50.45 51.69 51.27 58.87 52.39 59.25 61.70 64.43 66.17 67.57 68.54 69.08 69.46 70.18 70.87 70.98 71.52 72.05 72.26 73.20 73.89 74.16 74.39 74.35 75.64 75.90 76.81 73.88 72.87 73.54 75.19 75.71 76.38 78.21 78.24
49.07 50.69 50.37 48.65 49.49 50.92 48.31 50.92 49.80 49.07 49.78 52.00 55.42 54.33 57.31 62.04 61.87 64.58 66.94 68.19 69.22 69.94 70.12 70.28 71.27 72.08 72.80 73.26 73.00 73.84 74.40 75.12 75.87 76.10 76.66 74.99 75.41 73.34 74.19 74.47 77.06 78.09 78.42 78.39
52.16 54.84 53.37 52.24 52.82 51.76 51.29 49.43 49.36 49.28 47.77 44.64 51.36 52.77 54.77 58.62 62.01 64.87 67.08 68.39 69.40 70.06 70.52 71.24 71.89 72.77 72.98 73.58 73.17 73.37 74.34 75.70 75.46 75.42 74.66 76.39 77.00 76.19 74.35 75.00 74.25 74.82 75.56 76.56
49.97 51.24 53.60 53.90 50.49 52.45 50.56 47.35 43.93 41.78 41.36 41.03 50.23 50.30 54.40 59.31 63.82 64.72 66.19 68.12 69.53 70.62 71.11 71.15 71.33 71.51 72.52 72.93 73.15 73.11 75.64 75.95 75.78 74.81 74.68 75.59 76.35 76.82 76.42 76.21 74.77 76.02 73.95 74.34
44.51 43.12 50.73 53.10 51.75 50.50 49.70 49.64 44.24 40.35 40.91 42.64 48.09 46.61 51.86 59.54 61.44 64.57 65.34 67.14 69.16 70.04 71.08 71.51 72.12 72.24 72.36 72.82 73.31 73.77 75.58 75.99 75.65 75.56 76.56 77.39 77.84 75.02 75.37 76.16 75.15 74.83 74.32 74.42
43.89 43.99 50.24 50.84 53.32 52.60 50.77 47.31 52.16 47.31 49.17 46.26 46.88 49.22 55.32 58.58 59.70 62.02 62.62 64.80 66.72 69.13 70.46 71.17 72.25 72.76 72.89 72.93 74.14 74.77 76.10 76.72 76.78 75.04 77.31 77.39 77.64 77.10 75.80 78.68 77.27 75.77 77.06 75.67
44.19 39.75 47.42 50.37 51.51 52.44 51.60 53.96 47.13 48.42 42.09 41.65 46.45 47.70 47.99 54.26 57.89 60.63 61.57 62.16 64.79 67.01 69.53 70.84 71.79 72.66 73.40 73.71 73.85 74.36 75.62 76.32 76.01 75.90 76.21 75.86 76.46 76.94 77.41 76.89 76.93 77.46 76.91 77.04
44.44 41.08 42.88 45.63 47.51 48.07 49.36 48.52 50.42 50.73 48.87 44.54 43.40 47.00 54.73 55.63 58.05 59.12 60.86 62.52 63.67 64.63 66.95 69.86 71.67 72.90 73.71 74.10 74.28 74.19 74.33 74.83 75.00 76.00 76.57 77.24 76.21 76.35 76.51 75.85 76.44 77.06 77.48 77.51
44.55 41.98 39.06 41.52 49.52 49.67 49.33 49.78 50.34 46.47 46.40 48.96 48.29 48.01 56.64 56.88 58.26 60.55 61.11 62.44 63.52 65.04 67.14 69.09 71.39 72.99 73.39 73.69 73.91 74.04 74.41 74.28 74.89 76.59 77.48 76.63 77.19 77.69 75.78 76.17 76.61 77.24 77.20 77.94
45.32 40.50 36.37 39.18 42.58 46.15 46.50 49.37 50.20 51.05 51.11 48.25 46.15 48.09 57.89 58.71 59.02 59.78 59.71 60.73 61.80 63.62 65.97 69.03 70.15 71.99 73.13 73.42 74.70 74.15 74.51 74.28 74.74 75.91 75.26 75.97 76.20 76.31 76.94 77.02 77.14 77.11 77.39 77.47
45.01 41.06 38.63 36.53 39.34 42.64 41.39 45.45 47.13 48.58 46.05 47.47 48.61 51.37 55.06 56.28 57.30 59.54 62.00 63.38 63.37 63.32 64.36 68.01 69.91 71.02 73.24 74.27 75.44 75.55 74.61 74.90 74.50 74.64 74.76 76.31 76.98 77.47 76.76 77.93 78.29 77.22 78.12 77.42
44.06 38.34 40.75 40.83 41.06 40.65 40.21 40.52 42.48 44.14 46.99 46.26 49.34 50.47 54.61 57.06 57.96 60.25 63.06 63.45 63.45 65.07 66.02 66.15 68.93 70.53 72.34 73.93 75.32 75.65 74.84 76.04 75.61 75.89 74.91 76.45 78.08 78.16 78.74 78.67 78.40 78.05 77.57 77.36
44.42 37.64 39.48 37.57 40.69 40.18 38.53 41.15 41.94 42.61 44.96 47.04 48.36 49.32 56.15 57.62 59.21 59.73 62.18 63.04 63.30 64.67 66.11 67.75 68.82 68.73 70.71 72.51 74.22 75.41 75.91 75.74 76.86 76.84 76.19 77.59 78.18 78.49 78.32 78.60 78.51 78.29 77.74 77.81
40.86 38.76 36.72 34.11 39.39 38.57 35.86 40.61 42.16 44.02 46.03 46.83 45.24 50.88 55.95 55.97 58.29 61.02 60.81 61.97 62.71 64.19 65.92 67.46 68.53 70.17 70.62 71.46 73.63 74.99 76.05 76.47 76.87 77.31 77.21 77.78 78.28 78.23 78.54 78.09 78.34 78.46 78.04 77.87
39.67 38.98 38.02 34.73 37.20 29.54 41.51 49.67 48.72 47.13 46.51 48.49 50.78 53.26 54.75 55.39 60.51 60.46 60.32 60.03 60.79 62.34 64.27 66.78 68.54 69.54 71.04 71.95 72.37 74.46 75.13 76.78 77.21 77.15 77.26 77.75 78.12 77.89 78.06 78.37 78.29 78.89 78.08 78.43
43.22 37.38 35.46 32.71 33.71 37.49 39.76 42.22 41.93 40.84 45.30 50.11 50.46 52.77 53.41 54.41 57.35 59.26 59.10 59.50 60.11 60.77 62.34 66.32 68.74 69.92 71.52 72.67 72.49 74.08 74.10 75.29 75.84 76.63 77.05 77.73 78.00 77.92 77.73 77.53 77.89 77.76 77.73 77.72
42.50 40.91 35.75 35.00 30.26 29.27 37.96 40.78 43.50 43.03 38.24 47.66 49.81 50.36 50.61 53.10 52.82 57.37 56.99 57.82 58.11 59.32 61.36 66.14 69.35 71.46 73.38 73.75 73.31 73.01 73.51 75.51 75.88 76.45 76.93 77.97 78.05 78.28 77.84 78.26 78.30 78.32 77.30 76.53
35.24 35.85 32.48 33.24 31.57 36.22 42.96 43.67 43.68 34.92 38.36 45.92 47.12 47.91 49.83 48.24 53.24 55.32 56.35 56.42 55.60 56.20 57.16 64.29 69.58 71.41 74.26 73.93 73.12 74.89 74.56 74.85 76.10 75.92 75.91 77.32 77.66 78.46 78.68 78.82 78.63 78.74 77.78 77.94
32.73 30.32 32.10 32.72 30.80 29.25 44.52 44.25 37.95 40.57 43.03 45.25 46.65 47.39 48.52 49.79 51.60 55.08 55.46 55.03 55.19 55.14 55.68 59.20 65.91 69.08 74.02 74.09 74.29 76.09 75.36 75.94 77.09 77.21 76.10 77.32 77.85 76.38 76.23 78.34 77.67 77.62 78.00 77.57
33.21 37.60 35.61 36.39 36.72 43.96 44.37 43.73 46.00 45.29 43.35 44.38 45.20 47.30 48.68 49.35 50.53 53.70 54.01 53.45 53.48 55.98 55.31 57.13 60.98 67.48 70.80 74.88 74.53 73.73 76.10 76.92 76.25 76.74 77.02 77.00 76.84 76.49 78.25 77.65 76.96 76.06 77.05 76.10
36.59 35.98 35.62 37.05 42.43 43.06 41.78 46.31 46.16 45.82 45.18 46.74 48.07 48.58 49.92 49.93 50.18 51.51 52.59 52.42 53.16 54.57 55.52 57.11 57.48 60.88 63.50 68.86 72.11 73.86 74.88 76.05 75.73 75.54 76.06 76.34 76.24 75.92 76.58 76.66 76.70 76.26 75.88 75.50
36.62 36.84 36.10 37.66 41.60 40.41 42.12 43.76 44.55 45.28 46.97 46.50 48.00 48.53 49.18 50.82 50.47 51.02 51.30 51.85 52.96 54.31 56.20 57.15 57.16 57.59 58.49 62.21 65.30 69.33 73.64 75.33 74.52 75.14 75.35 75.68 76.03 75.74 76.28 76.89 76.57 76.27 78.13 74.84
37.14 35.26 33.87 33.85 38.77 39.11 40.16 43.66 44.98 44.28 45.29 47.14 47.00 47.64 49.52 49.93 51.11 51.50 51.16 52.06 52.79 53.42 56.46 57.18 58.44 58.13 58.23 60.17 62.08 64.20 67.84 72.79 75.14 74.79 74.23 74.04 74.50 75.03 75.28 75.47 75.31 56.23 56.37 53.81

GFSCGP_sfc_wetblb_075.txt.gz
Wetbulb
56.63 51.99 49.88 52.53 53.83 52.43 52.08 50.93 50.31 54.34 60.80 60.96 60.85 62.02 63.32 67.95 68.39 68.43 69.05 69.28 69.27 69.96 71.78 72.15 72.42 72.47 71.96 72.13 72.96 73.46 75.00 77.75 75.59 74.24 73.37 74.18 73.48 75.48 75.52 75.94 77.99 78.64 78.45 78.37
52.79 49.43 53.30 53.85 53.61 52.11 51.38 50.49 50.63 53.15 56.19 60.99 60.52 60.17 65.76 67.10 67.76 68.67 68.96 69.33 69.16 70.19 70.39 71.71 72.01 72.29 71.95 71.83 72.93 74.64 75.80 77.30 75.94 74.43 75.43 75.52 75.89 74.66 75.44 76.13 77.97 78.38 78.15 78.85
51.31 51.77 53.61 52.63 51.52 50.49 50.89 50.27 50.67 51.18 54.83 58.45 60.03 58.94 62.66 64.70 68.54 69.10 69.79 70.42 70.02 69.72 70.31 70.98 71.56 72.03 72.17 71.65 72.85 74.46 76.42 77.07 76.55 76.59 75.72 75.95 76.59 76.68 74.70 76.52 76.23 77.57 77.99 78.41
52.17 54.32 52.27 51.25 50.59 51.44 48.69 52.08 51.42 51.12 51.31 51.38 58.96 52.51 59.44 64.15 63.13 66.96 68.21 69.74 69.69 69.01 71.15 71.56 71.89 71.87 72.04 71.84 73.03 75.42 75.78 77.11 76.76 77.74 74.98 76.83 73.81 72.61 73.84 75.56 75.52 77.05 77.88 77.88
49.98 51.86 51.67 50.99 51.35 52.34 50.60 52.96 51.16 50.70 50.37 51.71 54.21 52.88 56.54 62.45 61.11 65.06 67.16 68.86 70.04 70.15 70.55 71.19 71.87 72.49 73.02 72.67 72.45 73.63 76.32 77.08 76.98 77.11 77.18 75.22 75.65 73.99 74.17 74.08 78.87 81.04 80.16 78.15
53.04 54.83 53.27 53.07 54.15 54.01 54.32 51.86 51.38 51.08 49.38 44.82 50.85 52.81 54.37 57.25 61.26 63.78 67.23 68.43 69.68 70.62 70.70 71.56 72.63 73.15 73.26 73.60 72.89 73.22 76.01 76.78 77.30 77.34 76.51 77.85 76.58 76.72 73.12 74.74 74.96 75.04 76.14 76.84
49.99 52.09 54.19 54.51 52.22 54.33 53.30 50.47 44.82 43.17 43.38 42.79 49.57 50.01 56.11 60.05 62.70 63.63 66.53 68.12 69.60 70.68 71.24 71.26 71.78 72.06 72.92 73.31 73.60 73.98 75.91 76.66 77.14 76.86 76.07 77.23 78.67 78.43 78.58 77.79 74.07 75.42 73.69 74.31
45.27 44.56 51.15 54.74 52.55 51.33 51.54 50.49 45.68 41.26 42.53 44.28 49.21 46.53 52.37 60.44 63.81 64.61 67.13 68.17 69.78 70.50 71.24 71.54 72.27 72.56 73.06 73.80 75.51 75.63 76.11 76.64 77.10 76.60 76.36 76.64 78.45 74.85 74.32 77.62 75.27 73.98 73.98 74.81
44.27 45.08 52.41 53.66 54.94 53.84 51.46 48.62 52.44 48.17 49.84 46.79 47.91 49.79 53.77 57.40 59.90 63.41 62.90 66.94 68.23 70.28 71.16 71.86 72.52 72.89 73.15 74.23 76.01 76.26 76.62 76.97 77.25 76.44 76.89 77.39 77.47 76.95 75.39 78.58 79.18 76.38 78.81 75.46
46.55 42.89 50.34 52.11 54.29 54.13 52.35 54.67 47.92 48.83 43.38 42.98 47.90 49.12 48.00 53.48 56.85 60.35 62.21 65.08 67.13 69.82 70.43 71.52 72.62 73.19 73.66 73.88 74.97 76.67 77.28 77.18 77.49 76.63 77.56 77.20 77.32 77.85 78.39 79.45 79.69 78.91 79.24 78.98
47.13 44.87 45.30 49.04 49.01 48.95 50.23 49.45 51.07 51.47 49.25 45.22 44.80 48.86 56.20 54.67 57.70 59.30 61.09 64.07 65.75 66.97 69.26 70.41 71.72 73.36 74.11 74.52 74.39 74.82 76.19 77.12 77.31 77.21 77.25 77.21 77.41 77.21 78.02 77.70 78.91 79.09 79.87 80.23
47.76 44.93 41.84 44.11 48.96 50.99 50.87 50.47 50.67 47.42 47.56 49.59 49.23 49.60 57.80 57.39 57.59 59.64 61.72 63.44 64.97 66.11 67.43 68.89 71.10 72.52 73.54 74.10 74.34 74.61 74.91 74.81 76.32 77.25 77.58 77.34 78.19 78.05 77.73 77.75 77.99 79.30 79.26 80.30
47.48 43.41 39.30 40.99 44.78 47.71 47.54 50.20 51.72 51.23 51.78 49.72 47.15 49.54 59.10 58.80 58.81 60.44 61.12 62.52 64.14 65.24 66.10 66.91 69.47 71.91 72.91 73.93 75.45 75.08 75.05 74.89 75.40 76.88 76.67 77.64 77.87 78.11 77.85 78.33 78.57 78.79 79.51 79.92
46.86 43.42 41.55 39.15 42.39 45.33 44.61 46.06 49.82 50.34 47.28 48.34 50.12 51.59 56.34 57.70 58.71 61.50 63.58 65.20 65.62 65.96 65.35 67.49 69.21 70.91 73.20 74.94 76.58 77.03 75.52 75.50 75.50 75.61 75.78 77.03 77.93 78.29 78.18 78.86 79.01 79.23 79.95 79.79
45.02 39.58 42.79 43.72 44.36 44.42 43.71 44.47 46.81 48.18 49.92 46.96 50.14 52.06 55.74 57.72 58.44 62.27 64.02 64.24 64.41 64.93 66.99 66.58 68.41 70.22 72.90 74.44 77.27 77.42 76.18 77.34 76.71 76.94 76.49 77.13 78.57 79.05 79.05 78.68 79.25 79.68 79.89 79.80
44.72 39.33 41.36 40.38 43.28 43.81 41.93 43.52 44.18 45.16 46.65 47.84 50.47 50.78 57.15 56.66 59.87 60.29 61.18 63.59 63.99 65.17 66.81 68.44 69.51 70.45 71.87 73.57 74.95 77.23 77.19 77.63 77.75 77.54 76.56 77.62 78.65 79.05 78.85 78.85 79.14 79.56 79.72 79.90
42.39 40.80 38.79 35.81 41.33 42.09 38.80 42.83 43.52 44.74 46.78 47.28 46.20 52.35 56.67 56.45 57.53 60.86 63.01 62.97 63.30 64.68 66.28 67.83 69.27 70.66 71.64 71.79 74.89 75.90 77.54 77.70 77.76 78.60 77.67 77.92 78.87 78.71 78.98 79.11 79.58 79.52 79.69 79.91
41.31 40.65 38.65 35.95 39.15 30.38 42.73 48.07 48.24 47.16 47.31 48.44 49.56 51.57 54.43 56.58 59.05 60.08 63.66 61.55 61.95 63.40 64.19 65.44 67.75 70.00 71.51 71.98 72.29 75.31 76.01 78.25 78.29 77.87 78.81 78.18 78.82 78.83 79.34 79.71 79.49 79.83 79.90 79.50
44.76 40.87 36.61 33.03 34.55 39.47 41.53 45.31 45.10 44.54 46.21 52.77 49.97 51.24 54.22 56.81 57.29 58.13 61.72 62.14 61.31 62.11 63.60 64.77 66.18 68.96 71.65 72.45 73.31 73.61 75.94 77.24 77.91 78.10 78.47 78.56 78.79 78.91 79.34 79.10 79.58 79.83 79.94 79.94
44.55 44.14 39.06 36.40 31.44 29.88 40.55 44.87 47.52 48.36 41.66 51.20 51.72 50.98 51.38 53.81 51.22 56.08 59.62 59.99 60.40 61.84 62.94 63.82 65.98 69.91 71.20 72.95 74.48 73.59 73.64 76.60 77.25 77.72 78.55 79.59 79.30 79.37 79.37 79.75 79.81 80.08 80.21 79.69
38.52 39.34 36.05 35.72 33.54 37.97 45.08 47.07 47.33 37.87 41.32 48.41 48.20 49.02 49.69 47.64 51.83 55.42 58.49 59.55 60.01 60.73 60.70 63.49 65.19 68.54 72.17 73.96 76.09 75.81 75.04 75.55 77.84 77.97 79.09 80.13 80.06 80.00 80.40 80.65 80.62 80.59 79.80 78.63
35.25 35.17 35.85 36.19 32.43 30.86 46.64 46.48 40.95 46.78 49.31 48.22 48.26 47.44 47.53 49.63 52.02 53.25 56.61 58.61 58.72 58.80 59.18 61.97 62.16 65.41 68.56 74.41 76.77 77.19 75.95 77.66 79.81 79.26 79.03 79.24 80.11 78.92 78.91 80.40 80.51 80.37 80.19 79.49
35.36 35.73 34.47 37.95 38.33 45.31 48.31 46.46 49.04 49.68 47.74 47.32 48.10 49.25 49.60 50.27 51.35 53.45 54.73 57.49 57.45 57.29 57.90 59.11 60.15 62.56 62.86 67.44 74.07 75.69 79.36 79.91 79.61 79.35 78.91 79.38 79.66 79.48 79.58 79.52 79.68 78.29 79.58 76.82
39.02 40.46 36.28 38.35 42.99 45.44 45.85 48.68 48.41 47.59 46.87 47.46 48.98 49.16 48.82 48.95 52.17 52.59 52.97 56.09 56.57 55.42 55.21 57.26 58.92 60.83 60.45 63.46 65.20 68.67 70.27 77.67 78.36 78.81 78.94 79.22 78.58 78.48 78.83 78.08 77.98 76.88 76.44 76.24
37.93 37.96 36.94 37.65 41.93 41.95 44.68 43.60 44.39 44.91 46.36 47.09 48.31 49.52 48.88 49.17 50.13 52.61 53.08 54.44 55.01 53.78 55.37 57.84 58.56 58.18 59.11 61.02 61.13 62.75 64.34 66.09 76.13 76.18 76.69 77.86 77.16 77.09 77.83 78.11 77.21 76.92 78.01 74.08
37.58 34.47 33.78 33.19 37.54 37.31 39.06 43.03 44.33 44.27 44.46 46.46 47.42 48.63 49.96 50.03 49.70 51.51 52.64 53.12 53.73 53.21 55.78 57.18 59.16 58.68 58.90 59.63 58.70 60.55 62.52 61.97 69.99 74.33 75.08 75.65 76.14 76.52 76.53 76.32 75.08 56.04 59.92 54.26

GFSCGP_sfc_wetblb_078.txt.gz
Wetbulb
58.08 53.36 50.25 52.71 53.18 53.51 51.80 50.46 49.48 52.23 56.39 56.69 57.09 60.11 60.78 61.29 60.83 61.90 65.86 67.74 68.18 68.40 70.73 71.62 72.22 72.49 71.71 71.67 72.99 74.79 75.07 75.64 75.28 74.78 74.16 75.08 74.64 76.85 75.06 75.63 78.68 79.58 79.01 79.10
54.57 50.55 54.57 53.66 53.95 52.99 52.34 50.02 49.84 52.31 54.32 56.01 59.17 60.16 59.90 59.99 59.70 60.94 63.64 67.43 68.10 69.13 69.13 71.22 71.96 72.18 71.62 71.17 72.83 73.88 74.87 75.54 74.89 75.46 75.42 76.54 76.60 76.41 78.26 78.53 78.90 78.63 79.54 79.61
50.05 52.52 55.12 53.46 51.93 51.29 51.16 49.69 49.83 50.19 53.17 54.68 57.24 58.74 57.28 59.69 63.06 65.30 67.09 69.31 69.09 69.74 68.78 70.46 70.91 71.57 71.70 71.32 72.83 73.08 75.34 75.55 75.42 76.75 75.72 77.20 77.21 77.03 76.84 76.61 77.13 78.66 79.22 79.47
53.00 54.84 53.31 51.50 50.87 51.74 48.40 52.45 51.31 50.81 50.03 47.36 54.05 47.94 58.81 60.58 61.76 65.24 66.30 65.47 68.20 68.78 70.45 70.38 70.45 71.59 71.45 71.82 73.67 73.96 75.30 75.88 75.09 77.13 75.03 76.18 74.04 74.09 75.52 71.58 76.64 77.66 79.32 79.00
50.01 52.12 51.71 50.75 51.08 52.60 50.34 53.25 51.64 50.55 49.38 49.34 50.28 50.64 54.97 63.04 60.93 60.15 61.40 64.76 67.98 68.07 70.40 70.55 71.11 71.59 72.18 72.60 73.05 74.11 74.47 75.91 74.72 74.97 76.59 75.17 75.01 74.41 77.03 76.21 76.44 77.54 80.11 80.09
52.12 55.24 53.32 52.63 53.99 54.12 54.08 51.86 51.69 51.00 48.68 44.01 48.49 49.12 51.90 59.35 58.53 57.41 62.78 66.53 67.80 68.26 69.48 71.16 72.43 72.54 72.59 72.97 72.86 74.03 73.82 74.69 74.90 74.68 75.27 75.78 74.34 76.61 75.54 76.55 75.08 76.17 76.69 78.44
48.03 49.65 53.91 53.77 50.92 53.45 53.03 49.56 43.67 42.71 42.65 41.86 48.58 47.56 52.26 59.88 64.51 62.54 61.82 67.11 69.00 68.97 69.45 70.71 71.10 71.88 72.22 72.15 72.05 73.01 73.51 73.29 74.32 74.26 73.94 76.48 74.84 75.35 77.56 76.47 75.69 74.20 75.06 75.35
43.32 43.38 49.26 53.97 51.78 49.97 50.89 50.03 44.87 39.79 40.97 43.42 48.98 45.84 49.26 56.71 59.41 67.39 68.60 67.83 69.80 70.37 68.91 70.72 71.81 72.37 72.56 73.11 72.46 72.61 73.59 73.29 74.09 74.78 73.26 74.40 76.96 74.63 75.31 77.58 74.56 76.42 74.52 75.24
43.14 42.81 50.02 52.58 54.02 53.24 50.57 48.45 52.21 47.36 48.60 45.18 47.25 50.06 52.74 55.66 58.03 63.31 64.08 65.70 67.03 65.31 70.52 70.93 72.39 72.71 73.27 73.30 73.42 72.89 73.70 73.93 74.34 73.95 74.65 73.52 76.31 76.69 74.20 77.92 79.24 75.27 77.52 77.49
45.74 40.87 47.77 50.78 53.68 53.56 51.70 53.71 47.29 48.52 42.10 41.86 46.00 49.09 48.81 53.05 55.34 61.92 63.77 62.16 64.01 64.26 67.63 71.36 71.74 72.82 73.53 73.98 74.63 74.45 74.63 74.37 74.79 74.20 74.64 74.01 73.57 75.56 76.07 74.20 78.18 77.64 79.72 79.75
46.83 44.03 43.92 47.82 47.94 48.89 50.25 49.12 50.07 50.03 48.19 43.23 42.83 46.87 56.04 55.43 56.51 57.48 63.98 63.65 63.31 65.15 66.61 70.00 72.22 72.99 73.77 74.39 74.55 75.04 74.58 74.93 75.28 75.50 74.45 74.19 73.98 74.31 74.34 75.66 76.19 77.09 77.62 79.72
47.24 44.09 40.53 43.53 49.06 51.04 51.45 49.78 49.94 45.96 45.65 48.46 48.29 48.44 58.47 58.26 56.63 57.70 59.79 64.83 65.48 65.42 66.34 65.64 71.00 73.17 73.58 73.92 74.28 75.02 75.08 75.46 75.75 76.02 75.28 74.45 74.64 74.31 73.95 73.10 77.05 77.48 78.63 80.37
46.10 43.17 38.70 40.54 44.94 47.81 46.34 47.86 49.05 49.51 50.28 47.39 45.60 47.99 58.19 59.00 58.36 58.58 59.10 61.37 66.12 67.67 66.46 66.72 69.90 71.95 72.40 73.70 73.90 74.52 75.15 75.12 76.22 76.43 75.69 75.14 74.98 74.87 74.23 73.51 75.34 77.45 76.47 77.55
46.63 42.22 39.84 37.27 42.10 44.84 43.63 45.27 47.51 47.91 46.12 47.13 48.43 51.16 55.50 57.68 58.42 62.89 64.17 65.58 65.50 67.84 68.14 69.32 68.34 71.68 71.55 74.18 74.37 74.63 74.73 75.56 75.71 76.41 75.91 75.00 74.89 75.36 75.28 75.78 74.67 75.42 77.50 76.95
44.86 38.30 40.87 42.29 43.61 43.75 44.02 44.48 45.42 44.91 47.60 46.12 48.49 51.23 50.39 53.79 57.37 57.93 64.22 64.74 64.83 65.88 67.88 68.73 69.91 69.48 70.00 74.26 74.94 75.37 75.43 75.08 75.67 75.41 75.41 75.51 76.00 75.89 76.44 76.50 76.66 76.23 76.20 77.01
45.54 39.20 41.04 38.75 42.50 43.11 42.17 44.44 44.99 45.40 47.17 48.99 50.17 49.53 54.45 56.08 56.81 60.38 61.96 64.18 64.44 65.33 66.47 68.05 69.45 70.83 69.67 71.54 75.32 75.54 75.88 75.59 75.98 75.28 75.14 75.74 76.20 76.44 76.33 76.46 76.77 76.70 76.44 77.08
42.22 39.77 38.44 34.44 40.71 41.02 37.35 42.94 44.49 45.22 47.29 47.53 45.01 50.02 54.36 55.15 56.75 55.60 59.77 61.57 61.77 63.08 64.12 65.15 66.22 68.13 70.80 69.98 71.99 76.28 76.34 76.81 76.48 76.48 75.92 75.95 76.39 76.55 76.36 77.02 76.62 76.57 76.42 76.86
41.42 40.12 39.14 34.29 37.16 29.66 42.11 47.53 47.79 45.52 46.76 47.88 48.11 49.67 51.25 53.41 56.26 58.36 60.41 60.94 60.71 61.11 61.95 63.22 64.43 65.91 68.07 70.02 72.20 73.55 77.83 76.65 77.02 76.54 77.07 76.59 76.18 76.36 77.12 76.74 76.59 76.52 77.02 76.84
44.99 40.95 37.26 32.44 32.11 36.31 41.00 45.75 45.38 44.81 45.57 51.71 50.75 52.41 51.83 54.14 56.01 54.46 57.67 59.65 59.97 60.36 61.65 62.59 64.43 65.44 67.56 69.54 71.49 73.29 73.87 76.72 75.96 76.10 76.85 77.13 76.33 76.53 76.85 76.56 76.49 76.80 76.84 76.97
44.64 44.93 38.99 35.73 30.83 28.67 39.84 45.89 48.85 47.69 41.28 49.98 49.57 49.02 49.69 52.69 48.29 49.67 55.59 58.37 59.76 60.12 61.32 61.17 63.84 65.66 67.60 70.56 72.26 73.67 74.59 74.15 76.54 75.90 77.21 78.32 77.22 76.94 76.80 77.13 76.97 77.44 77.63 77.28
38.28 37.01 35.56 36.23 33.95 37.30 44.46 45.88 48.99 35.83 40.37 49.56 49.63 49.45 49.06 47.83 50.35 53.22 55.16 57.02 59.11 59.64 59.64 60.78 62.87 63.34 64.49 65.86 68.50 70.60 75.99 76.29 75.40 78.08 77.37 78.15 78.73 77.09 77.62 78.05 78.00 78.00 77.83 77.69
35.23 34.97 35.06 36.83 33.48 31.11 47.04 46.23 40.08 46.30 48.39 48.95 49.00 49.56 48.86 50.32 51.41 52.87 54.45 56.04 57.47 58.56 58.01 59.21 60.19 61.67 63.87 64.33 64.54 66.09 69.88 69.58 78.07 78.82 77.69 77.87 78.14 78.17 78.15 78.08 78.35 78.26 77.89 77.45
35.00 36.56 33.43 35.74 37.18 44.60 46.15 44.71 46.53 49.56 48.27 49.42 48.86 49.33 49.67 49.28 50.03 52.40 53.72 55.35 56.11 57.93 57.18 58.39 59.04 61.03 62.89 62.77 62.24 61.57 64.36 66.82 69.15 77.84 77.97 77.66 78.48 78.71 77.95 77.71 77.65 77.62 77.93 77.20
40.36 41.22 36.53 36.69 40.42 41.13 42.52 45.60 46.29 45.64 45.39 47.63 48.73 48.94 49.50 48.72 49.47 51.24 53.39 54.15 55.17 56.64 56.43 57.60 58.72 59.28 59.86 61.17 59.48 60.74 62.64 65.45 67.20 78.15 78.29 78.26 77.98 77.74 78.09 78.11 77.83 77.79 77.41 77.05
40.59 39.69 37.37 36.80 40.46 39.47 43.12 41.69 43.70 44.38 45.54 46.18 47.58 48.59 48.98 48.84 49.60 50.22 52.08 53.25 54.68 55.57 56.41 57.57 58.03 59.13 58.95 60.09 59.05 59.56 61.95 64.13 65.88 74.90 78.12 77.98 77.98 76.76 77.64 77.27 77.78 77.83 78.31 76.43
40.01 37.04 34.60 34.72 38.48 37.11 37.73 41.64 42.83 42.83 43.48 44.31 44.69 45.55 47.66 49.38 49.95 50.85 52.19 53.96 55.15 54.63 56.38 56.98 58.23 59.47 58.65 59.42 58.38 58.46 59.31 60.68 61.68 67.50 69.85 75.72 76.26 76.50 76.47 76.56 75.65 56.11 62.38 56.95

GFSCGP_sfc_wetblb_081.txt.gz
Wetbulb
53.70 48.05 45.25 48.11 49.86 50.17 49.91 48.24 45.83 48.07 51.23 52.36 54.28 60.63 62.61 64.17 61.84 63.46 65.02 65.36 65.66 66.36 67.65 69.42 69.19 69.07 69.30 70.42 69.95 70.02 70.41 71.29 72.98 71.17 70.89 70.68 70.48 71.62 70.73 73.27 73.53 75.29 75.63 74.56
50.56 47.11 52.05 53.91 52.53 50.95 48.80 47.24 46.89 48.80 51.32 50.28 57.43 58.74 60.47 61.43 60.00 63.09 62.13 62.17 64.31 66.44 67.31 69.17 68.92 68.42 68.70 68.91 70.38 69.93 71.39 71.53 72.41 71.07 71.19 71.10 70.61 72.16 72.05 73.92 75.49 75.02 75.33 74.71
45.94 50.83 54.97 52.85 50.76 48.52 47.44 45.22 46.12 46.30 49.69 49.33 56.23 55.02 54.71 59.11 61.00 61.29 64.22 64.08 63.96 65.58 66.47 67.94 68.20 67.80 68.23 68.32 69.67 70.90 71.71 71.47 72.21 71.09 71.16 71.58 72.21 71.27 72.30 71.90 73.75 73.63 75.75 75.40
49.05 52.81 51.60 50.33 49.68 49.70 41.99 49.97 49.97 48.55 45.13 39.97 47.40 44.51 54.06 56.76 58.56 60.45 62.91 63.76 64.23 64.59 67.18 67.94 67.85 67.70 67.28 68.84 70.08 71.57 72.09 71.70 71.39 72.06 69.77 69.50 69.88 68.98 71.05 72.76 72.68 74.15 74.46 74.74
46.25 48.99 49.41 49.25 49.77 50.57 46.98 51.17 48.84 48.02 44.22 40.78 44.81 39.58 51.85 56.82 56.63 59.11 60.99 59.69 62.94 64.83 67.45 67.50 67.99 68.64 68.34 69.82 69.62 71.63 72.53 71.83 71.35 72.13 70.10 70.03 69.54 70.28 71.10 69.94 71.84 73.09 74.01 75.21
47.90 52.38 50.37 49.27 52.33 51.63 52.17 48.68 47.17 45.43 41.81 35.42 41.58 40.07 47.40 54.39 56.55 58.06 62.77 62.96 64.48 66.92 67.94 68.08 68.96 69.43 68.81 70.20 70.15 70.26 72.24 70.90 70.67 70.97 72.04 70.11 69.33 70.06 71.65 70.60 71.93 72.87 73.84 74.67
44.93 46.47 49.53 51.58 47.33 49.73 48.24 43.23 35.83 34.23 35.33 35.35 41.47 40.69 43.03 59.29 61.52 60.82 62.58 64.74 65.39 66.33 67.84 67.99 67.93 68.45 68.69 68.70 70.07 69.99 71.33 70.80 70.40 70.12 70.38 72.55 69.77 69.89 71.36 71.82 72.70 71.78 71.88 72.15
36.30 36.70 44.83 49.39 47.76 44.66 44.91 42.33 37.12 31.27 33.02 37.71 42.79 37.51 43.65 53.02 64.09 63.46 63.67 64.45 63.33 66.38 68.34 68.26 68.50 68.71 69.23 68.92 69.96 70.46 69.88 71.28 70.87 69.88 69.58 70.79 71.53 70.65 71.30 72.85 71.71 72.46 72.43 72.37
37.03 38.68 46.66 47.83 48.23 48.60 44.97 41.81 46.53 39.49 41.65 39.40 41.90 44.27 48.61 50.80 53.44 62.12 60.97 62.79 64.45 67.01 66.58 68.63 69.18 69.29 69.43 69.41 69.23 70.50 69.99 70.17 71.01 70.91 69.27 70.14 72.83 70.04 70.65 71.24 72.15 71.76 71.65 72.87
40.59 34.49 42.70 45.94 47.30 48.50 44.96 47.81 39.99 40.34 32.76 33.05 40.05 41.84 42.92 46.56 49.07 60.58 62.51 63.19 64.97 66.64 66.69 67.55 66.97 69.65 70.05 70.45 69.98 70.55 70.88 70.14 71.36 71.32 70.67 69.99 71.03 72.71 71.75 70.96 73.02 72.37 70.92 72.27
42.31 37.60 38.89 43.41 40.92 41.50 44.03 43.97 42.81 42.81 41.46 37.10 34.35 40.12 48.23 53.41 51.72 57.18 61.68 63.26 65.06 65.33 66.64 67.90 67.85 67.43 66.14 70.89 70.61 70.00 71.04 70.75 71.04 70.91 71.70 69.94 69.76 72.37 72.11 71.41 69.77 73.10 72.66 74.74
41.44 36.17 33.37 38.57 45.38 46.56 44.68 42.90 43.01 39.66 38.08 40.78 39.85 42.53 54.01 55.06 57.37 55.90 61.28 63.04 64.27 65.19 65.41 65.42 66.20 66.07 65.46 65.06 71.20 70.16 71.55 71.29 71.54 71.55 71.64 71.49 69.89 70.94 72.14 70.87 70.72 73.32 72.20 73.07
40.29 34.80 29.68 34.62 38.14 42.71 41.25 43.27 43.69 44.80 41.29 38.15 37.49 41.90 54.64 55.47 55.21 57.47 60.84 61.96 63.77 63.72 63.46 63.53 64.77 65.71 65.15 65.32 70.63 71.50 71.24 71.83 72.43 72.47 71.43 71.69 71.03 69.67 70.77 70.93 70.11 72.17 74.53 74.49
43.64 33.61 30.98 28.70 34.26 39.26 37.99 41.21 42.96 42.23 38.56 39.80 41.73 44.82 50.43 52.71 53.85 56.64 58.66 61.89 63.00 62.79 63.21 62.62 63.94 63.37 64.91 66.90 69.73 71.67 71.72 72.87 73.00 72.87 72.25 71.41 71.18 71.44 70.25 70.60 69.97 71.66 73.52 73.33
39.12 31.11 34.39 36.90 39.51 40.23 39.55 40.11 41.41 39.92 41.89 38.93 41.26 44.66 48.73 52.55 55.07 55.81 57.70 59.87 61.26 62.65 63.70 64.31 65.44 65.21 66.38 68.36 68.82 71.79 72.55 72.71 73.45 73.16 72.74 72.29 72.07 71.88 72.13 71.21 70.85 69.47 73.45 73.52
40.04 32.76 35.40 34.27 39.51 39.94 38.19 40.54 41.59 41.80 43.09 42.29 42.99 46.44 51.79 54.59 55.61 54.66 55.38 57.39 57.31 58.50 60.30 61.20 63.41 66.26 67.75 68.74 69.15 69.48 71.34 72.95 73.83 73.30 73.11 73.20 73.09 72.67 72.41 72.36 72.29 70.87 70.32 73.09
36.14 36.06 31.92 27.71 36.57 36.80 33.06 38.45 40.35 41.80 43.80 43.70 39.86 46.91 51.89 52.53 54.38 54.23 54.26 54.90 56.46 57.14 58.75 58.72 60.51 62.38 63.51 67.23 67.88 65.71 66.42 68.49 72.89 73.18 73.55 73.61 73.20 72.81 72.71 73.27 73.01 73.15 71.82 71.53
35.67 34.18 34.87 28.38 31.55 23.76 35.68 42.60 44.56 44.17 45.37 47.07 47.62 49.31 52.45 52.95 53.67 54.70 55.21 53.94 55.34 56.61 57.58 58.31 59.22 61.26 64.09 67.04 67.78 67.26 66.76 65.58 68.63 72.21 72.85 73.50 73.82 73.14 73.27 73.14 73.30 73.54 74.07 73.06
41.26 37.35 31.11 28.05 28.18 33.34 37.12 42.63 42.61 39.58 41.02 46.70 45.72 47.40 48.08 49.77 52.49 50.55 53.66 54.77 55.08 56.23 57.10 57.42 59.58 61.51 62.60 62.62 65.63 68.46 70.12 70.26 70.15 72.65 72.64 73.42 73.53 73.62 73.69 72.81 73.13 73.85 73.83 74.18
40.05 39.27 34.59 32.92 27.24 25.83 37.42 44.48 47.24 45.39 35.18 46.67 47.11 46.06 46.01 47.95 43.87 45.31 51.48 54.09 54.14 55.85 56.23 56.48 58.06 60.61 61.74 61.51 62.64 64.78 65.80 68.04 66.78 69.85 74.26 74.12 73.97 73.80 73.82 74.34 73.73 74.47 74.42 73.91
32.81 34.43 30.80 31.25 29.78 34.39 41.13 44.92 46.84 32.78 36.72 44.62 45.81 46.21 45.16 42.81 45.98 48.38 51.70 53.28 54.25 55.80 56.07 56.45 57.09 57.99 59.94 60.96 60.05 59.81 62.02 62.29 63.92 65.38 67.00 75.48 74.63 74.02 74.60 74.70 74.97 74.64 74.47 74.46
32.85 30.35 29.12 32.29 30.91 28.61 41.81 43.38 38.19 41.91 44.27 45.12 45.85 45.51 44.80 45.65 47.16 49.25 50.20 51.67 53.68 54.16 55.49 55.10 55.48 56.39 59.34 60.18 58.27 56.91 58.03 59.89 61.74 63.04 64.66 73.72 75.27 74.61 75.07 74.75 75.16 74.90 74.62 74.08
33.57 34.06 30.32 32.19 34.24 40.60 40.74 39.45 42.50 44.01 43.49 43.49 43.31 44.14 44.99 45.11 45.65 47.15 48.51 50.33 52.40 53.96 54.35 54.40 54.66 55.95 57.54 58.58 58.23 55.83 57.35 59.66 60.16 61.83 64.30 72.20 75.32 75.05 74.90 74.73 74.79 74.71 74.75 74.46
38.87 38.96 33.43 33.76 37.73 38.15 39.01 40.38 41.27 42.52 41.70 42.83 43.43 44.07 44.55 43.92 45.71 46.02 47.66 49.42 51.09 52.64 53.65 54.31 54.30 54.79 56.03 57.10 58.16 56.75 58.32 59.88 60.26 60.86 62.89 73.58 74.83 75.01 74.99 75.73 75.57 75.45 74.97 74.61
37.47 36.92 34.57 34.10 37.51 37.40 39.78 39.85 40.50 41.53 42.59 43.03 44.12 43.90 43.48 43.84 44.25 45.74 47.49 48.36 51.13 51.66 54.27 54.06 53.75 54.72 55.75 56.69 56.63 55.85 57.10 59.16 59.18 60.43 62.47 68.24 74.22 73.52 75.22 75.48 75.52 75.45 76.17 74.62
39.18 34.87 32.46 31.43 36.99 37.51 37.84 41.06 41.96 40.50 41.02 41.61 41.45 41.65 43.38 44.59 43.30 44.90 45.93 48.48 51.33 51.45 52.51 53.04 54.14 55.68 55.54 55.70 54.58 54.75 55.21 57.85 58.30 58.91 61.31 60.41 65.13 69.40 74.33 74.09 72.65 56.98 61.14 58.85

GFSCGP_sfc_wetblb_084.txt.gz
Wetbulb
50.82 46.42 43.56 48.11 48.03 48.01 47.02 44.83 44.57 48.45 50.82 48.09 57.60 60.02 61.25 61.67 64.45 62.81 64.20 64.96 65.25 66.39 66.39 67.05 67.42 68.43 69.59 69.68 68.89 69.61 69.46 68.63 70.62 69.26 68.66 70.02 68.71 70.40 70.57 71.45 72.85 74.19 73.79 74.06
48.11 43.73 50.21 52.02 51.28 49.29 47.56 45.30 44.52 47.24 50.25 46.59 58.18 59.14 62.08 62.38 63.69 61.50 61.61 64.33 65.28 66.15 66.44 66.38 67.31 68.13 68.88 68.55 68.56 69.42 69.73 68.91 70.43 69.89 69.50 69.80 69.92 71.04 70.46 72.30 72.52 74.34 74.54 73.47
45.60 49.48 54.06 52.35 49.48 48.30 45.32 42.48 44.79 44.62 47.90 56.55 57.82 56.59 59.61 62.41 63.56 64.30 63.99 65.79 66.18 65.78 65.82 65.68 66.49 66.72 68.68 68.29 68.28 69.32 69.74 69.92 70.35 69.84 70.07 70.22 70.73 70.49 70.13 70.86 72.91 73.49 74.37 73.77
46.90 51.52 49.99 50.22 48.60 48.44 40.69 48.25 48.22 47.06 43.11 38.50 51.15 40.02 53.16 57.89 57.91 60.25 64.04 64.37 64.71 64.83 66.16 66.82 66.23 66.18 67.74 68.73 69.33 70.04 70.29 70.42 70.70 69.50 69.33 68.70 68.89 67.35 70.33 70.47 71.96 72.43 74.44 73.40
43.80 47.37 47.46 46.87 48.21 49.94 46.59 50.05 47.12 46.29 41.69 39.10 40.73 39.35 46.78 55.55 54.36 56.70 60.35 63.14 64.34 65.89 66.37 66.17 66.58 66.52 67.79 69.11 69.42 70.64 70.38 70.53 70.97 69.96 69.10 68.70 67.95 68.25 70.43 71.13 71.33 72.05 72.73 73.10
45.21 49.48 48.36 47.23 50.36 50.13 50.75 46.59 44.50 41.24 39.02 34.60 38.25 38.34 41.79 52.57 55.54 57.73 59.51 62.56 64.48 65.52 66.38 66.90 67.91 67.22 67.55 68.50 69.92 70.68 69.87 70.03 70.97 70.35 68.13 68.30 67.87 68.29 69.18 68.81 70.00 71.01 71.90 72.98
42.05 43.53 45.73 48.13 44.48 47.37 46.19 39.92 33.79 33.38 33.11 33.14 36.95 37.65 39.98 55.51 58.63 59.74 59.52 61.00 64.02 66.04 66.65 66.45 66.90 66.40 66.51 67.31 68.49 70.72 69.93 69.18 70.11 70.67 69.55 68.25 68.55 68.31 69.61 68.81 70.09 70.44 71.16 72.04
34.31 35.16 41.99 45.82 41.74 41.09 41.43 40.29 34.89 30.41 30.88 34.34 39.47 35.95 41.86 50.08 60.13 61.44 62.66 63.06 62.00 63.35 65.64 66.49 67.59 67.26 66.53 67.83 67.83 69.97 69.86 69.07 69.49 70.08 70.11 70.33 68.84 68.68 70.05 70.39 71.02 72.00 71.83 71.66
33.35 35.86 44.79 46.17 45.99 43.41 42.58 37.84 42.07 36.58 35.43 34.35 37.36 42.58 48.05 55.13 54.72 59.34 60.80 62.67 63.23 65.38 66.18 67.09 68.09 67.97 67.51 67.72 67.94 68.32 70.17 69.54 69.42 69.34 69.18 69.10 70.85 68.70 69.19 70.93 71.00 71.83 71.90 71.41
36.96 32.43 39.73 44.35 45.31 44.94 40.70 42.74 37.92 35.79 31.05 29.85 36.31 38.06 40.26 49.22 52.65 56.30 59.60 61.67 64.25 64.47 66.34 67.47 67.83 67.77 68.22 68.10 68.94 68.72 69.62 70.02 69.79 69.28 68.90 68.98 69.64 70.93 68.59 69.84 70.66 70.32 71.01 70.82
35.54 34.16 36.33 40.98 37.75 37.41 38.98 37.50 36.78 37.84 36.20 32.57 31.99 36.82 50.01 50.77 54.62 54.87 57.85 61.21 63.47 64.12 66.18 67.39 67.93 68.50 68.46 68.54 68.86 69.35 68.80 69.46 70.01 70.06 69.13 68.51 68.88 70.16 70.39 69.55 69.84 71.87 69.72 70.88
37.33 32.12 29.62 35.03 41.67 43.77 41.22 37.70 35.56 31.93 33.85 35.73 35.06 37.56 51.93 54.48 55.73 56.71 59.07 61.44 62.74 65.54 66.19 67.30 68.26 67.77 66.69 66.61 68.47 68.83 69.69 69.16 70.02 70.62 70.07 68.59 68.36 69.36 71.04 70.84 69.11 70.11 71.09 73.10
37.62 30.13 25.97 30.17 34.46 38.26 36.86 40.16 36.29 35.68 33.64 33.83 35.71 37.63 53.63 54.77 55.27 56.59 57.51 61.02 62.30 63.37 63.28 63.51 65.62 66.78 66.38 66.24 65.42 67.73 69.79 69.82 69.96 70.59 70.15 69.87 67.86 68.10 69.90 71.32 70.44 68.46 70.56 71.36
41.60 28.83 27.75 24.21 29.52 34.51 34.61 38.31 40.18 34.28 29.33 32.06 34.33 38.67 49.02 52.44 53.31 54.94 56.44 58.06 59.01 60.40 61.30 61.43 63.02 65.26 64.74 66.29 66.67 66.77 68.15 70.76 70.42 70.54 69.99 69.91 69.54 67.95 68.16 70.99 69.91 70.61 70.87 71.39
35.82 28.77 31.24 32.75 37.16 37.74 37.25 37.80 38.86 35.68 35.74 31.04 36.72 39.07 48.40 51.15 52.23 53.99 56.68 57.32 57.68 57.41 58.29 59.69 60.54 65.47 65.56 66.94 68.85 69.25 68.15 69.80 70.97 70.13 69.88 69.69 70.74 70.25 68.33 68.52 70.59 69.37 71.10 72.13
36.37 30.18 31.05 30.49 37.10 36.79 35.04 37.44 38.93 39.21 40.54 42.37 41.34 44.05 50.12 52.40 53.61 53.23 54.95 56.33 56.41 56.44 57.44 58.78 60.44 61.00 62.96 65.27 67.95 67.81 69.67 70.14 71.46 70.84 70.30 70.02 70.69 70.54 70.15 68.44 68.59 69.15 68.56 71.80
33.23 31.68 28.43 24.89 33.49 33.11 28.07 34.65 38.86 40.24 43.75 44.03 41.89 44.38 46.40 51.30 50.80 50.64 52.22 54.65 55.74 56.65 56.75 57.34 58.67 60.23 61.93 63.25 66.81 67.23 66.74 66.83 67.05 70.69 71.80 71.56 70.41 70.60 70.32 70.76 69.29 68.88 68.57 67.69
30.98 31.14 30.17 25.58 27.94 21.64 31.37 40.05 44.11 42.60 43.54 44.20 44.14 45.13 46.06 48.03 49.29 49.42 51.24 52.24 53.58 56.74 56.06 56.46 57.28 59.57 62.32 63.01 62.58 66.27 68.74 67.75 67.25 68.02 69.36 71.89 71.79 70.70 70.56 70.82 70.75 70.17 70.24 68.65
36.40 32.37 27.83 25.29 24.22 29.88 35.28 39.75 40.18 37.77 39.70 43.87 41.89 44.73 45.81 46.91 49.07 47.02 51.11 53.13 52.76 55.16 56.84 56.19 57.67 59.03 60.00 61.42 62.02 62.97 65.92 67.77 67.77 68.42 67.21 67.48 72.19 71.56 71.26 71.12 71.26 71.51 71.31 71.24
35.45 35.64 32.07 27.05 24.25 24.31 33.35 40.39 44.27 43.49 34.39 43.68 44.67 44.06 43.96 44.91 39.50 42.35 48.48 51.69 53.05 54.51 56.52 55.70 57.10 57.83 58.29 60.18 60.26 60.78 60.81 62.20 62.87 63.40 64.79 66.83 66.38 72.50 72.15 72.07 72.06 72.61 72.58 72.66
27.60 29.18 25.82 26.55 25.46 32.11 37.84 41.30 43.80 31.13 32.95 43.02 44.04 42.58 42.13 40.20 43.06 44.44 48.67 49.09 51.62 53.54 55.29 56.30 54.91 55.63 57.19 59.59 58.40 55.78 58.24 58.51 60.60 62.37 63.97 66.56 66.40 69.97 73.42 73.10 72.92 72.74 72.84 72.67
28.00 25.56 22.02 25.48 25.15 25.70 39.12 40.24 34.84 39.08 42.08 42.84 43.22 42.95 41.80 43.20 44.60 45.99 46.73 48.03 50.01 51.35 53.83 55.07 54.37 54.32 56.22 58.07 58.35 56.01 54.80 57.30 59.47 61.04 63.05 64.48 66.24 69.50 74.08 73.34 73.21 72.44 72.73 72.56
29.41 31.33 26.54 29.19 28.81 37.00 38.26 37.25 39.32 38.83 38.62 39.20 40.07 41.68 42.26 41.87 42.97 44.54 44.99 46.49 48.19 49.92 52.75 54.13 54.80 54.00 55.62 57.38 57.16 54.97 55.23 56.70 57.72 59.83 61.33 63.99 65.18 69.11 73.50 73.15 73.12 73.12 72.98 72.83
34.39 35.75 29.31 30.83 33.49 36.03 37.58 39.14 39.57 39.59 38.52 40.13 40.76 41.83 42.26 42.12 42.74 42.44 44.15 45.39 46.87 49.12 51.37 53.56 52.72 53.84 54.38 55.92 57.03 54.59 54.79 55.62 57.00 58.45 60.27 62.53 61.20 70.26 72.88 73.53 73.87 73.69 73.27 72.79
34.07 34.75 31.27 30.66 34.46 34.86 37.87 37.75 39.08 41.16 40.22 40.31 41.12 41.87 41.07 41.25 40.79 41.92 42.64 43.83 45.28 46.99 50.11 53.07 52.62 53.04 54.55 54.57 54.68 54.91 53.87 53.94 55.02 57.38 59.62 60.85 61.41 64.46 71.96 73.44 73.77 74.03 74.72 72.98
35.41 31.49 28.37 27.71 33.89 33.11 33.71 37.72 40.46 39.56 39.40 40.43 39.46 39.95 41.13 40.62 40.08 41.92 42.01 43.15 44.13 45.27 48.51 51.43 51.93 54.24 54.46 53.73 53.45 52.69 52.61 53.02 53.58 55.90 58.04 59.77 60.82 61.56 65.11 71.72 71.04 57.36 59.66 58.23

GFSCGP_sfc_wetblb_087.txt.gz
Wetbulb
47.52 45.50 42.68 46.69 47.79 47.63 45.89 43.42 42.66 46.55 49.31 52.38 58.34 57.72 60.46 62.17 63.72 63.00 63.64 63.52 64.39 65.22 64.93 66.30 66.33 68.75 69.24 69.23 68.95 69.33 69.37 68.70 69.88 68.18 68.75 68.71 68.87 70.35 70.72 71.11 71.90 72.69 72.61 72.90
46.19 42.66 48.81 51.07 50.51 48.10 46.04 43.69 43.02 46.75 48.78 45.51 52.16 57.05 59.47 61.72 62.30 63.52 63.30 63.61 64.32 65.01 63.93 65.18 65.49 68.37 68.61 68.49 68.96 69.68 69.51 68.71 70.10 68.54 68.44 69.72 68.95 69.79 70.16 71.08 71.48 73.26 73.29 72.97
44.26 48.48 53.06 50.85 48.21 47.04 43.44 41.52 43.04 43.99 47.80 58.62 56.87 56.10 57.70 60.15 62.67 64.24 62.85 65.12 65.56 65.08 63.11 64.35 64.85 67.46 68.29 68.17 68.14 69.13 69.23 68.64 69.85 69.03 68.80 69.74 69.32 69.89 69.14 70.34 70.93 72.60 73.79 72.97
46.33 50.89 50.77 47.62 47.69 47.41 39.78 47.32 47.37 45.86 41.64 37.31 50.28 43.26 54.47 58.53 59.30 61.47 63.06 62.12 64.58 65.58 64.89 64.49 64.79 66.71 67.68 68.00 68.88 69.42 68.78 68.51 69.45 69.11 68.25 68.36 68.45 67.11 68.90 70.10 70.68 72.38 73.58 72.75
44.51 45.61 46.36 45.37 46.76 49.05 45.77 49.53 46.49 44.92 39.69 37.32 39.54 38.01 44.43 57.43 56.49 58.33 61.31 63.31 64.25 65.88 65.90 64.51 65.09 66.50 68.12 68.52 68.32 69.16 68.94 68.56 68.59 69.25 68.70 68.21 67.76 67.73 69.06 69.57 70.14 71.18 72.37 72.73
44.17 47.53 46.52 46.18 48.58 49.30 50.21 45.21 42.48 38.82 37.06 33.09 37.00 37.08 38.03 52.72 56.61 58.45 60.62 61.97 64.84 65.14 65.65 66.00 66.17 66.44 67.57 68.51 68.54 69.11 68.66 68.52 68.86 68.89 67.76 67.86 67.66 67.76 68.14 68.85 69.32 70.25 71.14 71.90
40.13 41.64 43.82 45.09 41.94 45.04 44.04 38.40 32.92 31.91 31.74 31.97 34.86 36.47 38.21 49.58 56.78 59.41 59.62 60.94 63.70 65.99 65.09 65.89 65.53 65.37 66.46 67.49 68.08 69.14 68.71 68.24 69.14 68.58 67.86 67.31 67.88 67.54 68.23 68.56 69.63 69.41 70.27 71.08
32.56 33.85 40.68 45.08 40.40 37.96 39.18 37.97 33.76 29.18 29.53 32.75 36.33 35.48 41.67 53.18 54.91 57.27 59.03 61.63 63.20 64.19 65.46 66.14 66.10 65.82 65.98 67.18 67.97 68.95 68.44 68.30 69.20 69.20 68.15 67.42 67.20 67.65 68.34 68.84 68.97 70.35 71.35 71.62
31.76 34.02 43.32 44.74 44.68 42.01 39.28 35.43 38.93 33.93 32.23 33.76 35.58 39.52 46.75 54.36 55.00 56.59 56.98 58.95 61.31 62.65 64.85 66.36 66.87 66.27 65.97 66.61 67.76 68.70 68.61 68.60 69.12 69.56 69.32 68.02 67.32 67.13 67.86 69.57 69.80 69.86 70.64 71.92
34.68 31.36 37.99 42.52 43.56 43.42 39.21 39.86 35.22 34.18 29.62 28.46 34.41 35.93 41.92 50.34 52.54 56.16 58.38 59.36 60.25 62.09 63.55 65.42 66.90 67.02 66.27 67.06 67.37 69.15 69.19 68.53 68.86 69.57 69.82 69.49 69.08 68.49 67.80 68.65 70.34 70.16 70.23 70.11
33.94 33.13 35.68 39.09 36.89 36.14 36.16 34.35 33.16 33.94 33.54 30.52 30.66 38.27 50.05 52.76 53.10 54.33 56.32 59.63 59.54 62.25 62.86 64.55 65.99 67.82 66.93 66.90 67.52 67.35 69.31 68.79 68.58 69.03 69.41 69.18 69.03 69.23 68.24 68.26 68.99 70.42 70.33 69.88
35.24 30.58 28.60 32.26 38.86 42.02 40.12 34.45 31.97 29.45 29.72 32.21 32.64 38.51 51.68 53.34 54.16 55.07 55.51 56.35 58.96 61.24 62.78 65.41 66.66 67.06 66.78 66.10 67.10 66.94 67.80 69.27 68.98 68.98 68.65 68.22 68.19 68.20 69.53 68.75 68.39 68.89 70.51 70.02
35.83 27.94 24.65 28.26 33.09 36.80 34.64 37.43 33.16 31.68 29.58 28.42 30.07 35.31 52.73 53.59 54.26 54.73 54.26 55.73 57.09 59.26 60.21 63.24 64.93 64.58 65.98 66.03 65.87 67.45 67.52 67.68 69.21 69.44 68.85 67.98 67.46 67.61 68.03 69.65 69.35 67.82 69.48 70.25
39.96 26.99 26.04 23.41 27.01 32.38 32.84 36.43 37.11 31.46 28.27 29.36 31.92 34.42 48.15 50.94 51.88 54.10 55.39 55.86 56.33 57.28 58.94 59.86 60.99 62.13 64.78 65.96 66.23 66.45 67.50 69.04 68.35 69.29 69.36 68.48 67.77 67.51 67.87 68.53 69.99 70.16 68.53 69.43
34.43 28.02 29.08 30.02 33.80 35.43 34.78 35.26 36.18 32.47 32.73 29.83 34.55 42.53 44.47 50.12 51.34 52.95 55.72 56.92 55.74 55.83 56.56 58.57 59.79 61.36 62.57 63.34 68.07 68.93 68.63 68.39 69.55 68.70 68.98 69.13 69.26 68.32 67.95 67.87 68.79 69.76 70.08 69.97
34.05 29.95 29.41 27.94 34.88 34.36 32.44 37.18 37.70 38.21 40.89 38.85 40.18 41.26 45.52 50.35 49.82 49.70 51.62 55.71 55.33 55.30 56.05 56.92 59.47 61.30 61.03 61.96 62.63 64.80 66.83 68.94 69.86 69.54 68.99 69.44 69.44 69.27 67.64 66.88 67.44 69.08 69.04 70.09
31.44 29.63 26.61 22.72 31.26 30.50 27.26 34.21 39.44 40.58 40.83 41.56 38.65 42.10 44.98 47.56 46.70 47.02 48.30 50.18 53.69 54.63 55.35 55.70 57.04 58.99 61.37 60.78 61.09 61.65 66.36 67.53 68.00 69.68 69.71 70.19 68.78 69.16 69.26 68.04 66.58 67.02 68.47 68.46
30.91 29.61 27.27 23.88 25.95 21.09 29.08 40.62 43.21 41.03 41.77 41.62 41.94 43.39 45.37 46.02 48.49 48.43 49.36 48.85 50.82 54.32 54.54 55.24 55.86 57.03 59.37 61.03 59.69 60.60 63.41 68.36 67.64 69.91 70.58 70.70 70.04 69.30 69.56 69.53 68.22 66.80 67.57 67.84
33.01 29.42 26.09 24.35 22.76 27.96 34.73 37.59 38.70 35.69 37.73 42.61 41.66 42.21 42.99 45.55 48.39 47.75 47.72 49.81 49.43 51.49 55.42 54.99 55.79 57.62 57.30 59.97 59.83 58.87 59.28 61.84 65.22 67.35 66.29 67.14 67.57 69.55 70.30 69.40 69.39 69.68 68.25 67.75
34.74 33.21 30.53 25.19 24.17 23.50 31.55 38.48 41.93 41.16 30.61 41.35 42.44 41.33 40.83 43.04 39.63 43.65 46.40 48.17 49.39 51.02 53.73 56.16 56.24 56.04 57.05 57.75 58.69 58.17 57.79 58.45 59.25 60.75 62.92 65.37 66.54 66.10 67.95 70.87 69.99 70.34 70.49 69.67
24.56 26.02 24.79 24.41 23.80 30.21 36.86 39.21 40.80 30.13 30.09 40.98 41.94 40.76 40.25 37.87 40.90 43.49 46.31 47.11 48.49 48.96 50.65 54.39 56.12 55.03 55.08 57.56 58.46 57.09 56.35 56.06 58.07 59.38 61.22 62.97 65.19 66.85 66.62 67.53 71.62 71.16 70.50 70.72
26.03 22.53 21.01 24.13 28.29 25.47 39.03 38.75 32.24 35.86 36.71 38.72 39.55 39.92 39.36 40.36 41.87 42.95 43.78 44.79 45.24 47.10 48.52 51.43 53.24 55.00 55.07 56.40 57.70 55.83 54.07 55.66 57.07 58.36 59.75 60.93 63.08 65.45 68.39 67.46 70.17 72.00 70.69 70.57
25.49 29.36 25.75 28.27 27.88 35.40 37.11 35.50 37.79 37.08 35.27 36.06 36.61 38.43 39.54 39.60 40.50 42.13 43.47 43.97 44.20 44.86 47.31 49.39 51.70 53.37 55.18 55.81 56.14 54.14 53.29 54.38 55.03 56.76 58.89 59.46 62.22 63.63 65.35 66.62 69.15 71.74 71.13 70.86
32.78 34.20 27.45 30.33 31.22 35.46 36.68 38.02 38.32 38.74 37.42 38.37 38.43 38.90 39.82 38.94 39.95 40.67 41.34 42.42 42.89 44.13 44.89 47.45 49.00 51.32 53.07 55.24 55.64 54.99 53.55 54.14 53.96 54.12 55.99 58.45 61.08 60.88 62.85 67.07 71.54 71.87 71.76 70.77
32.97 33.68 30.36 29.28 33.25 34.09 36.67 37.65 37.89 38.99 40.10 39.51 39.87 39.92 40.09 39.63 39.55 39.84 39.55 40.09 41.52 43.05 43.83 45.08 46.74 49.02 51.68 54.60 54.87 53.88 53.08 52.64 52.28 53.20 55.36 57.05 59.82 60.36 61.87 64.64 70.86 72.38 73.09 71.41
34.21 31.53 28.98 28.47 33.50 33.42 33.36 37.63 38.85 38.65 38.81 39.43 39.13 39.58 40.67 41.27 40.29 40.43 40.68 41.43 41.25 41.42 43.10 43.42 45.26 48.19 50.78 54.16 53.55 52.22 51.55 50.68 50.47 51.41 53.35 54.19 57.04 59.76 61.65 63.18 64.70 59.66 58.16 55.85

GFSCGP_sfc_wetblb_090.txt.gz
Wetbulb
45.42 43.21 40.88 45.01 47.13 46.52 45.22 43.19 41.90 45.22 55.19 57.51 57.48 56.43 59.47 62.85 63.46 63.26 63.77 63.99 64.53 65.02 65.78 66.86 67.28 67.75 68.37 68.14 68.24 68.44 68.53 69.00 69.64 69.37 69.72 69.72 70.22 71.46 72.29 72.38 72.77 70.96 72.14 73.29
44.90 41.35 47.98 50.06 49.43 46.99 44.96 42.99 42.10 45.50 49.09 48.21 47.48 52.01 58.85 61.08 62.26 63.30 63.30 63.26 64.07 64.89 65.05 65.64 66.01 66.39 67.49 67.81 68.14 68.30 68.83 68.93 70.00 69.22 69.89 70.65 70.04 71.29 71.75 72.35 72.57 73.92 74.13 73.48
43.65 47.70 51.55 49.97 47.52 46.30 42.60 41.24 41.95 43.28 47.20 56.83 54.70 51.46 55.63 59.83 61.96 63.64 64.20 64.50 64.36 64.56 64.62 63.71 64.77 65.72 67.59 67.71 68.04 68.49 69.09 68.89 70.31 69.43 69.82 69.80 70.39 70.69 70.75 71.69 71.84 73.08 73.79 74.19
46.04 49.75 50.43 46.72 46.40 46.89 38.70 47.07 47.13 45.08 40.67 36.82 48.55 36.43 49.58 56.73 58.20 60.59 62.81 62.60 63.85 64.33 64.92 64.04 64.08 65.52 67.20 67.95 68.90 69.16 69.50 69.00 70.16 69.20 69.33 69.73 68.78 68.68 69.91 70.60 72.23 72.95 74.55 73.42
44.85 46.25 45.94 44.73 46.22 48.27 45.39 47.80 45.76 44.26 39.49 36.28 39.93 36.53 39.70 54.88 55.59 57.98 60.62 62.83 63.19 64.77 64.43 63.87 64.36 65.72 67.65 68.63 68.58 69.27 69.42 69.18 69.68 69.57 69.18 69.02 68.87 69.27 70.83 70.99 71.89 72.47 73.65 74.03
42.87 45.74 45.15 45.37 47.51 49.06 48.49 43.40 40.68 37.57 35.93 32.95 35.87 36.19 36.04 50.08 52.29 57.31 60.26 62.08 63.68 64.48 66.09 64.67 65.42 65.97 67.66 68.67 68.87 68.96 68.39 68.34 68.62 69.49 68.45 68.31 68.70 68.81 69.22 70.53 70.39 71.22 72.30 73.44
39.19 40.20 42.30 43.95 40.64 43.21 42.59 37.56 31.39 31.29 31.07 31.75 32.94 35.62 41.44 49.13 53.15 54.71 55.20 58.89 63.50 65.17 65.97 65.33 64.31 64.63 66.81 67.70 67.95 68.50 68.20 67.70 68.30 68.86 68.49 68.00 68.61 69.27 69.49 69.77 70.39 70.28 71.41 72.44
31.59 33.11 39.50 44.04 39.26 36.63 38.25 37.13 32.77 28.33 27.92 32.20 34.97 33.88 43.08 54.14 56.13 58.26 59.86 59.60 60.05 63.83 65.96 65.96 65.21 65.27 66.15 67.47 67.65 68.18 67.93 67.99 68.26 68.60 68.56 68.02 68.18 69.20 69.37 69.84 70.55 70.85 71.53 72.36
31.82 33.23 41.97 43.32 42.87 40.49 37.47 34.05 35.77 32.53 30.17 32.79 34.58 40.85 47.10 54.85 54.56 55.87 56.22 58.36 59.22 61.31 65.27 65.96 66.69 65.67 65.82 67.16 67.58 68.21 68.23 68.37 68.72 68.89 68.68 67.78 67.57 68.23 68.92 69.99 70.43 71.08 72.05 73.00
33.82 30.94 36.67 41.13 42.52 41.97 38.22 38.41 34.35 33.18 28.83 28.13 33.02 39.38 43.32 49.77 51.83 54.62 54.68 56.15 58.54 60.70 63.42 66.04 66.84 66.69 65.95 67.14 67.90 68.36 68.89 68.58 68.87 69.38 69.20 68.56 67.89 68.10 68.74 69.65 70.21 70.97 71.69 72.33
32.89 32.69 34.77 37.36 34.69 32.68 35.04 32.94 32.50 33.31 31.78 29.81 29.90 38.69 49.86 51.45 53.29 53.06 54.47 56.70 58.69 60.93 63.32 63.86 66.08 67.19 66.54 66.89 67.58 68.12 68.68 68.62 68.77 69.38 69.62 69.50 68.69 68.18 67.97 68.72 70.35 71.58 72.24 71.88
34.92 29.91 27.33 29.71 37.31 38.81 36.84 33.24 30.53 32.12 30.25 29.99 33.83 37.66 51.84 53.18 54.34 54.98 54.26 55.97 58.55 60.10 61.41 62.65 64.83 66.30 66.94 66.35 66.96 67.29 68.69 68.70 69.03 69.23 69.85 69.57 69.78 69.50 68.69 68.30 69.16 70.47 71.34 71.98
34.13 27.20 24.05 27.99 32.49 35.59 33.89 35.88 31.00 30.14 29.10 28.03 33.22 37.30 52.04 52.88 53.25 54.85 54.67 54.89 56.09 58.58 59.93 61.39 61.58 63.20 65.20 66.48 66.84 67.02 67.85 69.31 69.05 69.16 69.13 69.18 68.72 68.74 69.54 69.42 69.06 69.38 70.35 71.03
39.02 26.18 25.28 24.70 26.94 31.27 31.57 34.98 35.01 30.36 28.50 28.59 31.52 39.32 46.16 48.17 50.06 51.48 54.66 55.68 55.40 55.72 57.50 59.65 60.58 61.03 61.97 63.22 67.08 67.92 68.17 68.73 69.57 69.23 68.62 68.30 68.17 68.12 68.79 69.85 70.06 69.34 69.88 70.39
33.56 27.41 27.94 28.72 33.07 34.04 33.51 33.95 34.43 31.94 32.21 30.53 33.97 42.87 43.87 48.32 47.50 48.43 50.80 54.28 54.14 54.68 55.25 56.58 58.25 60.14 60.14 60.62 62.22 64.87 67.75 68.98 69.15 68.94 69.29 68.67 68.84 68.84 68.86 68.72 69.30 70.49 70.02 69.98
32.44 30.35 28.71 27.24 33.66 33.07 33.28 37.10 37.44 39.03 40.11 38.19 40.90 39.51 48.28 48.29 47.80 46.34 47.14 49.21 52.02 53.43 54.37 55.85 56.56 58.40 59.70 59.49 59.95 61.40 63.02 67.46 68.49 69.07 68.89 69.96 69.78 69.54 68.37 68.42 68.53 69.55 70.29 70.37
29.94 28.43 24.90 21.82 30.27 30.06 26.62 32.98 39.00 39.19 39.89 40.43 37.44 40.59 46.00 46.18 45.12 45.10 45.54 46.34 47.66 49.93 54.11 54.39 55.15 56.46 58.69 59.55 59.51 58.84 59.67 62.97 68.43 68.36 69.83 69.65 69.81 69.79 69.36 68.42 67.99 68.06 69.17 70.14
30.02 27.99 25.57 23.20 23.86 20.15 28.62 39.73 42.23 40.12 40.80 41.56 41.75 42.15 43.45 43.41 46.54 46.63 46.79 45.56 46.22 48.42 49.86 54.73 54.90 55.48 56.74 60.02 59.64 58.99 58.91 59.71 61.03 64.48 68.96 70.46 70.35 69.79 69.72 69.53 67.78 67.50 68.01 68.95
30.94 29.27 25.21 24.35 22.13 26.72 32.62 37.31 38.31 35.85 37.55 41.53 40.53 41.48 42.74 43.93 45.78 45.63 46.19 46.91 46.74 47.94 49.30 50.92 55.84 55.84 56.21 57.03 59.79 59.19 57.72 57.89 57.93 58.52 60.97 63.54 66.81 69.75 70.01 69.65 69.77 69.12 68.04 67.59
33.04 31.62 29.64 24.58 24.32 22.92 30.19 37.85 40.79 40.73 32.34 40.99 42.01 40.79 40.29 41.33 37.71 42.10 43.83 45.46 47.07 47.83 47.93 49.07 51.37 54.68 55.90 55.77 58.42 58.24 57.12 56.21 56.16 57.43 58.77 61.19 63.35 65.60 67.71 70.44 70.16 70.51 70.31 69.35
23.73 25.49 25.32 24.82 24.07 29.38 36.82 38.88 40.45 30.49 30.49 40.72 40.88 40.41 39.59 37.48 39.97 41.83 43.28 43.83 45.43 47.38 47.26 48.09 48.85 50.07 54.59 56.14 56.88 57.19 56.99 55.45 56.89 57.39 58.90 60.22 62.17 64.22 66.83 67.53 68.18 70.91 70.90 70.75
25.97 23.61 22.69 26.06 27.98 25.34 39.04 38.42 34.62 35.69 38.64 38.83 38.40 39.27 37.79 38.37 39.78 40.57 41.80 42.55 43.88 45.09 46.07 46.74 46.39 47.50 51.84 55.43 56.45 56.57 55.36 55.95 57.22 57.33 57.79 58.69 60.50 63.71 65.60 66.74 67.44 68.02 71.13 70.95
24.65 28.62 26.33 28.31 28.39 35.07 37.41 35.88 38.15 37.19 35.65 36.71 37.01 37.89 38.30 38.22 38.58 39.45 39.31 40.16 41.07 42.38 43.74 45.28 45.24 45.98 47.82 53.21 56.04 55.61 56.41 55.49 55.47 56.19 56.59 57.51 59.18 61.99 63.49 63.49 65.23 66.22 69.17 70.75
31.51 33.02 27.98 29.40 31.52 35.28 37.09 38.51 39.02 38.20 37.37 38.43 38.59 38.68 39.22 37.55 38.64 38.38 39.58 40.15 40.78 41.22 41.29 43.03 44.02 44.61 45.12 48.36 53.20 56.47 56.55 54.73 54.11 54.31 54.57 56.23 57.39 58.39 61.61 63.40 64.58 65.77 67.80 70.39
32.07 33.35 29.60 29.41 32.89 34.04 36.87 37.86 38.46 38.78 39.75 39.48 39.65 39.57 39.33 38.97 38.47 39.41 40.70 41.06 41.19 41.35 42.13 42.65 43.13 43.29 44.05 46.15 48.72 53.62 55.75 54.13 52.69 53.06 53.78 55.42 55.91 56.63 59.37 61.52 62.98 64.18 65.94 69.25
33.38 31.29 29.56 29.42 34.17 33.49 33.93 37.48 38.75 37.98 38.35 39.71 39.18 38.97 39.95 39.99 39.46 41.24 41.67 42.27 42.23 42.24 42.70 42.53 42.47 43.02 44.10 45.82 47.67 51.36 54.50 52.63 51.66 51.66 53.15 53.30 53.48 55.21 57.99 60.08 61.30 57.56 53.77 52.70

GFSCGP_sfc_wetblb_093.txt.gz
Wetbulb
50.55 48.95 48.45 52.58 54.31 53.04 51.57 50.47 49.21 50.69 59.60 60.96 58.90 59.47 61.96 65.02 65.74 65.81 65.44 66.03 66.76 67.09 69.09 70.60 71.37 71.66 71.66 71.64 71.68 72.69 73.02 74.50 74.45 73.75 73.18 73.60 74.03 75.20 76.94 76.59 76.53 76.02 75.50 76.70
48.69 47.32 52.57 54.70 53.57 51.87 51.52 50.33 49.32 50.59 55.14 58.76 52.91 54.09 61.15 64.12 65.47 66.39 66.05 65.89 66.68 67.59 68.16 69.20 70.54 70.94 71.22 71.30 71.38 72.71 73.26 74.50 74.59 74.37 74.97 75.58 75.61 75.85 76.71 76.42 76.62 76.05 76.31 77.67
47.10 50.97 54.03 52.97 52.41 51.40 51.02 50.49 49.28 48.81 50.00 58.77 58.17 55.77 59.30 62.33 65.18 66.65 67.38 67.83 67.84 67.80 67.94 68.50 69.45 69.98 70.94 71.24 71.53 72.28 73.47 74.03 74.78 75.41 75.15 75.07 75.34 75.54 75.11 75.31 75.72 76.87 76.51 76.99
50.96 54.24 52.96 52.14 51.45 52.78 50.13 52.18 51.06 49.78 48.55 46.06 56.19 46.30 56.25 60.06 61.41 64.18 65.96 66.80 67.26 68.10 68.90 69.20 69.43 69.52 70.11 71.12 72.40 73.04 73.62 73.96 74.37 75.39 74.95 75.34 73.90 75.11 74.54 75.45 75.96 76.16 77.39 77.09
49.64 51.43 51.68 51.03 51.85 53.21 50.55 52.60 51.62 50.16 48.93 47.10 50.75 47.45 50.42 60.21 58.05 58.91 63.87 66.45 67.53 67.71 68.68 69.22 69.26 70.04 70.69 71.41 71.88 72.55 73.60 73.96 74.40 74.77 75.77 74.81 74.73 74.62 75.12 75.23 76.15 76.79 77.63 77.79
46.91 49.21 49.86 51.33 51.63 53.13 52.56 49.42 47.77 47.55 47.55 43.44 45.39 45.96 49.33 52.33 54.53 57.96 61.07 63.07 66.78 67.87 67.22 69.51 70.49 70.58 70.54 71.55 71.81 72.09 72.99 74.00 74.24 74.37 74.58 75.13 75.26 74.80 74.24 74.77 74.60 75.12 77.53 76.82
44.86 44.83 46.79 47.83 47.40 50.20 50.72 48.12 42.50 41.66 41.67 42.23 44.71 48.12 51.01 55.97 57.80 58.17 59.84 61.89 63.95 66.43 68.55 68.43 69.17 69.24 69.94 70.69 71.31 71.81 72.71 73.51 73.78 73.55 74.05 74.09 74.76 75.65 75.41 75.88 74.87 75.21 74.97 75.73
41.90 39.53 44.66 47.20 45.58 46.13 48.69 48.45 43.85 38.22 39.22 42.22 44.93 45.83 49.94 56.98 59.41 60.38 61.30 61.84 63.26 64.27 66.12 69.01 69.09 69.73 69.41 70.63 71.38 71.24 72.41 73.23 73.18 73.22 74.39 75.06 74.89 73.84 74.44 75.88 75.04 74.95 75.04 75.86
41.33 40.12 45.45 46.13 46.70 46.08 45.49 45.43 45.88 43.58 42.33 43.33 44.47 48.47 53.45 56.85 57.44 58.72 58.14 59.23 60.07 64.95 64.87 67.98 69.88 70.09 69.96 70.51 71.44 72.05 72.71 73.55 73.18 73.07 74.53 74.17 74.49 74.31 74.52 76.05 76.45 75.42 76.74 76.17
42.64 39.72 43.27 44.61 46.46 47.02 46.24 45.73 43.66 45.31 39.33 38.84 43.50 45.97 47.50 51.84 54.26 56.19 55.62 57.53 59.75 62.00 66.15 66.70 69.76 69.90 70.33 70.97 71.69 72.16 72.86 73.03 73.83 73.38 73.92 73.43 73.44 74.01 74.28 75.20 75.51 75.97 76.52 76.81
43.74 43.12 41.58 44.33 41.46 40.11 44.31 44.13 43.61 45.32 43.22 41.57 40.31 44.84 52.56 52.45 53.87 53.74 53.82 55.77 58.72 60.99 61.79 65.33 68.18 70.81 70.32 70.44 71.11 71.51 71.89 72.35 72.49 72.99 73.82 74.09 73.32 73.35 73.81 73.48 74.89 75.81 76.59 76.94
42.52 41.89 38.14 38.92 42.60 43.47 43.36 41.08 41.22 43.58 41.15 42.68 46.46 44.32 54.52 54.01 54.22 55.79 54.32 54.70 56.84 59.26 60.79 62.16 63.75 64.80 68.34 69.39 70.08 70.80 71.28 71.62 72.28 73.05 73.69 73.35 73.74 73.49 73.02 73.13 73.53 75.08 75.69 76.86
42.35 38.09 36.85 37.57 41.56 43.02 40.82 41.36 41.81 40.91 43.05 42.15 43.01 43.26 52.67 52.72 51.74 52.89 54.36 55.13 55.95 57.10 58.61 59.82 60.47 60.88 61.81 64.03 68.13 69.92 71.26 71.52 71.84 72.20 71.56 72.67 72.99 72.90 73.26 73.35 73.71 74.01 74.64 75.70
44.33 38.63 36.71 37.68 38.02 40.08 38.44 38.88 40.64 41.22 41.75 40.82 43.16 45.53 48.78 48.40 48.37 49.87 52.67 55.17 56.06 57.17 56.58 57.68 59.26 59.22 59.40 60.50 62.20 64.46 70.23 71.57 72.33 72.33 71.21 71.98 72.76 73.52 73.34 74.31 74.44 73.86 74.14 74.45
43.27 37.00 38.46 38.50 39.03 38.84 37.95 37.84 38.77 40.23 40.84 40.87 45.25 45.24 46.57 47.47 47.97 48.30 50.38 52.60 54.13 56.06 56.34 56.30 56.11 58.23 60.04 59.36 59.61 61.43 63.34 68.00 72.06 72.52 72.22 72.33 73.37 73.81 73.77 73.89 74.27 74.49 74.27 74.12
41.91 37.57 38.72 35.77 38.50 38.89 38.27 40.69 40.61 41.47 43.16 45.44 47.25 44.66 48.16 49.16 49.58 50.46 50.94 51.56 50.83 52.22 55.26 56.79 56.63 55.95 56.98 59.81 59.35 59.64 60.81 63.03 68.90 70.99 71.70 72.86 73.30 73.31 72.97 73.23 73.23 73.59 73.98 74.13
40.22 39.03 36.77 33.14 36.47 37.36 34.22 39.63 42.02 42.78 44.29 45.88 44.71 45.14 47.75 46.11 46.33 47.95 48.91 49.52 50.08 51.00 52.08 53.46 56.27 56.73 56.21 57.41 60.55 59.75 60.08 61.02 63.31 63.36 66.69 71.95 72.86 72.87 73.08 73.06 72.98 73.04 72.99 73.68
39.85 38.89 38.17 34.55 35.56 28.73 37.85 44.81 45.26 43.76 44.08 46.25 45.89 46.32 47.01 46.93 48.02 48.46 49.79 49.32 49.24 50.01 50.67 51.57 52.91 54.85 57.53 57.64 58.89 60.82 60.34 60.40 59.66 60.20 61.21 62.75 65.33 71.92 73.21 73.11 72.89 73.01 72.77 72.84
41.19 40.40 35.53 33.76 33.00 34.56 38.42 42.60 43.53 42.48 40.66 45.43 45.64 45.77 46.18 47.01 49.07 48.39 49.02 48.83 48.31 49.52 50.87 51.79 52.72 52.90 54.91 57.81 59.02 60.06 61.26 59.04 59.17 58.53 59.43 61.08 62.57 64.21 66.51 72.00 72.72 72.86 72.28 72.45
40.68 42.21 39.76 34.74 31.72 29.71 38.05 42.41 45.96 45.92 37.49 45.91 46.24 44.87 44.06 44.87 43.34 47.90 47.40 47.01 47.59 48.90 49.80 50.98 51.53 52.51 53.02 54.45 57.18 58.41 59.67 58.99 57.95 58.44 59.23 60.85 62.35 62.70 63.94 66.04 68.10 70.98 72.67 71.43
37.40 38.79 36.58 35.94 34.19 37.10 41.96 43.23 45.44 35.80 39.09 45.86 44.83 43.77 43.28 42.26 44.23 45.12 46.07 46.47 47.42 47.55 48.25 49.56 49.87 50.26 51.85 53.32 54.35 56.60 57.48 58.18 59.21 58.65 59.26 60.02 61.73 61.87 63.65 65.40 67.13 67.92 70.19 72.01
36.47 35.64 35.46 35.91 33.81 30.81 44.23 42.40 40.11 43.66 45.80 45.28 43.40 43.15 42.21 42.83 43.61 44.45 45.10 45.18 45.64 46.00 46.72 47.88 47.69 48.44 49.93 51.55 52.23 53.58 55.53 58.91 60.02 58.00 58.39 59.34 60.00 61.37 63.80 64.12 63.66 65.28 68.73 69.33
35.58 39.00 38.60 38.37 38.52 41.68 44.99 42.96 45.23 45.38 44.43 43.03 43.50 43.33 43.27 42.86 43.71 44.58 44.87 45.65 45.95 46.34 46.54 47.31 46.85 47.27 48.91 50.93 51.67 51.38 54.35 56.89 58.95 58.91 56.91 57.57 58.69 60.28 62.14 62.05 62.42 63.76 66.28 68.87
39.77 40.05 39.62 37.76 41.50 41.91 44.17 44.47 45.07 44.83 43.91 44.65 44.55 44.28 44.40 43.77 44.79 44.99 45.45 45.68 46.20 46.61 46.61 47.23 46.89 46.75 47.31 49.46 50.21 50.74 52.03 54.61 56.99 58.42 58.25 56.67 57.34 57.63 58.38 60.17 62.20 63.56 64.03 66.37
41.09 40.99 40.01 39.31 40.82 40.92 43.00 45.03 46.20 45.09 44.58 44.08 44.64 44.70 44.36 44.89 44.96 45.64 45.56 46.07 46.61 46.42 46.83 47.22 46.56 46.35 46.83 48.58 49.11 50.34 51.69 53.42 55.17 57.20 57.84 57.61 56.02 57.15 57.43 58.57 59.04 60.78 63.44 63.72
41.55 40.84 40.13 39.99 44.69 44.29 42.96 46.08 46.68 45.00 44.66 44.57 44.45 44.50 45.62 45.74 45.55 46.36 46.24 46.82 46.31 45.91 46.32 46.34 46.80 47.13 47.71 48.21 48.78 50.24 51.81 52.95 54.12 55.15 56.56 56.65 56.02 56.10 56.43 57.62 57.89 55.00 52.82 52.48

GFSCGP_sfc_wetblb_096.txt.gz
Wetbulb
53.02 51.26 49.98 53.85 56.74 58.12 58.09 55.95 54.58 57.40 63.70 62.72 61.36 61.19 64.62 67.12 67.57 66.95 67.17 68.11 68.23 69.04 70.07 71.44 72.93 73.29 72.19 71.84 72.79 73.65 74.47 76.38 75.91 75.15 74.48 75.11 75.04 77.98 76.73 77.08 78.11 78.06 77.55 77.85
50.01 49.25 53.84 56.99 57.45 56.75 56.82 54.52 54.06 54.84 60.86 61.23 54.97 56.21 60.27 66.06 66.36 67.77 67.77 66.92 67.36 68.90 69.26 70.64 72.53 73.07 72.70 71.92 73.09 73.97 74.86 76.60 76.63 76.04 76.48 76.59 75.96 76.51 76.56 77.45 78.02 77.54 77.54 77.91
48.81 51.28 55.70 56.79 56.24 54.79 56.63 55.09 53.64 53.51 55.02 57.59 57.32 58.41 61.53 63.53 66.51 66.77 67.72 68.35 68.97 68.44 69.12 69.20 71.26 72.75 73.02 72.18 72.78 74.06 75.12 76.49 77.06 77.25 77.42 78.07 78.59 78.74 77.02 77.53 76.37 77.11 77.61 77.31
50.77 55.07 54.64 55.88 55.09 55.82 52.66 56.74 54.51 52.57 52.09 52.35 59.10 49.08 58.00 62.64 63.95 64.90 67.01 67.10 68.49 68.62 69.41 70.41 71.11 72.19 72.86 73.11 73.56 74.19 75.62 76.39 76.88 77.92 77.14 77.00 74.31 73.30 75.09 76.24 76.70 76.51 76.92 77.44
50.67 53.85 54.16 53.85 55.24 56.79 54.19 57.04 55.44 53.44 52.38 51.97 53.94 52.32 57.04 61.96 60.01 62.01 66.44 67.72 69.12 70.73 69.85 70.20 71.08 72.20 73.23 73.92 73.77 74.09 75.48 76.32 76.83 77.59 77.62 76.72 75.71 74.12 74.86 76.21 78.80 77.29 77.32 77.50
53.84 57.02 56.84 56.26 57.19 57.13 56.21 54.66 54.01 53.83 52.51 47.32 53.30 52.38 53.68 57.18 58.15 61.33 64.16 66.17 68.44 68.46 70.47 70.20 72.28 72.75 72.93 73.79 74.16 74.28 75.13 76.12 77.00 76.98 77.25 77.34 76.45 76.01 75.54 75.72 79.07 77.55 76.22 76.42
51.03 51.92 51.66 52.54 53.89 56.40 54.43 51.93 46.41 45.80 45.48 45.56 51.93 50.42 54.52 58.11 60.03 61.30 62.84 64.44 66.31 68.78 68.83 69.65 71.68 71.84 72.63 73.16 73.96 74.33 75.06 75.78 76.74 76.39 76.53 76.93 77.09 77.41 76.68 77.08 74.14 76.87 75.43 75.80
45.81 44.01 49.76 50.23 51.21 52.11 52.46 51.77 47.28 42.12 43.41 46.23 50.46 49.62 51.85 59.89 62.28 62.97 61.43 62.44 65.15 66.97 68.62 68.51 69.48 72.55 72.55 73.20 74.23 74.64 74.95 75.39 76.28 76.56 76.60 77.33 77.51 76.33 76.15 76.62 74.78 75.28 75.37 76.18
46.68 44.10 48.49 48.97 50.67 50.81 52.05 49.38 52.65 48.25 50.30 47.24 49.61 53.96 57.87 59.54 60.30 61.28 59.02 59.80 61.86 66.19 68.32 69.04 72.08 72.39 72.89 73.22 74.05 74.84 75.25 75.85 76.51 76.16 76.92 77.03 77.36 77.00 76.09 76.84 76.93 75.88 77.31 76.55
48.44 44.17 47.35 47.97 49.99 50.77 51.25 53.39 47.71 48.80 43.81 42.85 46.63 50.27 51.54 54.44 55.81 58.22 57.26 57.07 59.99 62.76 67.30 69.16 69.53 72.02 72.96 73.86 74.27 75.02 75.48 75.04 75.90 75.97 76.33 76.45 77.09 77.34 77.22 76.68 76.64 77.00 77.34 77.82
49.64 48.32 45.76 48.36 47.38 47.76 49.13 49.25 50.38 50.45 49.16 45.18 44.44 48.34 54.20 54.27 55.26 55.46 55.09 56.26 58.24 60.65 62.85 65.76 64.28 68.48 72.80 73.67 73.36 74.33 75.09 75.31 74.93 75.77 76.27 76.44 76.20 76.84 76.93 76.02 76.36 76.90 78.17 78.33
48.34 48.30 45.20 45.18 47.06 48.11 48.67 48.76 50.37 47.05 46.71 49.10 49.06 47.87 55.17 54.87 55.72 55.99 55.33 55.92 56.65 58.73 60.09 61.92 64.00 65.43 67.50 70.58 72.65 73.72 74.24 74.35 75.11 75.77 75.63 75.95 75.75 76.57 76.11 76.01 76.20 76.74 77.16 78.40
47.89 47.04 42.31 42.66 45.82 47.30 46.63 47.45 49.14 49.69 50.60 48.44 45.92 48.06 53.81 54.30 54.89 55.62 55.55 56.56 56.65 57.35 57.94 58.64 60.55 60.27 60.96 62.90 67.93 71.05 72.89 73.80 74.46 75.14 74.89 75.05 74.96 75.23 75.50 76.08 76.64 76.43 76.48 77.05
48.25 47.13 44.08 42.14 44.01 47.02 44.18 43.82 46.17 48.32 46.97 48.33 48.89 48.08 48.87 51.30 52.29 54.17 55.86 56.86 57.62 58.24 58.17 58.19 58.19 58.92 59.88 60.21 60.59 64.37 68.67 72.34 73.10 73.36 74.32 74.43 74.87 75.27 75.36 76.39 76.88 76.79 76.79 76.54
48.54 43.76 45.52 44.04 43.49 43.68 43.32 42.94 43.16 45.52 47.93 47.06 51.15 48.42 49.51 51.03 52.11 54.11 55.88 57.56 56.85 56.96 58.98 60.04 59.76 59.88 60.19 61.37 61.33 60.71 61.82 65.56 70.43 73.54 73.15 73.99 75.41 74.60 75.22 75.77 75.85 76.74 76.89 76.75
47.40 43.57 44.43 41.56 42.28 42.19 41.85 43.90 44.31 44.81 46.67 49.81 50.29 45.63 51.51 52.71 52.86 52.77 53.83 54.87 56.11 56.38 56.97 58.13 59.20 60.54 60.81 60.83 61.59 62.11 61.28 61.92 64.58 68.92 72.30 74.31 74.43 75.27 75.26 75.88 76.27 76.36 76.48 76.78
44.70 44.83 42.56 40.20 41.17 41.10 38.76 43.59 44.88 46.12 48.39 50.98 48.15 50.47 51.75 51.80 52.78 53.57 53.73 54.14 53.95 54.73 55.19 55.88 56.63 57.71 59.52 61.53 62.50 63.05 63.35 62.19 62.42 63.06 66.25 69.52 71.44 73.02 74.20 75.14 75.39 75.67 75.87 76.33
43.42 44.20 43.28 43.04 40.56 33.61 43.93 48.24 47.84 47.03 48.13 51.36 52.04 51.69 53.11 53.28 54.19 54.38 54.46 53.50 53.12 53.60 54.34 55.27 56.00 56.46 57.17 59.10 61.42 63.26 64.10 63.75 61.83 61.57 61.83 64.08 67.26 67.42 70.03 73.77 74.64 75.47 75.39 75.37
47.78 44.78 41.12 38.28 38.06 40.01 41.78 45.74 46.21 45.74 45.59 50.55 51.25 52.15 52.78 53.00 53.70 52.77 53.51 52.79 52.76 53.28 53.96 54.96 56.07 56.09 57.08 57.39 58.12 59.78 62.76 63.91 62.97 62.46 60.95 61.52 63.12 63.57 65.19 68.02 70.71 71.09 75.10 75.06
46.27 46.66 42.74 40.04 36.17 34.19 43.68 47.68 50.35 49.55 42.22 50.85 52.08 51.53 51.08 51.10 47.75 51.91 52.33 51.48 51.49 52.43 53.22 53.09 53.86 54.64 55.67 57.16 57.49 57.24 58.80 61.80 63.09 63.29 62.65 61.71 61.81 62.63 62.83 64.41 65.91 69.47 70.34 73.29
41.94 42.55 39.61 40.00 37.93 41.71 46.39 48.63 50.15 38.99 44.43 51.34 51.85 51.20 49.73 48.93 49.44 49.20 50.14 50.33 51.06 51.50 51.78 52.66 53.37 53.33 54.48 55.50 55.76 55.78 57.17 58.09 61.67 63.24 64.04 63.91 62.20 61.65 62.44 64.56 65.79 65.23 67.51 70.29
41.67 40.39 40.46 41.27 38.19 35.91 48.75 47.27 43.22 48.90 51.51 51.13 50.21 48.94 47.90 48.04 48.48 48.96 49.58 49.61 50.50 50.91 51.36 52.03 52.00 52.64 53.83 54.64 54.69 55.07 55.78 58.41 59.78 60.40 62.44 63.81 63.98 62.68 62.21 63.75 64.38 64.85 65.62 66.25
40.06 44.09 43.09 42.85 44.44 47.34 49.62 48.46 51.00 50.79 50.03 48.90 48.50 48.27 48.34 48.23 48.79 49.21 49.37 49.99 50.38 51.12 51.34 52.02 51.83 52.08 53.24 54.26 54.62 53.85 55.78 56.84 56.98 57.67 59.39 62.26 63.74 63.21 63.41 62.20 61.61 63.86 65.48 65.74
45.02 46.35 42.48 42.35 45.98 46.42 48.64 49.39 49.95 49.16 48.51 49.05 49.21 48.66 48.42 47.80 48.69 48.80 49.47 49.87 50.40 50.93 50.88 51.35 51.12 51.05 51.74 53.48 53.93 54.36 55.14 55.82 55.75 55.87 57.67 60.18 61.68 62.20 62.50 62.11 61.00 59.14 60.24 63.39
47.16 46.19 44.05 43.98 46.21 46.51 48.75 49.70 50.01 49.23 48.87 48.41 48.94 48.79 48.28 48.31 48.50 48.71 49.11 49.73 50.32 50.70 50.79 50.99 50.39 50.73 51.56 52.98 53.29 54.21 54.74 55.14 54.30 55.28 56.51 58.75 60.06 61.38 62.01 62.24 60.32 58.12 59.58 58.47
46.58 45.37 43.62 42.37 46.69 47.53 46.90 50.33 50.92 49.68 48.88 49.01 48.54 48.15 48.98 49.07 48.63 49.37 49.41 50.48 50.38 50.34 50.58 50.08 49.71 49.86 50.30 50.81 51.67 53.34 55.05 54.64 54.03 54.04 55.35 56.82 58.49 59.56 60.46 60.73 61.03 52.92 51.85 50.72

GFSCGP_sfc_wetblb_099.txt.gz
Wetbulb
54.12 51.64 50.35 54.04 55.62 57.60 58.69 57.32 56.68 59.95 63.52 62.45 58.89 59.50 62.62 66.72 66.57 66.67 65.88 65.86 66.37 67.45 70.24 70.68 71.07 71.48 71.22 72.53 73.23 74.38 74.83 76.70 76.30 75.05 74.26 75.00 74.42 76.90 77.25 77.10 77.61 77.83 77.80 77.69
51.63 49.25 53.72 55.91 56.94 57.06 58.71 57.07 56.60 61.01 64.04 60.17 57.84 57.87 61.47 64.74 65.67 67.21 67.98 66.72 67.17 68.17 68.84 69.97 70.93 71.68 70.76 71.56 72.90 74.23 75.53 76.55 76.45 75.20 77.21 77.33 76.34 76.56 77.78 76.82 77.63 78.54 77.30 77.47
50.96 51.90 54.92 55.39 55.51 56.03 58.13 56.49 55.98 56.38 61.89 59.48 57.01 56.95 59.52 63.97 66.07 67.30 68.26 68.16 68.88 68.12 67.64 69.15 70.16 71.65 71.87 71.45 72.87 74.03 75.94 76.73 77.43 79.32 78.21 77.58 78.27 77.21 76.07 76.54 76.47 77.04 77.37 77.16
52.60 54.47 53.89 55.04 55.79 56.96 54.08 58.33 57.28 56.66 56.12 53.59 58.42 48.84 57.44 61.99 64.17 66.53 67.61 68.06 67.77 67.81 68.89 69.39 69.94 71.56 71.59 71.82 73.16 74.59 75.95 77.01 77.31 78.04 77.97 77.34 74.24 73.15 74.02 77.36 76.24 76.76 77.70 78.05
51.27 52.17 53.00 54.00 55.67 56.59 55.11 58.89 56.82 55.88 54.90 56.97 54.81 53.76 53.48 61.49 60.58 63.64 66.99 68.41 68.22 68.47 69.97 68.68 69.96 71.62 72.48 72.79 72.67 74.27 75.75 77.15 78.03 78.11 78.54 76.42 75.70 74.95 76.53 75.22 77.71 78.27 78.29 77.65
53.71 56.14 56.67 56.67 58.12 57.88 58.60 56.78 57.25 56.39 54.33 50.32 56.23 53.88 52.85 57.01 60.05 63.53 66.45 67.76 68.92 69.27 69.38 70.90 70.66 71.92 72.11 73.03 73.11 73.68 75.44 77.59 77.75 77.79 77.36 77.71 76.29 76.44 74.46 74.59 75.79 75.76 75.79 76.61
53.22 53.80 57.57 57.07 55.93 57.84 57.07 54.73 48.80 47.56 47.67 47.70 56.37 53.77 55.03 60.19 61.69 62.17 63.12 64.80 67.92 69.76 71.48 71.45 70.02 70.63 71.92 72.21 72.74 73.71 76.87 77.35 77.35 76.99 77.37 77.45 77.47 77.10 76.88 76.55 75.78 73.05 74.74 73.84
48.44 47.60 53.15 57.05 55.98 54.34 54.75 53.97 48.97 43.94 45.05 47.58 53.88 52.49 55.17 62.44 61.76 61.72 61.51 63.13 66.08 68.55 71.01 71.57 71.17 72.04 71.95 72.58 73.11 73.88 77.15 77.51 76.96 77.10 77.85 79.23 78.39 76.31 75.31 77.01 75.53 75.58 73.14 75.32
48.81 48.12 53.18 53.28 55.87 54.38 54.22 51.20 54.73 50.72 51.76 48.53 52.75 55.81 59.68 62.05 62.14 60.92 59.39 60.48 62.39 66.86 70.70 71.30 70.52 71.77 71.64 73.19 73.75 74.52 76.78 78.45 77.42 77.15 78.91 78.96 79.01 78.38 76.91 78.44 78.19 76.22 77.89 77.20
51.55 46.67 51.43 52.30 54.05 54.52 53.15 55.79 49.95 50.68 45.84 44.63 51.08 52.68 53.76 56.13 57.51 58.35 57.27 57.75 60.54 64.88 68.70 70.76 69.90 70.21 72.34 72.90 73.79 75.07 76.17 77.31 77.41 77.81 77.63 77.37 77.82 78.32 78.17 77.43 77.12 78.41 78.60 77.72
52.33 50.87 48.63 50.80 50.73 50.73 51.78 51.35 52.48 52.61 51.12 47.31 46.86 51.28 59.07 57.57 56.22 57.34 56.22 57.03 58.74 61.37 63.69 66.51 68.71 68.91 71.39 70.46 70.61 74.44 75.47 76.47 76.92 77.27 77.75 78.60 77.50 77.88 78.18 77.21 77.02 77.12 78.55 78.26
51.97 50.30 46.97 48.12 51.43 52.24 52.68 51.83 52.79 48.47 48.69 50.57 49.62 46.94 57.42 58.75 59.15 58.10 56.57 56.49 57.80 59.11 62.14 64.64 65.47 65.41 63.10 64.36 67.61 72.69 69.37 75.05 75.22 76.37 76.86 77.11 77.60 77.55 77.46 77.40 77.17 77.49 77.99 79.03
51.23 48.26 45.45 45.45 48.31 50.54 49.84 52.10 52.74 52.86 52.49 50.13 47.58 47.88 58.21 57.97 57.84 57.94 56.90 56.72 57.60 57.82 59.06 61.41 62.63 63.38 63.36 61.84 62.91 68.49 70.77 69.52 70.39 76.58 76.56 76.91 77.11 76.98 77.08 77.25 77.66 77.78 78.44 78.19
52.43 48.50 47.53 43.30 46.60 49.34 47.58 48.79 50.93 51.08 48.47 49.68 50.91 49.22 53.67 55.47 56.06 56.30 56.79 57.82 58.50 58.88 59.00 58.95 59.85 61.09 61.82 62.12 62.34 61.96 65.75 66.99 70.00 72.69 73.41 76.70 76.98 77.28 76.90 77.15 77.95 77.87 78.48 78.10
51.07 46.61 47.47 47.78 46.99 47.80 47.85 47.40 47.16 48.26 50.35 48.58 52.63 50.97 54.24 57.05 57.05 57.47 58.34 58.24 58.58 58.87 59.12 59.61 59.35 60.58 62.01 63.63 63.22 62.84 62.28 63.11 66.02 71.25 73.72 73.86 76.47 76.46 76.86 77.04 77.29 77.62 78.42 77.84
50.60 46.83 48.12 46.01 46.42 46.21 45.04 46.92 47.17 47.46 49.03 50.32 53.95 50.27 56.33 57.66 59.45 58.59 57.93 57.85 58.18 58.56 58.82 59.42 60.44 60.69 61.81 63.41 64.44 64.52 62.21 62.91 63.18 64.75 67.03 70.64 73.86 75.21 76.14 76.20 77.25 77.35 77.10 78.75
48.99 47.67 46.08 42.80 46.73 45.44 42.64 46.46 47.38 48.38 49.39 50.91 50.99 53.55 55.63 55.36 56.75 57.34 57.62 57.87 57.70 57.74 58.39 58.78 59.02 59.43 60.22 61.89 63.55 63.62 64.43 63.24 63.54 62.93 62.14 64.78 67.13 68.84 73.21 75.35 76.08 76.55 76.93 76.82
47.11 47.34 46.88 42.99 45.22 36.86 46.25 50.60 49.23 48.31 49.76 52.80 56.02 55.19 56.55 55.62 56.10 56.52 58.11 57.44 56.45 56.58 56.93 57.88 58.46 58.87 59.56 60.35 60.62 62.31 65.00 65.53 65.07 63.77 62.94 62.21 63.96 65.27 67.26 69.00 74.80 75.47 76.68 76.56
49.13 47.53 43.72 40.90 41.67 44.18 45.29 47.79 47.73 47.78 48.58 53.62 54.92 55.10 55.67 55.93 56.20 55.20 56.96 56.93 56.38 56.53 57.31 57.45 57.85 57.48 58.90 59.53 59.99 60.17 60.91 63.89 65.35 65.21 65.08 64.58 63.50 63.87 64.57 66.56 67.60 70.55 74.17 74.31
48.40 48.66 45.22 44.03 38.77 37.67 45.97 49.64 51.34 51.31 43.68 53.24 55.89 55.81 55.25 56.12 51.39 53.21 56.18 55.24 54.78 55.03 55.70 55.64 56.15 57.17 57.78 58.33 58.53 58.83 59.30 60.06 61.88 63.70 64.87 65.99 65.81 62.80 63.13 63.86 64.45 66.17 68.70 71.95
43.62 44.48 41.42 41.81 40.91 44.30 49.77 51.11 51.75 41.62 46.01 53.65 54.83 54.95 54.73 52.79 53.58 54.51 54.49 53.71 53.99 54.19 54.21 54.82 55.72 55.41 56.53 57.47 57.56 57.24 58.47 58.99 60.79 61.53 61.90 63.67 66.16 66.09 64.46 64.07 65.12 65.49 65.64 67.62
44.12 42.75 42.46 43.32 40.68 38.10 51.37 49.87 44.76 51.39 54.30 53.89 54.32 54.57 53.43 53.09 52.53 52.53 52.59 52.70 52.84 53.03 53.51 54.18 54.22 54.76 55.87 56.64 56.74 56.60 56.99 59.25 60.02 60.18 60.23 61.18 62.81 64.84 65.45 65.46 65.00 64.26 65.81 65.87
42.61 46.70 44.95 45.60 44.66 51.50 52.01 51.54 54.31 54.10 53.38 52.96 53.09 52.39 52.43 51.21 50.99 51.59 52.46 52.65 52.77 52.65 53.43 54.16 53.88 53.94 55.10 56.13 56.51 55.24 57.02 58.06 58.17 58.11 58.63 59.61 61.43 62.47 64.41 65.26 64.85 63.24 64.56 63.83
48.03 49.98 46.58 46.47 48.55 49.79 50.68 52.15 53.81 53.30 53.07 52.39 52.35 51.92 51.17 50.37 51.04 51.66 52.74 52.90 52.45 52.78 52.82 53.69 53.40 52.85 53.41 55.28 55.88 56.60 57.06 57.68 57.11 57.00 57.50 58.39 59.09 60.85 62.44 62.75 63.77 63.58 62.01 61.04
48.99 49.45 46.77 46.37 48.76 49.59 50.58 51.83 52.59 52.02 51.83 51.49 51.54 51.44 50.90 50.89 50.71 51.67 52.11 52.37 52.45 52.43 53.10 53.47 52.70 52.52 52.73 54.05 54.50 55.09 55.90 56.31 55.97 56.33 56.45 57.19 57.99 59.29 60.94 62.68 62.53 63.68 65.27 61.02
49.79 47.79 45.56 44.28 49.71 49.75 50.10 52.62 53.13 52.16 51.28 51.19 50.79 50.50 51.08 50.95 50.33 51.01 51.57 52.90 52.43 52.14 52.75 52.48 52.85 52.52 52.26 52.28 52.57 53.53 54.86 55.42 55.06 54.89 55.58 55.73 56.35 57.59 59.21 60.21 61.20 54.00 53.35 50.33

GFSCGP_sfc_wetblb_102.txt.gz
Wetbulb
55.01 50.34 48.54 51.66 54.52 56.91 57.19 57.45 57.07 59.02 64.55 62.30 60.30 59.57 60.44 63.00 65.97 64.61 64.72 65.44 65.78 66.70 68.60 69.14 69.60 70.69 71.68 73.14 73.98 75.33 76.46 77.57 76.82 76.33 76.04 77.06 76.46 78.14 76.88 74.03 76.55 76.31 78.07 78.05
51.83 48.12 52.46 53.84 55.43 54.53 54.89 55.80 56.67 60.10 63.18 61.36 60.03 57.76 61.17 63.15 63.89 65.89 65.17 65.47 65.94 66.42 67.04 68.87 69.36 70.21 71.25 72.46 73.97 74.96 76.38 77.17 77.72 76.62 76.33 75.49 72.56 76.36 77.23 76.97 78.22 78.46 78.43 78.77
50.56 51.11 53.53 53.06 53.09 53.11 54.28 55.26 55.17 56.97 60.43 59.43 58.29 55.43 56.08 60.33 61.65 63.94 67.01 67.20 67.53 67.64 66.41 68.10 69.47 69.68 70.54 71.99 73.41 74.68 76.62 76.73 77.62 78.88 76.40 72.34 74.20 76.90 76.89 75.51 76.85 77.45 78.00 78.14
51.64 54.33 52.08 52.26 52.04 54.53 52.68 59.13 57.28 59.78 56.51 52.51 60.09 49.90 56.59 59.73 61.30 63.10 65.49 67.59 67.24 67.66 67.99 68.10 69.55 69.60 69.87 71.57 73.37 75.34 77.27 76.69 77.21 75.44 78.26 77.66 76.24 71.92 76.86 76.44 76.73 77.22 77.18 78.57
49.79 51.89 51.39 51.29 53.07 55.93 55.09 58.75 57.64 57.13 55.94 55.28 55.90 53.69 55.62 59.18 57.53 61.35 64.09 67.46 68.37 68.33 67.76 68.50 69.46 70.07 71.09 71.95 72.73 74.63 76.62 77.07 78.03 78.48 78.08 76.83 71.07 66.17 73.12 72.09 78.40 78.20 78.22 76.81
52.70 55.36 54.26 53.92 56.64 57.67 58.32 56.63 57.25 56.15 53.95 50.29 55.11 54.86 54.10 55.17 58.53 63.53 66.41 67.38 68.56 69.04 68.72 69.37 69.24 70.55 69.97 71.85 72.43 74.16 75.49 76.89 77.77 78.24 77.22 77.43 72.71 70.48 72.53 72.97 77.13 76.65 77.33 77.77
51.29 52.22 54.62 56.19 54.45 57.54 55.71 54.23 48.66 47.44 47.32 46.53 56.74 54.43 56.14 58.86 60.20 61.05 63.65 64.51 66.68 68.85 68.88 69.66 69.96 70.44 69.81 71.24 71.78 73.94 74.99 76.39 77.54 77.23 77.49 77.25 77.06 72.03 71.83 75.50 75.59 74.42 75.62 76.01
46.90 47.01 52.51 56.59 55.29 54.05 54.35 54.32 49.51 43.64 44.57 47.17 56.41 51.79 55.27 61.54 61.73 62.00 63.44 64.63 66.36 67.90 68.50 69.80 70.46 70.17 70.85 71.08 72.11 73.76 75.26 76.13 76.91 77.35 77.88 78.53 78.18 76.05 74.64 75.79 74.97 71.84 73.18 72.32
48.06 48.83 55.68 55.89 57.28 56.47 53.79 51.55 55.47 50.64 51.18 47.99 52.78 55.74 59.02 60.90 60.21 60.57 60.39 62.24 63.92 66.44 69.52 68.68 70.60 71.04 70.11 71.54 70.93 74.07 75.27 76.14 76.83 76.82 77.74 78.67 78.87 78.85 77.72 79.59 79.85 77.12 72.82 73.83
51.47 47.32 53.77 53.68 55.27 55.28 53.96 55.80 49.62 50.97 44.54 44.17 50.83 52.17 53.29 56.09 56.84 57.93 57.82 58.76 60.99 64.13 66.28 69.15 68.76 68.50 71.41 71.66 71.74 73.34 76.35 76.56 77.26 77.59 77.79 77.80 78.35 78.82 78.99 80.55 79.20 80.81 75.70 73.63
52.14 50.47 49.46 52.42 50.22 50.10 51.59 50.43 52.02 51.92 50.69 46.02 46.54 50.06 58.87 58.45 57.84 56.53 56.84 57.35 58.86 61.45 63.56 64.96 66.72 67.55 69.42 69.98 68.10 69.20 71.44 75.90 76.49 77.60 77.83 77.72 77.80 78.30 79.03 78.44 79.27 78.75 80.53 73.89
52.68 49.91 46.85 48.31 52.38 53.38 52.76 51.89 52.49 48.36 48.14 50.41 48.96 48.84 58.59 59.78 59.29 58.53 57.13 56.70 58.55 60.63 62.78 64.44 65.32 64.95 65.17 67.76 68.12 67.63 67.65 69.24 71.19 73.63 76.74 77.21 78.46 78.42 77.91 78.14 78.49 79.23 79.08 80.24
51.40 48.71 44.43 46.17 49.28 51.66 50.01 51.80 52.42 52.41 52.21 49.36 46.65 48.99 58.73 58.69 57.82 58.11 58.16 57.76 57.46 60.22 61.56 63.05 64.05 64.62 64.35 64.51 64.96 67.09 66.33 67.49 70.51 74.75 74.56 76.40 77.34 76.85 78.34 78.44 78.81 78.70 79.08 79.39
54.35 47.89 46.70 41.53 45.96 49.39 47.71 49.91 51.55 50.94 47.87 48.88 50.50 50.22 52.78 55.06 55.15 56.76 58.34 58.98 58.77 58.53 59.84 61.39 62.35 63.39 64.32 64.07 63.64 63.71 65.18 66.03 68.93 70.89 71.02 73.76 76.34 77.10 77.50 78.55 78.33 78.86 79.01 78.31
49.91 45.14 47.44 48.25 49.52 48.32 48.81 48.49 49.85 48.67 50.24 48.45 51.07 51.59 53.00 54.93 56.06 57.09 58.84 58.61 58.32 58.60 58.72 60.16 60.93 61.92 63.80 64.24 63.56 63.16 63.45 63.99 65.66 67.60 67.76 68.82 70.71 74.76 76.75 77.74 77.29 77.75 78.33 78.16
50.87 45.43 47.52 46.17 48.12 47.44 46.31 48.12 48.13 48.04 48.62 53.93 54.19 52.53 57.17 57.79 58.09 57.19 57.54 57.66 57.65 58.17 58.36 58.83 59.97 61.86 61.62 62.66 63.54 62.72 63.31 63.58 64.41 64.29 63.48 67.07 68.58 68.90 69.35 73.11 75.40 77.27 77.25 77.80
49.14 47.51 45.36 41.96 46.71 46.31 43.12 46.61 47.59 48.15 49.62 51.60 50.91 54.74 57.57 55.73 56.14 56.60 57.23 57.61 57.49 58.05 58.49 58.61 58.91 59.40 61.10 61.44 63.60 64.17 63.77 64.31 62.99 63.45 63.37 63.86 66.37 67.33 67.56 68.94 69.70 74.09 75.57 76.27
47.76 47.65 46.99 43.04 45.32 37.32 46.44 51.31 50.22 48.42 49.74 53.24 56.25 56.68 57.61 57.82 57.81 58.20 58.95 57.85 57.24 57.59 57.75 58.26 58.05 58.56 59.79 59.88 60.43 63.14 64.30 66.60 65.38 64.56 63.77 64.19 64.52 64.46 65.21 66.13 66.26 68.16 70.59 74.33
49.12 47.62 43.66 40.80 40.90 44.63 46.87 48.91 47.93 46.80 47.11 56.30 56.14 56.47 56.82 57.96 57.17 55.62 58.10 58.24 57.92 57.69 57.52 57.45 57.65 58.10 59.22 59.09 60.23 61.30 62.13 63.08 64.77 64.06 65.23 66.26 65.97 64.33 63.76 64.53 65.36 65.75 67.25 68.93
48.72 48.57 45.03 43.55 38.60 37.02 45.18 49.89 51.58 50.80 43.73 53.77 57.19 55.75 54.22 54.86 49.45 52.63 57.08 57.30 56.21 56.31 56.24 55.49 56.23 57.21 57.27 57.52 57.96 58.96 59.35 61.33 61.38 61.90 62.52 63.20 65.47 66.79 65.30 64.49 65.12 66.78 66.52 67.74
43.39 44.35 41.12 41.80 40.90 44.48 49.93 51.27 51.49 41.72 45.54 54.32 57.40 57.10 55.98 52.90 53.79 54.84 55.36 55.15 55.23 55.10 54.50 55.81 55.83 55.51 56.25 57.19 57.66 57.50 58.39 58.36 59.81 60.41 61.72 62.47 63.06 63.97 66.62 66.97 67.75 65.97 64.90 65.59
44.00 42.02 41.80 42.40 39.79 37.80 52.20 50.48 45.99 52.13 54.69 54.71 55.36 54.21 51.92 54.08 54.17 53.79 53.60 54.09 54.14 53.88 54.21 54.76 54.66 54.89 55.74 57.01 57.75 56.85 57.34 59.16 59.72 60.16 59.82 60.92 62.11 61.89 62.20 65.10 67.41 67.18 66.57 65.10
42.27 46.99 44.70 45.87 45.41 52.40 52.94 52.78 55.00 55.44 54.87 55.15 55.16 55.03 54.57 53.12 52.86 53.19 53.19 53.36 53.47 53.48 53.78 54.39 53.97 54.29 55.57 57.15 57.84 55.53 58.44 59.26 59.01 58.67 58.73 59.44 60.50 61.22 62.18 62.98 64.74 65.44 66.23 65.12
48.26 50.22 46.78 47.38 50.32 51.25 52.29 53.23 54.15 54.77 54.11 54.37 54.44 53.54 53.38 51.94 52.46 52.33 52.69 52.88 52.71 53.10 53.20 53.62 53.46 53.09 53.64 55.99 56.49 57.18 56.86 57.16 56.71 56.51 57.36 58.44 58.63 58.70 60.24 60.38 61.18 61.73 62.88 63.95
48.37 49.02 47.19 47.09 49.65 50.47 50.90 51.97 52.93 52.88 54.10 53.38 53.41 52.96 52.13 51.99 52.03 52.39 52.19 52.30 52.36 52.87 53.28 53.69 52.95 52.90 53.09 54.03 54.14 54.09 55.46 55.85 54.57 55.35 55.86 56.42 57.18 57.98 58.32 59.51 60.02 61.11 62.98 61.99
49.49 48.40 47.11 44.57 50.43 49.98 51.03 52.85 53.58 52.38 51.75 52.36 51.87 51.32 52.28 52.36 51.87 52.30 51.64 52.61 52.71 52.79 52.88 52.70 53.10 52.56 52.05 51.91 52.02 53.65 53.40 54.39 53.80 53.19 54.19 55.37 55.73 56.37 56.83 57.05 57.98 55.61 51.44 50.94

GFSCGP_sfc_wetblb_105.txt.gz
Wetbulb
50.17 44.57 41.97 45.43 48.55 50.55 51.79 53.38 55.08 59.53 62.81 59.71 58.25 58.25 59.13 62.96 64.31 64.18 63.51 61.55 62.51 63.93 65.66 67.46 68.32 69.82 70.59 70.31 69.06 71.96 71.10 72.80 71.22 72.08 71.87 72.17 71.81 72.20 71.44 70.92 74.24 74.06 74.14 73.63
46.83 43.64 48.86 50.66 51.04 50.88 50.56 51.54 55.98 59.81 62.23 59.38 58.57 57.57 60.32 62.44 63.29 64.02 64.22 61.82 63.58 63.34 64.47 65.81 66.93 69.24 69.59 69.64 70.04 71.79 72.65 72.33 70.88 72.44 72.97 72.74 70.72 72.87 72.90 73.45 73.84 74.27 74.11 73.99
45.60 48.39 52.01 49.93 48.97 48.67 49.05 46.82 55.23 56.88 57.51 60.04 56.99 54.83 56.69 60.97 62.84 63.38 63.56 65.40 65.13 63.85 63.45 64.66 65.82 68.21 69.41 69.42 70.71 72.08 72.35 72.60 73.07 72.27 71.32 70.38 70.49 72.17 72.11 72.40 72.90 73.97 74.16 74.31
46.89 51.68 50.57 48.41 47.89 48.98 44.04 55.54 58.13 55.22 53.64 50.04 56.62 45.67 53.79 57.61 58.81 60.61 61.88 64.60 64.12 64.58 65.63 65.17 65.12 67.44 68.66 69.81 71.59 72.80 72.70 72.06 73.42 73.77 71.27 67.41 69.21 68.97 70.68 72.24 73.52 73.72 74.36 74.39
46.08 48.08 48.59 47.45 48.93 50.87 48.82 60.37 57.87 55.44 52.00 53.34 52.70 48.65 52.84 57.21 56.25 58.85 61.68 61.77 63.81 65.30 66.13 65.58 66.07 67.33 69.20 70.40 71.06 73.27 72.78 72.24 72.42 73.64 72.40 71.36 68.24 66.44 69.37 70.99 72.28 73.10 73.82 74.39
48.65 51.96 50.61 49.54 51.78 52.08 55.61 53.69 56.14 54.32 52.29 47.58 52.04 49.98 51.27 54.89 57.06 58.32 60.36 60.98 64.67 65.87 66.90 67.16 68.09 67.16 68.80 70.12 71.30 72.62 73.07 72.52 73.48 72.82 72.62 70.94 65.30 64.45 68.40 70.18 71.67 72.17 72.71 72.77
48.17 48.23 51.10 52.59 48.51 52.40 53.01 46.59 41.15 41.92 44.67 43.93 52.82 49.58 51.20 57.52 57.31 58.16 58.31 60.73 66.44 67.44 67.00 66.64 67.08 67.24 68.43 69.10 70.58 71.40 73.29 72.56 72.86 73.41 72.70 71.42 69.62 70.01 70.63 70.38 70.85 71.40 71.30 71.69
41.57 40.71 48.82 52.67 49.10 47.76 48.41 46.15 42.32 40.69 39.70 41.14 50.25 47.35 52.87 59.03 61.31 62.40 63.18 64.42 65.64 66.82 67.09 67.37 67.80 67.89 67.75 68.89 70.31 71.10 72.31 72.88 73.21 73.04 72.87 72.19 71.11 69.91 67.23 69.68 71.98 70.84 71.23 71.14
44.23 43.61 52.00 53.54 53.92 53.10 49.07 44.73 49.77 43.55 44.00 41.04 48.83 54.15 58.31 59.28 59.20 60.43 61.12 62.60 63.04 64.09 65.70 68.46 67.40 69.13 69.00 68.42 69.92 70.77 71.71 72.85 73.89 73.53 73.56 72.87 72.81 70.90 70.02 70.05 72.46 70.66 71.76 73.28
48.46 40.70 50.40 52.82 53.57 52.96 48.26 49.71 42.68 42.75 36.72 35.81 46.71 50.43 51.05 54.13 55.90 57.10 57.75 59.11 61.53 63.62 65.13 66.26 67.34 68.61 70.14 69.78 70.15 69.81 69.90 69.29 72.31 73.81 74.09 73.86 73.72 73.78 74.11 73.80 72.95 72.02 72.60 71.31
46.10 43.62 46.58 50.40 45.97 46.10 46.60 44.05 44.65 44.21 42.86 37.96 42.19 45.58 57.26 55.02 55.46 55.63 56.39 58.05 60.33 61.94 64.30 64.32 64.59 65.79 67.47 68.45 67.74 68.16 67.18 65.86 65.79 66.40 69.87 73.16 73.61 73.80 74.04 73.62 72.66 72.50 72.06 71.31
47.03 45.01 42.74 43.97 49.61 49.86 47.67 45.40 45.03 40.29 39.70 45.32 46.87 46.72 58.13 57.11 55.92 55.63 55.50 57.61 60.09 62.58 63.25 64.06 64.32 64.63 65.06 66.66 66.39 67.00 67.99 66.51 65.81 66.69 69.26 72.58 73.11 73.73 73.82 73.79 74.19 73.12 71.52 71.30
46.22 41.63 37.96 41.13 43.02 46.31 43.90 47.15 44.31 44.20 44.37 42.97 42.21 47.14 57.68 57.28 56.51 56.49 54.94 56.95 59.05 60.24 61.34 62.13 61.85 62.20 63.17 64.06 66.37 67.24 66.21 65.43 67.29 69.38 69.34 71.22 72.56 73.49 73.28 74.10 74.44 74.17 73.82 72.57
51.66 43.37 41.60 35.48 39.92 44.63 43.13 46.43 47.24 43.83 39.88 46.18 48.48 49.58 52.23 54.24 54.35 56.20 56.26 56.71 57.83 58.87 59.92 60.98 61.35 60.92 60.90 62.64 63.51 64.65 65.30 66.66 67.62 68.23 68.10 68.53 68.59 71.13 72.52 73.72 74.53 74.79 74.52 73.92
45.67 40.81 43.13 43.89 47.11 47.41 45.11 45.51 47.24 42.76 44.32 45.70 48.60 49.21 52.42 53.92 54.50 56.15 57.00 56.60 56.28 57.70 58.72 59.54 60.85 61.37 60.61 60.43 61.18 61.78 63.35 63.82 65.73 65.37 66.24 67.22 67.96 68.50 69.47 71.57 72.66 73.54 74.08 74.37
47.18 41.09 43.22 41.07 46.25 46.39 43.89 45.44 46.70 46.39 51.92 51.21 51.26 49.52 54.44 55.57 56.21 56.39 56.17 56.30 55.80 55.26 56.28 59.07 58.35 59.44 61.45 60.97 61.05 61.60 62.05 62.07 63.25 63.45 64.49 66.41 67.67 67.69 67.76 68.41 67.99 71.91 72.62 72.88
43.97 43.31 40.66 36.74 44.17 43.48 39.00 42.98 44.55 45.02 46.12 53.04 48.33 51.27 54.96 54.01 54.67 55.21 55.86 56.21 55.62 55.19 55.01 56.00 55.89 55.63 56.10 56.92 60.96 61.74 62.06 62.54 62.61 62.21 63.28 64.19 65.02 65.46 66.16 67.60 67.65 67.92 68.01 71.17
42.64 42.28 41.37 38.02 40.70 31.24 41.20 48.97 48.08 45.50 47.05 54.15 54.13 54.55 55.42 55.64 55.88 56.80 57.33 56.10 54.90 54.38 53.34 52.62 53.16 53.91 54.77 55.82 56.85 58.53 61.71 63.03 62.33 62.07 62.97 62.22 62.12 62.73 64.70 65.11 65.60 66.66 67.63 68.30
43.85 41.04 37.41 33.76 35.38 39.79 44.88 47.72 45.59 43.95 50.06 55.86 54.19 55.17 56.55 56.64 56.22 55.08 57.06 56.41 54.06 53.30 52.11 52.17 53.94 54.16 53.64 53.96 55.19 56.41 57.58 58.44 58.39 58.78 59.10 59.73 61.08 62.77 61.56 61.12 63.11 64.69 65.80 66.75
43.83 42.51 38.89 36.98 33.06 32.26 42.25 47.59 50.10 47.88 44.37 54.98 55.86 54.74 54.30 53.82 48.05 50.72 55.43 55.24 52.33 51.78 51.69 51.63 52.93 53.31 52.55 52.61 54.29 54.24 55.13 55.38 55.16 56.20 57.05 58.80 59.53 59.56 59.26 61.27 62.01 62.22 63.31 64.75
37.41 37.68 34.82 35.30 34.41 41.33 47.61 48.88 49.62 39.20 41.97 51.67 55.58 53.81 53.16 49.96 50.52 52.47 52.42 51.43 51.56 50.56 51.40 52.10 52.08 51.26 51.86 53.16 53.26 52.77 53.17 52.92 54.43 55.66 56.01 57.26 57.59 57.58 57.48 58.84 62.55 63.36 62.22 62.21
39.29 36.35 34.75 35.28 32.97 34.82 50.30 49.57 44.44 47.16 51.03 52.44 52.37 51.27 49.29 49.42 50.26 50.60 51.85 51.23 50.28 49.74 50.55 51.68 50.28 49.91 51.80 52.55 52.18 51.56 51.74 53.65 54.59 54.70 54.64 55.15 56.24 57.25 57.76 56.74 58.41 60.66 63.32 62.74
35.60 42.12 39.39 40.23 40.43 47.25 49.74 48.82 50.52 51.63 50.58 51.08 50.62 50.95 50.95 50.82 50.56 50.51 50.89 50.70 49.50 49.67 49.57 50.19 49.20 49.70 50.68 51.62 52.25 50.83 50.99 51.88 51.82 51.53 51.99 52.84 54.66 55.53 56.50 56.46 56.48 56.20 58.52 60.54
43.29 46.18 40.89 42.57 47.94 47.48 48.94 50.71 51.11 51.99 50.08 51.32 51.83 51.80 51.33 49.69 50.78 49.58 48.67 48.19 48.14 48.80 48.75 49.40 48.91 48.49 48.51 49.77 50.15 49.45 50.68 51.14 50.56 50.09 50.34 51.03 51.11 51.95 52.54 54.09 55.03 55.15 55.72 56.76
44.78 44.30 42.66 42.15 44.25 46.65 48.90 49.95 49.76 50.32 51.73 51.03 51.00 49.97 49.20 49.10 48.65 48.48 48.07 47.34 47.96 48.23 48.75 48.48 48.07 48.45 47.87 48.28 48.15 49.53 49.07 49.45 48.99 49.23 49.98 50.06 51.12 50.62 51.02 51.68 52.88 53.85 54.47 54.94
46.25 42.24 42.58 40.11 46.36 44.95 46.21 49.15 51.45 49.59 48.65 49.91 49.10 48.63 49.00 48.21 47.96 48.78 47.64 47.99 48.37 47.94 47.85 48.12 47.80 47.09 46.50 46.86 47.18 48.03 48.26 47.60 47.60 47.53 49.00 50.07 50.81 51.76 51.59 51.07 50.92 51.35 49.51 48.00

GFSCGP_sfc_wetblb_108.txt.gz
Wetbulb
48.83 43.50 40.90 44.36 44.90 46.56 46.00 50.35 56.42 59.09 61.09 59.79 57.32 57.21 60.32 63.32 63.33 62.00 63.42 64.09 63.10 65.06 66.26 67.38 69.01 69.61 69.22 68.36 69.02 69.22 69.69 70.14 70.77 70.00 69.11 68.98 68.55 70.26 70.35 70.54 73.08 72.64 73.38 71.95
45.13 41.76 46.83 48.53 48.53 47.25 46.16 47.13 52.80 58.52 59.80 58.78 57.43 56.76 59.76 62.32 62.46 62.82 63.32 63.42 61.85 64.78 65.08 66.41 68.20 68.76 68.37 67.43 69.67 69.63 70.57 69.70 69.90 71.74 71.43 71.69 71.27 71.32 70.84 70.63 72.85 73.30 73.50 71.87
42.74 46.82 50.91 48.96 46.94 45.81 44.68 43.94 53.49 55.76 58.71 59.18 57.08 55.42 56.37 61.11 62.45 63.59 64.53 64.53 65.29 64.01 64.09 65.14 67.14 68.08 67.99 68.55 70.00 71.03 70.87 69.32 70.10 71.47 71.27 70.12 70.52 71.01 70.86 71.39 71.30 72.70 73.13 73.23
44.65 50.51 49.40 47.31 46.12 45.67 40.14 48.61 57.29 55.24 53.72 48.22 56.63 46.78 53.25 58.00 59.90 62.00 63.28 63.70 64.76 63.52 64.41 65.34 66.46 67.37 67.72 69.26 70.83 71.28 71.18 70.84 71.73 71.16 69.11 68.35 69.02 68.12 69.85 70.25 71.30 72.27 72.71 72.96
44.11 46.04 45.77 45.79 47.04 47.99 45.49 59.16 56.99 55.29 52.34 51.34 51.81 48.45 48.03 57.08 57.31 59.40 61.83 63.13 64.42 64.81 64.08 64.42 66.60 67.62 68.53 70.14 71.01 70.99 71.01 70.47 72.14 72.11 69.75 68.81 68.06 68.50 69.29 70.52 71.58 71.75 72.07 72.79
47.15 51.57 47.67 47.25 49.94 49.36 59.16 56.43 54.15 53.51 49.94 44.46 51.01 48.77 50.19 52.93 55.71 59.65 62.04 63.09 64.79 64.16 66.38 64.70 67.37 68.06 68.46 70.12 71.45 70.92 69.99 69.86 71.16 71.60 71.27 69.28 65.93 66.83 68.03 69.53 70.47 70.86 71.11 72.12
46.65 48.42 48.47 49.41 45.71 48.22 51.22 48.58 39.20 40.66 41.89 40.60 49.24 49.92 49.81 56.06 58.48 60.08 60.90 62.40 63.46 63.95 65.07 66.62 65.75 66.73 67.50 68.87 70.61 71.64 70.29 69.95 71.63 71.31 71.40 69.29 65.55 66.33 69.14 69.26 70.02 70.15 70.51 71.11
39.16 39.55 45.14 49.42 46.70 45.14 46.10 46.03 40.15 36.24 37.61 41.40 49.54 47.08 54.00 57.37 59.28 59.71 61.59 63.70 64.46 65.98 66.65 67.69 67.74 66.91 67.33 68.68 70.30 71.87 70.59 70.29 71.43 71.42 71.36 69.85 69.24 70.41 70.43 69.99 70.30 70.88 70.77 70.37
39.05 41.74 49.82 51.34 50.87 49.56 45.29 45.62 47.28 43.04 43.87 42.62 49.16 53.63 57.16 58.72 58.29 60.95 61.20 63.28 63.23 64.56 66.71 67.17 68.53 69.03 67.62 67.75 69.44 70.89 71.51 70.77 70.59 72.14 71.65 70.62 70.23 69.17 67.14 68.55 70.87 71.62 70.64 70.69
43.50 39.00 44.72 50.46 51.01 50.89 49.08 49.92 43.56 42.84 36.25 36.36 45.42 49.59 50.35 55.11 57.18 58.91 58.91 60.14 62.30 64.45 66.05 67.02 67.90 67.85 68.77 68.89 70.27 70.79 70.29 68.42 67.20 68.14 69.56 71.91 70.93 70.44 68.87 68.72 69.99 70.51 70.46 71.98
43.26 39.98 42.80 47.15 43.85 44.18 45.34 43.12 43.98 42.24 40.07 35.97 39.94 46.55 56.84 55.98 56.43 55.79 57.20 59.86 61.20 63.15 63.68 64.97 66.01 67.63 67.63 68.10 68.10 67.38 66.46 65.11 64.58 66.29 67.70 69.17 71.27 72.75 72.33 71.83 72.00 71.62 70.83 70.06
43.45 39.11 36.69 41.35 48.35 48.04 46.07 43.26 41.96 39.01 39.27 41.46 43.23 48.10 56.57 56.22 56.24 56.76 57.29 58.91 61.77 62.81 63.30 63.66 64.69 65.57 66.30 66.82 67.00 67.04 66.19 66.53 66.93 68.05 68.69 69.66 70.89 72.12 72.36 72.40 71.83 71.46 70.64 70.21
43.08 36.98 34.59 38.38 41.98 47.01 42.24 44.35 41.96 40.36 39.57 42.00 40.86 47.41 56.84 55.37 54.84 56.32 56.95 59.11 60.34 61.35 61.31 62.16 62.95 63.54 64.96 65.26 66.65 66.23 66.82 66.95 68.44 68.75 68.48 69.14 69.61 71.34 72.37 71.86 72.57 71.56 70.66 70.37
49.10 36.89 37.41 34.06 37.72 42.30 41.62 43.16 43.54 39.87 39.32 43.98 45.59 50.03 53.15 53.61 53.12 54.81 56.44 58.64 59.87 60.41 60.15 59.71 60.22 61.42 63.29 64.90 65.09 65.41 66.14 67.11 67.87 67.58 68.12 67.96 67.87 68.62 69.88 70.93 71.58 72.36 72.12 70.38
43.50 38.43 39.44 43.18 44.12 44.64 44.16 43.19 43.70 43.78 43.39 40.28 48.44 49.10 52.26 53.44 53.49 54.81 56.62 57.80 58.30 59.12 59.74 59.25 58.35 59.29 60.65 61.59 61.48 63.33 63.67 65.07 64.88 65.61 66.50 67.44 67.51 68.03 68.48 68.39 68.53 71.53 72.16 72.99
41.73 40.06 42.07 41.20 45.42 44.28 41.81 43.44 45.21 51.17 50.88 49.92 49.86 49.69 54.41 56.07 56.19 55.36 55.64 56.83 56.61 57.78 58.56 59.90 60.62 59.83 59.36 59.93 60.58 60.95 61.37 61.66 62.86 64.04 65.35 65.98 65.98 66.34 67.22 67.49 68.21 68.33 68.71 71.07
40.23 39.28 38.48 36.51 42.20 41.20 36.65 41.04 41.63 45.28 51.72 51.17 47.34 50.35 54.71 54.24 54.67 54.97 54.96 54.66 54.95 56.87 56.29 55.63 55.47 56.20 56.90 60.18 60.39 60.34 61.14 61.66 61.54 61.49 61.52 62.89 64.20 63.70 64.59 66.14 66.77 67.15 67.04 68.01
39.04 38.04 38.93 36.57 39.68 31.94 41.46 44.90 45.37 47.59 53.05 52.61 52.16 53.34 54.44 55.09 56.07 56.29 56.46 54.79 53.60 52.44 53.52 52.92 52.13 53.37 55.05 56.45 58.42 62.31 62.05 60.32 59.27 58.56 58.64 60.41 62.27 62.90 63.31 64.17 63.90 65.20 66.75 67.28
40.04 36.89 34.12 32.35 34.61 38.75 43.80 45.81 44.35 47.78 48.89 53.88 53.13 53.99 54.68 55.19 55.56 53.81 54.61 53.49 51.64 49.58 50.78 51.14 51.75 51.30 52.52 54.26 55.32 56.56 56.19 56.68 56.51 56.43 56.47 57.81 58.91 58.77 60.38 61.46 62.95 63.92 64.67 65.60
38.77 37.31 36.00 33.43 31.79 32.04 41.09 47.13 50.02 49.71 41.83 53.88 55.09 54.19 53.62 53.38 47.11 48.63 52.17 51.70 50.29 50.94 51.22 50.62 50.94 51.18 51.86 52.16 53.17 52.71 51.93 52.24 52.61 53.57 54.51 55.38 55.97 56.60 56.70 57.67 60.62 62.29 61.83 62.29
33.14 32.61 31.61 31.62 31.47 38.34 44.98 49.40 50.28 39.14 39.25 52.81 55.34 54.69 53.59 50.59 49.12 50.67 50.38 49.69 50.58 50.99 50.47 50.23 50.38 50.18 50.41 51.09 51.63 50.28 50.56 50.64 52.09 53.13 53.63 54.06 53.98 54.07 54.99 55.51 56.77 58.03 59.99 62.11
35.92 30.10 29.58 30.95 29.64 30.68 48.44 48.08 42.92 45.28 48.85 51.26 51.38 49.27 49.13 49.00 48.94 48.76 48.73 48.39 48.85 49.48 49.52 49.70 49.33 49.09 49.97 50.85 50.58 48.66 48.66 49.95 50.51 50.82 51.13 51.33 51.72 54.00 55.19 54.02 55.08 55.44 55.81 57.72
33.20 38.24 36.27 36.99 37.08 43.77 46.28 46.92 48.82 50.01 48.96 49.19 48.74 49.68 49.86 49.16 49.00 48.89 47.55 47.23 47.97 48.55 47.80 48.75 48.50 47.79 48.38 48.68 48.28 47.51 47.58 49.04 49.09 49.05 48.84 49.34 50.32 50.84 51.32 50.94 52.26 52.91 53.59 54.05
40.58 41.52 39.20 39.48 43.03 44.55 45.84 47.40 48.61 49.84 49.95 50.13 50.22 50.64 50.71 49.32 50.04 48.60 48.49 47.91 48.10 46.94 46.91 47.01 46.95 46.57 46.18 46.32 47.46 47.21 47.17 48.29 47.51 46.96 47.46 48.59 48.93 49.89 49.93 50.11 50.88 50.45 50.62 51.03
42.79 42.19 38.01 38.31 41.62 44.35 46.69 46.55 47.84 48.65 49.37 49.69 50.52 49.98 48.95 49.15 48.08 48.72 46.92 45.73 47.03 46.82 46.03 47.34 46.45 45.44 44.92 45.60 46.50 46.70 46.16 45.90 45.98 46.18 47.02 47.14 48.61 48.16 49.20 49.62 49.02 49.66 50.05 50.04
41.26 39.82 37.44 37.30 42.96 42.82 45.18 46.42 48.41 47.32 47.63 47.80 47.58 46.37 48.02 47.67 47.34 46.84 45.43 46.33 47.04 46.42 47.06 45.74 44.77 44.46 44.16 44.82 45.05 45.26 45.53 45.51 44.08 43.55 44.47 45.05 45.56 46.82 48.10 48.24 48.89 49.08 47.33 47.07

GFSCGP_sfc_wetblb_111.txt.gz
Wetbulb
47.89 42.69 40.09 43.51 44.63 45.39 44.41 43.59 50.50 58.00 60.73 59.41 57.58 56.89 60.07 62.41 63.05 62.74 63.03 63.65 64.00 64.85 67.41 68.66 69.03 70.46 69.51 69.02 68.55 68.95 68.84 69.01 69.73 68.70 67.19 67.17 66.95 68.54 69.96 70.56 71.68 72.20 72.57 71.34
44.27 40.31 45.74 47.64 47.22 46.01 44.64 43.69 52.31 57.65 59.35 58.84 57.44 57.34 59.64 61.51 61.61 62.63 62.33 63.25 63.22 64.88 66.07 67.31 68.15 69.26 68.03 67.95 68.82 68.39 69.02 69.26 69.67 70.33 70.32 69.82 69.35 70.23 69.89 70.26 71.80 71.98 72.53 70.88
42.21 45.55 49.40 47.62 45.43 45.01 41.66 43.50 47.50 54.85 58.39 59.41 57.63 55.33 57.44 60.68 62.33 62.65 63.06 64.57 64.53 63.70 64.06 65.94 67.07 67.80 67.12 67.10 68.21 68.38 69.18 69.18 69.66 71.39 70.57 69.74 70.48 70.50 70.07 69.68 70.74 71.50 72.57 71.57
43.94 48.63 48.31 45.48 44.94 45.06 37.14 46.40 49.45 56.05 52.44 48.50 56.22 46.65 54.77 57.35 58.84 60.40 61.72 62.61 63.18 63.02 64.17 65.95 66.51 66.57 66.26 67.63 69.17 69.32 69.46 68.29 69.87 70.87 69.42 68.54 68.56 67.31 69.04 69.40 70.46 71.30 72.14 72.40
42.75 44.12 44.37 44.32 45.70 46.66 43.73 51.58 48.83 54.88 50.21 49.15 51.08 48.23 47.40 56.82 56.39 58.67 60.06 61.35 64.06 63.08 63.98 65.42 66.29 66.99 67.05 69.09 69.19 70.02 69.36 69.55 70.27 69.99 69.29 68.27 68.33 68.23 69.51 70.00 70.31 70.59 71.30 71.91
45.84 49.46 47.58 46.09 47.78 47.79 57.77 54.65 52.42 50.64 48.45 42.89 48.47 49.35 48.24 53.51 55.97 58.30 60.91 62.84 64.43 64.26 64.55 64.03 66.93 67.91 67.01 69.49 69.82 70.20 69.18 69.65 70.86 70.90 69.01 68.27 67.88 67.82 67.85 68.86 69.87 69.96 70.52 71.20
44.59 46.05 48.10 48.49 43.12 47.44 54.05 45.64 40.42 41.10 40.27 40.23 46.24 49.00 49.82 55.26 58.49 60.29 60.82 62.31 64.31 64.49 63.89 66.68 64.70 66.85 66.71 68.51 69.36 69.75 68.39 68.15 70.03 70.52 69.73 68.56 67.10 67.59 68.09 69.02 69.67 69.44 69.46 70.18
37.53 38.15 44.86 47.56 45.13 42.78 49.60 45.30 40.07 35.36 37.56 39.76 47.99 45.05 50.76 57.36 59.62 60.67 62.89 63.44 64.52 64.59 65.65 66.08 65.97 66.18 67.12 68.21 69.73 69.46 68.36 67.95 69.72 69.99 70.59 69.33 67.36 66.50 68.74 69.36 69.80 70.09 70.03 70.59
36.88 39.78 48.36 48.40 48.48 48.04 44.29 43.02 45.91 40.56 39.13 41.57 46.17 52.97 56.85 58.34 58.60 59.88 61.07 62.24 63.09 65.05 66.07 66.17 67.75 67.71 66.93 67.22 69.29 70.10 69.26 68.80 69.91 70.04 70.35 69.05 67.65 69.14 69.07 69.39 69.77 70.43 70.55 70.69
41.15 37.78 43.17 48.35 49.48 48.58 46.26 47.80 40.60 38.79 34.62 35.20 43.48 46.86 50.20 53.78 55.65 58.19 58.45 60.28 61.36 63.50 66.66 66.79 67.81 68.58 68.39 67.46 68.80 71.21 70.45 69.13 68.61 69.96 70.03 70.56 69.76 69.51 67.67 68.28 69.04 70.50 70.24 70.15
41.23 39.01 42.12 45.39 42.62 41.49 44.44 41.68 40.27 40.42 37.91 36.91 38.39 44.04 55.21 55.51 55.91 56.74 58.63 60.28 61.60 63.18 64.75 65.94 67.30 68.36 67.89 67.98 68.00 68.07 66.86 66.68 66.50 67.98 68.25 68.47 69.71 70.94 69.92 68.75 69.08 69.73 69.95 70.04
41.17 37.56 36.31 40.86 46.18 46.16 43.39 41.33 40.57 38.14 37.01 42.45 41.55 46.79 56.56 57.41 57.14 57.26 57.98 60.58 62.12 63.17 63.39 65.15 65.88 67.05 66.87 67.17 66.74 65.82 65.76 65.79 66.92 67.67 67.91 68.45 68.70 69.44 70.53 71.06 72.07 71.56 70.18 70.06
40.61 35.82 34.22 38.47 41.89 43.60 41.10 41.61 38.56 38.27 41.07 40.94 40.51 46.52 56.20 56.35 56.58 57.57 57.18 60.46 60.97 61.34 61.74 62.44 64.43 65.45 65.77 66.10 65.61 66.13 67.44 67.76 67.64 68.59 68.07 67.39 67.78 69.20 70.68 71.33 71.97 71.42 70.44 69.80
47.04 35.45 36.55 33.62 35.93 39.15 39.20 42.42 40.73 38.43 40.48 42.63 45.91 50.11 52.61 53.10 53.55 55.84 58.32 59.61 59.74 59.47 60.15 60.86 61.89 63.52 65.06 65.38 64.51 65.63 67.07 68.27 67.51 67.60 67.62 67.44 67.64 68.88 68.93 70.01 70.39 71.06 70.71 69.77
41.43 36.14 36.91 41.53 42.44 42.02 41.62 42.15 42.38 39.26 41.52 41.62 47.85 49.57 52.09 53.35 54.07 56.22 58.09 58.95 58.77 58.27 58.11 59.08 59.68 60.84 62.59 63.31 64.28 65.04 65.79 66.24 67.14 66.26 67.04 67.08 67.17 67.91 67.55 67.60 67.60 68.84 70.08 71.11
39.45 35.93 38.15 38.70 45.23 42.73 40.09 42.29 43.49 49.12 50.53 49.27 50.69 49.56 54.90 55.12 55.34 56.34 57.33 58.10 58.12 58.14 58.46 58.75 59.26 59.38 59.70 61.44 62.50 62.89 63.08 63.96 65.21 64.77 64.72 65.66 64.55 66.79 66.94 66.96 66.96 67.08 67.87 68.63
39.78 36.65 35.19 32.43 42.63 41.81 36.70 40.24 40.61 48.50 50.72 50.95 47.49 51.24 54.59 53.50 53.64 54.40 55.92 56.90 57.06 56.67 56.65 54.43 54.62 56.20 59.71 60.41 61.41 61.23 61.26 61.50 60.48 59.98 60.48 61.67 62.80 62.93 64.76 65.55 65.57 65.90 66.33 67.60
38.26 36.20 34.15 32.32 37.86 32.10 41.89 45.84 46.89 50.23 51.50 51.23 51.31 53.20 54.66 53.88 54.47 54.12 56.03 56.00 54.87 54.57 53.16 52.96 54.12 55.21 57.63 59.93 58.83 59.02 58.40 57.17 56.40 55.74 56.04 56.80 58.20 60.42 62.52 62.81 62.36 63.13 64.45 64.42
38.35 35.48 32.21 30.78 31.29 38.62 43.72 45.00 43.43 43.23 47.99 53.21 52.58 53.74 54.10 55.31 55.37 53.48 55.26 54.05 53.03 51.46 50.83 50.94 52.19 54.59 55.31 55.54 55.54 54.87 54.63 54.82 54.88 54.75 54.17 54.54 55.38 56.24 57.22 58.43 61.68 62.70 63.01 63.41
36.90 35.41 34.09 31.02 29.49 30.78 39.75 46.99 49.19 48.19 40.58 52.40 54.71 53.35 52.83 52.82 46.75 47.38 51.17 52.37 51.96 51.74 51.19 50.53 52.04 52.92 52.41 51.59 52.89 52.36 52.14 52.24 52.09 52.83 52.71 53.16 54.61 54.95 55.41 55.39 57.03 59.63 61.38 62.52
30.99 31.25 29.77 29.46 29.82 37.02 45.39 48.58 50.35 38.40 38.34 53.74 55.06 54.12 52.64 50.01 48.38 48.05 50.22 50.77 50.96 50.65 50.00 49.79 50.28 50.17 49.96 50.49 50.23 48.71 48.92 48.45 50.14 50.65 51.10 51.12 51.02 51.83 52.37 52.60 53.52 54.76 55.75 57.71
32.67 29.18 28.26 28.90 28.40 29.97 46.89 47.97 42.35 45.11 46.10 51.31 53.72 53.35 49.85 49.29 49.14 47.41 47.90 48.70 48.83 48.40 49.24 49.74 48.99 48.86 48.94 48.61 48.73 46.92 46.88 48.07 49.09 49.79 49.53 49.57 49.65 51.06 51.35 50.28 51.21 51.98 52.68 53.62
32.55 36.20 35.44 34.73 34.83 42.54 44.76 46.02 48.66 49.78 48.55 50.27 49.74 50.43 50.24 49.80 48.90 47.85 46.99 47.10 47.06 47.34 47.84 48.88 48.10 46.58 46.49 47.36 47.26 45.94 46.09 47.27 47.21 47.60 47.93 48.39 49.14 49.69 49.86 48.94 48.92 49.17 49.40 50.48
39.14 39.59 38.35 38.55 41.58 43.29 44.67 46.45 48.84 48.82 48.36 50.24 50.62 50.51 51.01 49.53 49.85 49.59 48.90 48.05 47.54 47.40 46.98 46.99 46.44 45.10 44.57 45.95 46.14 45.75 46.31 46.70 46.26 45.13 45.43 46.83 46.50 47.31 48.05 48.65 48.86 48.12 48.04 47.90
40.60 40.52 36.79 37.14 40.60 42.31 44.82 45.52 47.35 49.25 49.41 49.95 50.29 50.68 50.60 50.52 49.25 48.95 48.37 47.88 47.28 47.44 47.35 46.74 45.56 44.18 44.13 44.77 44.59 44.48 44.47 45.05 43.97 43.72 44.15 44.07 45.09 45.26 45.75 46.49 46.95 47.28 46.67 46.07
39.51 38.97 36.71 36.73 41.48 40.05 41.69 44.99 47.24 48.48 48.44 48.87 48.69 47.24 48.34 49.24 46.92 47.64 47.60 48.13 47.23 47.47 47.51 45.02 44.10 43.66 43.84 44.24 43.72 43.71 44.04 43.84 42.08 41.68 42.11 42.45 42.96 43.71 44.34 44.24 44.39 46.53 46.29 45.42

GFSCGP_sfc_wetblb_114.txt.gz
Wetbulb
46.46 42.51 40.89 42.85 44.16 44.55 43.45 42.24 44.18 57.80 60.23 58.89 57.16 57.02 59.28 61.65 62.30 61.96 62.93 62.83 63.61 63.99 66.43 68.20 68.85 70.23 70.04 69.61 68.82 68.25 67.41 67.67 69.12 68.19 66.78 67.36 67.99 69.22 71.06 72.07 72.85 72.68 73.23 73.12
42.96 39.47 44.58 47.03 46.14 44.92 43.38 41.92 50.68 57.59 59.94 58.25 57.64 57.31 59.70 61.25 61.31 62.03 62.93 63.30 63.09 64.05 65.11 66.80 67.71 69.36 69.25 68.70 68.88 68.31 68.52 68.88 69.77 69.39 69.11 69.31 69.22 70.71 71.31 71.77 72.92 72.98 73.12 72.52
41.71 44.20 47.62 46.81 44.56 43.74 40.52 39.79 50.07 53.47 57.90 59.09 57.74 55.47 57.48 60.72 61.93 62.57 63.72 64.24 64.60 64.32 64.77 66.33 66.81 68.12 68.45 68.06 68.42 68.61 69.03 69.34 69.83 70.78 70.76 70.45 71.21 71.35 70.84 71.01 72.26 73.30 73.48 72.51
43.10 47.49 47.24 44.42 44.16 44.33 36.63 45.21 49.44 55.40 50.91 46.86 54.88 45.97 54.55 58.48 59.24 60.76 61.69 62.82 63.83 64.62 64.96 65.80 66.64 67.29 67.20 68.00 68.90 69.08 69.23 69.18 70.13 71.13 70.30 70.00 69.51 68.87 70.01 70.06 71.91 72.62 73.53 73.21
42.46 42.69 43.34 42.92 44.79 45.82 43.18 51.24 48.86 55.51 48.78 47.18 48.90 45.05 48.91 57.28 56.65 58.44 60.82 62.38 64.07 63.45 63.91 65.21 66.13 67.44 67.51 68.41 68.51 69.21 69.19 68.91 70.27 71.17 70.58 69.73 69.46 69.80 70.49 71.12 71.41 72.15 73.11 73.11
44.58 47.67 46.32 45.65 47.01 47.04 56.65 53.15 50.73 48.90 47.05 40.73 45.76 44.96 46.45 53.75 56.01 58.55 61.00 61.94 63.36 64.49 64.08 64.93 66.95 66.91 66.39 67.95 68.89 69.38 68.66 68.78 70.13 70.49 70.03 69.35 69.05 69.23 70.13 70.29 70.68 71.28 72.52 72.67
42.98 44.58 46.80 47.73 42.58 47.31 50.98 46.43 40.10 38.76 40.14 39.97 43.35 47.05 47.07 54.38 58.01 59.98 60.23 61.35 62.99 65.33 64.45 64.31 64.40 65.57 66.42 67.44 68.66 69.33 68.96 68.81 70.11 70.59 69.73 69.38 69.26 69.45 69.83 70.45 70.72 70.80 71.38 72.09
37.13 36.78 44.26 46.33 45.21 43.22 47.50 45.21 39.85 34.49 36.18 39.12 47.92 44.02 48.87 57.69 58.92 60.62 61.79 61.36 63.17 64.89 65.26 64.96 65.93 66.16 66.74 68.07 68.88 69.33 68.62 68.52 70.19 70.89 70.73 69.79 69.11 69.44 70.10 70.74 71.16 71.59 71.42 72.30
36.33 38.30 47.09 47.39 46.04 48.59 46.34 43.83 45.23 39.63 37.65 40.70 44.36 50.90 55.93 57.87 59.11 60.17 60.40 61.84 62.34 64.17 65.64 65.44 66.18 67.99 67.07 67.71 68.92 69.04 68.57 68.43 69.98 70.38 71.08 69.71 68.97 67.91 69.14 70.80 71.36 71.84 72.18 72.45
39.73 36.35 41.97 46.98 47.70 47.00 45.78 47.61 40.32 37.83 33.62 32.84 43.33 45.66 46.86 54.59 56.59 59.50 60.33 60.85 62.40 64.16 65.50 66.51 66.91 68.35 68.32 67.75 68.51 70.40 69.34 68.81 70.09 70.75 70.96 70.24 69.30 69.69 70.56 70.72 70.46 71.78 72.21 72.54
40.45 38.58 41.18 43.45 41.39 40.54 42.63 40.15 39.23 39.64 37.65 35.70 36.95 42.49 55.14 54.80 56.92 57.11 58.76 59.86 61.28 63.57 64.74 65.51 66.60 68.06 68.04 68.60 69.41 70.67 69.73 68.08 69.48 70.42 70.79 70.30 70.89 71.09 70.59 69.16 69.32 70.68 72.39 72.09
39.92 37.47 35.28 39.32 44.16 44.20 41.40 40.02 38.85 37.41 35.87 39.73 39.84 42.07 56.12 57.72 57.90 58.24 58.95 60.94 61.38 62.52 63.89 65.55 66.16 67.81 67.21 67.29 67.09 66.44 66.37 67.21 67.43 68.26 68.77 68.68 69.72 70.62 71.77 71.74 70.88 70.55 71.16 71.57
40.18 35.15 33.49 37.87 40.57 42.01 39.38 40.85 36.85 36.82 41.04 40.40 38.49 40.64 56.36 57.33 56.67 58.70 59.15 60.19 61.59 61.51 62.81 64.51 65.56 66.21 66.46 66.10 65.80 65.71 66.87 67.43 67.77 68.22 68.19 68.15 68.62 69.03 70.31 71.65 72.58 73.00 72.09 71.47
45.74 35.37 36.46 33.61 35.00 37.88 38.21 40.46 40.07 37.64 37.70 40.17 41.27 47.68 53.00 54.34 54.16 56.95 59.61 60.36 60.82 60.98 61.50 62.22 63.82 65.14 65.87 65.44 66.07 66.59 67.25 67.27 67.32 67.50 67.61 66.62 67.54 68.69 69.10 70.81 72.20 72.89 72.71 71.65
39.90 35.96 37.14 40.05 41.21 41.53 40.65 40.12 41.05 38.18 38.86 40.22 44.02 47.27 52.36 53.37 53.69 57.42 59.50 59.27 58.45 58.52 60.04 60.68 61.10 63.60 64.00 64.34 65.19 65.73 66.50 65.03 66.18 66.78 67.02 66.44 67.27 68.44 68.56 68.80 69.34 70.16 71.52 72.05
37.61 35.63 36.81 38.13 43.96 42.92 39.75 40.83 42.80 48.75 48.94 47.89 48.50 46.66 53.58 53.98 55.93 57.26 58.47 58.44 57.63 57.70 58.15 58.97 60.04 61.55 63.03 63.82 64.00 64.24 63.55 63.11 65.31 64.36 63.53 64.33 64.89 66.42 66.95 67.61 67.50 68.47 69.03 69.66
38.65 38.61 36.02 32.42 39.79 42.43 38.68 39.04 40.58 44.04 50.44 50.14 45.78 48.56 53.57 52.53 55.02 56.95 58.04 58.43 57.96 57.17 55.13 55.96 59.00 60.00 60.84 61.24 62.40 61.47 61.65 61.73 60.16 59.37 59.34 60.84 63.53 63.91 64.31 64.88 65.97 66.89 67.00 67.12
38.86 36.15 36.49 32.46 38.19 32.36 39.88 45.73 50.71 50.07 50.94 51.38 50.91 52.50 53.47 53.78 54.76 56.70 58.78 57.50 56.03 54.62 55.43 56.56 57.83 58.15 57.62 57.86 57.83 57.82 58.36 57.74 56.17 55.73 56.00 57.11 58.16 59.13 61.60 63.50 63.57 63.27 63.93 64.24
39.00 35.94 32.23 31.50 32.98 36.02 41.99 43.37 43.85 44.25 46.38 52.66 51.86 53.12 53.57 54.42 54.94 53.67 57.85 56.23 53.34 52.80 53.44 54.84 56.79 55.97 55.25 54.96 55.52 55.52 56.62 55.90 54.35 53.88 54.70 55.63 56.68 56.61 57.08 58.28 60.41 61.86 63.69 64.21
36.53 36.24 35.57 31.01 29.95 28.73 37.06 46.06 49.67 49.36 38.37 53.08 54.07 52.95 53.30 54.36 48.90 49.97 53.28 53.73 51.99 51.83 53.05 53.77 54.66 53.99 54.05 54.84 54.02 52.95 51.89 52.49 52.37 52.84 53.09 53.80 55.10 54.76 55.11 55.68 57.01 58.71 60.59 62.25
30.30 31.05 29.77 30.75 29.42 35.19 43.10 46.79 48.46 37.31 38.11 52.65 54.77 53.94 53.58 51.23 50.35 49.40 53.17 52.10 52.15 51.54 51.92 52.66 52.31 51.73 51.20 51.53 51.03 49.62 49.90 49.56 50.90 51.99 52.46 52.50 53.01 53.54 53.49 54.42 54.84 54.98 56.45 56.86
31.48 28.84 28.13 28.11 28.30 30.06 44.90 46.38 40.27 42.61 48.93 52.96 54.16 53.90 51.98 50.13 49.19 51.11 50.34 49.03 48.98 49.13 49.89 50.78 49.93 49.05 49.56 49.84 49.31 48.09 47.75 49.25 50.74 51.21 51.11 50.80 51.43 51.91 51.58 51.75 52.10 51.97 52.74 53.20
32.40 34.80 34.53 33.06 32.82 40.45 43.95 45.12 48.43 49.09 49.99 51.99 51.69 51.06 51.17 48.87 49.17 50.59 48.74 47.45 48.01 48.55 48.75 49.82 48.06 47.54 47.75 48.42 48.61 47.34 47.69 48.85 48.92 48.83 48.71 49.36 50.32 50.25 50.75 50.31 50.36 50.06 50.38 50.39
38.09 38.98 37.54 38.45 40.60 42.46 44.23 47.37 48.98 49.37 49.74 51.50 51.83 51.77 51.41 49.64 49.95 49.49 49.26 48.06 48.32 48.40 47.89 47.47 46.70 46.24 45.99 47.02 47.45 47.26 47.87 48.10 47.23 46.47 46.75 47.71 47.89 47.83 48.62 48.85 49.24 48.74 48.56 48.79
39.04 39.05 36.99 37.14 40.64 42.62 44.81 45.46 47.46 49.47 50.90 51.12 51.81 52.12 51.41 50.42 49.20 49.57 49.05 49.34 49.15 48.35 48.04 47.33 46.21 46.05 45.39 45.81 45.30 46.17 46.54 46.34 45.10 45.22 45.47 45.82 46.17 46.31 46.28 47.00 47.61 47.88 48.38 47.54
39.14 38.29 36.76 37.17 41.33 40.73 42.09 45.16 47.99 48.72 49.27 50.00 49.99 49.54 51.09 50.95 50.19 51.64 51.28 49.59 48.41 48.08 48.19 46.80 46.03 46.17 45.46 45.22 45.09 45.44 45.61 45.19 44.59 43.94 44.29 44.81 44.60 44.77 45.07 44.81 45.08 45.50 44.72 44.26

GFSCGP_sfc_wetblb_117.txt.gz
Wetbulb
52.54 52.76 51.70 52.61 51.17 50.93 51.32 49.35 52.10 58.89 62.26 61.08 59.50 59.84 61.80 63.98 63.40 63.12 63.55 64.06 66.56 66.99 69.62 70.82 70.80 72.24 72.75 73.41 73.45 73.70 73.44 72.70 71.09 71.85 71.64 72.40 72.85 73.95 75.05 76.65 76.16 76.61 76.66 76.77
51.16 51.18 53.00 51.64 50.81 50.18 49.39 48.48 56.22 59.35 61.46 60.82 59.76 58.89 61.80 63.53 63.31 63.98 63.13 63.15 64.67 66.97 68.06 69.96 70.67 71.79 72.37 72.96 73.33 73.29 73.27 72.97 72.00 72.08 72.27 73.10 73.77 74.33 75.21 75.72 76.22 76.71 76.61 76.41
51.19 51.94 50.53 50.33 48.98 48.90 48.63 48.46 55.51 56.35 60.00 60.89 59.72 57.74 59.33 62.56 63.48 63.74 63.77 64.41 65.05 66.16 67.27 69.13 70.19 71.51 72.27 72.46 73.00 73.30 73.35 72.35 72.73 73.88 73.07 73.83 74.23 75.27 73.95 74.41 75.22 75.96 76.77 76.17
52.46 50.93 49.58 49.30 48.63 49.59 47.92 49.88 54.51 58.00 56.03 52.00 58.28 50.14 56.53 59.69 60.96 62.01 62.58 63.34 63.74 66.08 67.87 69.10 69.84 70.92 71.76 72.55 73.37 73.48 73.52 72.48 73.83 75.06 73.27 73.62 72.22 72.08 75.08 75.71 76.02 76.69 76.88 76.66
48.61 48.66 49.04 48.33 49.31 50.61 49.01 51.52 52.64 55.87 55.37 54.06 54.84 52.60 54.63 58.78 58.64 60.32 62.60 63.75 64.41 65.37 66.35 68.37 69.68 71.07 72.13 72.59 72.75 73.13 73.74 73.84 74.20 74.94 74.85 73.67 74.83 75.85 74.41 75.25 75.95 76.67 77.10 77.00
49.66 51.55 50.73 50.59 50.90 51.41 58.00 54.74 55.73 56.13 54.52 46.78 52.19 52.47 52.51 55.94 59.34 61.47 63.61 64.61 65.08 65.10 66.30 68.21 69.94 71.02 71.33 72.50 72.57 72.95 73.32 73.84 74.43 74.60 74.77 75.23 75.14 75.28 75.74 74.66 73.95 75.62 75.37 75.75
48.95 49.45 51.67 51.35 49.47 52.78 57.06 53.67 47.65 46.57 46.48 46.07 52.38 51.38 54.36 58.57 60.55 63.14 63.36 64.17 65.62 65.18 66.88 67.50 68.42 69.63 70.56 70.99 71.86 72.47 73.36 73.33 74.22 74.55 74.52 74.43 74.51 74.89 74.56 75.40 76.49 75.99 74.36 75.59
43.50 41.44 48.94 51.49 50.97 48.72 53.41 52.30 46.53 40.96 43.51 46.80 53.05 49.68 54.32 59.61 61.45 63.41 65.28 65.63 64.88 65.73 67.25 67.79 68.42 69.82 70.15 70.14 71.75 72.36 73.07 73.49 74.16 74.33 74.98 74.96 75.13 74.00 74.35 75.24 74.61 74.81 75.42 78.18
44.62 44.79 50.75 51.21 50.92 52.89 51.39 48.86 53.03 48.86 49.14 48.42 51.53 53.81 58.59 59.65 60.66 62.19 63.90 64.37 63.73 66.00 67.05 67.03 68.69 69.48 70.38 69.82 71.26 72.40 72.83 73.34 74.24 74.27 76.00 75.50 74.63 74.01 74.17 75.23 75.89 75.46 76.72 77.19
48.42 44.26 49.33 51.08 52.29 51.58 53.41 54.44 46.91 49.20 43.43 42.16 48.36 50.52 53.39 55.86 58.64 61.50 62.49 63.31 64.23 66.03 67.02 67.50 68.54 69.79 70.71 70.35 71.84 72.84 73.45 73.39 73.99 74.85 75.27 76.00 74.66 74.42 73.81 74.28 75.14 75.91 76.39 76.62
48.87 47.99 47.95 49.89 49.41 48.68 49.67 49.66 49.53 50.39 48.61 44.82 44.74 49.95 58.33 58.54 59.57 60.67 62.54 63.68 64.45 65.44 66.31 67.75 67.77 70.20 71.08 71.44 71.22 72.91 73.18 73.19 73.42 74.45 75.36 75.26 74.76 74.25 74.63 74.31 74.74 75.29 76.01 76.35
48.32 48.94 46.48 47.21 49.99 49.41 49.35 48.65 50.05 47.22 45.39 49.33 49.55 49.49 58.54 59.84 60.84 61.53 61.72 63.48 65.40 66.14 67.14 67.87 68.04 68.96 69.48 70.33 71.15 72.10 73.52 73.54 73.90 74.35 74.68 74.51 74.52 75.16 74.97 74.49 73.81 74.63 74.94 75.92
48.73 46.37 43.13 45.07 47.74 48.83 47.07 47.33 47.45 48.25 52.22 49.33 46.07 49.21 58.31 60.74 59.99 60.08 60.21 62.53 64.32 65.51 66.56 67.54 67.36 68.23 69.20 68.58 67.83 68.39 70.06 70.88 72.34 73.10 73.25 72.72 73.16 73.48 74.31 75.26 75.96 75.51 75.68 76.16
53.03 46.15 45.71 41.63 45.03 46.48 44.58 45.68 46.82 47.55 47.73 49.35 49.65 52.03 54.99 57.21 58.71 58.71 60.45 61.93 62.30 63.48 63.77 65.07 66.54 67.63 67.14 68.03 68.25 68.36 68.71 69.41 70.59 70.80 69.13 69.99 70.99 71.41 71.20 73.33 75.71 76.31 76.80 76.07
49.47 45.51 45.67 45.63 46.22 46.06 45.33 45.51 49.73 47.01 47.92 48.94 51.78 52.93 56.14 57.48 58.12 58.88 60.92 61.55 60.92 60.78 61.87 63.15 64.15 65.66 66.19 66.41 66.75 67.07 67.43 67.88 69.27 68.73 68.61 68.54 69.73 70.40 71.51 71.34 72.84 75.46 76.41 76.23
47.14 45.20 46.33 44.83 46.61 47.01 44.30 46.49 49.25 50.50 50.71 51.56 51.83 53.31 57.99 60.54 60.27 59.07 59.56 59.44 60.32 60.29 61.17 61.30 62.26 63.86 64.79 65.58 65.86 64.87 64.74 65.41 66.77 66.02 67.26 67.25 69.29 69.40 68.55 69.41 70.86 72.28 73.57 74.43
47.43 46.96 45.23 41.94 45.20 45.99 42.90 45.71 47.57 51.24 53.41 53.35 51.06 54.05 58.14 58.06 57.83 58.38 58.78 59.76 59.71 59.78 59.47 60.40 61.40 61.91 63.84 64.60 64.57 62.92 62.32 61.38 60.93 60.63 62.88 63.90 65.86 67.55 67.71 67.95 67.87 68.75 69.73 72.55
46.51 46.25 45.87 42.98 44.75 37.39 46.22 50.89 52.13 51.78 53.54 55.44 55.60 55.93 58.18 57.91 59.29 60.06 62.34 61.60 58.94 58.35 58.91 58.66 58.01 57.85 57.85 58.46 58.91 58.94 57.43 58.04 58.19 57.97 60.14 61.00 61.86 63.94 65.44 66.95 67.34 67.83 68.36 69.39
47.97 46.81 42.18 41.30 40.53 43.19 45.88 47.47 47.54 47.28 47.69 54.50 55.52 56.79 57.80 59.33 59.16 58.60 61.43 59.07 58.28 57.87 57.88 56.90 56.39 56.25 56.79 56.87 57.36 57.04 57.23 56.08 55.94 56.14 57.58 58.99 61.72 61.76 60.41 61.08 63.10 66.00 66.61 67.13
46.18 47.69 45.56 40.84 37.44 35.32 44.67 48.80 52.18 52.14 44.73 55.68 57.24 56.92 57.69 58.42 52.57 51.56 54.95 55.22 55.01 56.61 56.26 55.09 54.86 55.61 55.20 54.70 55.18 54.84 54.86 55.16 54.45 55.35 55.40 57.37 58.24 58.52 58.50 58.95 58.94 61.48 63.74 64.48
42.79 42.96 41.03 40.93 39.40 41.38 47.46 50.89 52.12 42.97 46.18 56.03 58.17 58.36 58.56 57.64 59.52 56.54 54.36 53.39 55.28 56.23 55.34 54.14 53.88 52.42 52.65 53.53 53.33 51.37 52.02 51.85 52.49 55.22 55.19 54.63 55.78 56.00 56.76 57.71 58.98 60.21 61.02 62.20
41.96 41.53 40.82 39.35 38.36 35.65 50.13 51.10 46.18 50.94 54.08 55.98 58.43 58.96 58.85 55.72 57.83 57.13 55.90 52.23 52.93 52.89 53.68 53.43 51.35 50.76 51.59 52.03 51.79 51.42 49.86 52.31 53.04 54.01 53.45 53.14 53.41 53.77 54.95 56.81 56.68 57.93 58.49 58.03
41.71 44.53 44.27 43.31 43.81 48.44 50.66 51.14 54.68 55.19 54.90 57.08 58.86 57.78 56.25 55.84 55.57 55.74 55.40 54.75 52.03 52.24 52.82 52.84 51.35 50.85 51.03 51.66 51.57 49.42 51.00 52.23 51.66 52.27 52.15 52.90 53.22 53.05 53.51 53.82 54.18 53.69 55.80 56.30
45.31 46.00 47.29 45.92 48.29 49.63 50.93 52.93 54.72 54.79 54.77 55.96 58.33 56.51 56.40 54.41 53.58 53.58 52.68 53.49 53.84 54.53 53.73 54.00 53.33 52.25 51.82 52.72 52.94 52.42 52.35 53.02 52.94 51.60 50.99 51.38 51.56 51.52 52.37 51.91 51.64 52.21 53.30 54.04
47.53 46.66 45.86 45.69 48.02 49.46 50.66 52.12 52.51 54.80 56.13 56.67 56.60 56.14 55.79 55.13 53.58 51.95 50.62 52.55 51.64 52.86 53.35 53.73 52.98 52.37 51.49 51.99 52.22 52.44 52.11 52.38 51.00 50.07 50.93 50.34 50.27 50.36 50.31 50.12 49.85 51.00 50.16 49.80
47.93 47.35 46.68 47.31 48.97 49.57 49.75 51.69 52.85 54.35 54.97 56.14 56.07 54.84 55.50 55.67 53.11 52.82 51.15 51.41 50.60 50.44 51.26 52.54 52.87 52.24 51.29 51.24 51.14 51.60 51.84 51.98 51.18 50.01 49.58 48.97 48.87 48.85 49.24 49.44 48.67 44.87 45.08 43.76